GFSWCAN_sfc_wetblb_000.txt.gz
Wetbulb
46.92 47.12 46.46 46.70 46.90 46.29 46.54 46.76 46.97 47.08 47.63 47.93 47.92 48.17 48.01 48.25 48.21 47.01 48.42 51.68 47.06 44.73 47.68 50.23 51.42 49.52 51.02 50.76 48.04 53.01 53.91 54.58 53.28 48.20 47.92 48.08 48.46 51.01 52.50 54.23 54.03 52.08 51.67 50.10 51.68 49.32 46.64 60.89 59.56 54.74 62.31 64.82 65.56 64.68
47.15 46.96 46.14 46.27 46.06 46.04 46.47 47.10 47.47 47.54 46.92 46.91 47.54 48.06 47.99 47.79 47.82 47.26 46.73 50.73 50.35 44.34 46.57 50.44 51.21 52.24 51.07 53.23 51.65 53.68 50.60 53.42 54.68 51.35 52.00 53.11 50.96 52.71 52.39 48.56 56.63 50.51 54.69 53.42 55.19 54.61 62.53 65.40 64.34 66.16 65.99 64.75 65.63 64.63
47.49 47.08 45.96 46.39 46.15 46.39 46.03 46.35 46.27 46.64 46.78 47.18 47.14 47.23 47.14 47.18 47.21 46.33 45.48 47.65 47.16 45.75 47.97 49.79 49.58 55.24 55.90 54.95 55.33 47.70 53.11 55.19 54.05 57.95 53.39 52.75 50.51 51.33 50.23 48.67 52.19 55.71 57.57 54.84 55.24 57.77 59.88 62.61 64.62 65.33 65.67 64.65 65.28 65.18
46.04 45.73 46.01 45.85 45.77 45.79 46.40 46.22 46.20 46.34 46.38 46.48 46.79 46.63 47.03 47.04 46.88 46.48 45.26 47.58 46.60 46.27 43.11 48.77 55.40 53.56 56.30 56.23 55.77 55.39 54.11 56.23 57.39 56.01 52.46 50.46 49.03 53.54 50.00 52.09 51.73 54.13 56.06 54.21 53.59 57.81 56.57 61.41 63.73 64.71 64.56 64.92 64.23 64.15
45.69 45.54 45.95 45.69 45.66 46.15 46.33 46.23 45.97 46.00 46.13 46.39 46.57 46.83 46.77 46.76 47.09 47.57 48.58 48.76 48.46 43.99 41.80 45.64 51.29 53.89 55.17 55.51 54.53 55.27 54.89 54.71 53.44 51.36 50.94 49.50 52.41 52.19 52.98 52.40 51.55 54.99 53.56 51.96 51.57 58.88 58.49 58.65 64.45 64.65 63.43 62.74 63.29 61.97
45.18 45.64 45.31 45.61 45.82 46.05 46.11 46.14 46.20 46.36 46.33 46.58 46.76 46.85 46.75 46.70 46.88 46.78 44.57 50.17 51.95 50.25 43.43 42.87 53.21 53.16 54.89 54.34 53.65 53.62 54.43 54.06 53.27 52.01 51.47 52.65 55.30 52.67 48.00 47.56 54.29 55.66 55.68 59.80 57.58 61.41 61.42 60.78 60.65 60.56 61.79 61.38 61.60 61.45
45.39 45.23 45.33 45.60 46.39 46.02 46.51 46.79 46.77 46.73 46.83 46.95 47.25 47.58 47.26 47.03 47.46 45.33 43.25 47.71 49.94 52.05 43.77 42.74 46.74 52.62 53.56 53.23 52.87 52.24 54.53 53.06 52.68 51.81 51.13 51.52 52.77 52.83 48.60 45.90 52.74 55.46 56.99 56.89 59.07 57.77 57.87 58.01 58.13 61.57 61.28 61.61 60.58 61.75
45.11 44.84 44.91 45.61 45.91 45.85 46.22 46.60 46.80 47.33 47.31 47.50 47.80 48.23 47.64 47.67 46.47 46.33 50.46 49.16 50.71 46.92 45.45 41.33 44.95 48.89 54.64 49.94 49.12 52.69 50.65 52.16 51.81 50.62 51.63 50.12 51.88 51.65 46.81 51.26 53.21 55.10 55.31 55.82 55.69 57.65 58.57 56.23 61.88 61.89 62.15 60.98 59.19 58.97
44.84 44.73 44.64 45.47 45.64 45.98 46.02 46.40 46.66 47.49 47.70 47.78 47.58 48.12 49.75 48.67 47.45 49.76 51.71 50.63 51.75 47.45 42.49 44.54 41.96 41.87 53.38 50.43 52.16 52.09 52.77 46.95 51.52 48.02 48.40 49.61 48.38 44.55 50.03 51.89 53.07 54.31 55.04 55.36 56.86 53.93 57.18 52.76 57.79 60.98 61.03 60.31 58.76 57.92
44.59 44.93 44.65 45.15 45.40 45.56 45.86 46.17 46.51 47.37 47.15 48.10 47.92 47.20 46.53 49.88 51.69 51.05 49.08 46.38 46.50 46.22 46.22 43.40 48.49 44.75 49.58 49.29 48.35 49.90 50.53 46.31 44.24 47.85 50.60 48.09 47.05 52.72 53.24 54.54 55.69 56.05 55.89 56.46 55.53 55.31 57.71 59.17 59.46 60.06 59.36 59.37 59.06 57.82
44.40 44.65 44.87 44.96 45.18 45.25 45.52 45.97 46.56 46.92 47.42 49.04 47.43 45.31 50.48 51.47 49.47 47.44 43.34 42.24 44.53 42.39 45.25 46.66 47.44 45.12 50.85 44.92 46.57 50.67 47.51 48.13 42.96 46.45 45.46 44.42 44.52 50.59 54.86 55.80 57.86 56.79 56.50 57.22 57.93 58.73 59.89 60.57 60.64 59.62 59.33 59.19 58.75 58.37
44.40 44.74 45.06 44.96 45.03 45.03 45.09 45.75 46.31 46.57 45.68 44.64 44.25 47.79 50.66 46.60 45.31 42.12 42.23 44.28 43.06 41.18 47.03 45.08 48.20 49.98 48.97 52.01 48.23 50.30 45.95 47.25 41.17 49.79 45.57 42.65 48.96 54.57 52.86 54.29 56.04 56.39 56.53 57.27 57.88 57.94 58.59 60.18 61.37 60.54 59.86 58.50 58.04 58.82
44.71 44.61 44.98 44.66 44.43 44.45 44.81 45.33 46.19 46.17 46.74 48.75 46.29 43.11 44.42 44.08 36.38 37.46 36.06 41.19 42.48 48.40 49.16 49.77 47.23 48.65 50.34 50.11 47.04 47.65 43.90 43.09 49.98 45.43 43.60 46.65 53.96 54.04 53.95 54.06 55.69 56.65 56.15 56.80 57.38 57.83 58.58 60.73 61.67 60.57 59.03 57.53 58.34 57.70
45.09 44.63 44.56 44.43 44.04 44.34 44.69 45.73 46.35 46.28 45.61 44.39 40.58 33.23 38.24 38.02 39.68 42.88 42.98 44.83 48.27 49.82 48.17 47.18 46.59 47.39 50.75 47.32 47.82 42.08 46.70 48.16 43.22 41.35 42.99 50.28 53.88 53.92 57.94 55.50 55.80 54.69 56.58 56.08 57.08 58.42 59.97 59.97 59.92 60.09 59.33 57.77 56.71 55.82
45.37 44.44 44.35 44.40 44.75 44.82 45.40 45.88 46.19 47.10 46.00 42.16 42.68 33.97 39.99 44.87 45.40 45.53 46.12 45.95 49.00 50.56 47.46 46.40 46.81 49.22 47.54 45.74 47.06 45.00 42.82 41.42 44.12 44.09 48.81 51.81 54.05 55.09 57.41 57.67 58.25 57.55 56.02 59.49 59.49 59.78 59.60 59.30 57.90 57.02 55.07 55.55 54.24 52.98
45.42 44.27 44.51 45.63 45.40 45.26 45.67 46.10 46.91 47.46 46.77 43.04 42.08 40.78 45.00 44.59 42.87 45.12 44.97 45.54 48.58 48.46 48.87 48.97 44.18 41.47 41.35 44.93 42.73 41.51 41.91 40.12 42.03 49.53 52.57 53.28 53.24 54.73 57.55 58.73 59.24 58.97 60.28 60.58 59.70 58.35 57.15 56.20 53.97 52.82 52.92 52.10 52.55 53.37
44.38 43.95 45.80 45.35 45.00 45.03 45.47 45.38 47.79 42.79 42.24 40.63 42.17 45.59 44.06 44.62 43.68 44.35 44.98 45.59 50.03 47.33 44.28 43.25 38.05 37.95 42.70 42.26 42.80 46.56 43.86 44.89 48.29 52.04 53.50 55.03 55.27 56.61 57.66 58.02 58.20 58.30 58.21 57.49 56.86 56.19 54.38 53.06 52.47 51.01 49.71 50.46 51.46 51.65
44.26 45.50 45.00 44.94 44.99 47.70 48.21 46.17 45.01 41.93 38.26 41.37 41.23 44.50 46.26 46.87 45.47 45.95 48.14 49.08 47.74 46.52 47.35 41.60 44.35 40.46 39.71 38.87 41.08 45.14 47.58 49.08 51.38 51.49 54.20 55.62 56.63 57.24 57.96 56.26 55.76 54.99 54.96 54.47 53.29 52.06 50.85 50.28 49.50 48.94 48.87 49.37 49.73 50.06
45.88 46.16 45.09 44.60 45.62 44.48 44.14 43.45 45.28 39.14 41.08 43.97 44.77 45.59 46.64 47.69 49.46 49.70 49.88 49.99 49.95 47.82 43.78 43.63 41.65 40.78 42.81 45.81 44.89 45.77 47.08 47.99 48.58 50.96 53.48 56.27 57.01 54.78 54.26 54.81 54.32 52.81 51.14 50.78 49.51 49.12 49.42 49.82 49.43 49.73 49.96 50.40 49.52 50.76
46.28 45.49 44.78 44.16 44.49 44.94 38.75 42.35 47.01 41.30 40.09 43.43 45.85 46.09 46.47 46.31 47.46 45.55 44.86 46.11 45.62 45.08 42.05 41.52 42.99 45.32 45.22 46.89 48.24 47.93 48.93 49.87 49.83 49.70 50.94 52.78 53.53 52.14 51.31 51.20 50.72 50.81 50.44 50.41 50.36 49.15 50.70 50.99 52.11 51.68 51.55 51.94 51.88 52.55
44.44 44.80 44.48 45.86 46.29 45.12 42.84 42.77 42.67 43.79 43.86 43.19 46.71 45.65 42.79 42.33 42.39 43.11 45.39 48.08 45.67 44.54 42.98 45.97 46.02 47.09 49.17 49.09 49.36 49.40 50.43 52.38 51.21 51.12 50.75 50.27 51.98 51.41 50.82 50.80 50.75 50.30 49.10 48.99 49.18 49.52 49.74 51.54 52.84 54.41 52.86 53.32 55.44 54.42
44.80 44.95 46.51 45.07 43.60 42.82 41.93 45.29 42.65 44.59 43.07 43.81 43.45 40.49 38.40 38.99 41.53 43.24 46.20 44.11 43.84 44.30 46.51 46.22 47.08 47.68 47.23 47.23 48.42 50.93 51.49 52.53 53.00 50.77 49.43 49.59 49.30 49.29 49.59 50.55 50.61 50.35 50.94 51.19 51.43 51.54 50.89 51.94 52.49 54.42 54.48 54.56 55.04 54.54
44.71 45.91 44.96 43.75 39.31 37.56 36.07 46.51 40.24 41.40 36.98 38.45 38.61 36.80 38.60 41.03 42.72 46.51 41.65 42.68 44.45 46.44 46.47 48.50 47.52 47.81 47.46 48.63 49.35 49.68 50.69 51.33 50.70 51.06 51.33 51.17 51.42 51.54 50.77 50.55 51.09 50.58 50.07 50.97 51.78 50.10 49.63 46.71 49.96 53.39 53.33 52.75 52.43 53.95
43.81 43.09 39.09 39.95 40.39 35.87 41.62 39.27 41.42 38.85 38.01 36.13 35.68 36.73 38.13 40.68 44.33 40.21 36.66 37.97 42.40 45.35 45.60 45.66 47.52 47.12 47.86 48.27 48.17 48.58 49.67 51.20 49.99 50.08 50.54 49.70 49.00 49.49 50.08 49.38 49.74 50.71 51.66 52.37 52.80 51.75 50.85 50.06 48.06 51.13 51.53 52.50 52.54 51.92
36.06 35.71 37.81 31.71 39.31 36.17 35.12 36.67 36.46 36.28 34.49 36.64 36.91 38.35 40.28 43.20 37.85 35.37 34.26 37.36 42.25 43.37 45.04 46.26 45.76 45.83 45.85 46.83 48.46 49.65 51.21 50.54 49.29 48.66 50.21 50.72 50.16 49.97 49.56 49.74 50.32 50.73 52.29 52.27 52.12 51.82 51.79 51.24 50.81 50.82 51.80 51.63 51.14 50.68
33.35 36.64 36.24 36.17 36.69 35.52 36.29 34.29 34.29 35.50 36.61 38.71 40.32 43.62 43.66 39.37 35.89 33.22 35.84 39.27 41.94 43.71 44.85 45.76 45.55 46.03 46.69 48.02 48.39 48.56 49.88 51.99 51.16 49.58 50.39 51.45 50.92 49.81 49.04 48.66 48.76 49.93 52.60 51.44 50.97 50.24 50.41 51.09 52.13 51.28 50.11 47.46 41.96 47.04
33.53 35.50 39.88 41.87 39.68 37.64 36.05 36.97 37.24 36.06 40.02 40.22 42.12 40.72 39.19 34.62 33.58 37.67 42.37 44.47 44.43 46.69 48.42 48.55 50.35 50.11 49.76 50.59 52.12 52.67 53.17 53.22 51.92 51.73 52.53 52.85 53.35 53.63 53.14 51.60 51.01 52.72 54.68 54.26 53.62 52.79 51.65 51.28 51.13 50.19 49.77 49.95 49.44 49.19
37.33 35.99 34.14 36.93 36.42 37.55 35.95 38.15 40.28 41.00 42.99 45.39 43.44 37.90 37.29 37.36 37.61 43.49 45.24 48.47 49.02 49.51 50.12 51.28 50.60 50.74 50.63 51.49 52.33 52.19 51.95 52.67 53.61 53.54 53.01 52.48 52.86 53.26 54.05 53.80 53.43 43.80 51.22 51.21 53.54 53.27 52.35 51.65 50.80 50.24 49.78 49.39 49.80 50.56
35.27 38.29 37.18 36.66 40.01 40.51 43.22 42.00 41.95 44.05 46.32 44.64 41.45 40.89 42.68 46.62 48.43 47.92 48.79 50.73 51.81 50.46 49.80 49.13 49.41 50.79 50.75 51.19 51.51 51.38 51.39 51.02 49.42 47.78 46.86 46.42 47.22 48.66 51.39 51.84 52.09 52.21 52.52 51.90 39.60 45.62 48.96 49.45 49.72 49.84 49.86 49.93 50.86 50.92
43.01 44.30 42.91 43.03 41.45 40.59 44.12 46.62 45.74 47.99 48.93 48.39 48.65 47.81 47.64 48.28 50.88 52.53 51.54 50.95 50.31 49.67 49.99 50.56 50.79 50.16 49.29 49.26 49.18 50.06 51.45 51.73 51.40 49.79 47.86 47.59 48.85 51.18 51.84 51.56 51.52 51.45 51.59 51.10 50.39 49.46 42.27 47.49 45.94 49.13 49.08 50.86 50.72 49.65
47.03 46.09 44.22 44.11 42.74 45.16 47.43 49.25 49.89 49.85 49.55 48.27 49.12 47.20 47.17 48.75 50.18 52.93 51.73 52.04 51.77 51.77 51.36 50.68 51.04 52.00 51.49 50.94 50.10 49.36 48.76 51.30 51.72 52.01 51.93 51.90 52.14 52.24 52.37 52.60 52.76 52.79 52.65 52.27 51.82 51.50 51.35 50.48 50.70 49.98 49.61 49.22 49.17 48.04
46.03 44.84 44.03 42.67 44.10 47.49 49.32 48.46 47.97 46.96 47.17 46.47 46.49 48.65 47.78 48.35 45.95 49.58 52.63 52.50 51.65 50.87 48.61 51.51 51.26 51.59 53.32 53.50 53.32 52.72 46.64 52.14 52.36 52.66 52.80 52.92 53.09 53.46 53.92 53.74 53.41 53.45 52.60 51.72 51.56 51.33 51.26 50.90 50.45 50.36 49.77 49.68 49.50 49.46
47.02 46.94 46.62 45.71 45.11 45.44 47.92 47.26 46.30 45.87 46.35 46.04 46.10 47.40 47.55 47.69 45.95 50.59 53.92 54.64 53.38 52.21 52.17 53.26 53.72 54.21 54.75 54.64 54.21 52.71 50.57 53.01 48.39 41.55 42.99 41.37 39.36 42.91 49.98 52.30 52.35 52.08 51.52 51.42 51.65 51.36 51.00 50.63 50.06 49.84 49.43 49.65 49.40 48.54

GFSWCAN_sfc_wetblb_003.txt.gz
Wetbulb
47.27 46.98 46.95 46.35 46.52 46.34 46.43 47.02 47.68 47.67 47.30 47.10 47.22 47.64 47.69 47.62 47.55 45.12 43.82 49.75 44.21 39.97 42.04 45.78 47.15 45.53 46.01 47.61 46.27 49.73 50.25 49.99 50.16 44.48 43.63 43.65 42.92 45.41 45.93 48.63 48.06 45.47 43.06 42.72 45.31 42.79 40.87 63.00 60.69 55.08 58.87 61.81 61.75 62.43
47.19 47.68 47.49 46.40 46.66 46.60 46.61 46.44 46.44 46.60 46.91 47.02 47.43 47.23 47.31 46.98 46.71 46.24 42.35 46.92 46.84 40.53 41.00 46.08 46.49 47.93 48.03 48.60 44.95 51.11 49.08 49.09 52.42 48.82 47.94 48.04 45.72 48.89 48.88 44.33 54.65 47.85 50.88 49.39 49.27 49.68 57.80 60.11 61.15 62.92 63.84 61.27 61.24 60.64
47.10 46.49 46.19 46.15 46.22 46.03 46.03 46.66 46.82 46.33 46.47 46.69 46.81 46.62 46.74 46.85 46.50 45.62 42.37 44.01 44.47 41.44 43.42 44.30 45.49 51.10 51.81 50.87 50.70 43.82 51.52 53.03 52.79 53.94 50.36 48.85 47.88 48.32 46.06 47.17 50.05 51.49 55.43 51.90 51.80 54.77 56.78 58.46 59.89 61.14 62.91 62.26 62.31 61.90
46.68 46.53 45.87 46.35 46.02 45.79 46.38 46.67 46.32 46.22 46.31 46.46 46.77 46.79 46.54 46.57 46.40 46.22 42.37 45.63 44.51 41.95 38.70 45.51 53.61 52.36 55.09 53.80 53.10 52.26 52.00 52.37 53.02 53.16 49.23 46.82 45.98 50.49 47.29 50.07 47.80 51.12 54.23 50.95 52.20 55.07 55.80 57.03 59.83 60.44 60.84 61.96 61.41 61.36
46.83 45.90 45.96 45.83 45.73 46.00 46.24 46.30 46.41 46.72 46.90 46.92 46.90 47.14 46.70 46.51 46.21 45.97 45.66 46.59 47.64 41.15 37.20 40.21 46.56 50.89 52.41 53.58 52.55 52.64 51.96 51.10 49.81 48.37 46.79 46.38 50.85 49.51 49.64 48.78 47.43 51.51 51.88 49.88 48.43 56.28 53.60 56.86 58.80 60.83 58.97 59.54 59.61 59.18
46.83 45.75 45.89 45.69 46.15 46.41 46.59 46.77 47.05 47.22 47.25 47.36 47.27 46.92 47.11 47.18 46.51 44.54 44.08 48.83 49.27 47.41 40.44 37.32 48.31 50.36 53.11 53.13 51.54 50.98 51.30 51.25 50.43 48.12 47.62 49.64 53.94 49.52 44.69 43.59 52.76 55.82 57.19 56.78 53.73 57.81 59.00 59.17 59.62 60.77 59.15 59.74 60.13 59.49
46.16 45.68 45.51 45.30 45.97 46.50 46.20 46.57 46.69 47.04 47.22 47.52 47.98 48.15 48.45 47.92 45.82 44.09 43.60 47.60 49.23 50.17 41.31 38.32 42.94 51.64 53.08 52.41 50.58 49.79 51.04 49.83 49.81 48.29 47.34 48.35 48.88 50.18 45.97 41.86 50.07 52.04 55.37 57.12 56.61 54.92 54.85 57.39 56.18 60.00 59.52 60.17 59.38 59.39
45.74 45.43 45.24 45.10 45.65 46.16 46.19 46.58 46.68 47.06 47.28 47.59 48.10 48.07 48.95 48.17 46.26 44.53 49.59 49.13 48.66 45.97 43.99 38.52 42.58 47.06 52.45 48.22 47.59 50.66 47.82 49.55 49.28 48.00 48.59 47.17 48.40 48.94 42.98 48.16 50.07 53.43 54.70 54.36 55.05 56.53 56.08 55.10 56.99 59.40 59.05 58.74 57.14 56.17
45.34 45.19 45.29 44.96 45.70 45.82 46.01 46.37 46.59 47.45 47.80 47.74 47.55 48.54 48.45 47.34 46.70 49.04 51.16 50.99 50.11 46.78 41.15 42.96 40.33 40.35 51.69 49.36 50.65 50.89 51.26 44.58 49.83 45.84 46.00 47.17 45.22 43.52 47.07 48.35 50.45 51.81 50.98 53.01 54.51 56.99 56.66 54.31 56.17 57.55 57.70 57.03 55.70 55.28
45.38 45.10 45.41 45.12 45.37 45.75 45.91 46.13 46.55 47.20 47.23 47.88 46.14 45.61 44.57 51.47 53.01 52.02 47.39 45.41 45.48 45.03 44.63 40.50 45.72 42.07 47.95 47.12 47.36 48.10 49.28 45.53 41.97 45.37 48.24 44.06 42.73 47.70 50.46 51.59 52.58 53.23 53.63 54.54 52.14 52.82 53.37 51.91 53.28 54.89 56.30 57.86 56.27 56.02
45.43 45.00 45.15 45.18 45.29 45.53 45.74 45.98 46.34 47.05 48.31 46.71 44.88 43.86 48.84 52.59 48.64 46.56 43.37 41.75 44.37 41.23 44.52 44.66 45.59 43.95 50.28 44.54 44.65 48.41 44.95 46.59 40.85 43.70 43.46 42.42 41.81 46.39 50.22 51.57 52.79 54.83 54.97 54.48 54.95 54.78 57.28 54.23 52.98 53.07 56.21 57.41 56.76 56.59
45.57 45.00 44.96 45.52 45.39 45.31 45.36 45.55 46.29 45.28 43.84 42.75 42.88 45.42 47.56 46.68 45.13 41.59 41.57 43.89 42.41 41.40 45.85 44.46 46.93 48.97 48.92 51.32 46.59 47.82 44.25 45.03 39.71 48.41 44.91 40.69 45.85 49.71 52.10 51.75 52.85 54.77 54.81 54.58 55.65 54.05 57.61 56.45 56.89 56.23 57.93 56.66 56.20 56.83
45.76 45.21 45.14 45.49 45.29 45.03 44.89 45.38 46.08 46.80 46.63 47.40 44.38 43.03 43.03 44.14 34.52 37.01 36.19 40.20 42.32 47.68 48.99 47.73 46.71 49.37 50.59 49.83 45.99 46.17 42.68 41.26 48.69 43.57 42.22 45.54 49.70 52.38 53.21 55.57 54.41 53.94 55.47 55.17 54.57 55.01 54.39 59.20 59.48 58.43 57.15 56.06 56.55 55.69
45.85 45.37 45.04 45.17 45.23 44.79 45.08 45.74 46.56 46.05 44.04 42.53 40.79 31.44 36.80 36.70 38.23 40.82 41.90 42.76 46.48 46.58 47.46 46.56 45.55 47.59 49.26 46.84 47.03 40.80 45.01 46.37 41.67 40.22 41.67 47.73 50.61 52.55 53.54 54.96 56.09 54.86 53.73 53.46 53.28 53.94 55.92 57.89 58.04 57.81 57.46 56.89 55.01 52.41
46.26 45.65 45.25 44.82 45.07 45.27 45.79 46.31 46.77 45.52 43.81 41.91 41.76 33.74 37.78 42.75 45.22 45.04 46.15 45.97 48.30 47.71 46.89 45.87 46.55 48.64 46.61 44.82 46.15 44.09 41.23 39.87 41.67 40.83 45.76 50.19 52.26 51.22 52.23 53.63 54.43 53.25 56.24 55.48 53.26 57.68 57.70 57.63 57.14 56.93 56.27 55.38 54.27 52.25
46.41 45.27 44.41 45.58 45.54 46.44 46.63 46.14 45.64 45.77 45.51 42.45 41.62 39.15 43.63 43.20 42.80 44.62 45.29 44.75 48.16 47.22 47.57 49.20 43.42 40.11 40.27 42.48 41.82 40.69 40.67 39.10 41.14 46.07 49.06 51.64 51.83 52.75 53.20 54.93 53.69 50.76 51.74 57.38 57.10 56.72 56.08 54.48 53.73 52.72 53.03 52.53 53.17 52.38
45.92 43.31 47.63 47.11 45.52 46.41 46.62 43.79 46.67 43.66 41.02 39.91 39.94 45.25 43.58 44.43 44.04 44.00 45.50 46.03 50.04 46.13 44.19 43.88 37.87 37.18 41.68 40.06 41.18 45.20 41.79 43.84 46.41 48.15 50.94 52.07 52.10 52.87 54.00 55.12 55.58 55.68 55.36 54.83 54.71 53.98 52.91 52.53 52.32 51.50 50.56 51.74 51.90 52.29
43.56 45.70 45.89 45.45 44.94 46.61 46.36 44.73 43.89 41.29 37.88 40.36 38.90 42.91 45.37 46.69 46.25 46.78 47.90 48.99 47.57 47.37 46.44 42.15 43.65 39.43 38.79 38.69 41.17 44.26 45.23 47.00 48.31 48.61 49.35 51.37 52.76 54.69 55.26 54.50 54.51 54.20 53.58 53.06 52.21 52.36 52.11 51.13 49.60 49.52 49.74 50.17 50.23 50.62
45.62 46.35 46.09 45.17 45.23 43.67 43.67 43.30 44.74 38.06 40.24 42.97 44.48 45.84 46.43 47.24 48.25 47.91 47.36 48.71 49.62 47.95 45.92 43.66 41.12 39.82 41.63 44.76 43.44 44.29 45.87 46.50 46.25 47.52 49.20 51.65 54.64 54.21 53.38 52.53 51.82 51.66 51.29 50.62 50.16 49.32 49.72 49.82 49.72 50.19 50.43 50.36 49.47 50.15
47.43 46.65 45.61 44.83 44.34 44.04 39.88 42.02 47.42 40.27 38.71 43.24 46.22 45.13 45.75 44.81 45.41 45.36 44.52 45.84 45.97 44.44 41.20 40.40 41.80 43.51 43.27 44.76 47.06 47.16 47.20 47.88 47.61 46.80 48.82 50.49 51.01 51.01 50.37 49.94 49.55 49.84 49.76 49.41 49.36 48.26 49.70 49.78 50.64 50.61 50.48 50.29 50.18 50.46
44.62 45.14 44.99 44.95 45.08 44.52 42.20 41.73 42.08 43.39 43.30 42.10 44.87 42.55 41.65 41.97 41.80 42.74 44.35 47.20 45.21 42.91 41.52 44.48 43.87 45.76 48.35 48.37 48.30 48.21 48.32 50.75 51.13 50.58 48.83 47.96 49.93 49.74 49.31 49.67 49.90 49.83 49.33 49.45 49.14 48.86 49.13 49.63 50.56 51.30 51.12 51.62 52.48 52.17
44.98 45.32 45.54 46.15 42.91 42.89 41.32 44.95 42.42 44.41 42.24 42.53 40.83 40.26 38.30 38.71 40.67 42.49 44.96 42.01 41.92 41.70 44.13 44.32 46.51 46.57 46.11 46.58 48.12 50.00 51.94 51.67 50.83 49.46 48.46 48.47 48.26 48.64 48.64 49.43 49.36 49.45 50.10 50.48 50.40 49.71 49.91 50.98 52.34 52.46 51.95 52.32 51.38 52.27
45.12 46.29 44.79 43.33 39.15 35.86 34.69 45.19 40.13 41.27 37.24 37.77 38.30 36.93 38.49 40.21 42.04 45.14 38.90 39.26 40.94 44.69 46.02 46.98 47.42 48.23 47.47 48.97 50.13 50.37 51.52 51.44 50.08 50.28 50.34 50.05 50.36 50.75 50.84 51.21 51.27 49.91 48.57 48.68 49.29 49.10 49.33 47.80 49.45 52.06 52.31 52.15 51.45 51.24
44.19 42.37 39.86 39.61 38.87 35.36 41.22 39.44 40.87 38.30 36.95 35.91 35.59 36.46 38.08 40.00 41.87 36.72 33.96 36.20 40.16 45.27 46.08 46.06 46.46 47.40 48.46 48.80 48.26 49.04 50.11 50.80 49.94 50.23 50.64 49.45 48.03 48.18 49.69 50.23 50.95 51.55 50.40 49.85 49.97 49.67 49.95 50.43 48.68 50.27 50.28 49.69 49.51 49.18
35.06 33.91 37.21 31.40 39.34 37.16 35.95 36.04 35.95 35.38 33.48 36.42 37.06 37.62 38.93 41.19 35.00 33.61 32.93 35.83 40.74 43.56 44.85 46.12 47.31 47.85 47.29 47.94 49.02 49.77 51.30 50.69 49.26 48.59 49.97 50.04 49.43 49.36 49.15 49.85 50.23 50.89 52.53 51.13 50.33 50.54 50.77 50.74 50.28 49.59 48.53 47.78 47.73 47.61
32.46 37.60 35.62 36.07 36.77 34.89 35.51 33.64 33.66 35.36 36.98 39.02 40.28 42.16 41.74 37.60 34.35 32.39 34.82 38.59 41.10 44.12 46.07 46.82 46.64 47.27 47.16 48.37 48.14 48.86 50.00 51.59 50.73 49.34 50.17 51.18 50.54 49.38 48.85 48.45 48.53 49.35 51.57 52.50 52.00 50.91 50.92 51.04 49.94 49.37 48.10 45.73 41.88 46.42
33.91 35.72 39.51 40.49 38.90 37.58 35.15 36.46 37.23 36.09 38.05 39.67 40.37 39.51 37.42 33.28 33.12 37.46 42.17 44.30 44.55 47.86 50.87 50.56 50.73 49.55 48.93 49.15 50.22 50.87 51.49 52.15 51.36 50.96 51.89 52.30 52.83 53.82 53.03 51.25 50.61 52.05 53.70 54.28 53.10 52.41 50.98 50.64 49.46 48.57 47.61 47.87 47.60 47.46
36.88 35.76 33.49 36.25 36.17 37.16 35.72 38.12 40.37 41.14 42.31 43.76 41.71 37.84 36.33 35.92 36.98 42.84 45.57 48.78 49.10 49.52 50.23 51.53 50.34 51.03 50.94 51.02 52.05 52.78 53.32 53.64 53.48 53.63 53.47 52.92 52.90 53.32 52.94 51.87 50.63 43.55 48.18 50.45 53.27 52.67 51.67 50.45 49.30 48.92 48.75 47.87 47.73 48.32
34.50 37.61 36.79 36.80 40.32 40.24 42.66 42.18 41.23 43.17 45.75 43.56 40.16 39.37 40.92 44.38 46.22 46.58 48.51 49.87 51.91 51.75 50.18 48.58 49.41 50.56 50.77 51.06 51.05 50.84 50.67 50.05 48.56 46.16 45.50 45.17 46.62 48.63 51.54 51.58 51.71 51.61 49.18 46.89 40.35 44.49 47.76 47.57 48.56 48.44 49.68 48.86 49.53 49.71
42.45 42.63 41.93 43.13 41.56 40.48 44.22 46.25 44.90 47.34 48.52 48.13 48.49 47.89 47.40 48.43 50.15 52.07 51.32 51.13 50.72 50.25 50.56 50.13 49.42 49.10 48.38 48.34 48.10 49.13 50.40 50.99 50.42 48.94 46.80 46.41 47.49 49.88 50.44 50.31 50.05 49.76 49.21 49.05 48.48 47.48 41.57 44.91 45.79 46.41 46.85 48.66 48.61 47.78
47.65 46.81 44.35 43.93 42.86 45.38 47.50 49.22 49.81 49.66 49.21 48.52 49.26 46.95 46.62 49.24 50.98 52.56 52.49 52.61 52.09 51.57 50.99 50.40 50.48 51.41 50.52 50.15 49.42 48.62 48.27 51.26 52.00 52.03 51.51 51.09 51.22 51.71 51.74 51.89 52.08 52.06 51.71 51.32 50.55 50.12 49.65 48.65 49.49 49.81 49.15 49.00 48.85 47.69
46.45 45.45 44.34 42.31 43.58 47.44 49.22 47.38 46.89 46.68 47.10 47.04 46.08 48.02 48.38 47.48 45.88 49.59 53.08 52.96 51.61 50.59 48.67 51.22 51.30 50.69 52.05 52.05 51.29 50.25 45.65 50.97 51.30 50.92 51.13 50.60 50.79 51.15 51.71 51.79 51.83 51.65 51.10 50.71 51.01 50.20 49.98 49.34 49.05 49.04 48.39 48.02 47.56 45.99
46.60 46.59 46.76 44.82 44.22 45.19 46.82 47.41 46.10 45.26 46.18 45.73 46.29 47.78 47.91 47.23 45.36 50.70 54.32 55.12 53.58 52.53 52.56 53.44 53.59 54.31 55.75 54.04 52.84 51.32 49.10 51.33 46.50 40.82 40.74 40.97 39.90 42.39 50.02 50.53 50.75 51.36 51.11 50.97 50.84 50.61 50.22 49.56 48.45 47.45 45.87 44.76 43.73 42.45

GFSWCAN_sfc_wetblb_006.txt.gz
Wetbulb
47.84 47.68 47.82 47.56 46.97 46.95 46.84 46.89 46.72 46.76 47.06 47.23 46.98 47.02 47.38 47.29 47.11 42.12 38.58 40.48 38.53 33.80 35.81 40.21 42.71 40.42 40.76 40.82 39.85 42.99 45.42 45.77 46.94 42.02 38.69 38.61 38.78 40.72 39.95 43.96 43.03 40.29 38.38 39.71 41.92 39.80 39.55 58.28 59.58 52.91 54.93 59.58 59.35 58.81
47.08 47.49 46.85 46.89 46.38 46.80 46.36 46.33 46.85 46.53 46.57 46.56 46.76 46.86 46.64 46.62 46.62 45.28 36.14 41.25 41.26 35.62 35.22 40.18 42.30 44.06 43.57 44.02 40.15 42.26 44.67 44.20 49.50 43.49 44.06 43.08 43.73 43.75 42.95 41.54 48.70 43.52 46.28 44.99 44.52 44.00 55.60 57.27 58.70 59.75 61.89 59.23 59.34 58.55
47.58 46.55 46.61 46.15 46.45 46.35 46.02 46.92 46.97 46.58 46.48 46.29 46.22 46.51 46.58 46.39 46.06 45.15 38.30 38.27 37.88 35.27 36.78 36.35 39.32 44.91 45.07 45.20 45.93 38.45 49.56 51.12 49.94 48.37 45.06 43.91 42.23 44.40 41.21 43.71 44.89 48.84 51.29 47.72 48.24 51.83 54.30 57.36 58.16 60.68 61.05 60.36 60.83 60.86
47.55 47.02 46.71 45.82 46.47 46.10 46.33 46.54 46.64 46.91 47.15 46.90 46.76 46.89 46.66 46.51 46.18 45.77 41.12 39.13 38.48 36.03 32.23 37.05 46.70 43.22 47.67 46.12 46.35 45.19 48.60 50.74 49.97 50.40 44.98 42.55 41.89 45.82 43.03 45.64 44.61 47.60 50.19 47.95 48.91 51.61 54.40 56.60 58.77 55.95 59.01 60.93 60.93 60.34
47.07 46.94 46.37 46.08 46.09 46.36 46.41 47.04 47.01 47.38 47.41 47.13 47.31 47.40 47.21 47.04 47.06 44.55 40.22 40.92 40.66 36.80 32.15 34.79 41.64 44.55 45.77 46.20 46.68 46.56 45.23 45.43 45.73 45.45 44.67 40.85 46.98 45.45 44.67 44.24 44.52 47.35 47.27 46.58 46.52 53.08 52.41 53.65 56.84 59.53 58.47 58.38 58.88 58.46
47.03 47.11 46.39 46.12 45.87 46.33 46.87 46.53 46.65 47.04 47.17 47.33 47.40 47.58 47.58 47.78 46.86 39.93 37.96 42.93 43.03 44.78 38.86 32.15 40.36 42.62 46.23 46.58 46.66 45.13 45.47 45.09 45.35 44.62 46.08 47.55 49.76 46.66 40.11 41.49 49.72 52.92 53.60 53.56 52.01 57.35 56.94 58.40 58.94 60.10 58.94 58.38 58.84 58.31
46.67 46.64 46.05 45.81 45.56 45.89 46.63 46.47 46.82 46.95 47.05 47.18 47.64 47.99 48.16 48.53 42.07 38.65 39.84 43.98 46.72 45.58 40.36 34.71 34.97 43.61 49.05 46.17 44.25 43.74 44.89 44.47 44.77 44.78 44.17 45.13 47.20 46.11 41.30 38.20 46.08 51.02 52.49 53.61 54.40 55.31 54.18 56.71 55.93 58.98 58.35 58.33 57.50 57.26
46.34 46.15 45.66 45.59 45.24 45.63 46.33 46.31 46.52 46.59 46.90 47.22 47.71 48.04 48.25 49.01 45.61 39.13 42.82 47.68 45.35 43.65 42.75 34.74 35.96 41.93 48.78 45.96 44.67 43.67 41.99 44.30 44.05 44.98 45.37 44.08 44.05 43.82 39.21 43.22 45.82 49.26 53.82 54.13 54.05 54.82 53.59 53.56 57.06 57.60 56.99 57.14 55.73 55.17
46.48 45.77 45.43 45.45 45.40 45.46 46.09 46.29 46.38 46.67 47.35 47.11 47.60 48.23 45.12 42.10 39.89 43.66 51.65 49.84 43.55 42.60 40.07 39.60 35.97 37.33 47.40 46.07 46.35 46.22 44.89 39.41 43.45 40.54 42.70 42.97 39.73 38.56 42.66 43.96 45.31 48.42 48.34 49.46 51.47 53.14 55.08 52.76 53.44 55.85 55.80 55.57 54.42 53.95
46.71 45.68 45.34 45.18 45.54 45.42 45.85 46.19 46.30 46.88 47.16 47.81 44.00 42.66 43.58 45.14 53.30 49.97 44.33 43.19 44.26 42.50 42.72 35.33 38.12 36.35 41.90 41.08 40.46 41.75 43.60 41.41 37.12 40.98 42.43 39.53 38.38 42.04 45.43 46.37 47.32 48.08 49.38 50.02 50.02 50.01 51.02 51.35 54.16 54.64 54.85 55.10 55.53 55.07
46.84 45.98 45.49 45.19 45.46 45.59 45.83 46.02 46.01 46.76 46.59 41.77 40.60 42.76 43.74 52.82 43.91 43.84 39.79 38.95 37.98 40.17 39.32 39.00 38.31 37.72 44.41 39.52 39.34 41.59 39.34 40.70 36.38 39.20 38.83 37.10 35.72 41.08 45.03 46.34 47.50 48.75 50.21 50.12 51.21 51.98 53.22 51.73 54.38 54.18 54.81 55.92 54.91 55.40
46.84 45.95 45.44 45.02 45.26 45.71 45.49 45.39 45.69 41.27 38.47 39.34 39.88 41.87 40.99 41.21 41.47 38.51 37.72 38.31 37.99 37.80 43.03 41.79 43.81 42.76 43.60 45.34 41.40 42.03 39.39 39.73 34.84 42.20 39.70 35.16 42.95 47.13 49.77 51.07 52.28 48.87 50.42 51.16 51.74 52.26 54.04 53.39 53.23 54.00 54.59 54.75 55.06 55.53
46.77 46.07 45.46 45.04 45.40 45.61 45.44 45.18 45.74 46.34 45.61 41.60 39.01 36.02 38.49 37.49 28.05 35.29 33.69 38.03 40.46 44.59 45.47 45.23 43.27 43.67 43.86 44.57 43.02 41.44 38.89 37.85 43.14 38.88 38.13 42.39 45.44 49.00 49.38 50.82 52.09 53.19 51.81 51.83 51.38 53.14 56.63 54.45 55.11 56.35 55.87 54.56 55.27 55.30
47.16 46.09 45.69 45.29 45.30 45.56 45.49 45.51 45.94 44.71 39.37 38.10 34.81 22.77 29.45 27.73 33.07 38.21 40.47 39.71 44.85 45.36 44.78 43.53 43.02 41.05 43.20 41.00 42.56 40.48 40.58 42.58 38.08 39.16 40.50 45.66 47.54 49.17 48.61 51.02 51.48 50.66 50.98 50.80 50.74 50.76 55.20 55.48 56.91 56.71 56.81 55.90 55.04 53.71
47.17 46.16 45.69 45.04 45.41 45.51 45.51 45.99 46.60 41.27 38.64 37.16 39.75 25.65 33.63 38.42 40.25 40.82 40.37 40.29 44.67 44.02 43.02 40.18 40.83 41.65 40.64 40.14 41.99 42.10 39.68 39.00 39.68 36.82 42.16 47.60 49.12 49.43 49.88 50.94 50.95 50.67 49.20 51.89 48.56 49.48 55.12 55.82 55.84 55.13 54.60 53.96 52.76 52.26
46.64 45.70 43.31 45.66 45.66 45.96 46.60 44.59 42.13 40.82 39.97 38.51 35.74 34.72 37.37 37.50 37.43 39.72 38.64 38.52 41.98 42.61 42.66 42.29 38.61 38.17 39.20 40.67 39.71 38.93 39.48 38.52 41.07 44.99 46.85 47.20 47.26 48.33 50.04 50.80 51.54 50.76 52.87 53.23 53.25 54.21 55.11 55.84 54.91 52.34 52.81 50.60 49.69 50.28
46.08 39.76 46.89 47.30 46.43 46.32 46.53 39.63 41.27 39.63 38.55 36.99 34.35 37.58 38.26 37.07 40.34 37.57 40.45 41.75 44.18 40.98 38.38 38.39 34.63 35.93 41.19 38.77 38.47 43.58 40.30 42.67 44.78 44.72 44.31 44.70 45.91 48.05 50.06 52.42 53.66 53.04 51.49 51.56 51.32 51.19 50.86 51.80 52.26 51.52 50.70 52.45 53.47 53.76
40.43 42.67 46.78 46.27 44.39 43.48 41.13 40.39 39.96 38.51 33.60 34.89 32.71 34.82 38.54 42.60 41.79 41.37 42.66 45.61 45.62 44.15 43.72 39.35 41.07 39.01 37.83 36.97 37.90 42.78 43.40 44.87 46.16 46.60 47.03 48.12 48.11 49.55 53.93 53.03 52.94 52.32 51.69 50.96 50.13 49.76 49.86 50.11 49.69 49.47 50.34 51.42 52.06 52.56
43.93 43.49 46.50 45.90 43.29 39.47 39.42 40.70 40.04 33.21 34.80 35.35 36.61 39.99 41.49 41.53 41.77 42.23 41.69 43.20 43.28 43.26 42.02 41.73 39.37 39.47 40.37 43.14 41.89 42.85 44.48 45.41 45.33 46.54 47.81 49.44 51.73 52.19 51.68 51.50 50.89 50.10 49.64 49.37 49.47 49.19 49.60 50.32 50.36 50.61 50.83 51.31 50.64 51.66
47.63 46.76 45.88 44.89 43.88 38.77 37.99 33.86 39.67 34.44 32.82 35.70 40.24 39.04 39.89 38.36 39.81 43.86 45.20 46.05 45.50 43.88 41.21 40.06 41.14 42.21 42.34 44.12 46.23 46.41 46.31 47.20 46.77 45.79 47.64 48.54 50.19 50.31 49.68 49.48 49.05 49.30 49.16 49.29 49.42 48.38 50.02 50.02 50.61 50.74 50.97 50.70 50.54 50.49
43.86 42.81 44.60 41.42 40.11 39.43 37.84 34.02 35.06 37.56 36.41 37.06 38.39 37.42 37.03 41.89 42.10 42.64 43.16 45.33 44.49 40.58 39.61 42.76 43.10 44.34 47.53 47.80 47.69 47.86 48.18 50.33 49.12 48.49 47.28 46.72 48.90 49.35 49.39 49.93 50.11 49.91 49.24 49.17 48.68 48.47 48.88 49.34 49.93 51.08 50.98 50.71 51.22 51.48
40.35 46.08 39.95 41.39 38.96 39.04 34.54 37.54 35.83 38.15 36.58 37.39 38.52 39.71 38.47 38.65 40.16 41.21 43.61 38.73 39.76 40.40 42.72 43.21 44.49 46.03 46.17 46.10 47.55 49.28 50.34 50.35 50.05 49.16 48.02 48.03 48.00 48.65 49.28 50.28 50.14 49.44 49.60 49.64 49.78 49.35 49.86 50.53 50.91 51.12 51.07 50.97 50.95 52.05
44.63 43.47 40.44 40.80 36.16 29.29 28.33 38.24 36.16 38.93 34.95 36.93 38.20 37.51 38.28 39.71 40.03 42.49 36.92 38.02 39.24 43.41 43.45 45.45 46.68 47.57 47.71 49.05 50.72 51.10 51.26 50.32 49.21 49.21 49.64 50.00 50.39 50.62 50.21 49.82 49.98 48.71 48.12 48.78 50.27 49.93 49.47 48.76 50.17 51.63 51.99 52.13 51.12 50.58
44.06 37.87 35.85 37.75 34.23 27.31 37.75 38.08 39.53 37.65 36.65 35.96 35.54 35.55 37.30 38.41 39.65 35.59 33.46 36.42 39.79 43.65 46.34 47.13 48.25 47.96 48.83 49.13 48.49 49.08 49.95 50.42 49.55 49.16 49.73 49.33 48.59 49.28 50.38 49.89 49.76 49.46 49.37 49.70 49.87 49.66 49.82 49.61 48.73 49.53 48.65 48.30 48.32 47.64
27.39 25.80 32.35 22.96 36.41 35.49 34.78 35.07 35.13 35.09 33.14 36.09 36.60 36.31 37.05 39.53 33.98 32.94 32.23 36.49 39.93 42.23 45.42 48.09 48.29 48.11 47.40 47.98 48.89 49.61 50.82 50.34 48.79 48.09 49.48 49.99 49.65 49.89 49.59 50.20 50.15 50.81 51.48 50.31 49.63 49.14 48.44 48.01 46.98 45.92 44.42 43.24 43.33 43.08
25.49 34.09 34.42 35.21 34.42 33.80 34.45 32.78 33.32 35.24 36.54 38.00 38.75 40.11 39.73 36.97 33.56 31.67 35.29 38.89 40.50 42.35 44.22 46.56 47.33 47.66 47.96 49.07 48.51 48.72 49.70 51.18 50.75 49.13 49.66 50.41 50.10 49.12 48.28 47.99 46.77 48.10 50.87 51.03 49.36 47.98 48.54 48.02 46.41 44.16 42.44 42.01 40.86 42.72
32.76 34.18 38.37 40.40 38.30 36.88 35.37 36.35 37.04 35.70 36.75 37.83 38.97 37.76 36.40 32.84 32.78 37.14 41.48 43.19 42.27 44.80 47.53 48.02 48.23 48.77 48.88 49.42 50.44 50.91 51.56 51.51 50.74 50.47 50.82 50.86 50.54 50.97 50.97 49.39 48.43 49.49 50.83 50.92 50.83 50.19 48.12 45.71 44.22 43.60 43.28 42.51 42.73 43.40
35.93 35.81 33.15 36.31 35.91 36.89 35.26 37.36 39.27 38.94 40.78 41.29 39.82 36.57 35.12 35.22 36.27 41.33 42.75 45.09 46.06 45.92 46.05 46.55 48.85 49.40 48.91 47.75 48.14 48.68 48.87 49.30 49.68 48.75 46.58 46.54 47.28 46.81 45.95 45.09 44.49 42.62 46.71 48.18 47.84 48.25 46.60 45.24 44.50 44.60 44.26 43.24 42.60 43.70
34.50 37.37 36.62 36.68 39.44 38.94 41.26 40.81 40.61 42.34 42.33 41.07 38.83 37.92 38.13 41.05 43.19 43.20 44.18 45.94 46.93 45.66 43.93 43.21 43.54 46.29 46.34 46.89 47.49 48.54 48.92 47.97 43.10 41.80 41.32 40.80 41.71 43.06 44.76 45.21 44.57 42.70 42.39 42.42 40.25 42.20 43.83 43.40 43.49 43.99 44.78 44.56 46.64 46.44
41.53 40.90 39.70 41.36 39.76 39.14 41.85 43.39 43.06 45.50 46.09 45.56 45.50 44.60 44.05 43.77 45.42 46.67 45.76 45.73 44.13 43.00 42.86 42.95 42.71 43.80 41.84 42.62 43.59 45.07 46.65 44.93 43.75 42.70 40.25 39.62 40.99 42.67 43.48 44.41 43.97 42.06 42.20 42.80 41.94 41.35 40.91 41.67 42.58 42.77 43.45 44.23 46.25 45.39
45.60 44.02 41.74 41.50 40.23 42.56 44.56 45.69 46.02 46.40 46.00 44.40 45.43 42.73 42.06 43.95 46.19 47.84 47.20 46.30 46.24 46.21 46.96 45.71 45.27 44.98 44.35 43.79 43.30 42.52 42.06 44.03 45.86 45.79 45.29 44.15 44.45 44.53 44.69 45.07 44.49 44.18 44.08 44.67 45.49 44.84 47.56 46.65 46.39 46.40 45.56 43.84 42.61 42.32
44.46 42.94 41.50 39.66 40.69 44.72 45.95 44.00 43.50 42.83 43.28 42.58 41.97 43.24 43.23 42.57 41.88 46.28 48.81 48.06 46.32 44.84 45.42 45.48 44.56 43.51 44.20 44.22 44.22 44.23 42.84 44.46 44.52 44.90 44.78 44.37 44.36 45.22 45.32 45.40 45.93 47.06 46.89 46.69 46.40 46.38 46.81 45.97 45.07 43.26 42.31 41.29 41.25 41.32
44.06 43.63 43.30 41.91 42.33 42.66 44.40 43.76 42.99 42.30 41.85 41.90 41.87 43.00 42.80 42.26 41.29 45.49 49.94 48.97 47.93 47.28 46.94 47.29 47.96 50.04 46.82 46.09 45.82 45.16 43.78 43.81 40.89 38.64 38.44 38.68 39.10 41.49 43.43 44.33 46.35 47.60 48.03 47.10 46.31 45.44 44.57 43.05 41.65 40.99 41.09 40.78 39.83 38.49

GFSWCAN_sfc_wetblb_009.txt.gz
Wetbulb
47.46 46.89 47.17 47.29 47.58 46.74 46.87 46.48 46.70 47.36 46.72 46.59 46.57 46.83 46.72 46.70 46.81 40.94 37.51 38.38 36.36 31.96 33.80 38.12 40.94 37.63 38.87 39.04 37.67 40.24 43.14 43.94 45.79 41.37 38.28 36.34 36.47 38.65 38.56 44.05 41.54 38.89 37.53 37.87 39.92 39.07 39.25 56.94 56.67 49.55 52.64 57.89 56.54 57.36
47.48 47.25 47.28 46.62 46.36 46.36 46.25 46.17 46.96 47.00 46.26 46.34 46.39 46.39 46.38 46.34 46.27 43.66 35.20 39.30 39.21 34.12 33.50 37.68 40.47 42.23 42.37 41.66 38.32 37.48 41.83 42.52 46.61 40.67 41.01 41.28 41.81 42.32 41.01 39.95 46.81 42.13 44.76 41.93 41.90 43.48 53.95 57.63 58.85 58.47 59.29 57.98 56.69 57.48
48.12 47.91 47.17 46.77 46.28 46.61 46.26 46.20 46.68 46.79 47.16 47.63 47.21 46.90 46.75 46.48 46.05 44.91 37.24 36.20 36.17 32.85 34.54 34.97 38.39 42.14 40.99 42.33 43.73 36.07 43.74 47.27 45.82 47.01 44.22 42.37 38.42 42.41 39.79 41.78 42.88 46.56 49.20 47.91 46.41 51.12 54.82 56.84 57.59 58.74 59.53 59.34 59.68 59.71
47.68 47.73 47.35 46.84 45.97 46.36 46.07 46.39 47.03 47.10 47.60 47.33 46.77 46.77 47.03 46.71 46.76 45.74 40.61 37.07 36.28 33.65 33.18 35.04 43.87 40.77 44.91 42.50 42.85 44.04 43.96 46.19 46.97 47.23 45.53 41.69 38.31 43.21 40.80 43.13 42.72 45.73 47.85 46.69 46.94 50.03 53.66 56.17 56.36 55.87 59.27 60.16 59.73 58.35
47.49 47.17 46.98 46.94 46.26 46.28 46.54 46.63 46.68 46.75 47.01 46.59 46.76 47.46 47.49 47.50 46.95 44.66 38.67 39.14 39.00 35.22 31.50 33.05 38.98 41.92 43.49 42.97 43.22 42.72 41.05 42.39 43.24 42.60 43.01 42.84 41.97 43.07 43.16 41.91 42.67 45.89 45.84 45.58 45.70 51.11 50.81 52.46 56.17 58.82 57.61 57.92 57.45 56.60
47.82 47.16 47.23 47.04 46.16 46.02 46.03 46.45 46.77 46.78 46.56 47.16 47.17 47.46 47.61 47.85 47.26 39.48 36.98 40.63 40.98 41.63 37.91 31.42 37.31 39.90 43.54 43.48 42.25 41.06 40.77 42.24 43.72 42.47 43.86 44.57 48.96 45.40 41.28 37.80 46.71 50.13 51.58 51.19 51.48 54.27 54.22 55.29 57.23 58.61 56.65 58.56 58.17 56.92
47.44 46.87 46.83 46.41 45.97 45.69 45.53 46.19 46.54 46.57 46.69 46.99 47.12 47.59 47.62 47.95 40.21 38.75 38.16 42.19 45.17 44.67 39.81 33.60 33.49 40.36 45.36 44.66 42.27 42.01 42.68 42.59 42.98 42.05 42.56 43.91 46.81 48.27 42.58 38.81 44.69 51.42 53.69 54.38 55.45 55.45 53.48 55.73 53.76 58.45 58.41 57.60 56.75 56.73
47.03 46.87 46.38 45.98 45.63 45.49 45.23 45.99 46.20 46.37 46.68 46.86 46.92 47.64 48.25 48.76 45.04 38.78 40.88 46.06 44.66 40.20 42.43 34.32 34.32 41.04 45.54 41.95 41.67 41.45 39.86 40.23 40.63 41.92 43.02 41.28 42.84 44.39 40.46 45.26 46.60 47.23 50.61 53.63 54.67 53.67 52.71 51.66 54.09 55.97 56.56 56.79 54.48 53.41
47.14 46.85 46.16 45.68 45.49 45.54 45.47 45.80 46.16 46.36 46.56 46.68 47.26 47.78 44.32 41.34 37.96 40.96 50.97 48.01 42.68 41.24 38.55 38.58 35.75 36.71 44.27 42.34 43.62 46.51 42.84 37.06 40.64 39.19 40.68 41.31 38.18 38.45 43.58 45.08 46.10 47.57 51.08 50.53 51.43 52.88 53.84 52.66 54.51 54.49 54.88 55.51 53.92 52.81
47.08 46.93 46.33 45.60 45.31 45.54 45.58 45.85 46.27 46.46 46.87 47.64 44.16 41.61 42.42 43.59 50.87 49.06 42.84 42.76 43.57 42.93 41.53 33.56 35.98 37.08 40.14 40.06 39.17 40.13 41.75 39.26 36.93 39.40 40.28 37.50 36.77 40.90 47.74 47.04 46.47 46.81 50.04 47.63 47.96 47.23 50.44 50.62 52.80 53.70 53.89 54.13 54.47 54.03
46.98 47.07 46.39 45.62 45.18 45.32 45.53 45.82 45.74 46.35 43.68 40.96 37.11 39.55 40.29 48.65 42.70 43.46 39.86 38.95 39.24 39.88 38.70 36.85 36.92 35.52 41.87 38.55 38.08 39.81 38.37 39.99 37.59 39.10 37.47 34.95 37.02 45.82 48.83 49.22 49.88 50.11 47.14 47.63 50.03 50.55 52.44 51.87 52.53 53.37 53.23 53.93 54.08 53.76
46.95 46.81 46.46 45.62 45.12 45.08 45.48 45.54 45.55 39.70 37.19 38.69 39.15 41.74 39.19 39.31 40.75 36.91 37.69 39.44 37.80 37.21 41.95 40.76 42.75 39.84 42.15 43.47 39.93 40.07 38.08 38.54 34.85 41.56 41.40 36.88 45.14 46.01 47.68 48.74 50.09 50.58 51.08 49.87 49.26 50.18 52.11 52.63 52.18 53.97 53.88 53.44 54.08 54.68
47.02 46.83 46.22 45.60 45.12 45.22 45.48 45.52 45.55 45.89 44.25 40.48 37.39 34.49 36.71 36.24 27.15 33.84 34.40 38.18 39.49 44.16 45.52 44.96 42.54 41.68 42.37 43.07 40.91 39.84 37.54 37.29 43.14 38.34 38.59 43.71 47.17 47.19 47.39 48.34 49.72 51.37 51.55 50.68 49.74 50.64 52.53 52.27 53.62 54.84 54.22 54.58 54.99 54.37
47.22 46.99 46.10 45.64 45.16 45.15 45.40 45.36 45.86 44.27 38.24 36.05 32.75 21.73 28.52 26.52 31.56 35.81 37.50 37.74 43.11 45.25 44.17 43.24 41.69 39.71 41.47 38.44 41.54 40.10 41.30 41.19 36.90 36.92 38.05 43.36 43.57 45.80 47.39 48.97 49.17 49.62 51.06 49.76 50.53 50.73 53.21 52.22 52.69 55.34 55.71 54.98 54.62 54.51
47.21 46.82 46.11 45.37 45.45 45.23 45.24 45.50 46.06 39.76 36.90 35.19 36.77 25.17 32.11 36.92 38.83 39.41 39.34 38.69 42.76 41.02 40.86 39.44 39.47 39.58 39.03 38.69 40.53 41.33 38.43 38.12 39.28 37.56 42.17 46.72 47.20 47.18 46.89 47.74 48.75 49.65 50.72 50.66 50.37 48.90 52.77 53.70 52.74 51.79 52.56 53.16 53.37 53.16
46.82 45.96 42.83 45.67 45.75 45.60 45.89 43.84 40.42 39.09 38.25 36.68 35.28 33.10 35.39 35.73 36.94 39.96 38.35 37.96 40.18 39.39 40.43 39.45 34.83 35.10 38.54 39.99 38.56 37.62 38.06 38.13 40.76 44.16 46.19 46.89 44.49 45.02 45.65 47.14 49.34 51.63 50.52 51.22 48.90 53.08 53.96 54.02 52.58 50.88 51.91 52.24 52.45 51.85
45.30 38.58 45.14 46.73 46.13 46.22 46.31 38.73 39.08 37.62 36.90 36.24 34.64 35.41 34.35 34.40 35.06 37.07 38.58 40.92 42.56 39.36 36.61 35.93 31.17 35.57 40.60 37.97 37.00 42.47 40.31 41.73 43.46 44.27 46.18 44.86 45.88 46.98 46.92 49.05 52.89 51.28 50.03 51.22 51.94 52.20 51.65 52.14 52.88 51.45 50.73 51.71 52.15 51.98
38.81 40.70 46.60 46.74 43.59 42.20 39.58 39.32 38.22 37.53 33.66 34.25 32.04 33.55 36.33 40.14 39.14 39.18 39.94 40.75 41.19 41.98 42.41 38.01 39.98 37.79 36.28 36.06 37.81 41.70 40.69 43.14 45.36 45.76 46.56 47.56 48.22 49.01 49.85 52.13 51.49 50.62 49.40 50.23 51.10 51.57 52.14 51.61 51.04 51.17 52.37 52.51 52.31 52.23
41.48 42.28 46.22 45.83 42.32 38.70 37.94 39.34 38.78 32.27 33.30 33.38 34.79 38.51 39.58 38.85 39.19 39.84 40.89 44.02 42.54 41.06 39.50 40.01 37.88 38.37 40.07 42.29 41.50 42.76 44.00 44.46 44.41 45.89 47.07 48.82 50.31 50.51 50.69 49.98 49.80 49.77 49.47 49.56 49.90 49.97 50.49 51.09 51.18 51.94 52.26 52.43 51.27 51.80
47.18 46.52 45.98 44.89 43.50 37.39 36.56 32.39 37.16 32.98 31.40 33.29 37.26 36.08 36.55 36.72 41.84 43.18 44.84 45.43 45.13 43.77 41.02 40.04 40.78 41.21 41.78 43.61 45.30 45.14 45.79 46.54 46.34 45.42 46.70 48.17 49.58 49.59 49.32 49.11 49.02 49.68 49.65 49.98 49.93 48.45 50.28 50.19 51.22 51.54 51.74 51.71 51.23 50.91
42.29 41.44 44.24 40.20 38.96 37.79 36.28 32.01 32.41 34.59 34.67 34.67 35.71 38.54 36.86 41.70 41.99 42.37 42.28 42.90 43.25 39.68 38.91 41.27 41.97 43.67 45.23 45.70 47.23 47.28 47.05 48.77 48.02 47.53 46.61 46.72 49.13 49.54 49.40 49.90 50.00 49.92 49.09 49.21 48.81 48.44 48.99 49.67 50.50 51.14 51.03 51.07 51.56 51.86
38.96 45.49 38.72 39.73 37.40 36.25 32.55 34.32 33.94 35.94 35.28 35.32 38.12 39.93 38.58 38.81 39.06 39.55 41.90 38.65 38.76 40.43 41.83 42.78 43.15 43.67 44.93 45.89 47.44 49.65 49.94 49.98 49.73 49.03 47.84 48.38 48.46 48.64 48.85 49.50 49.26 48.71 49.05 49.14 49.28 49.14 49.34 50.05 50.72 51.20 51.12 51.13 50.98 51.56
43.87 41.63 38.84 38.99 34.13 27.21 28.40 36.73 34.71 36.46 32.77 36.22 38.24 37.59 37.84 38.40 39.06 40.88 37.40 38.32 39.17 42.03 43.31 43.18 43.96 46.43 46.90 49.70 50.27 50.13 50.25 49.67 49.03 49.52 49.63 49.61 49.54 49.66 49.30 49.25 49.55 48.77 48.38 49.05 50.03 49.80 50.06 47.99 49.56 51.08 51.38 51.76 51.36 51.06
43.61 36.19 34.04 33.99 33.89 26.60 36.10 37.65 38.72 37.42 36.69 35.62 35.88 34.31 35.64 37.45 39.73 36.66 33.95 37.28 40.80 44.01 46.25 47.66 48.91 48.46 48.87 48.97 48.28 48.67 49.25 49.91 49.48 49.48 50.18 49.48 48.49 48.67 49.41 49.42 49.49 49.38 49.75 49.72 49.78 49.51 49.44 48.64 46.13 47.58 48.22 47.58 47.13 46.90
25.54 26.07 31.13 21.80 35.80 34.90 34.10 34.99 34.92 34.51 32.94 36.41 35.67 34.87 36.36 39.32 34.01 32.82 32.20 37.47 40.47 42.83 46.14 48.65 48.74 48.62 47.26 47.59 48.69 49.07 50.44 49.98 48.63 48.06 49.29 49.48 49.02 49.50 49.48 50.18 50.20 50.43 50.90 48.65 47.07 45.93 45.14 45.02 44.56 44.36 44.28 41.50 40.70 41.47
24.38 33.71 34.09 33.80 33.20 33.74 34.43 32.56 32.93 35.22 36.69 37.58 37.19 38.76 39.06 36.96 33.54 31.79 36.27 39.78 41.27 42.23 44.18 46.34 47.97 47.84 47.95 48.92 48.26 48.67 49.51 50.82 50.59 48.83 49.20 49.98 49.73 48.82 47.74 47.51 47.74 48.53 50.61 49.63 48.26 46.31 44.73 43.70 41.76 41.16 40.60 40.15 39.43 41.32
32.50 33.92 38.15 40.19 38.42 37.52 35.32 36.33 37.02 35.65 37.22 37.04 37.80 37.23 35.99 32.78 32.54 36.85 41.44 43.09 42.69 44.17 46.58 47.10 48.31 49.34 48.96 49.45 50.36 50.81 51.31 50.97 50.16 49.11 50.22 50.53 50.75 51.05 50.15 48.87 48.46 49.57 51.40 50.67 49.28 47.37 44.30 42.84 42.27 42.00 41.26 41.03 41.22 42.09
35.88 35.94 33.29 36.24 35.87 36.79 35.43 37.03 37.76 38.16 39.73 39.75 40.21 36.07 33.81 34.20 34.48 40.59 42.66 44.61 45.56 45.98 44.89 44.79 46.62 47.73 47.37 47.43 48.02 48.62 48.11 47.84 45.63 44.80 45.74 45.19 43.57 44.28 46.39 46.80 47.59 44.33 46.96 47.01 47.45 46.55 43.84 43.00 42.77 43.09 42.63 41.45 41.33 42.50
34.81 37.70 36.74 35.76 38.16 38.04 40.31 40.34 39.01 39.41 40.62 39.60 37.97 36.13 37.27 39.71 41.69 42.11 43.51 44.86 45.43 44.91 44.99 44.51 44.01 46.63 46.22 45.53 46.02 46.76 45.73 43.21 42.86 41.74 40.74 39.78 41.11 42.71 43.16 42.82 42.10 41.78 41.94 42.10 40.20 40.82 42.75 42.32 42.31 42.13 43.58 44.25 45.32 45.34
41.07 40.02 39.73 39.43 38.47 38.08 41.06 43.28 41.59 43.08 43.67 42.83 43.09 42.30 41.57 41.98 43.24 44.70 43.99 42.76 41.39 40.08 40.18 41.16 41.57 41.94 40.81 41.69 40.80 41.45 41.68 41.87 42.44 41.74 39.68 39.33 41.04 42.34 42.82 43.09 41.14 39.67 39.86 40.50 40.48 41.19 40.68 41.61 42.97 45.23 43.88 43.74 43.91 43.09
44.62 43.91 41.81 41.47 40.30 43.09 44.65 45.47 45.79 45.80 44.94 43.76 43.67 41.06 40.38 41.31 43.78 44.69 43.93 41.95 42.72 42.75 42.46 41.24 41.14 41.38 41.87 41.06 42.29 42.05 40.54 41.63 42.07 42.97 42.71 42.01 42.51 42.66 42.63 42.73 42.42 41.76 41.97 44.25 44.20 45.48 45.89 45.48 43.56 43.03 41.87 40.53 40.05 38.93
43.01 41.64 40.54 38.89 40.65 43.94 44.69 42.41 42.05 41.16 41.72 41.97 41.50 42.31 42.36 42.15 41.21 44.12 47.00 43.95 43.19 42.53 42.42 42.46 42.05 41.30 41.40 41.81 42.23 42.22 40.58 41.84 41.97 42.72 43.58 43.26 42.88 43.29 44.01 44.47 45.08 46.06 45.98 46.01 45.41 44.71 43.41 41.83 40.55 39.87 39.41 38.82 38.23 37.52
41.77 41.84 41.69 41.27 41.25 40.99 42.82 42.66 41.81 41.04 41.15 40.52 40.80 40.97 40.70 40.63 40.10 44.23 48.28 46.53 45.41 44.57 44.01 43.68 42.97 42.66 43.34 44.08 43.47 42.43 40.67 40.77 37.84 36.77 37.29 38.39 38.98 40.89 43.43 44.95 46.20 45.84 44.80 44.13 42.85 41.96 40.74 40.15 39.35 38.99 37.64 36.64 35.95 35.87

GFSWCAN_sfc_wetblb_012.txt.gz
Wetbulb
48.12 47.72 47.03 47.69 47.00 46.60 46.55 46.48 46.61 47.12 46.78 46.30 46.92 46.63 46.67 46.68 46.70 39.82 36.53 36.59 35.00 30.75 32.25 36.85 39.05 36.18 36.82 37.25 36.02 38.47 40.79 42.18 42.56 40.12 38.01 35.59 35.14 37.59 38.89 42.79 40.36 37.91 36.84 36.82 39.08 38.13 38.12 56.14 55.58 48.67 50.82 56.21 56.83 58.04
48.00 47.61 47.48 47.39 46.86 46.61 46.56 46.41 46.62 47.03 46.90 47.71 47.46 47.26 46.99 46.97 46.21 42.37 34.20 38.07 37.56 33.48 32.76 35.89 38.51 40.15 40.15 40.03 37.44 35.15 39.98 40.76 44.61 39.85 39.62 39.80 40.12 41.00 40.06 39.16 45.36 41.31 42.73 38.99 40.59 41.56 51.76 57.94 57.80 59.03 58.64 57.08 57.35 57.78
48.04 48.34 48.45 47.81 46.97 46.19 46.74 46.18 46.40 47.32 47.00 47.87 47.42 46.80 46.64 46.66 46.84 44.99 37.30 34.98 35.22 31.79 32.83 33.25 36.51 40.47 38.88 40.55 41.53 35.53 38.13 45.14 43.73 44.37 42.11 41.11 37.40 40.94 38.77 40.99 42.59 45.81 48.78 46.64 46.02 49.21 53.62 57.01 57.54 57.30 59.22 58.95 59.42 58.94
47.67 47.36 47.49 47.42 46.98 46.32 46.35 46.38 46.82 46.80 46.73 46.80 46.47 46.55 46.84 46.65 46.82 46.44 40.74 36.09 35.49 32.23 31.81 34.14 42.22 38.92 42.52 39.62 40.68 40.66 41.39 44.09 44.64 45.15 42.14 39.98 38.16 41.29 39.56 41.43 41.74 45.19 47.61 46.30 46.84 50.59 52.85 54.96 55.99 56.76 58.93 59.01 58.04 57.99
47.25 47.55 47.47 47.12 47.19 46.69 46.38 46.32 46.69 46.95 46.62 46.27 46.82 47.00 47.09 47.56 47.70 45.17 39.01 38.00 37.88 34.66 30.40 31.91 37.80 40.03 41.29 40.83 40.66 40.24 37.59 37.65 39.42 38.91 40.96 41.95 42.02 41.26 42.23 40.09 40.56 46.37 45.74 45.46 45.82 50.37 50.93 51.64 56.32 58.51 57.48 57.54 56.99 55.93
47.33 47.66 47.35 47.17 47.17 46.50 46.09 45.81 46.17 46.85 46.66 46.75 46.95 47.23 47.42 47.49 47.70 39.48 35.86 38.23 39.25 40.39 34.30 30.36 36.35 38.35 41.27 40.85 39.64 38.09 37.40 38.45 39.96 40.30 39.45 42.16 44.57 45.38 43.71 38.49 44.31 48.84 50.48 49.48 50.00 53.41 53.69 55.06 57.56 58.93 57.47 57.50 57.47 55.87
47.63 47.43 47.18 46.74 46.64 46.21 45.87 45.53 45.85 46.43 46.53 46.82 46.90 47.01 47.11 47.81 41.68 38.29 37.82 41.01 42.48 40.23 35.63 32.94 32.87 39.53 42.32 42.53 39.51 38.65 39.38 40.01 41.77 40.71 40.37 41.64 43.59 45.64 41.46 38.13 45.17 46.90 48.89 54.45 54.15 53.76 53.86 57.43 54.47 58.20 57.76 57.46 56.11 55.34
47.78 47.33 47.16 46.37 46.19 45.83 45.75 45.51 45.80 46.20 46.51 46.74 46.70 47.18 47.41 48.27 45.16 38.51 40.38 46.08 43.71 38.90 41.40 32.83 33.45 37.70 43.97 40.83 40.20 40.22 38.35 38.75 39.19 40.10 40.02 39.31 42.16 43.60 38.96 42.92 46.34 47.74 49.61 51.20 55.41 55.70 54.00 54.72 56.32 56.61 56.85 55.81 54.40 53.67
47.78 47.36 46.98 46.37 45.84 45.53 45.57 45.77 45.91 46.34 46.49 46.67 47.38 47.75 43.61 41.03 37.84 41.32 49.77 47.90 41.88 40.50 37.37 38.01 35.47 33.57 42.18 39.77 41.00 43.13 40.59 35.99 39.39 37.71 38.02 40.11 37.81 36.80 41.69 45.66 45.45 47.10 47.53 49.53 53.69 54.61 54.26 53.08 54.48 54.96 55.28 54.34 53.00 52.73
47.48 47.34 47.06 46.58 45.78 45.24 45.48 45.72 46.12 46.23 46.49 46.84 43.21 40.78 41.97 42.64 49.81 48.84 44.75 42.49 41.94 43.15 40.71 33.60 34.05 33.91 38.48 39.53 38.49 38.77 39.74 37.85 35.88 37.93 39.06 36.53 35.88 40.35 46.69 48.58 47.79 48.23 47.46 48.53 47.85 47.94 50.38 51.71 52.54 53.67 54.40 54.38 54.05 53.47
47.27 47.18 47.12 46.71 45.64 45.16 45.27 45.74 45.89 45.90 42.91 38.54 36.72 39.09 38.56 45.93 42.66 42.91 39.84 38.90 39.67 38.11 38.80 35.73 35.13 34.66 40.23 38.21 37.47 38.81 37.05 37.75 35.02 39.20 37.85 34.47 37.48 44.09 47.42 48.61 48.68 49.22 49.95 49.80 47.33 48.59 49.83 51.35 51.93 53.35 53.76 54.50 54.14 53.69
47.28 46.95 46.84 46.62 45.56 44.98 45.16 45.52 45.54 39.87 38.58 40.89 39.50 42.54 39.44 38.35 40.58 37.61 36.91 39.48 36.91 36.74 41.15 40.05 41.72 37.60 39.74 42.67 39.15 38.78 36.99 37.28 33.88 42.79 40.00 35.76 44.39 48.26 46.86 47.90 48.94 48.97 49.88 50.96 51.04 49.75 48.98 51.37 51.91 53.16 54.03 53.98 54.34 54.82
47.22 46.94 46.92 46.31 45.44 44.88 45.09 45.35 45.51 45.96 42.83 41.48 36.76 33.61 35.05 33.02 27.16 32.15 33.03 36.83 38.55 41.51 44.51 44.19 41.86 40.21 41.28 41.84 40.00 37.39 35.91 35.60 41.48 38.10 37.89 42.78 46.52 47.97 45.66 47.19 47.78 49.42 50.20 50.74 50.93 51.46 49.41 50.36 52.50 53.01 53.42 54.58 54.86 54.56
47.58 47.23 46.95 46.19 45.54 44.99 45.03 45.30 45.39 43.88 37.70 35.08 31.31 21.94 27.72 25.56 30.79 34.01 36.36 37.01 43.44 44.98 44.19 43.20 41.63 38.63 39.20 37.29 39.51 39.50 40.10 39.61 36.48 36.81 38.07 43.36 46.32 47.36 45.78 47.05 46.62 47.37 49.12 49.96 50.46 51.64 49.53 50.89 52.30 54.34 54.46 54.52 54.95 54.23
47.39 47.11 46.74 45.78 45.54 45.23 45.15 45.25 45.56 38.68 36.22 34.42 35.34 24.50 31.38 36.17 36.38 39.57 40.13 39.48 40.26 40.75 39.67 39.40 38.33 38.06 37.88 36.91 39.22 41.14 39.18 36.56 39.25 37.44 41.88 45.72 47.00 47.65 46.23 45.86 46.09 47.16 49.11 50.46 51.05 50.49 50.83 52.67 53.16 53.25 53.56 54.14 54.63 54.29
46.89 46.44 42.98 45.58 45.82 45.65 45.65 43.15 39.27 38.10 36.81 36.01 34.22 33.00 33.97 33.68 34.74 39.53 36.83 40.07 40.27 38.94 38.92 38.01 33.73 33.76 38.03 39.62 38.22 38.04 37.37 36.98 39.89 43.28 45.22 46.28 46.25 46.00 45.43 46.64 47.32 49.38 51.52 50.93 50.77 49.93 51.78 51.56 51.15 51.10 51.47 51.73 52.52 52.82
45.15 37.71 44.59 45.98 46.12 45.98 45.81 37.84 37.91 36.26 35.64 35.82 32.94 33.79 32.53 32.69 32.78 35.36 37.11 39.13 42.84 41.43 35.77 35.23 30.99 34.83 38.96 37.12 37.10 41.57 39.89 40.97 42.50 42.97 44.28 46.35 46.39 47.14 48.43 49.18 51.04 50.83 50.68 51.75 52.60 50.50 50.47 50.86 51.58 51.17 50.28 51.62 51.97 52.63
37.59 40.19 47.02 47.57 44.16 42.02 38.76 38.48 37.19 36.64 32.84 32.71 33.89 35.18 35.54 39.20 40.50 37.92 39.15 39.48 39.84 38.05 40.08 36.43 40.70 33.64 36.07 35.17 37.70 41.29 42.22 42.88 43.02 44.81 45.72 47.10 47.62 48.59 49.37 50.47 50.19 50.20 50.56 51.89 51.87 51.11 51.19 51.73 51.72 51.13 51.67 51.74 51.92 52.22
40.59 42.20 46.18 45.49 42.01 38.18 37.19 38.02 37.46 31.29 33.19 35.57 37.99 38.98 39.30 38.17 38.22 38.59 39.03 42.37 45.20 42.16 38.43 36.64 35.29 36.07 37.79 39.95 40.75 41.58 43.07 43.36 43.62 45.39 46.71 48.49 50.10 50.14 49.92 49.87 49.96 49.99 49.92 50.37 50.75 50.88 51.63 52.32 52.11 52.33 52.35 52.42 51.33 51.71
46.68 46.23 45.69 44.94 43.09 36.47 35.18 30.97 36.04 32.09 33.23 32.35 35.45 34.70 34.58 35.54 40.32 43.04 44.06 44.50 42.77 44.06 40.56 39.29 39.64 41.33 41.44 42.78 44.02 44.35 45.26 46.26 45.86 45.12 46.38 48.06 49.51 49.69 49.24 49.36 49.46 50.10 50.05 50.26 50.39 49.08 51.20 51.11 52.05 52.16 52.14 51.52 51.22 50.99
41.10 40.80 43.82 39.48 38.41 37.05 35.40 31.31 31.36 33.52 33.69 33.43 35.92 38.22 37.21 41.41 41.90 41.38 41.13 42.80 41.74 39.49 38.84 40.93 41.82 43.12 44.86 44.72 45.81 46.94 46.92 47.72 47.41 47.41 46.69 46.98 49.35 49.64 49.44 49.94 50.28 50.45 49.51 49.65 49.43 49.06 49.38 50.05 51.08 51.99 51.93 51.64 51.92 51.35
37.61 44.51 38.03 39.45 36.18 34.25 31.40 32.58 32.57 34.23 33.64 33.81 35.94 39.72 38.70 38.54 38.15 39.03 40.18 38.97 38.61 40.64 41.98 42.54 42.99 43.36 43.64 44.20 46.42 49.71 49.71 50.01 49.97 49.08 47.77 48.06 47.92 48.15 48.57 49.22 49.17 48.59 48.89 49.25 49.63 49.49 49.92 50.71 51.39 51.62 51.48 51.31 50.86 51.98
42.80 40.52 37.93 36.46 32.61 26.69 28.54 35.61 33.04 34.94 31.91 36.30 38.38 37.31 37.27 37.59 39.15 41.31 37.82 38.93 39.41 42.22 43.10 43.19 43.75 44.98 45.31 49.34 49.83 49.69 50.32 49.73 48.91 48.91 48.84 48.82 48.97 49.43 49.23 49.47 49.71 48.84 48.49 49.42 50.58 50.35 50.09 47.43 49.18 51.34 51.62 51.44 51.47 51.47
41.33 35.08 33.00 30.84 29.64 26.65 35.76 36.25 37.03 37.13 36.55 36.14 35.69 34.54 35.88 37.50 40.03 36.50 33.68 36.96 40.48 43.86 46.29 47.90 49.00 47.92 48.51 48.38 47.79 48.37 49.31 50.19 49.41 49.36 49.76 49.34 48.62 48.75 49.66 49.41 49.46 49.76 49.96 50.19 49.84 48.82 48.57 48.29 46.89 48.56 48.50 48.46 48.13 46.81
25.79 27.18 29.80 21.40 35.58 33.85 33.75 33.90 34.14 34.37 33.34 36.84 35.06 34.95 36.42 39.25 33.89 32.97 32.26 37.00 41.69 43.31 46.65 48.75 48.57 48.40 47.01 47.47 48.37 48.93 50.09 49.95 48.60 47.95 48.91 50.03 49.44 49.00 48.77 49.22 49.11 49.71 49.12 47.06 45.97 45.46 44.49 44.48 44.04 43.40 43.97 44.98 44.94 44.33
22.82 33.51 34.06 33.12 33.75 33.21 34.10 32.44 32.60 34.76 36.75 36.80 36.58 38.48 39.08 36.98 33.57 31.67 36.39 40.52 41.48 42.82 44.59 47.34 47.79 47.74 47.81 49.00 48.35 48.73 49.20 50.86 50.22 48.59 48.94 49.80 49.49 48.47 47.54 46.81 46.60 47.60 49.91 47.53 45.19 43.73 43.03 42.79 42.60 42.40 42.07 41.47 39.31 43.64
32.35 33.74 37.88 40.29 38.57 37.59 35.33 36.16 37.13 36.02 37.50 36.90 37.35 36.97 35.70 32.11 32.24 37.58 42.16 43.49 43.02 44.90 46.71 48.10 49.94 49.23 48.86 49.24 49.76 50.17 50.64 50.23 49.89 49.31 49.17 49.25 50.33 50.65 50.06 48.52 48.28 49.74 49.99 48.18 46.59 45.26 44.09 43.48 42.99 43.00 42.89 43.40 43.72 43.99
35.73 35.99 33.53 36.15 36.07 37.01 35.48 36.75 37.27 38.16 39.25 41.00 39.88 35.49 34.21 34.52 35.88 41.40 43.27 45.02 45.27 45.77 47.30 48.30 48.98 49.23 48.62 48.49 48.75 48.06 45.45 45.80 46.60 46.97 46.97 46.02 44.43 45.19 46.97 47.21 45.60 41.31 45.51 46.35 47.29 45.37 44.77 44.65 44.50 44.23 44.56 44.18 44.02 45.26
34.67 37.34 37.15 36.01 37.71 37.74 38.79 38.77 38.75 40.11 41.64 40.68 37.97 36.97 38.13 40.26 42.62 42.98 44.24 44.50 44.47 45.07 45.83 45.83 45.53 46.20 44.93 43.85 44.87 44.86 43.68 44.02 43.56 42.04 41.55 41.16 42.82 44.11 44.04 43.78 43.32 43.17 43.11 42.02 38.18 41.75 44.73 44.26 45.07 45.86 45.24 43.75 43.81 43.78
39.69 39.53 38.74 38.97 38.50 38.31 39.83 41.50 40.69 42.18 41.34 41.53 42.73 41.68 41.64 42.31 43.35 44.36 43.53 42.94 44.20 45.04 43.95 44.34 44.02 44.35 43.60 43.43 42.31 42.77 41.86 42.40 43.80 42.78 41.15 41.33 42.96 43.71 44.70 43.83 42.75 42.42 42.59 43.10 42.95 42.85 41.33 44.98 43.42 45.74 44.47 43.50 41.91 41.32
45.13 43.74 41.09 41.34 40.28 42.05 42.43 43.21 43.75 44.33 43.51 42.25 42.85 41.17 40.07 41.01 42.90 44.05 42.27 41.44 41.56 41.96 42.16 41.62 41.05 41.15 41.73 41.68 41.70 41.73 41.59 42.97 43.44 44.78 44.04 43.44 43.69 44.57 44.97 45.21 44.43 43.38 44.97 46.27 46.65 45.66 44.50 43.54 42.95 41.93 40.60 39.37 38.84 38.77
42.58 41.08 39.75 38.23 39.78 43.63 44.49 42.52 42.06 41.19 41.04 41.05 40.08 41.63 41.40 41.55 40.61 43.63 45.44 43.02 42.35 42.63 42.02 42.35 42.29 42.21 42.92 42.78 43.07 43.00 39.99 43.03 43.39 44.09 45.60 45.22 45.49 45.92 45.96 46.22 47.07 47.68 47.09 45.75 44.45 43.55 42.83 41.77 40.98 39.95 38.91 38.31 38.05 37.74
41.55 42.17 42.45 41.62 41.11 41.04 42.68 42.03 40.75 40.58 40.62 40.18 40.55 40.67 40.54 40.63 39.97 44.03 47.14 46.86 44.76 43.60 42.92 42.80 42.93 43.55 44.27 44.52 44.06 42.48 40.65 41.71 38.70 36.75 37.75 38.34 38.73 42.01 45.62 45.99 46.55 45.94 44.72 43.63 42.89 42.52 41.46 40.37 38.99 38.65 38.65 38.48 37.83 37.58

GFSWCAN_sfc_wetblb_015.txt.gz
Wetbulb
48.48 48.14 47.85 47.49 47.55 46.96 46.53 46.98 46.50 47.22 46.41 46.96 47.58 47.44 47.44 47.39 46.72 44.10 42.43 42.96 41.37 38.72 39.98 41.11 43.32 43.11 44.11 44.73 43.40 45.05 46.08 48.70 49.85 47.07 45.87 45.91 44.46 46.89 47.62 49.57 48.01 47.19 46.43 45.60 47.79 46.92 45.64 58.64 59.37 54.56 58.82 63.08 61.91 62.32
48.27 48.04 47.89 47.86 47.74 47.08 46.43 46.68 46.37 46.86 47.82 47.64 47.32 47.04 47.44 47.04 46.79 44.01 41.09 43.38 42.78 39.58 39.88 40.90 43.24 44.47 44.21 44.61 44.49 44.22 46.36 47.23 51.31 47.99 47.80 47.99 47.35 49.14 48.07 46.09 52.51 48.06 50.78 49.11 49.15 50.19 57.11 59.70 60.13 61.72 61.52 60.25 62.41 62.92
48.13 47.82 48.30 48.64 48.23 47.11 46.41 46.42 46.46 47.04 46.92 47.25 46.83 46.77 46.45 46.71 46.85 45.92 42.68 42.39 42.15 39.34 40.25 39.72 42.48 45.72 45.11 44.66 47.60 42.75 45.80 50.05 51.22 51.79 49.77 49.14 44.85 48.58 47.76 49.03 49.94 52.73 55.13 54.65 53.64 55.71 57.30 59.36 61.13 61.43 62.36 62.96 63.66 63.86
47.38 47.75 47.38 47.48 47.20 47.08 46.76 46.51 46.62 47.37 47.07 46.51 46.36 46.89 46.59 47.15 47.36 47.23 43.26 42.93 41.91 39.16 36.34 41.92 46.30 45.09 47.22 46.10 45.51 45.61 46.64 50.67 52.03 52.40 50.20 48.35 46.43 48.15 48.05 47.90 48.83 52.59 53.92 53.04 54.31 56.75 57.93 59.41 60.14 61.19 61.91 62.02 61.99 63.07
46.94 47.23 47.50 47.58 47.35 47.48 47.00 46.50 46.11 46.40 47.37 46.86 46.34 46.66 46.59 47.28 47.76 46.02 44.81 44.64 44.28 40.25 36.61 39.81 44.57 46.33 47.04 46.64 45.45 45.39 44.43 44.52 45.92 45.96 48.53 47.76 49.43 48.23 50.08 48.99 48.35 53.05 52.62 53.46 53.37 56.65 57.75 57.96 60.01 61.30 61.43 60.61 60.79 60.92
47.18 47.23 47.41 47.66 47.22 47.08 46.77 46.19 45.67 46.07 46.74 46.85 46.68 46.89 47.24 47.20 47.90 44.58 42.92 44.29 44.54 43.80 39.18 37.38 44.59 44.71 46.77 46.69 45.38 44.32 44.34 44.20 45.50 47.18 48.02 49.39 50.43 50.03 47.69 47.16 49.57 52.63 53.89 56.32 55.20 58.21 59.30 60.54 61.21 61.68 60.96 60.93 60.88 60.79
47.25 47.44 47.44 47.34 46.65 46.65 46.24 46.02 45.66 45.93 46.35 46.69 46.92 46.90 46.89 47.48 45.46 42.66 42.85 45.63 44.18 44.95 40.87 38.83 42.20 47.36 47.35 47.49 46.35 45.36 45.32 46.43 46.86 48.28 47.37 48.06 49.26 49.80 48.61 45.25 50.52 52.38 52.91 53.99 57.54 58.30 57.65 59.03 58.51 61.06 61.53 60.90 59.43 60.39
47.41 47.50 47.50 47.31 46.48 46.29 45.80 45.88 45.78 46.01 46.39 46.79 46.69 47.35 47.16 47.53 46.46 44.73 47.46 46.68 45.65 44.22 43.81 37.77 41.11 45.36 49.47 48.43 46.92 47.96 45.64 46.30 47.10 47.79 48.21 46.82 48.69 49.36 43.90 49.24 51.25 51.73 52.83 53.65 55.10 58.12 58.00 59.02 60.15 60.09 60.55 60.28 59.80 59.09
47.58 47.52 47.58 47.20 46.54 45.88 45.46 45.66 46.04 46.18 46.42 46.63 47.48 47.98 47.21 45.11 45.04 45.51 49.75 49.05 47.89 44.20 39.27 40.28 40.12 41.58 47.98 47.68 48.84 49.89 48.13 43.77 47.17 45.02 45.69 46.99 44.89 43.10 47.10 49.71 50.82 51.97 51.52 51.19 53.65 56.93 57.67 57.49 58.05 59.13 59.58 57.46 58.58 58.55
47.47 47.54 47.67 47.08 46.70 45.83 45.39 45.54 46.11 46.16 46.27 45.80 46.68 45.11 43.66 46.37 50.23 49.42 45.73 42.37 41.87 44.05 42.80 38.51 42.02 41.44 45.13 47.02 46.36 47.04 47.91 46.65 43.20 45.79 47.09 43.68 42.87 48.85 50.40 51.32 51.80 52.26 53.29 54.34 52.82 54.81 55.76 55.26 56.84 58.55 59.17 60.06 59.79 59.48
47.44 47.53 47.45 47.29 46.84 45.67 45.07 45.36 45.83 45.60 43.98 43.07 41.87 42.75 44.05 46.31 47.53 44.32 41.14 40.31 41.00 38.63 41.43 42.78 42.23 41.95 46.96 44.91 45.38 46.57 45.36 46.08 41.48 44.43 43.16 42.33 42.22 47.50 50.10 50.57 52.11 52.81 53.13 54.00 55.29 55.26 55.09 54.04 54.96 56.04 58.79 59.93 60.05 59.79
47.83 47.51 47.19 47.28 46.60 45.50 44.76 45.19 45.49 43.80 42.59 42.56 42.12 43.81 44.27 44.05 42.35 38.89 38.13 40.46 39.82 39.24 44.40 43.56 44.56 44.23 47.13 48.90 46.49 46.68 43.63 44.63 38.92 47.72 43.64 39.70 46.06 49.15 49.79 49.92 51.31 52.11 52.10 52.75 54.63 55.15 55.70 56.09 55.60 55.83 57.91 60.23 60.55 60.52
48.05 47.64 46.95 47.11 46.20 45.23 44.90 45.04 45.18 45.72 43.94 44.54 41.70 40.60 41.05 40.17 34.24 33.95 33.02 37.44 38.74 43.92 46.74 46.71 43.84 47.50 48.01 48.47 45.64 44.92 40.79 40.90 47.21 42.76 41.68 44.18 48.04 49.62 50.36 49.95 50.85 51.96 51.38 52.34 53.43 55.33 56.03 56.40 56.48 56.34 57.64 59.76 60.68 59.85
48.08 47.61 47.37 46.87 46.02 45.30 44.94 44.85 45.19 45.04 42.73 40.22 37.83 31.46 35.92 34.10 36.77 38.50 40.05 41.64 44.60 45.59 45.55 44.11 44.00 45.40 46.92 45.84 46.60 40.21 44.11 44.54 39.74 38.50 38.84 43.44 46.32 47.75 49.37 49.59 50.06 50.44 50.95 51.51 53.07 54.22 55.12 55.69 55.73 56.87 58.11 59.35 59.48 59.30
47.92 47.56 47.03 46.43 45.83 45.25 45.04 44.83 45.19 44.68 41.82 39.11 39.35 31.90 34.96 40.00 41.14 40.55 42.52 42.18 44.27 45.20 44.96 45.02 45.41 45.53 45.64 43.31 45.25 43.14 39.97 37.61 40.09 36.70 39.76 45.00 47.26 47.90 48.56 49.43 50.16 50.68 51.08 51.72 53.00 52.68 54.22 55.24 56.23 57.92 58.79 59.73 59.92 59.45
47.50 46.80 45.04 46.05 46.02 45.63 45.28 44.46 43.71 43.29 41.47 39.24 38.61 36.95 39.87 38.77 39.89 40.69 43.11 42.06 45.24 46.60 46.17 46.05 42.55 40.51 39.66 40.31 38.92 38.98 38.53 37.63 38.85 43.11 46.05 47.68 47.88 47.87 48.62 48.73 49.54 50.41 51.68 52.77 52.35 53.14 55.21 56.68 55.22 54.80 56.43 57.12 57.63 57.98
45.01 42.30 45.75 46.19 46.01 45.84 45.60 42.91 42.52 39.08 39.21 38.22 38.33 40.78 39.78 39.33 38.99 41.91 45.09 45.36 46.30 46.00 43.06 43.02 38.33 37.49 42.84 38.26 37.80 42.10 41.33 42.24 43.62 45.15 46.45 48.58 47.36 47.33 48.72 49.60 49.88 51.51 51.82 52.85 53.15 53.82 53.47 53.80 54.97 54.78 53.06 54.88 55.89 56.51
42.09 44.15 45.96 46.36 45.70 44.05 43.29 42.33 40.22 39.84 36.79 39.15 38.34 37.97 41.80 44.36 43.95 44.81 46.31 47.33 46.51 45.90 45.32 42.19 44.38 39.23 37.30 35.33 38.83 43.93 44.08 45.12 46.21 46.61 47.09 47.65 47.81 48.80 50.03 49.83 50.69 51.63 52.48 52.77 53.32 53.88 54.72 53.58 52.45 51.77 52.32 53.79 53.89 54.33
44.20 46.48 47.38 46.23 44.15 43.32 40.69 40.76 41.11 36.29 38.26 39.68 41.28 40.58 41.92 42.90 44.91 45.28 45.81 47.30 47.54 45.98 44.40 44.44 39.17 39.21 40.46 44.60 43.91 43.66 43.86 44.58 44.62 45.57 46.94 48.41 50.03 50.57 50.28 50.73 51.09 51.30 51.70 52.28 53.11 52.69 52.69 53.75 53.47 53.79 53.23 52.54 52.01 52.01
46.88 46.73 46.08 45.81 44.54 42.02 38.80 38.45 41.66 37.95 37.11 39.75 42.18 41.12 41.79 43.10 44.01 45.79 45.41 44.92 43.40 44.52 41.39 40.01 40.68 44.82 44.82 44.72 45.36 45.00 44.90 45.62 45.63 44.84 46.96 48.57 50.01 50.19 50.06 50.23 50.18 51.13 51.29 52.08 52.04 49.83 51.81 51.55 52.33 52.68 52.41 52.10 51.34 50.87
42.81 44.37 44.38 43.09 43.33 42.53 40.53 38.06 38.07 39.93 40.52 40.28 41.22 41.11 41.28 44.61 43.04 41.69 42.15 43.02 42.64 40.49 39.86 42.75 44.01 45.36 47.15 47.03 47.55 46.16 45.98 46.92 47.30 48.22 47.77 47.32 49.49 50.12 50.12 50.86 51.07 51.27 50.91 50.74 50.29 49.78 50.02 50.69 51.85 52.25 52.43 52.91 53.39 52.85
42.91 44.50 43.86 43.80 40.26 38.32 38.68 39.37 39.28 40.94 40.53 40.18 40.41 41.52 39.48 39.26 38.72 39.66 41.11 39.52 39.70 42.17 43.90 44.46 44.78 44.75 44.06 44.42 45.31 50.01 50.36 50.04 49.81 49.07 47.70 48.08 48.31 48.49 48.85 49.92 49.70 49.30 50.28 50.44 50.69 50.56 51.02 52.15 52.26 52.33 52.09 51.96 51.56 52.39
44.25 43.68 42.88 40.10 37.00 35.99 35.80 41.92 38.48 38.94 35.76 37.22 39.37 37.66 37.66 37.84 39.83 42.25 38.50 39.50 40.19 43.01 43.78 43.60 44.04 45.08 44.89 48.31 50.18 50.15 50.52 49.66 48.69 48.71 49.03 49.20 49.50 49.90 49.86 50.20 51.10 50.82 51.32 51.49 52.27 52.12 51.41 48.29 50.61 52.76 52.05 52.37 52.65 51.17
42.91 40.05 36.98 36.39 36.71 34.75 40.46 37.35 38.69 37.70 37.40 36.67 36.61 35.50 36.38 37.65 40.52 36.91 34.16 36.87 40.58 43.82 46.63 47.66 48.84 48.09 48.71 48.72 48.13 48.51 49.63 50.36 49.73 50.01 50.51 49.67 48.81 49.20 50.23 50.44 50.61 51.22 51.16 50.88 50.48 51.12 51.26 50.15 47.91 50.54 51.00 50.46 48.31 46.85
32.69 33.79 36.19 31.61 39.00 36.04 34.09 35.35 35.27 35.40 34.18 37.58 35.32 35.42 36.94 39.55 34.68 33.27 32.76 37.71 42.08 43.48 47.84 48.89 48.92 48.38 47.34 47.59 48.67 48.87 50.24 50.41 49.38 48.17 49.75 51.01 49.83 48.69 47.87 47.47 48.33 51.01 53.86 52.14 51.70 51.62 51.50 52.48 52.70 52.27 51.38 49.16 48.24 47.86
30.51 36.53 35.60 35.26 35.23 34.15 35.32 32.93 33.47 35.85 37.83 36.79 37.07 39.11 39.88 37.52 34.90 32.03 36.69 40.81 42.05 43.33 46.38 48.46 48.04 47.91 48.42 49.57 48.51 49.12 50.17 52.94 51.60 48.67 49.29 50.62 50.57 49.07 48.31 48.70 48.29 47.38 48.97 47.51 48.42 48.26 48.22 48.77 48.84 48.68 48.06 46.60 42.20 47.88
32.99 34.94 38.40 40.93 39.01 37.98 35.83 37.18 38.16 37.44 38.00 37.12 38.16 37.67 36.77 34.36 32.58 37.62 42.77 44.77 43.73 45.89 49.29 50.70 50.47 49.79 49.21 50.49 51.34 50.64 49.61 51.29 51.63 51.08 51.79 52.17 51.64 52.15 50.86 48.61 47.43 48.98 50.81 50.51 49.96 49.26 48.35 48.27 48.30 48.27 48.26 48.94 48.88 48.77
36.59 36.83 34.03 36.38 36.53 37.63 36.13 38.02 38.61 38.90 39.71 42.48 40.83 36.44 35.61 35.99 36.02 42.51 44.45 46.16 47.21 49.03 49.81 49.80 50.21 50.99 50.59 49.23 48.66 47.75 48.95 49.90 49.63 51.29 52.05 51.84 52.05 52.29 52.08 51.46 50.78 41.31 51.52 51.41 51.03 50.96 50.42 49.93 49.57 49.54 49.18 48.74 48.74 49.55
36.05 38.16 38.16 37.80 38.79 38.97 40.57 40.77 40.14 42.75 44.64 43.51 39.71 38.99 40.47 44.15 46.22 46.75 47.15 48.03 50.06 51.20 50.35 50.00 49.20 50.23 49.99 50.01 49.91 49.78 51.54 51.99 50.10 47.57 46.94 47.18 48.32 49.39 51.03 51.07 50.57 50.18 50.43 48.61 38.06 45.17 50.16 50.43 50.52 49.93 49.23 48.52 47.73 47.58
39.91 40.32 40.40 41.05 39.93 40.06 42.72 45.06 43.81 45.95 46.11 45.86 45.74 45.46 45.33 45.86 46.70 48.41 48.86 50.45 50.36 49.55 49.79 49.75 49.60 49.76 49.18 48.35 47.66 48.17 49.15 50.52 51.25 49.36 47.31 46.93 47.94 50.33 50.66 49.87 49.87 49.91 49.74 49.74 49.23 48.14 41.92 47.79 45.57 48.30 46.91 46.98 46.54 45.12
44.94 43.82 43.13 42.89 42.07 44.07 45.49 47.17 47.58 47.47 46.79 46.23 47.00 44.77 43.77 45.55 47.93 48.24 47.60 48.32 49.33 48.45 49.39 49.66 49.87 50.40 49.63 48.99 48.68 47.93 47.50 49.46 50.06 50.42 50.92 51.08 51.09 51.18 51.42 51.16 50.69 50.31 51.32 51.19 50.09 49.71 48.97 48.49 48.00 46.82 45.82 44.77 43.71 42.99
45.24 43.57 43.08 41.55 42.80 46.68 48.21 46.43 45.81 45.17 45.34 44.75 44.22 46.00 46.28 45.82 44.39 47.83 49.54 48.96 49.09 48.61 45.17 48.13 48.60 48.49 49.81 50.14 50.15 49.31 42.72 50.09 50.44 50.72 50.87 51.42 51.35 51.72 52.02 52.16 52.36 52.08 51.29 50.11 49.48 48.92 48.12 47.23 46.05 45.00 43.92 42.97 42.43 41.64
45.24 45.45 45.29 44.50 44.18 44.64 46.10 46.09 44.80 44.04 44.90 44.07 45.09 46.19 46.35 46.14 44.14 49.36 51.81 51.53 50.40 50.81 50.01 50.09 50.31 50.32 50.69 50.56 50.34 48.58 45.97 48.90 42.11 37.21 38.05 39.05 40.15 45.23 51.29 51.98 51.42 50.81 49.82 48.96 48.37 47.65 46.33 45.48 44.46 43.66 42.91 41.99 41.11 40.41

GFSWCAN_sfc_wetblb_018.txt.gz
Wetbulb
48.49 48.40 48.28 48.17 47.99 47.69 47.23 46.68 46.92 46.84 47.67 47.81 47.87 47.58 47.72 47.74 47.41 46.81 48.29 49.27 46.18 44.95 46.37 45.83 48.26 47.96 49.04 49.07 46.05 49.95 48.12 50.70 50.88 48.08 48.29 48.97 47.92 50.50 49.38 51.15 50.57 49.50 48.23 47.31 48.60 46.95 45.60 61.14 61.39 57.65 62.47 65.19 66.00 66.12
48.10 48.65 48.18 48.22 48.21 48.01 47.25 46.69 46.77 46.94 47.82 47.12 47.32 47.30 47.10 47.46 47.54 47.43 47.16 50.08 48.26 44.16 45.79 47.41 48.12 48.92 49.14 49.64 49.75 50.21 49.69 52.03 53.73 50.19 52.51 52.28 49.79 52.13 50.39 46.98 56.62 50.02 53.40 51.58 51.70 50.78 60.95 62.96 63.64 65.34 64.90 64.49 65.91 65.97
48.35 48.35 48.04 48.33 48.17 48.42 47.19 46.84 46.82 47.08 47.77 47.18 46.84 47.24 47.19 47.06 47.79 47.35 46.88 48.26 47.49 45.55 47.07 47.30 47.80 50.83 51.30 49.68 51.24 47.51 51.44 54.16 54.80 55.39 53.68 53.33 49.70 53.75 48.63 49.56 53.70 56.50 59.02 54.57 55.40 58.00 60.11 62.23 64.80 65.23 65.72 65.42 67.20 66.73
48.02 47.94 48.04 47.62 47.48 47.41 47.37 47.29 46.79 46.66 47.27 47.34 46.81 47.12 47.21 47.03 47.65 47.65 45.84 49.65 47.43 46.24 43.28 47.21 51.57 49.94 52.11 51.94 50.61 50.22 50.91 55.80 55.00 54.71 53.52 52.40 49.86 53.79 52.14 53.04 52.91 56.70 58.27 55.85 56.13 59.69 61.13 62.62 63.83 64.35 64.45 65.78 65.52 66.78
48.14 47.41 47.51 47.96 47.77 47.73 47.73 47.50 46.76 46.43 46.44 47.29 46.78 46.51 46.86 47.14 47.76 47.98 48.86 50.73 50.10 45.02 43.72 47.17 51.00 51.50 52.32 51.31 50.16 50.79 49.64 49.52 50.88 50.07 51.16 49.72 54.37 52.64 54.00 53.73 52.28 57.30 55.68 54.68 54.18 59.67 60.16 61.79 63.78 64.00 64.26 64.44 64.98 64.38
47.82 47.41 47.46 47.57 48.05 47.64 47.22 47.08 46.60 46.16 46.16 46.73 46.91 46.94 47.32 47.29 47.79 48.63 47.06 50.60 51.54 50.01 44.93 45.10 50.59 50.33 52.54 53.06 51.85 50.70 50.71 49.44 50.01 49.99 51.59 53.36 53.50 52.20 50.11 49.45 55.04 55.86 56.55 57.86 56.85 60.99 61.55 62.91 63.56 64.37 63.50 63.93 64.61 64.64
47.39 47.64 47.46 47.70 47.60 47.04 47.08 46.54 46.26 46.09 46.14 46.56 46.97 47.11 47.18 47.23 47.09 47.29 46.02 48.38 47.25 50.68 45.93 45.84 47.31 52.22 53.38 51.95 51.78 51.08 50.95 51.09 50.34 50.35 49.31 49.63 51.56 51.33 49.58 47.81 53.89 54.89 56.35 56.56 57.86 59.60 59.63 60.71 61.32 63.77 64.35 63.63 62.45 64.96
47.21 47.53 47.57 47.79 47.51 47.04 46.70 46.11 46.15 46.22 46.47 46.84 46.89 47.21 47.20 47.55 47.87 47.72 51.82 46.99 49.12 47.36 48.17 44.93 47.49 49.04 53.52 50.72 49.21 53.08 50.16 50.65 50.75 49.72 51.93 48.79 50.25 50.15 45.45 50.43 53.33 55.16 56.23 56.22 56.62 57.76 59.63 60.18 61.66 62.82 64.06 63.71 62.95 63.01
47.52 47.68 47.57 48.03 47.59 47.06 46.29 45.89 45.91 46.30 46.47 46.60 47.27 48.13 49.99 48.64 47.56 47.30 49.93 48.67 51.39 47.38 44.69 46.79 45.38 42.32 53.37 52.83 54.52 52.88 52.53 46.79 53.17 48.17 48.71 49.46 47.00 44.60 48.71 50.74 53.17 54.29 54.58 55.42 56.93 57.11 57.51 58.96 59.11 60.25 61.81 62.00 60.76 62.00
47.78 47.69 47.79 48.05 47.44 47.01 46.26 45.79 45.96 46.42 46.38 45.98 48.61 47.57 44.63 48.95 48.91 49.78 48.31 45.32 46.43 46.76 47.14 45.32 49.80 46.27 50.29 50.95 49.34 50.97 51.62 48.46 46.20 48.69 53.24 47.28 45.93 50.26 52.88 54.28 55.56 55.04 55.75 56.29 54.90 53.38 56.48 55.92 56.72 57.89 59.52 61.60 62.12 61.57
48.12 47.75 47.77 47.88 47.44 47.10 46.23 45.48 45.97 46.07 44.71 48.01 45.53 45.91 50.05 47.79 49.80 47.85 42.76 42.41 45.26 41.68 46.85 49.26 49.20 46.72 53.38 47.92 48.93 52.11 49.56 50.64 43.60 47.47 46.21 45.75 45.33 49.78 52.91 53.52 54.92 55.78 56.25 56.68 57.46 57.87 58.55 58.43 57.29 57.15 56.65 59.35 62.29 63.27
48.35 48.05 48.00 47.73 47.61 46.95 45.76 45.29 45.60 46.64 47.64 46.31 46.68 47.80 50.64 47.24 45.75 40.76 39.75 42.44 42.81 43.01 47.67 47.80 49.53 50.96 52.20 54.33 49.81 51.02 46.38 48.78 41.43 50.57 46.26 43.21 49.30 51.23 51.73 53.01 54.02 55.45 55.44 55.76 57.21 57.46 58.17 58.75 59.25 58.50 57.88 59.16 61.60 62.81
48.36 48.22 48.14 47.46 47.42 46.53 45.38 45.45 45.15 45.75 46.04 47.84 45.86 44.84 45.28 44.51 35.24 36.81 35.48 40.67 43.22 48.76 49.41 50.35 47.82 51.36 52.21 52.38 49.09 48.11 43.11 43.36 51.62 44.97 44.31 44.93 46.39 49.60 51.45 53.44 53.90 55.36 55.86 55.66 55.88 57.41 58.34 58.53 59.52 59.61 58.37 59.91 62.17 63.06
48.28 48.20 47.94 47.66 46.85 46.07 45.38 45.39 45.21 46.54 47.29 44.37 41.09 34.16 38.94 37.95 40.76 42.05 41.25 44.37 44.75 48.85 47.95 48.57 49.24 49.36 51.63 48.10 49.82 42.88 47.27 48.25 41.91 40.27 40.55 42.93 47.02 47.94 50.91 52.70 53.63 53.68 54.76 55.15 55.31 56.33 57.49 58.43 59.37 60.25 59.42 60.36 61.99 62.46
48.19 47.92 47.51 47.11 46.53 45.78 45.51 45.23 45.30 48.13 47.60 42.18 42.22 34.68 38.73 45.64 47.02 47.73 47.89 48.85 49.68 50.38 49.16 48.34 48.55 48.52 48.35 45.40 47.94 45.58 42.23 39.81 41.49 39.32 41.70 46.13 48.34 49.82 49.80 51.39 52.38 52.79 53.67 53.43 54.38 54.81 56.85 58.22 59.26 59.62 60.52 61.81 62.51 62.75
48.14 47.73 46.62 47.02 46.39 45.87 45.65 45.47 46.73 48.61 47.48 44.33 42.78 39.98 44.82 43.53 42.79 44.91 44.99 46.69 50.42 50.10 51.39 49.46 46.02 43.52 42.13 44.71 41.92 41.01 40.46 39.68 40.47 44.27 47.16 48.94 49.91 49.52 50.08 49.05 49.45 51.01 51.95 52.60 53.69 54.41 56.38 58.58 59.34 59.60 61.44 62.16 62.76 61.68
47.05 46.57 46.68 46.68 46.38 46.07 45.67 46.48 46.40 42.68 43.74 41.42 42.06 46.73 45.26 46.39 46.18 47.75 50.39 48.92 51.64 48.38 44.03 46.69 40.22 40.14 46.69 41.99 39.84 45.58 42.83 45.60 47.66 48.88 49.73 50.69 49.56 49.81 49.08 49.33 50.55 51.37 51.64 53.94 54.35 54.85 56.67 56.44 56.80 56.52 55.99 57.32 58.54 58.82
46.56 47.01 46.73 46.93 46.97 45.45 46.76 47.05 45.37 43.31 39.68 44.04 41.91 42.75 46.86 47.91 48.19 49.65 50.71 50.95 48.85 48.39 47.44 43.94 47.48 42.17 40.41 37.51 40.81 48.50 49.07 49.50 49.81 48.82 48.63 48.00 49.25 49.06 49.51 49.72 51.29 51.74 52.86 53.76 54.10 54.96 54.86 54.18 53.67 53.84 55.54 56.01 55.61 55.47
46.92 47.29 46.75 46.61 46.32 47.52 44.42 44.34 45.92 40.80 43.81 43.95 44.45 45.88 46.55 47.66 49.97 50.38 50.22 50.76 50.88 50.25 48.53 46.50 43.07 42.12 42.31 46.03 46.50 47.47 48.32 48.01 46.28 46.12 46.75 48.94 50.68 50.80 51.15 51.78 52.26 52.98 53.56 53.60 54.62 55.61 55.94 55.33 54.52 54.56 54.74 55.36 54.08 54.60
47.62 47.52 46.99 45.89 45.99 47.15 41.44 43.87 48.07 42.98 42.57 45.30 47.43 47.32 47.38 47.42 48.47 48.97 48.70 47.82 45.34 45.69 43.43 40.37 43.26 46.88 47.02 47.70 47.63 47.04 47.87 47.38 45.68 44.52 46.67 49.29 50.69 50.74 50.63 51.31 51.65 52.66 52.79 53.22 53.56 51.18 54.23 54.68 55.28 54.92 55.12 53.18 51.60 51.56
44.57 46.03 45.82 46.25 47.64 47.25 45.41 44.49 43.83 45.89 46.57 45.63 47.74 46.19 45.89 48.25 44.78 44.70 44.39 46.45 44.48 43.42 42.04 45.66 47.07 47.90 50.41 49.31 49.09 47.86 46.53 46.94 46.40 47.85 48.19 48.07 50.24 50.97 50.38 51.65 52.48 52.59 51.68 51.68 50.93 50.00 50.88 51.50 52.66 53.31 52.59 52.07 52.30 52.35
46.94 44.68 48.21 47.49 44.96 43.58 44.29 46.92 44.78 46.89 44.76 45.76 45.24 44.77 42.47 40.41 40.42 40.70 42.16 40.25 41.03 43.41 46.05 47.06 47.65 47.41 45.52 45.08 46.60 48.26 50.50 50.55 50.46 49.64 48.30 48.39 49.36 49.20 49.64 50.56 50.77 50.37 50.84 50.85 51.27 50.84 51.34 52.32 53.24 53.29 54.17 54.13 53.36 53.16
45.25 46.65 47.41 45.07 40.36 39.90 39.55 48.04 41.68 42.85 39.01 39.25 42.84 38.71 38.98 39.07 40.54 42.84 39.18 40.54 41.20 44.46 45.20 44.60 44.77 45.78 45.37 47.65 50.58 50.62 51.07 50.22 49.26 49.62 49.60 49.80 50.29 51.43 51.97 52.12 52.80 51.55 50.71 51.46 52.92 52.66 52.05 48.66 50.55 52.46 52.93 52.79 51.65 49.33
42.40 44.36 40.21 40.28 41.37 37.59 43.97 39.78 40.75 39.23 38.35 37.72 37.24 36.11 37.68 38.69 40.97 37.94 35.25 38.00 41.82 44.18 47.36 47.94 49.65 48.79 49.27 49.21 48.70 49.28 50.22 51.13 50.28 50.52 50.83 50.07 49.23 50.06 51.92 52.41 52.26 52.70 53.22 53.28 53.72 54.06 52.78 52.14 50.79 54.17 52.90 51.68 51.90 51.06
37.44 37.53 39.48 34.37 42.06 38.51 35.68 36.12 36.17 36.19 35.66 37.79 36.37 36.88 38.04 39.56 35.40 33.68 33.87 39.33 42.70 44.43 48.39 49.51 49.58 49.16 47.68 48.15 49.08 49.74 51.65 51.72 50.77 50.20 52.45 52.79 53.66 53.72 51.32 50.29 53.59 55.77 54.90 53.39 53.63 53.62 52.52 51.07 49.15 49.09 50.18 51.77 50.76 50.01
33.96 38.70 36.80 38.27 38.17 36.20 36.89 34.22 34.40 36.64 38.45 37.27 37.86 40.01 40.61 38.61 35.17 32.44 37.38 41.38 43.11 45.04 48.73 49.04 48.55 48.41 48.48 50.29 49.14 49.72 51.18 54.26 52.92 49.29 51.11 51.73 52.30 53.31 52.10 49.54 49.24 50.86 55.00 54.62 53.88 53.12 53.00 53.43 52.46 51.03 49.97 48.57 43.94 50.20
34.45 36.33 39.38 42.06 39.87 38.40 36.74 37.96 39.19 38.76 38.53 37.89 39.04 38.46 39.55 35.64 32.98 38.30 43.79 45.77 45.57 49.35 51.19 51.51 51.54 50.93 51.47 52.08 50.15 52.91 55.89 54.19 54.83 54.52 55.16 55.37 55.25 54.96 53.42 51.14 49.97 50.95 52.51 51.92 51.77 51.34 50.46 50.29 50.29 50.35 50.64 51.42 51.52 51.38
37.41 37.70 34.78 37.23 37.48 39.19 38.13 39.29 39.77 39.30 41.12 44.04 41.46 37.52 37.11 35.29 36.36 43.29 45.35 47.40 49.33 51.16 50.91 52.17 53.08 51.57 49.87 50.03 53.37 54.00 55.12 55.67 55.77 55.58 54.97 54.57 54.62 54.12 53.98 53.27 53.36 41.94 52.64 52.98 52.96 53.05 52.62 52.16 51.69 51.55 51.28 51.31 51.77 52.70
38.10 39.58 39.38 38.88 40.44 41.00 41.82 40.88 40.71 43.79 45.94 44.29 40.87 39.75 40.51 43.87 46.23 47.19 47.75 49.68 51.27 51.65 52.13 52.48 52.81 52.75 51.43 51.31 53.12 53.78 54.68 53.27 51.84 50.05 48.89 48.19 48.98 50.62 53.13 53.26 53.42 53.30 53.06 52.44 39.34 46.10 52.17 52.34 52.49 52.71 52.33 52.37 52.32 52.48
41.97 43.33 41.38 41.93 40.50 39.70 43.88 45.31 44.72 48.21 49.12 48.25 48.04 47.74 47.46 48.35 50.66 53.09 52.67 52.23 50.76 50.02 51.21 52.01 52.22 50.85 49.53 49.62 49.96 51.39 54.41 53.90 52.62 51.10 49.33 48.98 50.10 52.57 53.26 53.29 53.29 53.24 53.53 53.23 52.28 51.17 41.32 49.96 47.54 52.23 51.60 51.71 51.27 50.37
48.27 46.51 44.04 43.26 42.77 45.62 47.57 49.31 49.79 49.53 48.94 48.15 48.43 46.31 46.06 48.29 50.58 52.75 53.38 53.96 52.94 52.60 51.48 50.50 50.71 51.47 51.05 50.69 50.13 49.47 49.39 52.47 53.26 53.26 53.19 53.37 53.47 53.73 53.88 54.31 54.96 55.39 55.79 55.64 55.04 54.50 53.02 53.16 53.41 51.59 50.64 49.61 47.90 48.63
46.23 44.78 44.54 42.65 43.95 48.30 49.99 47.96 47.36 46.90 47.24 46.81 46.73 48.42 48.28 47.63 45.65 48.88 52.08 52.74 51.52 50.89 45.75 50.29 50.59 50.83 52.55 52.91 53.07 53.17 46.63 53.12 53.46 54.02 53.59 54.09 54.20 54.86 55.30 55.56 55.42 55.42 55.11 54.11 54.25 53.26 52.29 51.74 51.86 50.58 49.27 47.72 47.27 46.23
46.55 46.02 46.14 45.69 45.49 45.61 47.70 46.96 46.08 45.46 46.68 46.43 47.02 48.18 48.42 47.63 45.49 50.31 54.32 55.36 53.66 51.96 51.83 52.42 53.01 53.45 54.12 53.65 53.48 52.61 50.11 53.16 44.79 37.67 39.27 39.03 39.20 45.20 54.48 55.08 54.77 54.79 53.73 54.01 53.12 52.10 50.62 49.28 49.71 48.26 47.36 46.26 45.35 44.78

GFSWCAN_sfc_wetblb_021.txt.gz
Wetbulb
49.90 49.47 48.58 48.80 48.41 48.30 48.29 47.68 47.45 47.34 47.82 47.85 48.00 48.28 48.55 48.44 48.40 48.88 51.21 52.55 49.17 48.22 49.80 48.99 50.10 50.63 51.25 51.29 49.08 53.07 52.09 52.26 52.84 48.71 48.34 49.06 49.07 50.58 50.07 52.67 52.60 51.63 49.08 48.27 48.81 47.07 45.04 60.62 61.19 56.98 63.96 67.00 67.70 68.02
49.90 48.89 48.80 48.96 48.61 48.74 48.90 47.71 47.22 47.19 47.98 48.02 47.54 47.98 48.40 47.91 48.35 48.63 50.93 53.75 51.80 46.55 48.52 51.04 51.02 51.94 52.68 53.41 51.91 54.39 52.16 54.45 53.38 50.44 51.37 51.95 50.44 52.02 51.55 47.40 55.12 51.30 54.09 52.92 52.74 51.30 63.35 64.17 65.27 66.84 67.55 66.75 67.58 68.10
49.59 48.70 48.63 48.49 48.49 48.40 48.69 47.67 47.49 47.30 47.50 48.23 47.39 47.39 47.90 47.90 48.13 48.48 49.78 51.96 51.55 48.86 49.85 49.64 49.80 52.95 52.56 52.29 54.76 49.62 52.42 57.67 56.81 58.24 55.69 54.26 51.30 54.81 49.88 50.66 52.82 56.80 58.13 55.51 55.57 57.86 61.66 63.22 65.86 67.05 67.50 67.52 68.50 68.67
49.33 48.68 48.68 48.42 48.10 47.84 47.67 47.74 47.87 47.35 47.00 47.38 47.91 47.28 47.37 47.58 48.07 48.14 50.17 52.47 51.36 49.75 45.96 50.14 54.79 52.79 55.27 54.15 52.68 53.64 53.57 57.09 57.88 56.48 52.86 52.69 51.32 55.92 52.59 54.13 54.90 57.05 58.78 56.08 55.90 61.35 61.77 64.10 64.95 65.81 66.58 67.69 67.95 68.92
48.57 48.49 48.32 48.15 48.34 47.99 48.01 48.08 47.96 47.39 46.87 46.90 47.41 47.60 47.32 47.69 48.03 49.53 52.30 53.97 55.09 48.77 46.90 49.45 52.85 53.73 54.78 53.98 52.27 53.37 53.05 52.56 52.85 51.74 50.76 50.20 53.52 54.52 54.82 54.12 52.98 56.39 56.75 53.91 54.89 61.08 61.25 61.93 64.94 65.94 65.62 66.03 67.11 66.37
48.17 48.82 47.97 47.62 47.75 47.84 48.31 47.55 47.38 47.06 46.50 46.59 46.86 47.33 47.49 47.54 47.92 50.08 49.79 54.31 57.19 53.53 48.23 47.34 53.93 52.40 54.04 54.11 53.08 53.19 53.25 52.73 52.07 51.30 51.12 52.87 56.54 54.13 49.87 49.96 55.22 57.22 58.98 59.85 57.55 61.60 62.64 63.86 64.62 65.49 65.18 65.44 66.60 66.12
47.79 48.07 48.08 47.67 47.72 47.76 47.70 47.21 47.05 46.84 46.57 46.62 46.91 47.38 47.53 47.49 49.29 47.95 47.02 49.52 49.20 53.92 48.97 47.77 48.18 53.18 54.97 54.79 54.21 53.94 55.13 52.94 51.96 51.00 50.26 51.18 52.40 52.72 50.25 48.37 56.01 56.20 58.05 59.18 59.96 60.37 60.62 61.08 61.53 64.41 65.22 65.32 64.38 65.42
48.06 47.55 48.07 47.92 47.78 47.72 47.53 47.11 46.64 46.64 46.65 46.99 47.28 47.65 47.73 47.88 48.51 49.00 52.75 49.33 50.19 50.51 51.04 47.03 46.95 49.99 55.20 50.82 49.73 53.79 51.32 51.69 51.84 50.42 51.95 50.43 51.54 51.87 47.07 51.83 54.03 55.84 57.43 57.75 58.62 59.74 60.06 62.10 62.45 63.16 64.20 64.21 63.80 62.87
48.21 47.81 47.66 47.79 47.94 47.99 47.70 46.87 46.33 46.26 46.90 47.20 47.05 47.50 50.67 49.44 47.94 49.52 49.99 49.33 53.49 50.12 47.28 48.13 45.55 44.70 53.88 51.30 52.49 51.85 53.03 48.33 52.57 49.45 49.62 50.78 48.90 46.17 50.24 51.91 52.85 54.74 55.19 55.50 57.39 58.69 59.47 58.75 59.12 60.68 61.21 62.21 62.73 62.51
48.35 48.03 47.62 47.93 47.89 48.13 47.41 46.82 46.16 46.36 46.97 47.07 47.83 48.15 45.27 49.18 50.22 49.87 51.00 47.71 47.93 48.85 50.06 47.03 52.92 46.09 51.43 51.85 49.05 50.04 50.58 47.16 45.19 47.95 52.32 48.01 48.27 52.66 53.06 54.47 56.22 56.56 56.25 57.26 55.51 55.32 56.50 57.73 58.94 57.63 58.35 59.69 62.48 62.78
48.47 48.12 47.53 48.14 48.13 47.94 47.41 46.60 45.97 46.67 46.47 48.32 47.83 45.43 50.74 49.95 51.37 47.69 44.45 44.85 45.69 45.04 48.92 49.74 51.06 47.98 53.92 47.48 49.60 52.27 49.19 50.45 44.74 48.17 47.28 45.82 46.67 51.52 54.34 54.14 56.42 56.60 57.38 57.63 58.28 58.45 58.74 59.05 57.25 58.15 56.75 57.73 58.56 63.48
48.74 48.39 48.14 48.01 48.17 47.81 47.29 46.04 46.10 47.03 49.75 46.77 47.49 50.34 53.86 48.98 45.44 42.23 43.21 46.40 44.06 42.43 49.22 47.46 49.34 51.47 51.14 54.72 50.92 50.71 46.24 49.13 42.76 51.78 47.97 44.41 50.67 54.78 54.95 54.03 53.72 56.40 56.75 56.51 57.52 57.59 58.26 58.50 59.58 59.74 58.78 58.74 59.68 62.32
48.75 48.34 48.48 48.53 47.94 47.94 46.92 45.86 46.01 46.23 46.69 51.15 48.47 46.69 44.08 43.75 35.72 37.28 38.05 42.62 41.88 47.63 52.54 52.50 48.95 51.85 54.63 54.39 50.36 49.69 44.79 44.63 51.81 44.60 44.87 47.81 51.85 52.73 53.29 53.55 53.09 54.58 55.75 57.01 57.00 57.82 58.18 58.46 59.05 59.72 59.45 59.42 60.23 60.40
48.59 48.15 48.38 48.53 47.91 47.47 46.08 45.93 45.70 46.89 47.27 45.44 43.22 34.38 40.50 39.55 41.87 45.73 47.64 45.41 52.03 52.21 51.33 48.82 47.41 48.67 52.50 49.59 51.03 44.77 48.59 50.05 43.57 41.68 42.50 50.01 51.57 52.27 53.44 54.19 53.36 52.84 53.71 54.83 55.88 57.45 57.79 58.40 58.95 59.81 60.58 60.85 59.30 61.00
48.28 48.30 48.44 47.88 47.56 46.77 45.95 45.76 45.84 48.35 47.40 43.54 44.07 35.75 40.04 45.48 48.23 46.11 47.76 48.57 50.03 51.20 48.62 48.13 48.61 47.75 47.62 45.94 48.48 47.80 43.74 41.52 42.53 43.14 48.60 51.08 52.91 52.93 53.00 53.77 53.17 52.95 52.91 53.63 56.14 56.58 57.36 57.94 59.53 60.42 61.42 61.23 60.88 61.93
48.26 48.10 47.72 47.77 47.05 46.31 46.18 45.95 47.32 49.82 49.10 46.06 45.22 42.36 46.24 43.91 44.16 46.80 48.45 47.09 52.45 50.85 49.62 48.58 45.07 43.66 42.77 44.83 42.28 41.62 41.25 41.41 45.62 51.01 51.49 52.09 51.83 52.13 52.33 53.15 52.17 51.01 51.85 51.91 53.97 56.01 57.18 57.99 59.43 60.75 62.02 62.02 62.08 63.11
47.66 47.17 47.91 47.58 46.95 46.25 45.91 46.84 47.20 45.67 46.26 43.32 44.29 47.21 46.19 46.67 45.86 47.45 52.00 50.98 52.32 47.99 45.61 44.97 40.49 41.53 45.83 42.66 41.02 46.77 44.07 48.09 47.64 48.87 50.15 52.36 51.43 51.38 52.05 51.54 50.75 51.53 51.61 53.07 54.00 55.71 56.70 59.64 62.04 61.71 60.14 62.10 62.57 62.72
46.83 48.87 47.99 47.44 47.37 45.93 47.30 47.65 46.65 45.31 41.49 44.27 43.06 45.01 48.67 49.95 49.54 50.44 52.06 51.93 50.38 46.70 46.68 43.86 47.42 43.44 40.66 39.35 42.38 47.72 48.40 49.15 50.43 50.01 50.55 51.04 48.59 50.12 50.70 50.79 51.06 51.35 52.08 53.43 55.17 56.54 56.90 57.18 56.74 56.63 57.23 57.03 56.19 55.75
48.86 48.46 47.17 47.33 47.76 46.99 45.92 46.68 48.17 42.27 43.74 46.15 49.95 50.50 50.54 50.14 50.41 51.06 51.65 50.69 51.16 51.38 48.97 48.39 43.00 41.76 42.29 46.58 46.32 48.65 49.63 49.39 49.01 48.45 48.06 48.76 50.63 51.04 51.65 52.59 53.17 53.52 54.41 54.78 55.27 55.59 55.87 56.19 55.74 56.28 56.19 56.35 54.16 53.56
47.73 47.10 46.77 46.78 46.51 46.57 43.69 46.46 51.06 44.86 43.44 48.61 47.37 48.06 46.82 46.01 48.05 50.15 48.57 49.31 49.19 47.45 45.17 44.69 45.37 46.27 48.81 49.50 50.76 50.47 50.20 50.18 47.04 45.48 46.84 50.03 51.32 51.31 51.48 52.71 52.83 53.76 53.70 54.84 54.98 52.95 56.97 54.64 55.97 56.02 54.98 53.53 53.46 53.63
47.36 47.39 46.69 47.89 49.50 48.69 47.04 46.86 45.70 46.47 45.11 44.21 45.84 46.79 44.83 48.17 47.43 47.57 45.02 47.89 44.85 45.40 45.33 47.48 48.55 48.70 52.00 51.72 51.40 49.12 47.83 48.23 47.60 47.56 48.00 48.43 50.76 51.16 51.74 52.43 52.81 53.29 52.17 52.46 52.79 52.08 52.18 52.70 53.95 55.48 54.72 54.74 53.24 52.28
48.50 46.42 49.97 48.60 47.20 46.48 46.39 50.29 46.03 47.67 46.15 44.85 46.47 46.26 44.99 45.47 43.56 42.87 43.41 42.26 43.25 45.81 46.67 46.72 47.14 47.45 48.96 47.32 47.22 48.10 50.36 51.21 51.00 50.53 48.47 49.43 50.20 50.36 50.46 51.16 51.15 50.67 50.89 51.39 51.44 51.19 51.86 52.32 52.58 52.95 52.54 53.15 52.80 53.65
45.34 48.49 48.72 46.49 42.25 42.17 40.61 49.76 42.60 45.22 41.12 42.55 45.63 41.36 41.23 40.70 41.76 43.63 40.09 41.70 42.37 45.75 46.13 45.64 45.38 46.61 45.98 47.31 50.23 51.18 51.57 51.01 50.04 50.26 50.78 51.11 52.48 53.03 52.14 52.15 52.58 52.18 52.15 52.68 53.06 52.31 51.52 48.34 49.82 52.01 51.47 51.29 51.14 52.31
40.69 45.97 42.34 43.12 41.90 38.67 45.24 41.22 45.92 42.18 40.73 39.75 38.53 37.45 38.63 40.27 41.68 38.67 35.85 39.03 42.93 45.09 46.30 46.90 48.34 49.08 49.87 50.38 49.46 49.88 50.89 51.60 50.56 50.99 51.48 51.63 51.75 51.71 52.12 51.77 52.70 53.84 53.90 53.90 54.72 53.47 53.47 53.97 50.64 53.30 53.03 52.77 52.84 51.93
39.54 38.04 39.86 33.51 44.46 39.36 37.03 37.76 37.39 37.28 36.41 38.19 37.65 37.97 39.10 40.35 36.33 34.48 35.20 40.55 43.46 45.75 49.06 49.84 49.87 49.81 48.37 48.74 49.90 50.78 52.87 52.44 51.17 50.93 52.81 52.60 54.97 53.39 52.75 54.26 55.07 54.86 55.53 53.00 53.54 55.38 54.39 54.57 54.19 53.93 53.05 52.04 51.43 51.72
33.90 40.37 37.84 39.26 41.87 37.97 38.39 35.91 35.20 37.05 38.81 38.07 38.50 40.46 41.14 39.01 35.38 32.86 38.72 42.15 43.86 46.95 49.30 49.39 49.28 49.06 49.62 51.03 50.30 51.91 53.25 54.84 55.55 54.20 53.49 52.90 53.51 53.77 52.94 52.15 52.35 54.22 56.89 56.90 55.45 53.80 52.79 53.53 52.71 51.73 51.15 50.20 45.65 51.81
35.97 37.69 41.47 44.33 41.22 39.13 37.49 38.74 40.27 39.13 38.91 38.46 39.51 39.30 39.94 35.13 33.75 39.70 44.66 47.17 47.51 50.30 52.18 52.68 52.46 50.40 50.81 53.54 54.69 54.64 54.24 55.36 55.65 54.20 55.02 54.53 55.27 55.40 53.62 51.80 50.99 51.80 53.65 53.54 53.81 53.35 52.19 51.54 51.45 51.85 52.34 53.15 53.20 53.00
38.26 38.73 35.73 38.31 38.49 40.06 38.95 40.04 39.94 40.21 42.17 44.70 43.03 39.20 37.49 36.46 38.01 43.87 46.35 48.59 51.53 52.33 53.26 54.04 52.21 54.25 55.74 54.99 55.84 54.92 54.89 55.92 56.50 56.09 55.17 54.69 54.38 53.70 54.04 53.79 53.89 43.05 52.84 52.41 54.27 54.49 54.04 53.64 53.33 53.11 52.85 52.59 52.71 53.66
38.52 40.34 40.25 39.10 40.85 41.25 42.57 41.41 42.05 44.20 47.50 46.04 42.36 40.37 40.45 44.27 46.73 47.70 49.33 51.15 53.76 51.94 51.09 51.09 52.30 56.52 57.15 55.81 56.53 56.59 56.03 55.14 53.14 50.15 49.36 49.43 50.61 52.07 54.61 54.43 54.50 54.77 54.60 54.14 39.96 46.97 52.38 53.32 54.03 54.05 53.55 53.38 54.08 55.13
41.88 42.91 41.38 42.47 41.65 41.26 46.05 47.89 46.52 48.33 48.84 48.09 47.38 45.76 45.47 46.94 49.78 52.55 53.17 54.29 53.61 52.73 53.67 54.24 54.78 54.06 53.56 53.55 53.11 53.39 54.08 54.56 54.05 52.45 50.71 50.83 51.96 54.08 54.61 54.50 54.50 54.76 55.12 54.64 53.64 52.79 41.54 50.66 48.66 53.83 53.60 54.34 54.02 53.77
47.85 46.81 44.61 44.16 43.41 47.14 48.03 49.64 50.31 50.19 49.36 48.13 48.93 47.20 46.92 49.14 51.96 53.84 52.99 52.88 52.63 52.61 52.07 51.29 51.52 52.47 51.81 51.19 51.25 51.57 51.42 54.18 54.76 54.97 54.86 54.97 54.98 55.15 55.16 55.75 56.33 56.67 57.12 57.03 56.49 55.90 54.34 53.86 55.34 54.08 53.09 51.91 51.06 49.15
46.53 44.53 44.29 42.98 43.70 47.83 49.63 47.87 46.82 46.23 46.74 46.84 47.40 48.96 48.75 48.04 46.51 50.00 53.71 54.33 53.37 52.46 47.53 52.43 52.79 52.65 54.22 54.42 54.26 54.03 47.87 54.47 55.00 55.71 55.79 55.71 55.60 56.21 57.51 57.52 56.87 56.51 57.05 56.41 56.21 55.74 54.03 53.23 54.07 53.16 52.46 50.51 50.12 49.24
46.86 47.16 47.02 46.80 46.15 45.74 47.70 47.66 46.72 46.45 47.65 46.60 47.37 48.91 49.31 48.71 46.43 50.90 55.92 56.49 53.36 52.83 53.14 53.54 54.21 54.98 55.50 55.01 54.96 54.22 52.09 54.23 45.47 37.94 39.22 38.09 37.81 44.54 54.25 56.14 55.97 56.16 55.22 55.43 55.39 54.41 52.75 51.43 52.19 50.88 50.08 49.34 48.53 47.97

GFSWCAN_sfc_wetblb_024.txt.gz
Wetbulb
51.18 50.61 50.09 48.98 49.30 48.72 48.65 48.88 48.31 47.97 48.05 49.11 48.49 48.28 48.91 49.12 48.98 49.16 51.81 54.55 49.49 48.06 50.42 51.05 50.62 50.05 51.75 51.83 49.38 52.84 52.97 52.92 51.91 47.18 46.99 47.97 48.14 50.66 50.45 53.54 52.43 51.14 49.20 47.85 49.75 46.86 44.03 56.65 59.67 57.53 63.92 67.15 66.89 66.90
51.48 50.65 49.91 48.78 49.33 48.72 49.09 49.43 48.26 47.99 47.79 48.61 48.82 48.21 48.41 48.73 48.98 49.23 50.93 54.43 53.68 47.39 48.21 51.88 51.46 52.07 52.08 53.98 51.82 53.46 52.89 53.02 54.32 50.33 51.01 50.04 47.97 51.16 54.33 47.83 55.98 50.11 54.71 52.03 53.18 51.92 64.52 65.31 65.27 67.07 67.36 66.82 67.37 67.73
51.53 50.92 49.67 48.70 49.00 48.75 48.57 48.60 47.91 48.15 47.97 47.85 48.24 48.39 48.02 48.08 48.46 48.40 49.22 52.86 52.64 49.68 50.46 50.18 49.45 53.61 52.87 52.16 55.28 50.25 53.94 56.18 57.16 58.87 54.86 54.07 50.76 52.54 49.43 50.59 53.43 55.99 59.15 55.42 56.18 59.48 62.10 64.43 65.66 66.05 67.20 66.62 67.73 68.12
51.20 50.79 49.53 48.93 48.87 48.81 48.00 47.93 48.19 48.54 47.91 47.82 47.63 48.09 48.07 48.10 48.22 48.20 49.30 53.37 52.36 50.43 46.11 50.08 56.24 53.36 55.61 54.45 52.21 53.40 53.53 55.39 56.12 56.85 53.33 52.31 51.48 56.19 52.41 53.93 53.00 55.37 57.93 56.61 56.59 60.69 60.15 62.85 64.31 64.74 66.09 67.46 68.20 68.62
50.73 50.49 49.48 48.88 48.58 48.62 48.50 48.31 48.46 48.00 47.82 47.45 47.41 47.66 48.04 48.20 48.36 48.65 51.90 54.18 55.58 49.38 46.49 49.32 54.00 54.43 55.20 54.82 52.86 52.35 53.12 53.23 52.60 50.66 49.47 49.11 52.25 52.36 53.70 53.89 52.33 57.04 55.90 54.34 54.96 59.86 61.17 61.65 64.10 65.09 64.91 65.03 66.52 66.50
50.03 49.41 48.94 48.67 48.39 48.47 48.33 48.37 48.11 47.74 47.58 47.32 47.21 47.48 47.83 48.19 48.33 49.85 50.57 54.70 54.85 54.13 48.07 47.08 54.62 53.79 54.08 53.79 52.43 51.99 53.05 52.92 51.85 50.53 50.46 52.26 55.06 54.14 49.95 49.49 55.69 56.91 59.60 60.21 56.51 59.65 58.57 63.58 63.53 64.64 64.12 65.26 66.31 66.12
49.08 48.83 48.41 48.79 48.09 48.00 48.03 48.10 47.60 47.47 47.33 47.17 47.40 47.59 47.84 48.07 48.01 48.51 46.94 50.96 49.28 53.18 48.84 47.25 48.25 53.05 54.59 53.56 52.74 52.56 53.95 52.41 51.83 50.52 49.66 50.78 52.14 52.82 49.77 47.71 55.03 57.25 58.05 59.25 60.18 60.03 59.10 61.30 60.43 62.90 63.73 64.70 64.42 65.56
49.01 48.53 48.09 48.48 48.17 48.06 48.14 47.80 47.43 47.17 46.87 47.11 47.59 48.15 48.33 48.40 48.59 49.08 52.71 50.43 50.01 50.56 50.91 46.78 47.60 50.39 54.98 50.11 49.58 53.65 51.46 51.87 51.37 50.17 51.08 49.87 51.06 51.72 47.28 52.42 53.81 56.05 57.20 57.59 57.97 59.14 59.49 60.27 61.72 59.77 61.10 62.99 63.52 63.97
48.74 48.71 48.19 48.12 48.37 48.15 48.09 48.08 47.43 46.86 46.74 47.17 47.63 47.90 49.42 49.12 49.16 51.48 51.13 50.67 53.65 50.79 46.89 47.61 45.39 44.59 53.72 51.56 52.94 52.63 52.32 47.69 52.09 48.81 49.06 50.35 48.81 46.38 50.55 53.44 53.29 54.14 55.23 55.12 56.88 57.16 58.17 58.04 58.89 60.70 60.92 61.55 61.65 63.04
48.64 48.79 48.49 48.11 48.09 48.14 48.38 48.05 47.31 46.83 46.87 47.01 46.92 47.40 46.36 50.92 52.15 50.94 50.88 49.72 49.09 50.43 50.03 46.39 51.02 47.10 51.64 50.91 50.27 50.62 51.30 48.01 44.87 48.78 51.45 48.25 46.99 53.13 53.39 54.47 56.15 56.75 56.46 56.09 54.19 54.04 55.86 56.78 58.43 59.56 59.17 60.30 60.29 60.56
48.25 48.61 48.45 47.71 48.07 48.21 48.45 47.79 47.16 46.70 46.83 48.20 46.74 46.97 52.44 51.83 50.92 50.61 45.36 45.00 46.84 45.26 48.49 48.37 49.79 49.67 53.87 47.62 48.86 50.60 49.44 49.78 44.61 47.18 46.97 46.49 45.94 51.79 55.20 56.29 57.13 56.13 56.18 56.15 56.73 57.16 57.19 57.03 55.57 57.56 58.86 59.33 59.32 61.52
48.56 48.32 48.44 48.16 48.33 48.52 48.28 47.57 46.84 45.77 48.39 46.64 46.18 50.33 51.63 48.41 46.34 42.92 42.29 45.98 45.45 43.37 49.31 47.64 49.68 51.01 52.39 54.55 51.14 49.77 46.92 46.91 42.47 52.31 46.85 44.09 50.57 54.81 55.29 55.34 56.01 56.80 56.49 56.63 57.04 56.27 56.42 57.23 57.81 58.25 57.69 58.91 59.49 60.48
48.95 48.49 48.37 48.71 48.56 48.48 48.03 47.47 46.27 46.43 47.30 51.26 48.11 46.32 44.43 45.32 36.01 38.38 37.87 42.54 43.42 47.54 50.57 50.50 50.06 50.90 52.58 53.27 49.90 48.44 44.59 44.77 51.01 45.55 44.50 49.25 52.51 53.95 54.84 55.46 54.78 55.83 55.78 55.81 56.19 56.44 57.08 56.89 57.98 58.37 58.39 59.19 60.73 61.39
48.63 48.36 48.52 48.67 48.91 48.30 47.89 46.62 46.10 47.05 47.18 45.56 43.04 35.46 40.46 39.91 42.84 44.39 44.68 45.87 49.82 49.91 49.35 49.96 48.73 49.81 50.40 49.88 50.03 44.58 47.90 49.03 43.60 41.16 42.39 50.41 51.67 52.33 54.22 55.10 54.51 53.39 54.49 54.54 55.06 56.06 56.47 55.90 57.20 58.26 59.06 59.60 59.03 60.29
48.35 48.38 48.45 48.53 48.31 48.08 46.99 46.28 46.01 47.88 46.51 43.84 44.06 35.52 40.20 46.15 48.67 48.48 49.59 50.52 51.11 50.81 49.57 49.01 49.20 48.77 48.45 46.99 47.43 46.65 43.90 41.87 44.37 43.97 48.11 51.01 52.74 52.98 53.23 53.89 53.55 53.74 53.27 53.80 53.95 54.13 54.72 55.44 57.21 58.39 59.88 60.99 61.15 61.40
48.36 48.05 47.01 48.52 48.10 47.27 46.62 45.99 46.97 48.95 48.05 45.29 44.71 42.59 46.18 45.42 47.05 47.53 48.45 47.82 50.96 50.35 50.97 50.43 46.44 45.26 44.52 45.06 43.10 42.52 42.26 41.12 44.76 48.68 49.36 51.52 52.51 53.37 53.35 53.36 53.32 53.81 54.07 53.48 53.23 53.69 55.18 55.67 56.76 58.85 60.37 60.93 61.87 59.44
47.71 45.40 48.38 48.33 47.71 46.93 46.36 46.41 47.54 45.11 44.42 43.08 43.33 47.27 47.39 46.52 47.83 47.75 49.36 50.13 53.33 49.71 46.20 46.25 42.32 42.20 47.99 43.41 41.91 46.15 44.89 47.41 49.42 50.30 50.82 52.60 51.60 51.32 51.53 52.08 52.67 52.49 52.26 53.18 53.03 53.09 54.99 56.79 58.15 59.15 57.98 57.02 60.94 59.96
47.36 48.74 48.30 47.83 47.15 45.75 47.33 47.01 46.27 44.42 41.67 44.81 43.61 46.51 47.54 48.75 49.44 50.69 49.99 51.02 49.04 48.48 48.75 45.36 48.02 43.96 42.85 40.71 43.28 48.15 48.10 48.73 50.44 51.48 51.27 51.30 50.55 49.96 51.20 51.60 52.92 52.48 52.26 53.74 54.22 55.65 56.90 57.59 56.99 55.45 55.63 55.96 55.74 56.00
48.74 48.66 47.88 47.32 47.60 47.61 44.67 46.10 47.75 42.28 43.79 46.42 47.89 47.83 48.51 50.50 51.13 51.50 50.43 51.16 52.17 51.92 48.87 46.47 43.13 42.78 43.24 47.32 48.31 48.91 49.10 49.76 48.86 49.79 50.89 51.15 51.15 51.04 51.42 52.43 53.57 53.93 54.02 54.25 55.18 55.96 56.46 56.71 56.64 56.60 56.32 55.96 54.56 54.50
47.93 47.74 47.56 46.64 46.40 47.05 44.30 45.31 50.06 45.84 43.64 47.31 48.82 46.60 46.62 48.16 50.21 49.25 48.92 50.13 49.13 47.87 45.15 44.15 45.10 46.85 49.71 48.82 49.66 49.38 49.98 50.85 49.27 47.16 47.36 49.72 51.35 51.74 52.24 52.72 52.94 53.20 53.93 55.10 54.71 51.55 54.63 54.19 54.50 54.73 54.78 54.49 53.52 52.46
46.36 46.56 46.74 47.16 49.00 48.61 46.26 45.54 44.96 47.13 46.87 45.84 49.02 49.14 47.09 48.68 48.51 46.54 46.41 48.92 45.88 45.10 42.86 46.95 47.75 49.87 52.71 52.74 51.87 51.48 50.74 49.91 49.28 48.58 47.98 48.56 51.52 51.71 51.85 52.37 52.87 52.82 52.71 52.71 51.94 51.45 51.83 53.83 54.90 55.37 54.35 53.79 53.83 53.13
48.53 46.28 49.87 49.38 46.91 46.61 46.37 49.51 46.97 48.80 46.85 46.67 46.70 47.37 46.25 44.47 44.77 45.52 47.26 45.14 44.55 47.11 47.71 47.82 48.52 48.70 49.03 49.90 50.11 49.60 50.59 51.36 51.21 50.69 48.70 49.70 50.17 50.53 50.73 51.11 51.30 51.52 52.43 52.23 51.90 51.00 51.38 52.39 53.25 53.71 53.50 53.04 53.13 53.91
47.58 49.42 48.90 47.17 42.69 41.54 39.90 49.33 43.72 44.70 41.49 43.35 45.95 42.19 43.65 43.44 43.11 44.81 41.25 42.86 43.61 46.34 46.70 46.12 46.66 47.48 47.13 47.90 49.88 51.45 51.85 51.04 50.38 51.11 52.43 51.64 51.86 52.75 52.24 54.65 53.50 51.22 50.78 51.00 51.86 51.22 50.88 48.18 50.43 52.58 52.19 51.38 50.62 50.03
42.86 46.49 42.80 42.82 41.85 38.02 46.01 42.49 45.12 43.73 43.44 42.01 41.59 39.11 39.76 41.31 42.59 39.64 36.68 39.40 43.36 45.89 45.81 46.39 47.07 48.41 49.66 50.03 49.84 50.13 51.23 51.84 50.98 51.42 52.64 52.18 51.46 51.61 53.66 54.39 54.28 54.01 53.11 52.04 51.23 50.55 50.10 50.00 47.74 50.26 51.73 53.44 53.62 52.88
40.38 39.74 40.35 32.86 43.48 40.51 38.52 38.51 38.33 37.73 36.43 39.26 38.37 38.72 39.69 40.93 36.84 34.75 34.77 40.68 43.72 45.31 48.95 50.17 50.17 49.74 48.43 49.21 50.15 50.87 53.04 52.91 51.14 51.98 54.18 53.28 52.46 52.94 53.46 53.42 52.68 53.68 53.71 53.23 53.50 54.32 54.68 54.50 54.13 53.58 52.23 51.73 51.53 51.60
34.79 39.89 38.28 39.66 40.63 39.41 39.33 36.56 37.21 37.04 38.74 38.47 39.00 40.97 41.29 39.19 35.63 33.88 39.53 42.45 44.15 47.15 49.35 49.45 49.17 49.30 49.49 50.67 50.01 51.06 51.94 54.01 54.06 52.76 52.58 53.22 53.43 53.71 52.79 51.57 52.96 53.80 56.14 55.82 55.61 53.87 53.14 52.65 51.85 51.67 51.50 50.49 46.70 51.90
36.26 38.74 42.52 45.82 43.62 41.68 39.37 39.12 40.45 39.11 38.57 38.03 39.56 39.61 39.38 35.07 34.03 40.23 45.03 47.63 47.76 50.78 52.50 52.57 51.82 51.02 51.09 53.34 54.98 56.42 55.58 55.36 55.22 54.41 56.07 55.62 55.55 55.41 53.25 51.71 51.79 55.47 57.23 56.10 55.25 53.26 51.62 51.36 51.71 52.15 52.45 53.17 53.33 53.17
38.76 39.81 37.29 39.28 38.73 39.94 38.62 40.36 39.77 40.35 41.57 44.28 42.32 39.61 37.84 37.28 38.91 44.48 46.68 49.76 52.02 52.89 53.92 54.03 53.56 55.07 54.20 53.10 54.07 55.83 55.56 56.27 56.28 54.74 53.51 53.19 54.10 54.23 54.62 53.90 54.17 44.69 53.00 52.59 54.18 54.15 53.92 53.79 53.42 53.25 53.08 52.55 52.85 53.51
37.79 40.20 41.05 39.20 40.46 41.35 42.58 43.22 42.43 45.80 47.53 45.93 42.24 40.44 41.22 44.45 47.41 48.71 50.17 51.56 52.81 53.34 53.32 53.77 54.16 55.91 55.83 56.44 56.71 55.90 55.44 54.16 51.85 50.23 49.73 49.66 50.59 51.53 53.83 54.01 54.33 54.87 55.05 53.90 40.09 46.83 51.36 52.00 52.77 53.93 53.91 53.37 53.43 54.10
41.92 44.06 41.94 43.84 42.68 42.14 45.11 47.02 45.61 48.58 49.88 49.43 47.53 46.94 47.00 48.87 51.11 52.63 52.46 52.74 53.08 53.05 53.33 54.48 55.53 55.04 53.52 52.85 52.37 52.82 54.42 54.57 54.12 52.71 51.16 50.99 51.85 54.17 54.65 54.78 54.71 54.95 55.07 54.51 53.33 52.69 43.36 50.52 48.56 53.71 52.68 53.32 53.17 52.82
47.92 45.99 45.12 45.52 44.30 46.79 48.23 49.60 49.18 49.44 48.78 47.39 48.44 47.05 47.59 50.02 52.43 55.07 55.26 55.56 55.52 55.60 54.79 53.26 52.56 52.37 51.70 52.18 52.29 51.96 51.72 54.53 55.13 55.42 55.37 55.11 55.33 55.27 55.12 55.39 55.54 55.89 56.00 55.57 55.21 54.92 53.52 52.77 53.70 53.16 52.73 52.11 51.64 49.47
47.16 45.89 45.09 42.63 44.47 48.34 49.25 47.40 47.34 46.68 47.24 46.73 46.59 48.63 49.68 49.28 47.71 51.09 54.12 54.19 52.78 51.95 48.81 52.36 52.83 52.83 54.19 54.21 54.63 54.65 49.43 55.26 55.93 55.41 55.23 55.88 56.12 56.51 56.34 56.69 56.35 55.92 55.78 55.51 55.31 54.95 53.82 52.85 53.07 52.59 51.96 50.93 50.84 49.90
46.63 47.44 47.07 46.49 45.95 45.36 47.52 47.68 46.55 46.15 46.90 46.45 47.26 48.37 48.99 48.41 46.08 50.92 55.03 56.02 54.35 52.90 53.06 53.96 54.37 54.81 55.64 55.24 54.98 54.37 51.80 53.22 44.70 38.23 39.16 38.34 37.77 43.89 54.08 55.55 55.48 55.53 54.85 54.30 54.08 53.73 52.96 51.83 51.78 51.16 50.57 49.97 49.32 48.87

GFSWCAN_sfc_wetblb_027.txt.gz
Wetbulb
52.17 51.75 51.22 50.52 49.55 49.38 49.25 49.00 49.52 48.71 48.59 48.46 49.17 49.45 49.23 49.21 49.36 47.56 47.60 51.72 48.24 43.72 45.69 49.43 49.34 46.37 46.56 48.35 44.80 48.45 49.93 50.37 48.86 43.73 43.35 43.55 43.17 45.52 45.36 46.90 47.39 45.15 43.07 41.51 42.60 40.79 39.84 60.73 59.69 54.73 54.33 56.50 62.14 59.31
51.86 51.94 51.62 50.73 49.23 49.30 49.00 49.18 49.24 48.49 48.65 48.48 48.32 48.76 49.25 49.06 48.91 48.84 47.53 51.20 53.13 47.61 44.85 49.54 49.79 50.47 49.13 50.77 48.32 48.63 48.73 50.44 53.46 49.53 47.79 47.81 44.58 46.30 45.86 42.90 51.70 45.57 47.94 45.20 45.37 44.98 60.40 62.82 61.76 62.61 63.01 62.14 63.03 62.20
51.86 51.78 51.63 50.89 49.00 49.11 48.89 48.74 48.35 48.49 48.97 48.58 48.44 48.23 48.61 48.83 48.78 48.28 45.33 49.06 50.21 48.32 48.54 48.71 47.91 51.38 50.66 49.55 49.90 46.31 50.07 51.13 50.45 53.60 51.37 50.61 47.86 49.20 44.62 47.39 49.68 52.95 56.18 50.29 51.13 56.34 57.58 59.01 59.99 61.52 64.31 63.91 64.10 66.40
51.52 51.60 51.43 50.82 49.46 49.13 48.96 48.24 48.34 48.58 48.78 48.41 48.22 48.00 48.05 48.38 48.65 48.37 44.86 48.82 49.64 48.28 43.64 48.41 55.53 53.76 57.23 53.00 51.15 50.99 50.35 52.51 51.93 51.86 49.45 48.23 46.21 51.33 46.33 49.85 49.25 52.03 54.19 53.13 54.27 56.22 58.69 57.32 57.57 60.02 62.58 65.58 65.72 65.21
51.11 51.33 51.09 50.55 49.32 48.88 48.68 48.62 48.59 48.67 48.53 48.28 47.95 47.70 47.76 48.17 48.82 47.85 47.71 49.85 52.54 48.14 43.04 45.62 51.02 54.05 54.43 53.35 52.18 50.62 49.66 49.83 48.67 47.28 46.86 44.95 48.22 49.01 49.87 49.91 48.98 52.14 52.31 50.83 50.11 55.33 56.86 57.51 59.14 61.99 62.09 63.42 64.46 64.03
50.63 50.78 50.72 49.90 48.95 48.84 48.59 48.67 48.38 48.59 48.15 48.00 47.83 47.77 48.00 48.14 48.43 46.60 48.12 52.86 51.27 51.57 46.42 43.44 53.34 53.30 53.55 52.91 51.86 50.13 49.91 49.80 49.26 46.76 46.12 48.82 51.27 50.09 45.88 45.77 53.64 55.05 57.09 56.85 53.95 57.02 58.87 59.31 60.86 61.24 62.11 64.23 64.76 63.43
49.71 50.47 49.86 49.19 48.85 48.54 48.21 48.10 48.41 48.01 47.95 47.65 47.53 48.13 48.43 48.62 46.49 44.00 44.64 48.37 49.06 49.73 46.69 44.63 46.85 52.16 53.31 51.85 49.90 48.99 50.84 49.59 48.65 46.76 45.49 46.40 47.63 49.99 46.55 43.09 52.11 55.01 55.12 55.69 56.85 56.76 57.16 60.35 57.78 61.15 59.44 64.41 63.19 62.81
49.48 49.70 49.26 48.64 48.94 48.57 48.14 48.08 48.08 47.85 47.72 47.31 47.65 47.96 48.43 48.09 47.67 45.82 50.79 51.07 50.34 47.86 49.22 43.76 46.18 48.78 53.21 47.94 46.98 51.51 48.58 49.18 49.31 47.61 48.19 46.25 47.67 48.66 43.82 48.77 51.17 54.13 54.86 56.04 56.43 56.44 55.25 56.19 59.07 59.29 60.00 58.41 61.06 60.62
48.92 49.38 49.06 48.71 49.01 48.48 48.27 48.21 48.23 48.03 47.48 47.24 47.52 47.88 47.11 47.34 47.75 50.14 52.56 52.48 51.81 49.12 44.20 46.29 44.18 43.80 53.48 49.43 51.35 50.43 50.61 45.38 49.92 45.50 46.24 47.28 44.89 43.09 48.03 48.21 50.07 52.77 52.83 53.05 54.72 55.31 54.91 55.19 55.62 56.99 58.61 59.58 59.22 60.82
49.12 49.07 48.97 48.74 48.80 48.80 48.35 48.34 48.22 48.05 47.87 47.18 45.51 46.39 44.98 50.56 53.79 51.83 49.62 47.69 47.41 48.90 47.90 43.86 49.16 45.61 48.69 49.64 48.75 49.36 49.71 45.75 43.35 46.57 49.11 44.95 43.52 48.60 50.90 52.39 54.07 54.72 54.44 54.17 51.12 51.07 52.92 53.00 54.14 55.15 56.19 56.21 57.67 57.55
49.62 48.99 49.00 48.80 48.70 48.50 48.25 48.40 48.14 47.81 47.22 45.08 45.29 46.70 52.98 52.33 50.63 48.33 45.22 44.51 45.89 44.21 46.75 46.26 46.25 47.24 51.76 46.69 47.18 50.41 47.08 47.97 42.42 45.59 45.28 44.38 43.94 50.16 53.85 53.93 55.19 55.07 54.93 54.47 54.74 54.59 53.93 53.00 53.22 54.64 55.06 55.95 55.72 58.46
49.73 49.15 48.88 48.77 48.47 48.53 48.60 48.92 47.74 43.94 46.83 43.98 43.84 47.07 50.39 47.93 46.01 42.71 41.98 44.81 43.95 42.19 48.87 46.42 47.33 50.43 50.98 54.07 49.11 48.92 45.73 46.47 41.43 49.69 46.50 42.33 48.64 53.24 53.31 53.52 54.11 54.57 54.83 54.90 55.44 54.90 55.08 55.28 55.03 55.23 55.09 56.00 56.49 57.86
49.17 49.14 48.85 48.51 48.46 48.92 48.97 48.69 47.79 46.88 46.61 48.41 44.97 45.38 44.24 44.21 36.18 36.79 35.95 40.84 42.58 48.10 50.46 50.38 48.54 50.74 51.58 52.19 48.89 47.22 42.52 42.49 49.18 45.11 43.12 46.78 50.74 53.01 53.13 53.52 53.60 54.05 54.19 54.24 54.29 54.97 55.21 55.42 56.30 55.44 55.28 56.89 56.64 57.62
49.19 48.93 48.42 48.48 48.88 49.13 49.03 48.17 46.76 46.16 44.56 43.91 42.82 33.11 38.90 37.80 39.94 41.70 43.14 45.57 48.38 49.58 49.50 49.48 49.45 48.60 50.34 48.30 47.76 43.32 46.37 47.66 42.26 40.66 42.22 48.71 50.18 51.26 52.60 53.35 52.99 52.68 53.18 52.66 52.75 53.23 52.84 53.28 54.48 55.59 56.23 57.51 57.46 56.11
48.89 48.68 48.20 48.54 49.13 49.22 48.66 47.35 46.07 45.68 44.91 42.37 43.83 35.36 38.76 43.81 46.10 48.08 49.09 47.93 50.97 51.72 49.80 48.74 48.90 49.36 47.50 46.14 46.57 45.88 42.80 40.47 43.00 42.36 46.92 50.91 52.11 52.37 52.33 52.78 52.72 52.40 52.29 52.37 53.66 52.51 52.15 52.37 53.11 54.58 56.59 57.46 56.59 57.56
48.54 47.90 46.74 48.59 49.01 48.79 47.96 46.11 45.00 46.61 46.55 44.75 44.39 41.29 45.41 44.39 44.09 46.47 47.80 47.69 51.61 51.22 51.03 49.76 46.20 44.81 43.67 44.86 43.22 42.06 41.57 40.03 42.15 46.08 49.27 51.53 51.31 51.26 50.86 51.01 51.11 51.55 51.55 51.90 52.31 52.29 52.48 52.38 52.47 53.64 55.80 56.14 57.33 56.53
47.22 43.62 48.39 48.80 48.75 48.11 46.84 44.27 44.54 43.69 43.63 42.89 42.32 46.83 45.78 45.22 46.23 47.20 49.95 47.45 52.22 49.90 46.01 47.09 43.00 42.12 47.31 42.95 41.82 45.81 43.41 44.60 46.55 48.14 50.46 51.91 50.00 49.78 50.00 50.17 50.99 51.65 51.90 52.16 52.18 52.95 52.88 53.29 53.38 54.35 54.49 53.23 54.27 55.20
46.65 47.85 48.87 48.44 47.42 44.85 44.58 44.52 45.09 43.29 40.51 43.23 41.86 44.70 47.60 48.74 49.70 50.51 49.09 51.60 50.94 48.84 48.21 45.12 47.86 43.55 42.27 40.50 41.87 46.41 47.02 49.52 50.11 49.57 49.69 50.76 50.78 51.23 51.21 50.40 51.27 51.99 52.39 52.59 52.91 53.50 53.79 54.57 54.63 54.65 55.52 55.01 54.77 54.63
47.46 47.80 48.33 47.69 47.04 45.32 43.73 44.81 47.00 41.26 42.44 45.64 47.32 48.62 49.12 50.06 50.60 50.88 51.43 52.61 52.21 51.74 48.90 47.53 43.47 42.03 43.89 47.33 46.86 46.98 47.60 48.23 47.56 48.45 49.54 50.50 50.97 51.36 51.29 51.48 52.37 53.44 53.76 53.69 53.67 54.19 54.39 55.58 55.41 55.11 54.91 54.39 52.50 52.34
48.20 48.07 47.88 46.58 45.52 45.87 43.68 44.63 50.32 45.26 43.30 46.56 47.86 47.30 48.46 50.02 49.19 48.89 50.15 50.25 49.02 48.00 45.68 43.72 44.09 47.65 48.26 48.42 49.81 48.92 49.43 49.68 48.99 47.44 47.77 48.91 50.25 51.06 51.84 52.25 51.91 52.76 53.77 53.61 53.62 51.02 53.31 53.06 53.89 54.18 53.72 52.73 52.08 51.98
45.79 45.71 46.62 46.67 47.04 45.41 46.66 46.10 44.11 46.48 46.56 46.35 47.81 47.45 46.40 49.13 47.08 47.05 46.99 48.71 46.12 45.38 43.04 47.24 48.84 49.60 51.40 51.80 51.23 50.79 49.93 50.27 48.76 48.12 47.85 48.07 50.51 51.22 51.37 52.11 52.23 52.36 51.98 51.80 51.43 51.49 51.69 52.88 53.60 52.97 52.83 52.45 52.40 52.29
47.57 47.55 47.30 45.76 45.16 47.42 45.86 49.46 46.91 48.31 47.01 46.14 46.74 47.60 45.41 44.92 44.26 43.67 45.93 44.08 43.70 46.54 47.78 46.84 47.29 47.66 47.88 49.22 49.60 50.70 50.94 50.56 50.36 50.30 48.00 49.09 49.92 50.24 50.46 51.38 52.07 51.03 51.16 51.11 51.05 51.09 51.43 52.68 52.96 52.83 52.38 52.52 52.34 52.27
47.75 48.74 48.03 47.53 42.51 39.13 38.51 49.24 43.92 45.32 42.03 43.09 45.46 41.85 42.95 42.89 42.52 45.59 41.47 43.61 44.29 46.45 46.13 45.70 46.66 48.24 48.36 48.86 49.84 51.07 50.88 50.25 50.28 50.84 51.00 51.17 52.69 52.50 52.37 51.99 51.97 50.87 50.04 50.39 51.61 51.30 50.96 48.37 49.62 50.81 50.69 50.68 50.54 49.73
45.32 45.96 43.04 42.04 41.03 37.11 45.05 42.49 44.78 43.35 42.60 41.14 40.68 39.21 40.54 41.31 43.16 40.04 37.29 39.45 42.70 45.29 45.38 46.16 46.97 47.45 48.76 49.17 49.06 49.14 50.24 51.23 50.83 51.31 52.35 52.76 51.61 52.68 53.06 52.07 51.66 51.28 51.09 51.11 50.82 50.78 50.79 50.43 47.92 50.37 50.71 50.83 50.30 49.96
39.13 36.80 38.91 32.44 43.20 40.87 39.33 39.21 38.61 38.68 36.60 39.93 38.98 39.35 39.68 41.49 36.79 34.96 33.88 39.71 43.71 45.10 46.75 49.22 49.01 48.61 47.62 48.11 49.39 49.72 51.59 51.54 50.49 49.87 51.67 52.57 52.60 52.69 52.24 51.92 52.35 52.69 53.15 51.50 50.79 50.88 50.61 51.15 51.35 51.85 52.13 51.60 49.34 49.29
32.78 38.73 37.93 40.20 41.09 40.02 38.69 35.97 37.41 37.19 38.32 38.40 39.19 41.24 41.07 38.81 35.61 33.51 38.97 42.37 44.16 46.04 48.70 48.74 48.34 48.63 48.99 50.06 49.35 49.95 51.11 53.16 53.79 52.35 53.65 54.16 52.82 51.98 51.17 51.00 50.87 52.16 54.83 54.94 54.38 53.82 53.62 52.98 51.69 50.72 50.06 49.14 46.70 50.96
34.71 38.13 42.76 46.07 43.89 42.66 40.56 40.13 40.21 38.94 37.92 37.59 39.31 39.17 38.70 35.49 34.03 39.69 44.66 47.15 47.42 50.30 51.33 51.65 51.03 49.81 49.53 50.48 53.99 55.40 55.45 55.25 54.71 54.74 56.27 55.96 55.85 55.65 54.82 51.74 52.92 53.68 54.97 55.13 53.36 51.56 50.71 50.80 50.70 50.88 50.88 52.10 52.16 51.63
39.42 40.23 37.60 40.43 39.95 40.72 38.65 40.21 39.27 38.72 40.26 43.47 42.05 39.21 38.01 37.64 39.02 44.32 46.42 49.32 51.58 52.56 52.60 53.09 53.73 54.48 54.30 54.08 55.23 55.32 55.60 56.19 56.40 53.60 52.27 52.75 53.45 53.68 53.35 53.16 52.14 44.42 49.96 50.39 52.55 53.09 53.10 53.04 52.41 52.44 52.14 51.15 50.88 51.90
37.00 40.83 40.83 38.19 39.53 40.29 40.58 41.63 42.38 44.92 46.38 44.52 41.60 40.13 41.32 44.58 47.76 48.54 49.73 50.65 52.31 52.14 51.65 51.72 52.97 54.69 54.90 55.80 55.66 54.46 55.29 53.97 51.12 49.26 48.10 47.28 48.28 49.80 52.52 52.86 53.61 53.82 51.93 49.63 40.73 45.74 49.73 50.09 50.32 52.54 53.01 51.92 52.03 52.42
41.60 44.05 42.09 42.75 41.66 41.38 44.88 47.41 46.69 48.60 48.54 48.05 47.53 47.24 47.41 48.57 50.18 52.41 52.08 51.84 51.21 51.34 53.16 53.89 54.00 54.50 53.49 53.49 53.72 54.31 54.28 53.93 53.46 51.33 49.87 49.89 50.70 52.72 53.32 53.62 53.45 53.82 53.67 52.76 51.72 50.84 43.86 49.29 47.92 52.58 51.22 51.72 50.95 51.15
46.69 45.26 43.67 45.00 43.65 45.39 46.36 48.01 48.49 48.39 48.35 48.26 49.21 46.69 46.59 48.63 50.87 52.74 53.17 53.82 54.20 55.49 54.71 53.77 54.01 53.58 53.41 52.35 52.51 51.02 50.83 54.05 54.66 54.58 54.46 54.41 54.40 54.81 54.72 55.01 55.20 55.22 55.21 54.57 53.75 52.59 51.90 50.94 51.94 51.09 52.42 51.63 50.42 49.23
47.00 46.02 45.10 42.99 44.11 47.19 48.50 47.29 46.77 46.38 47.00 47.00 46.93 49.09 49.21 48.75 47.62 51.78 54.80 54.96 53.99 53.98 52.92 51.51 52.26 51.79 53.70 53.73 54.05 53.10 48.33 52.73 52.00 52.73 52.83 52.94 53.31 54.28 54.93 55.31 55.38 55.47 55.09 54.55 54.18 53.93 53.77 53.02 51.90 51.69 51.08 51.49 51.07 50.41
46.99 47.09 47.11 45.92 45.05 44.59 47.01 46.66 45.62 45.07 46.24 45.93 46.79 48.24 48.13 47.47 45.95 51.76 56.58 57.10 55.33 53.38 54.08 54.60 54.32 55.31 55.21 54.24 53.11 51.20 48.78 48.93 42.36 38.49 39.05 38.60 38.32 43.92 51.42 52.28 53.05 54.57 54.52 53.76 53.26 53.09 53.13 52.45 51.83 51.44 51.09 50.48 49.91 49.74

GFSWCAN_sfc_wetblb_030.txt.gz
Wetbulb
52.18 52.27 52.06 51.81 50.92 50.51 49.96 49.45 49.17 49.60 48.82 49.17 49.03 48.98 49.13 49.72 49.49 45.79 42.26 44.69 42.55 35.78 38.01 42.94 44.30 39.76 40.63 42.19 41.35 44.99 46.15 46.94 46.84 40.26 39.05 38.55 38.15 40.51 39.63 41.19 40.68 40.87 38.12 38.05 38.56 37.30 37.14 57.82 58.67 49.56 52.31 56.49 56.76 57.76
52.17 51.90 51.92 51.71 51.31 50.12 49.78 49.11 49.28 48.75 48.78 49.28 48.93 48.77 48.66 48.95 49.07 48.14 39.59 44.61 46.32 41.54 39.98 42.90 46.24 47.28 45.15 44.38 43.45 42.55 44.05 42.78 49.00 47.37 45.98 44.61 40.50 41.67 39.95 37.96 45.42 41.18 43.24 41.49 41.53 41.22 53.74 57.33 57.29 58.15 58.09 58.75 59.40 58.24
51.87 51.87 51.82 51.74 51.46 50.08 49.65 49.26 48.74 48.43 48.79 49.09 48.80 48.66 48.51 48.37 48.56 47.16 39.93 41.38 42.89 40.35 41.27 41.24 42.82 46.39 44.05 43.90 45.38 42.03 43.31 45.63 44.56 48.12 47.02 46.58 44.95 46.22 39.86 42.02 44.15 47.76 50.91 47.48 49.54 53.80 53.59 55.61 58.84 60.36 62.10 62.44 63.12 61.58
51.71 51.60 51.45 51.46 51.16 50.09 49.73 49.63 48.65 48.57 48.86 48.87 48.57 48.43 48.19 48.05 48.41 48.21 39.72 41.13 41.17 40.87 36.38 40.52 49.88 46.67 49.07 47.74 45.75 45.45 45.47 45.74 46.14 47.17 44.54 43.78 42.24 44.50 40.67 42.51 44.05 47.77 50.07 49.77 49.78 53.10 55.45 56.22 57.18 58.78 62.43 64.32 63.92 63.65
51.41 51.32 51.32 51.28 50.96 50.17 49.72 49.28 48.73 48.75 48.79 48.55 48.31 48.20 48.12 48.16 48.47 46.37 41.71 42.55 44.30 41.55 36.74 38.71 44.76 47.57 48.16 48.48 46.29 44.52 43.84 42.82 43.16 42.24 41.58 41.04 43.05 44.67 44.45 43.88 45.67 48.27 49.12 47.22 47.78 52.79 53.80 55.49 56.61 59.21 59.85 63.32 63.24 62.52
50.68 50.63 50.98 50.95 50.69 50.04 49.36 49.22 49.02 48.56 48.58 48.34 48.07 47.81 47.93 47.79 48.18 41.02 42.10 45.55 44.98 43.97 40.61 36.41 44.59 44.95 45.62 45.91 44.37 44.02 42.92 42.92 42.76 41.31 40.53 42.49 45.20 44.39 40.15 41.18 49.78 49.90 52.14 53.09 51.27 54.43 54.95 57.37 60.61 61.02 60.25 62.91 63.00 61.66
50.10 49.67 50.62 50.63 50.21 49.62 49.46 48.80 48.77 48.71 48.21 48.11 48.00 47.83 47.91 48.16 42.85 38.22 41.16 45.28 47.41 43.82 41.26 38.39 39.26 45.27 47.08 44.01 43.40 42.29 42.24 42.80 42.31 39.68 38.84 39.74 41.51 43.98 40.66 39.29 48.48 50.10 51.90 52.21 52.40 52.92 52.79 56.29 54.84 58.43 62.71 62.96 62.19 61.78
49.49 49.41 50.23 50.14 49.66 49.65 49.22 48.77 48.58 48.57 48.13 47.93 48.01 47.97 48.06 48.01 46.16 42.21 44.48 48.42 46.37 42.15 42.36 37.25 39.56 44.84 45.10 41.13 40.36 42.67 41.14 41.20 41.53 41.75 41.05 39.44 40.51 42.11 38.69 43.18 46.71 50.27 51.75 51.75 51.80 52.58 53.11 52.22 54.07 55.56 58.96 60.58 59.85 58.90
49.21 49.36 50.01 49.66 49.37 49.39 49.15 48.88 48.75 48.57 48.60 47.98 47.65 47.82 43.69 41.83 40.96 45.02 53.08 51.14 45.44 43.96 38.94 39.79 37.12 38.30 47.65 43.59 42.96 42.92 42.77 38.60 42.82 39.80 39.16 41.16 37.99 37.34 41.18 43.82 45.09 48.76 49.76 49.92 50.78 52.05 52.26 51.90 51.70 53.36 55.17 57.38 56.99 58.65
49.53 49.32 49.61 49.54 49.23 49.14 49.13 48.60 48.58 48.53 48.23 47.94 42.73 41.78 40.63 44.91 53.64 50.48 45.38 42.96 42.57 42.70 40.86 38.03 41.61 40.41 44.34 43.12 43.52 43.60 42.58 38.56 36.80 39.98 41.62 38.89 37.29 41.53 46.20 46.52 46.97 50.06 50.20 49.92 48.25 47.27 48.70 48.83 50.08 51.12 51.71 53.51 53.83 55.26
50.05 49.62 49.48 49.36 49.19 49.12 49.12 48.52 48.58 47.76 45.86 39.36 41.09 42.78 45.40 52.14 44.82 42.95 39.74 39.98 40.48 38.84 40.02 39.45 39.11 37.86 46.41 41.29 40.90 44.82 40.70 41.77 37.25 40.04 41.99 37.39 36.24 45.74 48.89 49.56 49.98 50.57 51.40 51.07 51.06 50.56 50.57 49.96 50.13 50.37 51.46 52.48 54.10 55.28
49.92 49.83 49.37 49.10 49.17 49.04 48.89 48.54 48.45 40.54 40.82 41.81 40.36 42.55 42.56 42.59 40.38 37.93 37.21 39.90 39.37 37.09 41.31 39.02 41.01 44.34 46.16 49.05 43.46 44.09 40.05 41.49 36.69 43.44 41.45 37.45 42.86 47.14 48.77 49.57 49.58 49.43 50.74 51.23 52.01 51.31 51.57 52.18 52.23 51.56 51.70 52.66 52.99 55.10
49.53 49.63 49.23 49.19 49.00 48.78 48.83 48.81 48.39 47.28 44.63 42.88 40.26 38.87 39.72 37.51 29.93 34.31 33.55 36.44 36.98 40.64 44.91 43.65 42.82 45.76 46.98 46.34 42.84 41.11 38.51 37.77 45.69 40.31 39.66 41.42 44.94 48.48 49.33 49.23 50.21 50.40 50.52 50.37 50.78 51.21 51.07 50.94 51.81 52.40 52.50 53.50 54.65 54.59
48.86 49.22 49.13 48.89 48.75 48.68 48.90 48.94 48.11 45.22 40.24 39.43 40.55 29.35 34.03 30.94 35.41 36.29 36.93 39.51 43.66 44.32 42.98 43.08 42.37 42.28 43.38 41.51 41.74 39.64 42.40 43.82 40.30 37.62 38.63 43.44 47.33 48.79 49.71 50.66 50.10 49.06 49.96 49.95 50.42 50.98 50.44 50.34 50.30 51.29 53.12 53.95 54.00 54.35
48.73 49.10 48.90 48.59 48.71 49.16 48.99 48.42 47.08 41.98 40.27 40.22 40.88 28.86 35.15 38.92 40.11 43.08 45.04 44.48 45.92 45.24 42.93 42.85 43.28 42.38 40.67 40.55 41.35 41.51 41.17 38.51 40.84 38.82 45.23 45.45 46.87 47.16 47.12 48.02 47.65 47.72 48.11 48.25 49.14 49.91 50.42 50.17 49.81 50.08 52.12 53.57 54.66 54.90
48.73 48.71 46.53 48.62 49.24 49.09 48.50 46.80 42.91 41.64 43.52 42.16 39.87 36.91 39.16 38.72 39.90 42.34 44.90 44.93 45.68 43.87 44.35 44.94 43.01 38.88 38.13 39.17 39.28 39.63 39.08 38.73 40.98 43.06 44.98 45.60 45.64 45.68 45.57 46.26 46.80 47.77 48.18 48.45 48.99 49.54 49.87 49.39 49.20 49.04 50.54 52.53 52.34 53.38
46.68 43.37 48.13 48.98 49.00 48.30 47.43 41.68 39.99 39.75 41.11 39.90 37.20 42.25 39.55 41.15 43.02 43.01 44.14 43.24 45.18 42.66 39.23 40.12 37.59 37.77 40.71 38.83 37.43 40.87 38.55 41.00 45.37 46.67 48.45 45.11 44.54 45.22 45.99 46.44 47.54 48.31 49.28 51.01 52.08 50.43 51.45 52.36 52.39 50.70 49.11 50.81 50.88 51.34
44.52 46.98 48.96 48.78 46.56 44.31 41.98 40.83 41.01 40.33 37.37 38.13 35.54 40.02 45.00 45.37 43.64 43.40 44.97 46.09 44.26 41.29 42.48 39.81 40.99 37.81 36.98 38.30 39.51 41.56 45.22 46.64 46.41 45.24 44.90 45.76 45.76 46.69 48.69 48.40 49.41 49.73 50.98 51.83 52.40 51.00 49.46 50.00 49.63 50.28 52.44 53.09 52.91 51.69
45.95 47.39 48.88 48.17 45.15 41.42 39.63 40.78 41.74 37.76 38.88 38.94 40.20 41.71 45.13 44.89 44.50 45.20 45.10 44.27 44.09 44.33 41.33 39.96 37.43 36.08 38.55 41.19 42.00 44.04 44.40 44.76 43.43 44.21 45.68 46.87 47.12 48.11 49.79 50.42 51.55 52.16 52.87 52.87 52.32 50.46 53.69 54.56 54.07 54.22 53.54 52.33 51.30 51.24
48.64 48.66 48.62 48.04 45.69 41.30 40.86 38.40 44.03 39.51 38.32 40.99 43.30 41.96 42.05 42.43 43.13 42.89 43.09 42.92 41.55 40.25 38.67 37.08 39.17 41.23 41.71 42.65 43.57 43.77 44.78 44.72 44.72 44.28 44.72 47.72 49.38 51.08 51.30 51.38 51.20 52.77 52.63 53.09 52.75 50.33 52.87 52.59 52.95 52.71 52.37 51.90 51.43 50.74
44.59 44.77 46.12 43.16 41.77 41.31 41.28 40.82 38.42 41.73 41.42 40.12 42.52 42.19 39.82 42.31 44.38 42.60 40.38 42.17 39.42 37.04 36.14 41.32 41.52 42.56 45.18 45.64 46.22 46.29 46.01 46.65 46.63 47.57 47.19 47.01 49.72 50.87 50.98 51.34 51.50 51.66 50.98 51.34 51.30 50.78 50.60 51.30 51.84 52.39 51.69 51.33 51.33 51.21
41.20 47.64 44.12 44.26 41.46 44.39 41.88 43.55 41.38 44.27 42.78 42.01 42.40 43.37 40.60 40.43 38.92 38.35 40.03 38.08 37.25 39.43 40.33 39.79 40.70 41.90 43.60 43.81 45.05 47.01 49.05 49.71 49.58 49.97 47.81 48.53 49.37 49.71 50.29 50.67 50.54 49.91 50.43 50.49 51.12 50.72 50.96 51.89 52.00 51.92 51.59 51.28 50.78 51.52
46.12 44.80 42.76 44.82 40.75 34.39 34.98 44.34 40.06 40.21 38.40 38.36 39.06 36.86 37.49 37.32 38.41 40.44 36.41 39.43 38.69 41.68 41.68 41.14 42.27 43.77 46.16 45.38 47.18 49.30 50.06 49.76 50.09 50.47 50.38 50.90 51.44 51.55 50.48 50.25 50.00 49.94 49.78 50.29 51.18 50.78 50.20 47.48 48.72 49.73 49.78 49.97 49.53 49.47
47.26 42.12 39.93 38.43 34.84 29.52 40.40 37.82 40.24 38.16 36.76 35.54 35.17 33.16 35.98 38.73 38.58 36.50 35.56 37.74 42.11 44.37 44.85 45.81 46.60 46.20 47.47 47.86 47.68 48.37 49.49 50.74 50.40 50.79 51.42 50.67 50.05 50.19 50.50 50.17 50.25 50.19 50.23 49.87 49.77 49.66 49.42 48.87 46.78 48.95 49.41 49.26 49.02 48.80
35.13 30.84 34.85 26.53 36.01 37.21 36.41 35.47 34.11 34.18 32.32 35.13 32.82 33.48 36.92 39.31 35.63 34.75 33.69 38.64 42.59 44.24 45.32 47.52 47.88 47.66 46.71 46.99 48.10 49.06 50.77 50.66 49.38 48.54 49.75 49.55 48.95 47.91 47.54 47.43 47.28 46.98 47.49 46.67 46.53 47.79 47.77 47.74 48.02 48.44 48.97 48.49 47.85 46.83
28.41 34.48 31.50 36.72 35.04 36.76 35.91 32.08 31.82 34.00 36.66 37.39 37.98 39.69 39.85 37.87 35.29 33.33 38.13 41.99 43.53 44.88 47.85 47.63 47.39 47.76 47.94 48.62 48.17 48.88 49.50 49.68 49.58 48.06 48.35 49.60 49.39 47.88 46.78 46.03 45.77 46.87 49.78 50.03 49.55 49.17 48.36 47.89 48.00 48.60 48.11 48.72 44.39 47.57
32.28 36.04 39.49 41.09 40.32 38.38 36.06 36.49 39.66 38.21 37.22 36.89 38.24 38.36 37.63 34.52 33.69 38.55 43.92 45.95 46.31 49.15 50.20 50.54 49.94 49.03 48.82 48.35 49.39 50.31 50.36 50.59 50.46 49.77 50.25 50.29 50.61 52.26 52.08 50.53 49.85 49.84 51.45 52.19 51.37 47.71 47.45 47.13 46.07 48.65 48.42 48.88 49.82 48.95
38.26 38.74 34.83 35.79 36.64 39.02 38.33 38.79 38.28 37.96 39.40 42.44 41.21 38.12 37.63 37.42 38.03 43.53 45.77 49.11 50.85 51.32 51.59 51.91 51.26 50.55 50.48 50.20 50.47 51.11 50.59 50.99 51.39 50.62 46.09 47.08 48.36 49.37 47.01 46.72 45.74 42.31 45.92 46.94 48.09 48.66 50.19 50.64 50.05 50.26 49.13 46.74 46.37 47.97
36.33 39.66 39.29 38.03 39.12 39.75 39.72 39.95 41.53 43.37 44.99 43.58 41.27 39.66 40.63 43.46 46.57 47.43 48.98 50.10 50.14 50.15 48.73 48.58 49.49 51.18 51.56 51.40 51.48 51.38 50.31 48.77 43.31 41.62 41.64 40.76 41.11 42.96 45.60 46.30 46.32 45.46 45.06 45.26 41.16 44.30 47.09 47.76 48.55 48.16 48.13 46.94 47.51 47.01
39.66 41.99 40.31 41.50 39.64 39.48 43.42 45.50 45.44 47.37 47.97 47.28 46.63 46.35 46.94 47.88 49.41 51.36 50.32 49.41 48.96 49.25 49.74 50.11 51.06 50.41 50.46 50.48 50.99 50.85 49.57 48.84 47.32 44.86 42.88 42.65 43.65 45.18 45.71 47.10 47.63 47.55 46.52 46.24 45.23 44.28 42.70 45.25 44.68 47.12 47.20 47.40 48.53 48.10
44.31 42.92 42.38 43.82 42.61 45.11 46.64 47.85 48.58 48.30 47.72 47.43 47.55 45.72 45.17 46.34 48.42 50.31 50.40 50.66 50.45 50.16 49.66 49.84 50.35 50.32 49.22 48.71 48.89 45.71 45.44 47.52 48.57 49.47 49.59 48.68 48.46 47.98 48.03 49.11 49.69 49.15 48.25 47.68 48.31 49.11 47.87 46.31 49.37 49.25 49.68 47.10 44.99 43.66
46.00 44.70 43.66 41.92 43.19 47.05 48.62 46.87 46.39 45.83 46.23 45.17 44.56 45.71 45.66 45.96 44.79 47.30 50.19 50.63 49.59 49.74 50.01 50.64 49.99 46.90 48.99 49.13 48.27 46.57 44.01 45.70 46.41 46.80 47.26 47.12 47.42 47.46 47.81 48.08 48.65 49.78 49.24 49.18 49.21 50.33 50.42 48.01 47.43 47.57 46.55 46.46 45.71 44.64
45.77 45.15 44.45 43.42 43.49 43.90 44.73 44.11 43.03 42.48 43.26 43.33 44.03 45.49 45.68 44.72 43.10 46.91 50.20 52.87 51.04 50.67 49.71 49.13 49.39 48.51 48.06 47.68 46.70 45.30 43.11 42.65 40.03 38.37 38.61 38.85 39.81 42.69 45.07 46.36 47.73 48.50 47.80 46.95 47.78 47.86 47.12 47.15 46.23 45.70 45.05 44.65 44.23 43.75

GFSWCAN_sfc_wetblb_033.txt.gz
Wetbulb
52.17 52.23 52.13 51.57 51.15 51.01 50.39 49.31 48.98 49.25 48.72 49.34 49.42 49.41 49.24 49.26 49.14 45.04 40.56 41.98 41.31 36.12 37.72 41.01 44.06 40.32 40.46 39.45 37.85 42.12 44.61 47.21 47.34 39.71 39.15 37.82 36.95 39.06 38.00 39.30 38.55 38.72 36.22 35.53 36.36 35.03 35.37 57.27 57.98 47.50 48.20 53.90 55.23 55.77
52.20 52.15 52.03 51.84 51.56 51.46 50.25 49.23 48.92 48.81 48.48 49.10 49.16 49.09 48.83 48.75 48.82 46.91 36.68 41.58 42.84 39.58 39.37 42.33 45.19 46.84 44.93 44.05 40.66 41.30 43.43 42.79 46.92 45.15 43.21 42.10 39.35 39.48 37.35 36.22 43.83 40.41 41.47 38.82 39.80 39.72 52.63 55.70 55.52 56.51 55.22 56.73 57.09 56.16
51.93 51.79 51.56 51.65 51.49 51.58 50.26 49.04 49.07 48.55 48.57 48.85 49.01 48.90 48.79 48.41 48.47 46.68 38.43 38.69 40.13 38.45 39.24 39.95 41.55 44.40 43.68 44.25 44.12 40.53 41.29 44.17 43.17 46.64 45.60 43.84 42.14 42.05 36.83 39.53 41.35 45.40 48.77 46.79 48.53 51.49 52.46 54.94 58.14 60.92 61.55 60.15 62.50 60.22
51.66 51.66 51.58 51.58 51.32 51.40 50.59 49.11 48.99 48.53 48.51 48.75 48.87 48.67 48.39 48.08 48.07 47.75 38.95 38.37 38.97 38.15 35.00 39.76 47.78 44.98 48.49 43.82 43.48 43.90 44.05 43.75 44.88 46.14 43.65 43.12 40.80 42.62 38.63 39.87 40.51 45.12 48.22 48.51 50.62 52.21 53.47 54.94 56.09 57.83 60.66 60.68 63.04 62.46
51.42 51.43 51.52 51.39 51.28 51.42 50.42 49.56 49.04 48.51 48.54 48.74 48.62 48.36 48.03 47.94 48.10 45.89 40.09 40.41 41.60 40.03 35.59 37.26 42.55 44.99 45.21 46.09 45.65 41.45 41.87 40.28 41.42 41.40 40.56 40.06 40.71 41.74 42.04 43.71 45.83 47.65 47.82 46.03 46.41 51.80 52.06 53.38 56.90 59.25 60.75 61.93 62.17 61.50
51.11 51.15 51.13 51.05 51.21 51.09 50.18 49.74 48.78 48.62 48.35 48.60 48.31 48.13 47.62 47.42 47.68 39.71 41.10 43.14 43.59 42.02 37.76 34.68 41.98 43.47 44.85 44.11 43.98 40.94 41.56 40.51 39.90 39.63 38.79 39.57 42.25 41.61 38.52 40.42 48.43 49.13 51.20 51.66 50.37 52.71 54.79 57.55 59.48 59.75 60.85 62.45 62.79 62.09
50.64 50.64 50.46 50.61 50.81 50.74 50.16 49.69 48.58 48.33 48.36 48.26 48.10 48.13 47.78 47.77 41.46 36.62 40.00 44.04 46.07 42.06 39.53 37.39 37.88 43.35 44.33 42.33 41.55 40.60 40.18 40.15 40.26 37.80 37.29 37.74 39.22 41.02 38.98 37.95 48.18 49.79 49.22 50.45 53.39 52.98 53.25 55.08 54.40 59.61 61.89 62.72 61.20 61.40
49.78 49.93 49.33 49.84 50.64 50.26 49.60 49.32 48.77 48.22 48.16 48.33 48.24 48.29 48.24 48.04 45.37 42.21 43.31 47.33 45.22 40.88 40.92 35.99 37.72 41.16 44.81 39.96 39.14 39.50 38.86 39.17 39.47 38.85 38.88 37.38 38.14 38.53 36.31 41.05 43.31 49.45 50.17 49.61 50.45 50.91 52.55 52.28 54.39 56.30 60.19 61.02 59.28 59.18
49.51 49.41 48.97 50.18 50.32 49.65 49.57 49.11 48.21 48.55 48.65 48.47 48.04 47.98 42.46 40.66 39.32 42.94 52.39 49.19 43.76 42.68 38.18 37.94 35.34 36.64 45.48 41.40 39.98 41.07 39.88 36.88 40.11 37.99 37.17 39.50 35.92 34.36 38.28 41.46 42.23 45.02 49.21 48.90 50.14 50.47 50.46 50.05 50.51 53.02 55.77 57.58 55.55 57.23
49.45 49.38 49.39 50.05 49.80 49.51 49.42 48.68 48.32 48.40 48.42 48.20 41.21 40.13 38.67 42.64 50.71 48.83 43.75 41.30 40.90 40.39 39.02 36.54 39.40 39.32 42.28 41.11 41.51 41.31 40.54 36.66 35.59 38.77 39.40 36.39 35.60 38.98 45.49 46.52 44.87 45.68 48.42 48.77 47.38 46.48 46.98 48.00 49.18 48.74 49.84 52.15 51.99 53.29
49.89 49.56 49.55 49.71 49.53 48.98 48.75 48.55 48.43 47.71 43.78 38.21 38.19 41.92 43.82 47.38 43.39 41.31 37.49 37.06 38.08 37.27 38.76 39.42 38.32 36.79 43.40 40.22 39.74 42.77 39.61 39.77 35.85 38.46 37.68 34.88 35.89 44.08 47.19 46.87 48.00 49.16 49.77 49.62 49.64 49.30 49.09 48.85 49.08 49.53 50.46 51.43 51.95 52.53
50.13 50.00 49.70 49.61 49.43 48.87 49.05 48.81 48.01 40.08 37.98 40.08 39.20 41.08 40.56 41.23 38.23 35.52 34.79 37.69 37.36 36.49 39.79 38.49 39.01 39.42 43.71 46.71 41.62 41.93 38.37 39.50 35.69 41.57 39.61 35.66 42.10 45.29 46.77 47.65 47.85 47.78 49.09 49.44 49.86 49.27 49.47 50.52 50.79 50.48 50.45 51.56 52.58 52.54
49.71 49.95 49.78 49.59 49.31 48.97 48.94 48.74 48.30 45.22 43.72 40.17 39.09 37.01 38.04 36.22 28.23 33.22 31.68 34.27 35.34 39.23 43.18 42.95 42.14 43.02 44.18 46.88 42.16 39.47 37.03 36.46 42.92 38.78 38.04 41.20 44.47 46.79 47.09 49.20 50.36 50.01 50.29 49.78 50.03 50.54 49.60 49.50 50.19 50.20 50.86 52.53 53.69 53.30
49.15 49.55 49.59 49.47 49.25 49.08 48.84 48.83 48.59 45.03 38.75 38.59 39.48 28.89 32.65 29.01 33.72 34.62 35.08 36.40 41.45 43.71 43.32 43.11 42.06 41.73 42.17 40.33 40.72 38.32 40.07 41.44 37.63 35.29 37.42 45.39 46.30 47.38 48.25 48.00 47.84 47.23 47.45 47.52 48.05 49.17 49.78 50.04 49.28 49.96 50.22 51.97 52.86 53.11
48.60 49.03 49.36 49.22 49.16 48.89 49.02 48.90 47.53 40.58 38.73 39.14 41.30 33.74 34.27 37.28 38.06 40.41 41.06 42.40 44.88 45.62 43.10 41.80 41.55 40.69 39.31 39.50 39.45 39.19 38.69 36.56 39.08 39.14 44.58 47.42 47.94 45.61 45.47 46.22 45.99 45.86 46.32 46.54 47.54 48.08 48.93 49.53 49.34 48.90 49.81 50.36 51.40 53.13
48.39 48.36 47.58 49.12 49.03 49.06 48.71 46.77 41.87 39.66 40.45 40.15 38.18 36.20 38.68 38.37 39.29 39.42 41.20 42.04 45.43 44.41 42.20 41.73 41.86 37.50 36.81 37.85 37.64 37.34 37.10 37.10 38.05 40.69 42.60 43.25 43.23 44.08 44.06 44.80 45.30 45.93 45.96 46.44 46.98 47.74 48.50 48.55 48.40 48.13 48.46 49.04 49.98 51.78
47.59 44.32 48.77 48.86 48.99 48.52 46.91 40.76 38.33 37.36 38.47 38.66 36.86 38.51 37.42 37.78 39.18 41.80 42.87 43.37 45.77 42.77 38.36 40.60 36.09 36.04 39.08 36.66 36.05 39.55 38.19 40.73 42.40 44.29 44.05 43.29 43.02 43.33 43.61 44.63 45.99 46.57 46.86 46.82 48.16 50.26 51.73 51.66 52.22 50.59 48.55 49.30 49.51 49.57
44.08 47.28 49.04 48.68 45.87 44.57 41.82 40.47 39.71 39.42 36.51 36.72 35.88 36.89 40.84 41.86 43.23 42.70 43.09 44.63 41.46 39.57 39.63 38.54 39.31 36.26 35.20 36.30 37.49 39.97 41.29 42.71 44.60 44.66 42.91 43.16 43.86 44.15 45.47 45.59 46.95 47.97 48.88 51.28 51.97 51.67 48.23 48.82 48.14 47.94 50.82 51.73 51.48 49.80
46.04 47.12 48.82 47.47 43.77 40.08 37.60 38.59 40.58 36.77 37.36 38.32 38.07 38.98 43.08 44.41 44.74 44.39 43.02 41.82 41.30 41.45 39.78 37.95 36.24 34.55 37.32 39.20 39.86 42.27 44.53 45.28 43.78 42.56 43.43 44.87 45.64 46.80 48.99 50.63 51.46 51.86 52.28 52.92 51.93 50.04 52.99 53.50 53.57 53.30 52.33 51.60 49.85 50.30
48.57 48.78 48.26 48.16 45.61 41.20 40.80 37.47 41.19 37.47 35.98 38.11 42.04 41.42 42.55 42.38 42.94 41.29 40.69 40.53 38.61 37.89 36.87 36.15 38.12 39.61 39.99 41.08 41.85 42.26 42.92 43.30 42.95 44.54 43.59 46.32 48.95 50.25 51.11 51.18 51.02 52.23 52.27 52.55 52.39 49.81 52.41 52.03 52.21 51.83 51.69 51.38 50.78 50.28
44.95 46.43 46.94 43.43 40.53 40.18 39.45 38.44 36.80 37.65 38.86 38.74 42.54 40.69 40.65 43.17 42.99 39.39 38.31 39.37 37.72 35.15 35.72 39.81 40.00 42.18 43.28 43.19 44.31 44.73 44.37 44.52 46.47 46.66 46.98 47.00 49.13 50.13 50.84 51.11 51.34 51.36 50.84 50.86 50.82 50.11 49.75 50.46 51.22 51.75 51.17 50.71 51.11 50.71
40.71 46.64 39.95 41.59 40.44 41.87 41.14 40.88 39.27 42.16 39.35 38.80 39.45 41.62 39.55 40.08 37.51 36.91 38.03 37.14 36.24 37.93 38.51 38.64 39.07 39.82 41.13 42.40 44.00 44.61 46.34 47.51 49.33 49.41 47.29 48.01 48.85 49.70 49.91 50.31 49.50 49.93 50.29 50.31 50.48 50.29 50.29 50.88 51.17 51.22 50.64 50.48 49.83 50.63
46.24 45.17 42.63 42.42 38.45 34.42 34.84 43.26 40.93 40.75 36.99 38.70 36.77 35.60 35.55 35.26 36.62 38.12 34.00 35.30 36.48 38.28 39.38 39.55 40.46 41.81 43.94 46.00 44.90 46.46 49.60 49.70 49.59 49.91 49.98 50.20 50.96 50.36 49.80 50.13 50.44 50.04 49.68 49.75 50.44 49.84 48.19 46.32 46.89 49.04 49.08 49.17 49.48 49.52
46.24 40.62 38.75 37.60 34.24 28.42 38.46 36.67 37.83 35.12 35.23 34.11 33.95 32.60 34.36 36.42 36.61 35.34 34.25 35.46 39.82 43.53 44.18 45.32 46.78 45.86 46.24 46.96 47.38 48.01 49.68 50.84 50.20 50.20 49.49 50.09 48.92 49.01 49.49 49.34 49.55 49.37 49.09 47.56 48.98 48.16 48.04 48.00 46.31 47.84 47.83 47.61 48.30 48.34
32.20 30.11 32.95 25.26 33.83 35.83 34.94 33.48 32.23 32.27 31.41 33.36 32.41 33.72 36.21 35.65 35.02 34.39 33.88 38.51 41.64 43.73 45.16 46.28 47.16 46.95 46.19 46.60 47.72 48.79 50.25 50.31 48.82 46.12 47.42 48.24 46.14 44.98 45.04 45.33 45.35 45.28 47.15 48.11 46.59 46.06 45.82 46.22 46.59 46.98 46.82 46.34 46.10 45.96
24.97 32.81 29.66 34.34 33.02 33.54 31.19 29.87 28.80 30.95 33.77 32.87 33.92 36.74 38.97 37.51 35.08 33.33 37.90 41.42 43.11 44.71 47.29 47.65 46.87 47.22 47.02 48.16 47.61 48.14 49.24 50.34 48.39 47.18 47.04 47.56 47.11 45.37 44.52 43.76 43.69 44.89 47.89 47.89 47.12 46.93 46.89 46.80 47.03 48.02 48.43 49.03 43.81 45.94
28.66 32.79 38.42 38.18 36.73 35.85 33.03 34.05 38.17 37.66 36.88 36.05 37.90 37.61 37.55 34.07 33.70 37.56 42.06 45.33 45.48 48.14 49.60 49.75 49.62 48.66 48.26 47.94 48.17 49.41 49.49 49.59 48.79 49.32 50.93 51.16 50.99 50.39 49.86 48.24 46.06 47.44 48.98 49.90 49.80 49.73 47.92 48.76 49.35 48.58 48.10 48.29 46.73 46.40
37.13 37.95 34.67 36.93 33.47 36.78 37.82 38.12 37.84 37.61 38.72 41.39 40.19 37.46 36.81 36.90 37.51 42.38 43.58 48.55 50.82 51.14 51.34 51.29 51.24 50.66 49.45 47.86 47.97 48.32 48.87 48.67 49.11 46.89 44.81 46.53 46.66 48.08 47.92 46.44 46.28 42.25 44.94 46.75 47.65 48.81 48.48 47.59 46.94 47.07 48.21 46.26 46.66 46.80
36.34 39.27 38.56 36.37 38.62 38.06 38.75 39.30 40.65 42.95 44.03 42.64 40.42 39.30 40.37 42.93 45.79 47.16 48.90 50.20 50.47 48.97 48.36 48.52 48.42 49.05 48.78 48.76 49.14 49.45 49.54 48.20 45.09 40.25 41.58 41.87 42.49 43.63 43.87 43.69 43.76 43.58 43.54 44.22 40.60 43.98 49.07 48.98 48.68 48.31 47.03 45.67 45.76 45.78
38.75 41.27 39.32 40.33 38.70 38.57 42.38 43.83 44.29 47.09 47.37 46.84 46.17 46.25 46.51 46.71 48.84 49.80 48.57 48.10 48.17 48.43 48.95 48.84 48.92 48.53 47.87 48.31 48.51 49.07 45.80 46.01 45.74 43.45 41.17 41.18 42.04 43.19 43.61 44.68 45.27 44.75 43.77 43.76 43.87 43.55 42.04 44.34 43.78 45.67 45.90 45.52 44.25 43.30
43.39 42.20 41.07 42.52 42.49 45.26 46.84 48.16 48.66 48.17 47.45 47.00 47.78 45.19 44.82 45.16 46.68 48.44 48.88 49.26 49.34 49.21 48.81 48.67 49.36 49.82 49.33 49.77 49.45 45.63 44.07 44.91 45.60 45.44 45.37 44.96 44.98 45.05 45.14 45.71 46.09 45.71 45.55 45.50 45.53 46.08 46.15 47.04 46.89 48.70 47.97 45.80 43.55 42.26
44.61 43.14 43.61 41.94 43.04 46.88 48.49 46.75 46.45 45.62 45.79 45.03 44.18 44.88 44.68 45.02 44.03 46.67 48.78 48.60 47.64 47.35 46.92 47.93 48.19 48.23 46.71 46.01 48.67 46.89 42.27 44.54 45.77 46.52 46.67 45.95 45.79 45.91 46.41 46.58 46.81 47.42 47.41 47.50 46.90 46.76 47.47 47.91 46.13 46.38 44.88 44.50 43.87 42.79
44.59 44.37 44.23 43.94 43.47 42.05 43.68 42.83 42.15 41.74 42.73 42.55 43.02 44.01 43.96 43.51 42.23 45.58 48.35 50.61 49.27 49.34 48.20 48.71 50.09 48.85 46.52 45.92 46.18 44.65 41.87 42.44 40.17 38.60 39.16 40.18 40.80 41.88 44.16 44.57 45.87 46.80 47.13 46.64 46.52 46.00 45.75 45.32 44.17 43.91 43.57 42.97 42.33 41.81

GFSWCAN_sfc_wetblb_036.txt.gz
Wetbulb
52.36 52.00 51.82 51.56 51.20 51.19 51.06 50.21 48.81 48.63 48.69 48.86 49.44 49.37 49.28 49.27 48.91 42.73 38.88 40.13 39.69 34.98 36.98 40.58 42.75 40.19 39.85 38.07 37.22 41.41 43.28 46.03 46.04 38.10 37.51 36.51 37.30 38.94 38.35 38.84 37.42 38.00 38.32 37.76 37.89 35.64 35.70 56.17 56.83 46.31 47.75 53.86 55.75 56.02
52.30 52.07 51.91 51.97 51.52 51.38 51.19 50.37 48.75 48.75 48.52 48.78 49.17 49.08 49.08 48.86 48.68 44.83 34.90 39.57 40.90 38.42 37.74 40.81 43.65 46.58 44.49 43.11 39.30 39.56 43.78 43.31 45.81 43.08 42.01 40.65 38.53 38.71 35.72 35.41 42.95 39.60 40.49 39.56 40.57 39.25 50.34 54.72 54.83 57.94 56.00 55.95 56.30 55.83
52.14 51.92 51.83 51.67 51.43 51.48 51.37 50.52 49.00 48.79 48.50 48.68 48.89 48.97 48.82 48.35 48.31 45.88 37.26 36.90 38.20 37.17 38.35 38.49 41.58 44.69 43.70 43.36 43.14 38.78 42.04 43.76 43.61 47.17 44.70 42.94 39.73 39.69 36.43 38.84 39.49 44.13 46.44 46.80 47.68 49.87 52.38 54.56 56.00 60.48 60.94 60.17 61.92 59.10
52.07 51.69 51.53 51.26 51.17 51.21 51.34 50.62 49.21 48.66 48.38 48.41 48.70 48.61 48.45 48.02 47.77 47.19 38.43 36.88 38.01 36.79 33.90 38.93 46.07 43.41 47.07 42.43 42.93 43.55 44.07 43.13 43.54 44.99 42.47 40.62 39.72 40.02 37.33 39.22 39.69 43.71 47.45 48.96 50.61 51.65 53.16 54.25 55.81 56.26 58.66 61.64 61.87 61.47
51.41 51.32 51.16 51.24 51.35 51.41 51.09 50.69 49.54 48.65 48.34 48.34 48.53 48.41 48.23 47.75 47.57 43.41 38.64 38.82 39.92 39.30 34.76 36.93 41.26 43.74 44.77 44.17 43.04 41.54 41.84 39.75 39.61 40.11 41.18 40.81 40.02 40.27 39.50 43.47 45.55 47.90 46.76 45.36 46.15 50.94 51.13 52.40 56.28 58.99 60.44 61.61 61.87 61.18
51.05 51.15 51.23 51.42 51.24 51.06 51.01 50.58 49.61 48.63 48.48 48.28 48.21 48.06 48.09 47.76 47.35 39.01 39.89 41.20 42.02 40.99 36.14 31.71 39.97 42.60 43.83 43.38 42.97 40.77 41.07 40.30 39.43 37.91 38.04 38.21 40.63 40.87 37.87 40.75 48.26 49.16 50.19 50.51 50.72 53.64 54.51 57.42 58.84 60.32 61.97 62.43 62.95 61.17
50.87 51.11 51.07 51.01 50.80 50.87 51.00 50.43 49.28 48.35 47.81 47.95 48.19 48.16 47.98 48.08 39.81 36.19 39.50 42.77 44.16 40.78 38.12 35.86 36.84 42.24 43.17 40.48 40.87 39.89 39.23 39.90 39.65 37.07 35.88 35.81 37.75 39.99 38.44 39.19 47.92 50.08 50.57 52.51 54.78 55.22 53.60 56.05 55.59 61.01 62.56 62.56 61.02 61.11
50.52 50.33 50.50 50.14 50.11 50.84 50.74 49.77 49.14 48.16 47.74 48.04 48.31 48.63 48.48 48.14 44.80 40.31 42.84 46.84 44.66 39.14 39.46 34.80 36.55 39.92 43.13 38.82 38.10 38.67 38.15 38.29 38.97 37.85 38.23 35.88 36.26 36.28 34.10 40.36 42.50 48.94 51.11 51.78 53.04 52.32 52.79 53.26 55.01 59.46 60.42 60.22 58.84 58.60
49.74 49.90 49.91 49.30 50.11 50.55 50.00 49.13 48.47 48.06 48.24 48.20 48.37 47.61 41.45 40.02 38.78 42.43 51.33 47.96 42.56 41.80 37.03 35.96 34.24 35.95 43.82 40.39 38.70 39.46 38.67 36.06 38.73 37.55 36.70 38.63 34.54 32.93 35.32 38.52 41.73 46.49 48.42 48.96 50.32 50.60 50.64 51.81 52.64 54.85 57.14 57.01 56.22 56.43
49.38 49.52 49.47 49.11 50.21 50.12 49.38 48.81 48.29 48.30 48.12 46.95 40.37 39.71 37.84 41.67 49.94 47.96 42.17 39.97 40.07 38.88 37.32 34.59 36.95 37.54 40.85 39.97 40.79 39.98 39.10 35.62 35.13 37.46 38.38 35.76 34.40 39.07 44.62 45.13 45.84 46.63 46.25 49.08 47.14 46.75 47.94 48.37 49.68 50.60 51.39 52.26 51.97 51.67
49.44 49.66 49.55 49.17 50.06 49.40 48.84 48.50 48.11 47.08 43.36 38.62 37.22 39.09 43.23 46.10 42.10 39.87 36.24 35.97 36.40 35.09 36.12 36.80 36.90 36.81 41.16 39.25 39.12 40.78 38.47 38.44 35.07 37.09 36.44 33.76 38.14 43.07 46.09 45.83 46.62 47.69 48.73 48.99 49.24 49.31 49.26 49.08 49.24 49.86 50.99 52.06 52.67 52.88
49.91 49.71 49.59 49.71 49.73 49.26 48.77 48.88 47.62 40.16 37.93 39.24 37.78 39.66 39.37 40.07 36.93 34.51 33.20 35.79 35.73 34.87 38.01 37.23 37.59 37.99 40.81 43.92 40.47 40.18 37.62 38.55 34.48 40.76 38.92 35.88 41.13 44.40 46.09 47.58 48.13 47.98 49.13 49.29 49.65 49.09 49.72 50.59 50.92 51.01 51.04 52.06 52.99 53.32
49.67 49.91 49.83 49.84 49.68 49.04 48.78 48.40 47.17 44.74 42.63 40.05 38.32 36.21 36.94 34.76 27.86 31.61 30.94 32.94 33.63 37.45 39.88 40.55 40.59 41.73 43.67 45.58 41.32 38.72 36.26 35.54 41.49 37.98 37.54 41.43 43.82 45.93 46.25 47.79 49.03 48.73 48.30 48.28 48.80 49.95 50.37 50.51 50.87 50.72 50.14 51.41 53.06 53.37
49.35 49.85 49.95 49.80 49.65 49.18 49.07 48.48 48.28 44.74 38.07 37.53 36.55 26.14 32.10 28.70 32.42 33.66 33.99 34.81 38.61 41.37 42.28 41.73 41.46 41.38 43.23 42.06 41.91 37.06 38.87 40.35 36.58 34.18 36.82 45.23 47.77 48.48 47.05 47.30 46.43 46.13 46.60 46.90 47.56 48.77 49.04 49.32 49.70 50.55 50.40 50.36 51.33 51.69
49.13 49.41 49.64 49.50 49.55 48.97 48.90 48.71 47.24 39.81 39.50 37.41 40.80 32.62 33.01 36.05 35.82 36.72 37.96 39.08 42.41 44.96 44.00 43.75 42.93 41.79 40.67 40.83 39.63 38.82 37.96 36.09 37.72 36.51 44.88 47.61 48.99 47.45 45.20 45.47 45.36 45.42 45.72 45.86 47.09 47.43 48.11 48.92 49.37 49.54 50.34 50.26 50.22 50.78
48.86 48.71 47.66 49.47 49.22 48.92 48.72 46.76 41.39 39.04 39.53 37.86 37.56 34.22 37.42 35.90 35.83 37.72 37.83 38.53 42.88 44.86 44.08 43.30 40.16 37.97 36.71 37.34 37.45 36.74 36.22 35.79 37.31 40.31 43.21 43.94 43.99 44.02 43.95 44.75 45.00 45.55 45.81 46.03 46.35 47.14 48.20 48.55 49.51 49.53 49.56 49.51 49.86 50.14
46.98 44.86 49.13 48.80 48.93 48.35 46.21 39.83 38.69 36.93 37.40 38.20 35.50 38.23 36.68 36.10 35.97 38.76 39.96 40.88 44.93 43.11 40.13 39.65 35.98 35.57 38.71 36.05 35.67 38.57 37.08 39.38 41.80 43.34 44.45 43.39 42.74 43.31 43.89 43.98 44.93 46.08 46.46 46.57 47.34 49.35 49.31 51.52 52.52 51.82 50.78 50.08 50.35 50.37
43.59 47.55 48.77 48.58 45.35 43.97 41.11 40.31 39.19 37.73 34.93 36.35 34.36 35.37 37.61 40.07 39.43 41.48 42.36 44.80 42.81 39.71 40.85 38.43 38.67 35.76 34.99 35.53 36.42 39.19 40.59 42.00 42.62 42.82 42.51 42.64 43.02 43.76 44.82 45.72 47.92 49.25 50.09 51.13 51.98 52.43 52.08 50.52 51.13 50.90 51.32 52.11 50.85 50.33
46.80 47.35 48.54 47.72 43.17 39.27 35.33 36.80 39.57 35.66 37.03 36.61 36.38 36.36 39.53 41.24 43.18 45.30 42.50 42.09 40.73 40.23 39.03 37.32 35.90 34.32 36.73 38.66 39.17 40.46 41.86 42.75 41.73 41.93 42.51 43.82 44.63 45.52 49.54 51.03 51.53 51.59 52.17 52.57 52.69 52.27 52.83 52.57 52.83 52.99 51.95 51.69 50.61 50.99
48.43 48.20 47.89 47.30 44.90 40.18 39.81 38.21 40.18 36.42 35.33 36.91 38.39 38.80 39.50 39.79 43.38 41.11 39.68 39.01 37.37 37.34 36.80 36.19 36.91 39.07 39.43 40.40 41.18 41.62 42.31 42.51 42.24 43.71 43.12 44.73 47.41 49.31 50.58 50.82 50.84 51.72 52.28 52.37 51.67 49.10 52.07 51.70 52.03 51.67 51.30 50.96 50.74 50.18
45.18 45.85 46.34 43.10 41.72 39.61 38.73 37.71 37.00 37.35 37.47 36.85 40.57 39.12 39.52 42.10 39.73 37.75 37.27 37.91 37.01 34.68 35.92 39.10 39.71 40.38 40.95 41.61 42.79 43.39 43.15 43.24 45.72 46.12 46.73 47.16 49.18 49.77 50.67 50.70 51.27 51.34 50.82 50.84 50.46 50.24 49.53 50.26 51.22 51.61 51.15 51.01 50.89 50.56
43.35 45.44 40.32 42.07 39.65 41.63 40.68 40.86 38.12 39.03 37.81 39.15 40.62 40.26 39.89 40.02 37.26 37.71 36.30 36.20 35.62 36.90 38.01 38.61 39.37 39.76 40.88 41.23 42.02 43.34 44.42 45.74 47.14 48.66 46.92 48.03 48.30 49.55 49.77 49.95 50.22 49.75 49.93 50.29 50.26 49.69 49.53 50.24 50.82 50.67 50.61 50.38 49.55 50.16
45.57 44.58 43.17 41.66 37.32 32.70 34.34 40.37 37.84 37.91 35.35 35.84 35.81 34.97 34.65 34.23 35.16 36.48 33.54 34.10 35.98 37.71 38.50 38.79 40.03 41.09 41.25 44.63 45.48 45.03 46.48 48.79 49.03 49.97 50.07 50.42 50.56 49.96 49.46 50.02 50.79 50.04 49.31 49.37 49.94 48.64 48.19 46.01 47.80 48.70 49.33 49.25 49.46 49.28
45.75 39.90 37.53 36.85 36.19 29.89 38.53 36.64 37.38 34.14 34.08 33.45 33.37 32.32 32.59 34.10 35.47 34.25 32.69 35.31 35.27 39.43 40.61 43.08 46.13 46.04 46.20 46.56 46.85 47.83 49.44 50.67 50.09 49.00 50.13 49.69 48.46 48.50 49.31 48.68 48.54 48.54 48.40 48.04 47.81 47.89 47.87 47.50 45.07 47.05 47.36 47.73 47.63 46.93
30.81 28.98 31.46 23.85 32.70 35.08 33.36 32.06 31.67 31.30 31.08 32.68 32.31 33.14 36.73 34.45 32.80 34.38 33.67 38.12 41.08 43.05 44.70 46.08 46.40 46.44 46.11 46.60 47.74 49.04 50.80 50.51 47.97 47.23 47.11 47.98 46.84 46.72 46.20 46.05 46.39 46.75 49.22 47.62 46.66 46.81 46.89 47.55 47.86 48.04 48.17 48.56 48.52 45.85
24.46 32.16 29.13 33.41 31.54 32.22 29.80 29.63 28.24 30.69 31.75 32.00 32.84 34.28 35.06 35.38 34.38 33.08 37.85 40.92 42.89 44.24 46.49 47.27 47.12 46.51 47.05 48.12 47.92 48.55 49.13 49.51 48.70 47.02 47.41 47.44 46.68 45.78 45.19 44.93 45.15 46.50 48.58 48.34 47.85 48.19 48.50 48.72 49.00 49.36 49.50 49.37 43.86 47.59
26.38 30.66 37.16 36.19 35.27 34.24 31.97 32.87 34.77 33.77 34.91 32.51 36.31 36.85 36.92 33.97 33.71 38.09 41.94 44.84 45.11 47.43 49.38 49.45 49.18 48.52 48.37 48.64 49.50 49.59 50.29 50.70 50.68 50.42 51.40 51.37 49.42 48.62 47.77 46.97 46.75 47.86 49.32 49.72 50.06 50.46 50.33 49.82 50.11 50.63 50.20 49.50 49.80 48.63
36.02 37.35 32.27 34.86 33.08 33.81 37.01 37.52 37.01 35.93 38.05 40.42 39.66 36.80 36.41 36.47 37.24 41.45 44.53 48.08 50.29 50.78 51.38 51.38 51.19 50.87 49.96 49.32 49.50 49.35 49.07 49.14 48.11 46.56 47.53 48.24 48.23 49.54 49.86 49.32 47.69 41.00 46.22 47.74 50.66 51.60 50.03 48.70 48.96 49.78 49.16 48.56 48.20 48.55
35.94 38.76 37.73 35.52 37.44 36.06 37.81 38.47 39.95 42.49 43.59 42.12 39.61 39.19 40.21 42.68 45.29 46.91 48.99 50.51 50.78 50.21 49.09 48.26 48.54 49.47 49.09 48.97 48.97 49.14 49.16 49.13 46.49 44.85 45.30 44.83 45.42 46.34 45.94 45.68 45.89 45.98 45.41 45.95 40.04 44.09 49.00 48.49 49.89 50.06 50.10 48.69 48.65 48.18
38.57 40.39 37.79 39.55 38.14 37.96 41.69 43.04 42.66 47.20 46.96 46.27 46.13 45.76 46.13 46.98 49.04 50.57 49.89 49.34 49.13 48.99 49.14 49.21 48.82 48.37 48.09 48.16 48.38 49.02 47.42 47.83 48.14 45.05 43.89 44.08 44.91 46.25 46.26 47.07 47.58 47.75 46.70 47.03 46.75 47.17 42.11 46.99 45.81 49.05 48.08 47.97 47.31 47.15
43.34 41.77 40.35 40.92 41.18 43.49 45.86 48.05 48.38 48.36 47.75 47.14 47.57 45.10 45.13 46.04 47.56 48.99 49.32 49.71 49.54 48.74 48.18 48.04 48.09 48.54 48.45 48.56 47.99 47.86 46.99 46.34 46.71 47.90 46.15 45.67 45.57 45.87 46.00 46.54 47.13 47.68 47.54 47.56 47.37 47.89 47.69 47.97 48.97 49.15 49.13 48.05 46.85 44.72
43.45 41.75 42.92 41.70 42.83 46.70 48.26 46.48 46.02 45.42 45.67 44.54 43.24 44.62 44.77 45.08 44.45 46.16 48.75 48.46 47.96 47.47 47.19 47.73 47.95 47.79 49.26 48.47 46.96 48.31 42.39 46.25 46.90 46.84 47.18 47.22 47.82 48.54 48.91 48.82 48.49 48.37 48.63 49.45 49.04 47.83 49.44 49.15 48.71 48.33 47.04 46.74 46.31 45.75
44.31 44.55 44.36 43.64 42.78 41.92 43.43 43.41 42.45 42.24 42.95 42.81 43.70 44.58 44.90 44.56 42.93 45.84 48.14 49.75 49.33 49.19 48.29 48.46 49.09 49.35 48.90 47.39 47.21 45.45 42.35 43.98 40.38 39.19 40.36 40.99 41.13 42.90 46.34 47.14 48.30 49.58 49.81 49.22 48.75 48.64 48.14 47.86 47.35 47.32 46.97 46.59 46.05 45.98

GFSWCAN_sfc_wetblb_039.txt.gz
Wetbulb
52.58 52.23 51.91 51.32 50.91 50.96 50.97 50.53 48.78 48.13 48.39 48.73 49.31 49.43 49.38 49.22 48.84 45.77 44.94 45.10 45.15 43.79 44.70 44.92 45.19 44.60 44.28 43.31 41.10 45.80 48.73 50.47 50.95 46.71 47.27 46.38 46.48 46.64 46.61 46.68 46.40 46.80 46.82 47.17 47.09 46.15 43.96 58.68 60.16 52.47 55.95 60.72 60.94 61.30
52.71 52.24 51.94 51.60 51.62 51.39 51.06 50.89 49.22 48.16 48.18 48.25 48.79 49.20 49.02 48.75 48.52 46.38 42.49 44.63 45.27 44.83 44.82 46.07 48.08 48.89 47.60 46.98 44.22 44.42 47.44 47.76 48.69 49.67 49.13 48.15 47.58 48.09 45.23 45.20 50.86 47.34 50.13 49.60 49.10 49.16 56.62 59.46 60.08 62.39 62.34 61.36 61.15 61.76
52.55 52.22 51.95 51.80 51.66 51.51 51.22 50.87 49.81 48.59 48.22 48.00 48.54 48.92 48.73 48.15 48.03 47.07 44.55 43.53 44.47 44.60 45.96 45.78 48.59 49.85 49.22 49.03 49.77 43.43 47.00 48.10 48.95 51.40 51.61 50.88 47.20 48.79 47.60 47.45 49.22 51.97 52.65 53.38 52.72 55.69 58.05 59.59 60.55 62.15 63.35 63.73 64.45 62.89
52.54 52.08 51.65 51.60 51.32 51.10 51.08 50.73 50.16 48.87 48.23 47.94 48.26 48.50 48.33 48.06 47.79 47.32 44.23 44.16 44.79 44.37 42.06 46.25 50.57 49.51 51.22 49.40 48.85 48.68 48.28 48.83 49.92 50.26 49.68 49.61 48.38 48.41 47.80 47.86 49.28 51.93 53.96 54.03 54.64 56.95 58.15 58.86 59.73 60.77 62.31 64.69 64.89 63.10
52.09 51.75 51.37 51.18 51.01 51.08 50.91 50.98 50.42 49.17 48.29 47.98 48.03 48.08 48.11 47.93 47.75 44.77 45.40 45.83 45.96 44.54 41.63 44.07 47.83 50.45 51.20 49.59 47.21 48.28 48.46 48.11 46.71 46.80 48.09 47.71 48.86 48.63 48.74 51.49 53.03 55.36 53.77 53.21 54.22 57.68 58.11 58.10 60.16 61.49 63.63 63.90 64.58 63.63
51.50 51.45 51.03 50.93 50.95 51.05 50.89 50.83 50.35 49.20 48.15 47.99 47.85 47.87 48.09 47.98 47.13 45.48 46.21 47.16 47.67 46.99 44.00 41.78 46.80 48.94 50.91 50.14 49.20 48.79 48.43 47.35 47.22 45.99 46.36 47.45 47.29 48.09 47.90 50.10 54.34 55.17 56.53 57.52 56.91 59.54 59.30 60.58 61.14 62.67 64.46 64.09 64.07 64.19
51.22 51.04 51.01 50.96 51.19 51.06 50.91 51.08 50.18 49.04 48.04 47.55 47.92 48.12 48.25 48.26 46.94 42.69 44.81 46.74 46.39 46.66 44.86 41.99 44.75 50.00 49.61 49.30 48.55 48.02 47.91 47.49 47.85 45.49 44.87 45.46 46.94 48.44 48.82 47.92 55.75 56.10 56.80 57.73 59.91 60.16 58.34 58.93 61.09 64.01 64.47 64.33 62.96 63.19
50.59 50.82 50.90 50.91 50.78 50.63 50.86 50.68 49.82 48.63 47.79 47.67 48.14 48.55 48.69 47.30 46.87 46.57 49.53 48.64 47.14 44.64 46.03 41.77 44.14 47.43 50.84 48.21 47.47 47.10 47.04 47.30 46.77 46.44 46.42 45.61 45.64 46.72 44.36 48.55 50.22 52.69 56.26 58.68 59.91 58.22 57.06 59.85 62.69 63.36 63.76 63.01 61.31 61.54
50.22 50.62 50.43 50.50 50.19 50.40 50.72 49.78 48.85 48.30 47.81 47.83 48.03 46.62 45.72 45.91 46.54 48.14 50.66 49.01 48.01 46.37 43.53 43.68 42.52 43.79 50.60 48.45 47.75 47.94 47.50 44.34 46.56 45.94 45.78 45.76 44.14 41.54 43.96 47.36 50.01 50.97 53.89 53.96 57.11 55.65 56.29 57.61 59.18 60.69 61.22 60.68 59.77 59.26
49.04 48.99 49.98 49.82 49.45 50.41 50.10 49.08 48.58 48.10 47.74 46.15 43.98 44.66 43.89 47.25 48.94 51.42 47.28 46.04 46.31 45.88 44.97 41.66 45.05 45.08 48.54 48.24 47.98 48.37 47.98 45.30 42.87 45.37 46.32 44.26 44.37 47.73 50.57 51.12 51.51 52.28 53.10 53.68 55.03 54.34 54.33 55.10 55.28 55.55 56.01 56.99 57.30 57.48
49.07 49.42 49.48 48.91 49.36 50.18 49.42 48.82 48.30 46.79 43.76 43.60 42.94 43.92 45.64 46.25 47.65 46.19 42.71 42.60 43.32 40.84 43.06 43.17 43.16 44.73 48.27 46.83 48.03 48.87 47.41 47.15 42.85 43.75 43.30 42.24 44.03 48.54 51.05 51.68 52.86 53.76 54.04 54.32 55.39 55.69 55.90 55.30 54.92 55.46 55.78 56.76 57.87 58.38
49.38 49.38 49.48 49.10 49.93 49.54 49.08 48.90 47.46 43.64 43.40 42.58 42.66 43.13 44.36 45.41 43.28 40.68 39.83 41.45 40.99 39.69 44.28 44.02 44.81 44.86 47.65 51.37 48.82 48.10 45.42 45.95 40.38 48.34 45.09 41.69 48.04 49.83 50.82 51.52 52.02 52.96 53.79 53.73 54.58 54.31 54.51 54.58 54.80 55.05 55.05 55.48 56.28 57.42
49.18 49.33 49.48 49.51 49.87 49.27 49.06 48.48 46.39 45.22 43.54 44.49 43.52 42.25 42.24 40.80 34.38 34.89 33.52 37.95 39.56 44.18 46.09 46.42 45.11 46.82 50.06 51.07 47.84 46.56 42.60 42.65 48.16 44.44 43.50 45.77 49.76 51.15 51.66 51.75 51.84 52.58 52.37 52.27 52.26 52.93 53.13 53.13 53.87 54.20 54.42 55.45 55.96 55.89
49.09 49.41 49.55 49.66 49.80 49.24 48.95 48.27 47.51 45.38 42.65 42.00 39.95 32.61 36.57 35.57 37.33 39.00 40.10 41.86 45.27 46.61 48.11 48.52 48.40 47.84 49.44 46.97 46.18 42.01 45.27 46.47 41.33 39.65 41.52 46.88 49.43 50.58 51.21 51.57 51.17 50.45 51.18 51.32 51.66 52.14 52.22 52.83 53.01 53.90 54.51 55.08 54.70 54.38
49.15 49.55 49.43 49.54 49.29 48.90 48.64 48.36 46.40 44.61 43.27 40.66 40.98 34.53 36.54 41.31 42.44 43.17 43.97 43.91 46.77 49.90 48.94 47.58 47.40 47.18 46.13 44.78 45.22 43.96 41.79 39.58 42.40 42.54 46.19 49.91 50.53 49.91 49.22 50.07 50.53 50.58 50.71 50.90 51.95 51.66 52.04 52.75 53.34 53.83 55.10 55.30 55.13 54.89
49.28 49.23 48.64 49.69 49.21 48.97 48.67 46.40 43.59 43.13 42.75 41.92 40.90 39.34 42.16 40.99 42.32 43.84 44.99 44.55 48.10 49.78 48.87 47.35 44.67 42.98 42.06 42.83 41.26 40.46 39.69 39.55 44.24 48.00 50.43 51.34 50.97 50.18 49.88 50.60 50.82 50.67 50.90 51.73 52.17 52.27 52.78 53.30 53.97 54.70 55.38 55.21 55.06 55.13
48.51 45.70 49.47 49.00 48.82 48.15 46.08 42.25 41.41 39.12 40.44 39.94 40.57 43.45 42.95 42.55 42.21 44.35 47.16 48.00 50.14 48.15 45.35 45.18 40.66 40.46 44.07 41.85 40.40 44.39 43.45 46.35 48.11 49.62 50.83 50.37 49.16 50.01 50.59 50.54 51.05 51.37 51.85 52.09 52.16 53.01 53.82 54.52 55.26 54.34 52.62 53.96 54.64 54.39
45.82 48.20 48.87 48.43 46.58 44.73 43.27 42.75 40.38 39.56 36.84 40.43 39.81 42.35 43.20 45.39 46.22 47.45 48.69 49.55 47.83 47.02 46.30 44.25 46.05 42.21 41.23 39.60 42.70 46.51 48.39 49.45 50.27 50.17 49.76 49.90 50.49 51.13 51.04 51.10 52.13 51.93 52.66 53.31 53.44 53.99 54.34 53.92 53.67 53.75 53.81 53.01 52.59 52.57
46.78 47.21 48.12 47.28 44.85 41.43 37.55 38.92 42.11 38.53 39.82 41.85 42.80 43.05 44.08 46.30 48.86 49.07 47.43 47.20 47.38 47.38 46.86 44.87 41.92 41.58 44.07 47.25 47.23 47.82 48.93 49.38 48.88 49.38 49.17 50.08 51.05 51.74 51.81 51.45 52.19 52.61 53.07 53.57 54.06 53.89 53.54 53.56 53.25 53.85 53.56 53.48 52.54 52.50
47.87 48.15 47.45 46.61 46.03 43.43 39.88 40.15 43.50 40.33 39.95 43.05 44.63 44.59 45.96 46.71 47.81 46.81 46.20 45.73 45.41 45.50 44.03 43.24 44.22 47.09 48.31 48.85 49.49 49.53 49.81 50.11 49.38 47.47 48.65 50.93 52.60 52.41 51.09 51.89 51.95 52.37 52.70 52.38 52.85 49.39 53.05 52.78 53.00 52.77 52.39 51.91 51.55 50.97
46.38 46.39 46.71 45.35 44.14 43.30 41.78 41.74 39.85 42.04 42.95 43.72 46.15 45.97 45.33 47.40 45.65 45.02 44.95 44.52 45.84 43.73 43.71 46.88 48.45 49.02 48.87 49.45 50.45 50.61 50.24 50.17 48.82 47.57 47.55 48.35 51.46 50.28 51.14 52.90 52.31 52.01 51.77 51.75 51.29 51.14 50.09 51.37 51.92 52.23 52.14 52.29 52.57 52.06
45.32 45.46 44.06 43.98 40.57 42.12 41.84 44.41 42.98 44.67 44.16 44.09 45.14 44.33 44.04 43.87 43.00 43.05 42.15 43.81 44.51 45.04 46.38 47.39 48.28 48.64 48.57 47.96 48.37 48.77 49.55 49.72 50.63 50.07 46.62 47.74 48.30 50.62 50.67 51.69 51.91 50.78 50.56 50.56 51.63 50.54 50.61 51.51 52.11 52.08 52.22 51.12 50.10 52.27
46.08 45.74 43.73 41.63 38.70 37.58 38.33 45.29 41.79 42.09 40.53 41.13 42.21 41.49 41.90 42.09 42.11 43.17 41.75 42.70 43.89 45.73 46.86 46.86 46.77 47.46 47.70 49.24 49.28 49.81 50.25 49.86 49.41 49.84 50.60 51.09 52.57 52.72 51.89 51.44 51.27 50.27 49.26 49.14 52.55 53.07 51.60 47.00 48.82 49.23 49.75 49.88 50.62 52.05
46.67 41.44 39.31 39.37 38.34 35.56 41.69 40.67 41.51 39.94 40.28 39.97 40.35 38.20 39.28 40.81 42.75 41.09 38.72 41.17 43.91 45.62 46.18 46.77 48.28 48.70 49.35 48.99 48.40 50.08 50.35 50.93 50.58 51.08 51.93 49.93 49.31 49.46 49.97 49.69 51.89 52.82 52.90 52.81 52.57 52.11 51.84 51.40 46.15 49.99 49.93 49.08 49.63 51.29
36.12 34.37 36.29 33.00 37.22 36.88 36.58 36.68 36.53 37.89 36.31 38.11 37.45 37.47 38.80 41.06 38.44 36.89 37.33 41.44 44.39 46.04 47.55 47.77 48.94 47.36 47.27 48.19 48.50 49.52 51.29 50.88 51.38 49.84 49.95 50.28 49.06 48.72 50.05 51.98 52.59 53.09 53.78 52.25 51.47 51.72 52.03 53.13 53.22 53.02 52.57 52.56 51.37 50.96
30.76 36.80 36.78 38.80 39.06 37.29 36.89 34.21 34.68 34.99 36.61 36.49 38.07 41.05 41.37 40.04 35.10 34.92 40.05 44.13 45.00 46.38 48.30 49.21 47.70 48.65 47.99 48.74 48.61 49.46 51.49 53.45 52.62 50.91 51.00 52.27 52.66 52.11 51.22 50.80 50.95 51.89 54.29 54.66 54.28 53.60 53.26 53.53 53.36 52.69 52.91 51.93 44.90 51.02
32.64 35.82 40.74 41.96 41.75 40.20 38.72 39.83 40.36 38.83 35.39 36.09 39.39 39.26 39.00 34.65 34.61 40.45 45.30 47.03 46.98 49.43 50.72 51.56 50.54 48.73 48.77 49.57 51.34 53.00 53.83 53.98 54.03 53.27 54.25 54.27 54.45 54.61 54.15 53.24 52.67 54.83 55.43 54.47 54.43 54.07 53.06 52.80 52.43 52.37 52.23 53.59 54.41 53.60
38.82 40.00 36.63 39.36 39.99 40.84 38.08 38.89 38.25 37.75 39.17 41.70 41.57 37.63 36.24 37.10 38.70 44.91 47.23 49.05 49.56 50.81 52.43 51.61 51.74 51.76 51.82 52.14 52.90 53.08 52.97 53.36 51.56 52.53 54.10 54.80 55.62 55.59 55.58 55.94 55.33 40.65 51.90 53.52 54.11 55.15 54.90 53.50 52.16 51.74 51.50 52.95 53.64 54.37
38.28 40.60 40.44 36.67 37.92 38.67 39.31 39.36 40.03 42.89 44.71 43.04 39.93 39.66 41.30 44.72 47.15 48.32 49.35 50.76 51.81 51.61 50.51 50.20 50.78 51.99 52.38 53.26 53.97 54.53 54.94 54.79 51.48 51.19 50.78 51.08 52.10 53.46 53.91 53.09 52.80 53.12 53.47 53.43 40.42 45.77 52.87 52.56 53.60 54.30 52.89 54.34 54.60 54.91
38.86 41.11 38.91 38.90 37.99 37.58 41.83 43.93 43.61 46.89 47.63 46.77 46.52 46.23 46.95 47.90 49.49 51.39 50.75 50.25 50.15 49.75 50.74 52.43 52.78 52.99 53.13 53.47 53.53 54.02 54.34 54.02 54.63 52.01 49.85 50.02 51.02 52.96 53.34 53.57 54.13 54.59 54.24 53.99 53.80 53.22 41.95 50.36 47.68 52.50 51.58 53.32 53.73 53.25
42.77 41.15 39.90 40.73 40.45 43.07 44.49 47.45 48.50 48.47 48.10 47.25 47.88 45.84 45.76 47.38 48.93 50.85 50.80 51.80 52.42 52.63 52.39 52.39 52.81 53.55 53.28 53.20 53.47 53.02 53.67 54.39 53.68 54.26 54.03 53.37 53.84 53.35 53.46 53.72 54.19 54.56 54.33 54.13 53.65 52.65 52.31 51.53 52.20 52.59 52.80 52.24 51.78 49.93
42.74 40.96 40.62 41.48 43.22 47.00 48.44 46.75 46.52 45.78 46.27 45.56 44.85 46.14 47.05 47.37 46.13 49.81 53.06 52.67 51.84 51.30 49.99 51.34 52.38 52.97 53.97 54.66 54.68 53.33 43.96 53.04 52.80 53.29 53.78 53.41 52.84 53.77 54.11 54.42 54.25 53.56 53.04 53.00 53.26 53.32 52.95 52.15 53.13 53.17 52.46 51.00 50.75 50.32
45.00 45.30 44.91 44.09 43.61 43.19 44.76 44.83 44.48 43.91 45.33 45.16 45.79 47.26 47.68 47.24 45.59 50.82 53.56 54.04 54.07 53.59 53.50 53.46 53.68 53.72 53.83 53.57 53.51 52.11 46.50 50.54 42.95 37.76 40.41 41.11 41.17 45.30 52.93 54.42 54.51 54.81 54.26 54.52 54.27 53.81 52.39 51.61 52.19 51.62 51.22 50.55 49.89 49.42

GFSWCAN_sfc_wetblb_042.txt.gz
Wetbulb
52.93 52.57 52.31 51.75 51.38 51.28 51.04 51.02 49.89 48.14 48.20 48.85 49.34 49.61 49.53 49.19 48.74 49.06 51.33 50.99 49.45 48.71 49.11 48.81 48.83 48.99 49.35 50.25 48.68 51.32 52.56 54.00 55.66 51.15 50.25 50.82 49.21 51.03 51.12 52.02 51.75 51.79 50.34 50.55 52.70 49.35 47.33 60.31 60.35 55.24 60.91 64.72 64.30 64.35
53.06 52.46 52.22 51.82 51.56 51.63 51.25 51.05 50.25 48.25 48.29 48.30 48.95 49.32 49.13 48.65 48.61 48.58 49.41 51.51 51.70 48.21 49.41 52.01 51.56 52.43 51.07 50.39 48.75 51.39 51.77 50.98 51.68 53.00 54.17 52.32 50.86 51.89 51.99 47.31 54.69 50.35 55.05 52.73 53.74 53.60 60.48 63.07 63.60 65.08 65.39 64.13 64.77 64.93
52.84 52.52 52.09 51.77 51.59 51.73 51.35 51.07 50.61 48.80 48.36 47.96 48.46 49.00 48.83 48.36 48.09 47.51 49.30 50.63 51.51 49.51 50.44 51.37 51.83 54.71 55.90 54.36 54.60 48.91 51.81 50.76 51.70 54.53 54.75 53.88 50.26 53.73 49.16 51.57 53.15 56.61 58.49 56.51 55.46 59.15 61.71 63.41 64.79 65.32 65.02 66.25 66.27 65.65
52.99 52.58 52.09 51.84 51.61 51.53 51.34 50.82 50.80 49.32 48.73 47.92 48.03 48.59 48.57 48.10 47.90 47.20 50.83 52.40 51.12 50.13 46.00 50.59 55.66 53.78 55.89 55.94 53.76 53.36 51.04 52.28 51.59 52.22 53.31 53.11 51.32 53.69 52.80 52.63 53.20 56.84 58.34 56.53 55.32 60.41 61.64 63.17 64.10 64.28 65.24 66.91 66.99 66.18
52.81 52.26 51.88 51.62 51.49 51.49 51.21 51.06 50.68 49.80 48.89 48.21 47.97 47.93 48.16 48.16 47.92 49.49 53.83 54.31 53.85 48.92 46.26 49.45 53.15 54.76 55.61 53.75 52.19 52.44 52.27 51.66 48.94 47.32 50.74 50.81 52.46 53.23 55.64 55.01 53.20 58.23 56.70 53.96 54.83 61.08 62.54 63.23 64.04 65.05 65.44 65.85 66.35 66.25
52.38 52.14 51.59 51.50 51.23 51.30 51.00 51.02 50.75 49.91 49.00 48.26 47.76 47.73 48.13 48.33 48.04 50.95 49.71 53.11 55.31 52.02 48.55 46.93 52.71 53.72 54.65 54.26 53.72 53.52 53.53 51.73 50.15 47.64 48.52 51.40 52.40 52.23 50.80 51.51 57.34 58.69 59.74 60.39 59.50 63.24 62.44 63.83 64.52 66.37 65.41 65.33 67.25 66.92
52.36 51.92 51.58 51.26 51.05 51.18 51.27 51.17 50.85 49.95 48.93 48.06 47.53 47.87 48.13 48.41 48.30 47.73 47.93 50.42 48.15 52.50 48.87 46.55 49.19 54.18 54.51 54.16 55.05 55.24 53.47 52.51 50.98 48.25 47.20 49.99 52.23 51.23 52.31 49.52 57.27 58.22 59.71 61.43 62.98 62.84 61.30 62.53 63.78 66.46 66.63 65.90 64.60 66.41
51.64 51.30 51.07 50.90 51.00 51.32 51.26 51.06 50.64 49.65 48.42 47.70 47.74 48.29 48.61 48.02 47.67 48.64 53.78 50.49 49.51 49.39 49.89 46.07 49.09 50.33 54.86 51.28 50.67 54.79 52.62 52.05 50.15 50.24 49.86 47.51 50.78 51.80 47.45 53.13 55.35 57.19 58.55 60.91 61.60 61.71 60.91 63.83 65.20 64.88 65.80 64.99 63.43 63.04
50.47 50.64 50.68 50.87 51.04 51.02 50.81 50.84 49.91 48.86 47.99 47.53 47.91 47.61 48.99 48.83 49.84 51.91 50.13 49.98 53.83 50.52 46.65 47.96 46.49 46.54 54.41 53.30 54.22 52.32 53.35 47.61 52.56 47.58 48.21 48.56 46.22 44.52 49.13 51.42 53.29 55.93 56.50 58.03 59.44 61.04 60.12 60.74 62.15 63.04 62.63 61.54 59.11 59.94
49.02 49.46 50.28 50.61 50.59 50.46 50.68 50.09 49.13 48.76 47.79 46.81 46.61 47.83 45.69 50.83 48.38 51.19 50.79 49.40 49.73 49.48 48.47 45.21 51.42 48.70 53.13 51.78 50.12 52.10 51.97 49.43 45.85 48.82 51.68 46.63 46.12 51.92 52.44 54.52 55.88 56.29 56.81 57.74 56.88 58.00 58.58 59.02 59.52 59.82 59.21 59.66 59.31 59.11
49.70 49.48 49.93 50.17 49.80 50.39 50.15 49.47 48.87 47.50 44.49 46.54 47.15 48.05 50.90 47.34 51.59 49.67 45.53 44.91 46.98 43.43 46.55 47.73 47.51 47.80 54.14 49.07 49.76 53.74 49.41 51.35 44.05 47.15 46.80 46.06 45.30 51.62 53.63 55.34 57.02 57.85 58.11 58.05 58.95 59.21 59.19 59.42 59.33 58.86 58.36 58.89 59.48 60.03
48.48 48.31 49.08 49.38 49.65 50.19 49.66 49.26 48.29 46.38 47.79 47.33 48.58 48.41 51.27 48.92 47.34 43.06 42.73 45.76 43.84 43.02 47.78 46.82 47.97 47.92 52.63 55.96 51.59 51.54 47.34 50.21 42.38 51.23 46.69 43.60 50.38 53.68 54.57 54.72 55.56 56.74 56.78 56.82 57.62 57.24 57.60 57.77 58.12 58.31 58.61 58.66 58.86 59.36
48.41 49.28 49.22 49.48 50.03 49.70 49.47 48.60 46.86 45.99 46.56 49.57 48.07 45.95 46.15 44.95 36.32 36.83 36.16 41.03 43.21 47.04 50.42 50.69 47.31 48.88 52.10 54.90 51.00 50.08 44.57 44.58 52.25 46.16 45.88 48.81 51.25 53.91 54.94 55.59 55.13 55.72 55.42 55.44 55.25 55.92 56.13 56.09 56.95 56.99 57.14 58.08 58.37 58.12
48.42 48.98 49.25 49.46 49.87 49.47 49.21 47.87 47.01 46.75 46.15 45.92 43.12 35.15 39.64 37.83 40.54 42.88 45.07 46.83 48.87 51.75 52.72 52.82 50.46 49.60 52.90 49.20 50.32 43.33 48.97 49.78 42.99 41.53 43.50 50.32 53.21 53.75 54.75 54.74 54.50 53.82 54.48 54.63 54.83 55.26 55.32 55.64 56.40 57.11 57.41 57.95 57.82 57.55
48.85 49.13 49.45 49.65 49.82 49.35 48.76 47.95 47.44 48.08 47.20 43.44 43.84 36.49 39.19 46.05 46.92 49.15 50.11 49.66 50.85 52.78 52.79 51.56 51.87 51.82 49.02 46.75 49.11 46.83 42.97 40.93 44.63 45.68 49.40 52.99 54.81 53.81 51.78 51.13 52.64 54.18 54.58 54.55 55.49 55.45 55.58 56.02 56.51 57.17 58.38 58.82 58.29 57.95
48.85 48.98 48.31 49.66 49.25 49.05 48.50 47.71 47.10 49.00 47.83 44.60 43.77 41.99 45.81 45.37 45.78 47.35 49.08 49.40 53.24 53.76 54.34 52.64 47.91 45.52 44.76 47.62 43.53 42.01 41.55 41.12 47.18 50.86 52.72 53.32 52.32 52.08 52.26 53.74 54.67 54.77 55.01 55.32 55.84 56.11 56.32 56.91 56.93 57.32 58.16 58.01 57.64 57.13
49.06 46.88 49.70 49.24 48.80 48.67 47.64 46.58 46.07 43.79 45.56 42.57 43.65 47.74 47.85 48.36 48.83 50.80 52.49 52.79 55.03 51.96 48.32 49.01 43.06 42.20 49.48 44.43 42.26 48.17 46.25 49.43 51.62 53.44 54.82 54.37 53.21 53.28 54.33 54.67 55.00 54.66 53.65 53.07 53.24 54.04 55.58 56.34 57.01 56.93 55.99 56.51 56.34 55.08
46.61 49.27 49.17 48.54 47.90 45.78 44.16 44.97 44.63 43.74 40.05 44.51 43.25 45.73 48.79 50.56 50.25 51.53 53.41 54.61 52.33 52.45 52.17 47.39 51.53 45.01 43.42 41.21 46.09 50.30 51.89 53.19 53.85 53.33 53.36 53.83 54.68 54.49 54.81 53.47 53.34 53.74 54.66 53.87 54.65 55.55 55.62 56.02 55.38 55.30 56.56 55.52 55.22 55.74
48.54 49.03 48.64 48.03 47.54 44.97 41.88 41.93 45.40 41.09 43.51 47.34 47.61 48.93 50.00 50.98 53.57 53.68 53.45 53.73 53.39 54.05 51.61 50.34 45.81 45.84 47.24 50.69 50.96 51.61 52.65 53.70 53.15 53.48 54.17 54.76 55.18 54.22 53.56 55.36 52.53 53.38 53.86 53.83 55.39 54.67 54.21 54.42 54.67 54.95 54.95 54.93 54.26 54.64
48.29 47.69 47.53 46.35 47.00 45.67 40.94 42.60 48.06 44.33 43.54 46.86 49.43 48.77 51.00 51.77 52.19 52.87 52.95 52.87 52.09 50.98 48.21 47.03 48.23 49.75 50.71 52.33 54.25 54.22 53.91 54.66 53.62 51.42 52.10 54.81 55.12 54.91 54.08 52.78 54.36 54.08 53.81 54.18 54.62 49.63 54.90 54.11 54.23 54.61 54.12 53.39 53.29 53.79
46.82 46.66 46.53 47.56 49.11 48.52 46.44 45.34 43.79 46.57 48.42 47.51 49.80 49.65 49.38 51.07 49.90 50.43 51.01 51.87 49.51 49.81 48.19 51.92 52.87 52.59 54.31 54.66 56.11 56.25 55.36 54.35 52.36 51.80 50.48 50.88 53.52 52.43 51.39 52.74 54.62 54.36 52.75 52.06 53.28 51.35 50.80 52.49 53.81 55.32 55.10 53.59 54.13 54.07
46.11 45.65 47.76 47.12 46.08 45.83 44.54 48.46 47.08 49.31 47.92 48.40 48.60 49.71 48.12 47.25 48.09 48.70 49.71 47.58 48.65 51.17 51.84 52.35 53.30 54.12 53.03 52.73 53.94 53.92 53.40 53.25 53.13 51.60 47.86 49.70 49.25 50.47 51.67 52.38 53.01 51.85 51.64 52.74 53.75 52.28 51.96 52.50 53.42 54.21 51.74 53.79 53.90 55.11
47.08 48.06 47.09 45.97 42.49 40.98 41.94 49.57 44.49 46.48 43.64 45.06 47.63 44.90 46.44 47.41 48.47 50.74 46.80 49.58 50.24 52.37 53.08 52.97 52.68 52.83 51.72 52.91 52.81 52.39 52.91 52.69 51.04 52.04 51.93 51.68 52.67 53.22 53.50 52.20 52.09 50.93 50.47 53.60 55.35 54.22 52.93 47.28 50.03 53.29 52.99 54.71 55.58 54.53
46.19 44.64 41.36 40.82 42.04 39.28 45.88 43.90 47.46 46.09 46.61 45.08 44.45 41.52 44.03 46.43 48.10 46.57 43.72 47.77 50.02 51.43 51.39 51.38 51.61 51.29 51.36 51.14 50.42 51.97 53.03 53.26 52.15 51.36 52.41 50.84 49.95 50.33 52.83 54.98 55.38 55.11 55.15 55.34 54.55 54.31 53.94 53.01 48.60 53.69 55.04 53.80 53.60 53.13
38.41 37.83 39.77 34.11 42.94 40.49 39.39 40.45 40.70 42.68 39.49 42.04 40.69 41.40 44.26 46.53 43.57 41.05 40.06 46.88 50.24 50.04 51.63 52.66 52.19 50.72 48.06 50.70 50.90 50.42 52.16 52.88 52.62 50.18 51.76 51.40 50.28 49.90 50.91 53.95 53.99 54.31 55.12 53.60 53.04 53.13 53.80 55.65 55.43 54.55 54.22 53.77 53.08 52.41
33.80 39.96 36.91 41.36 42.36 40.40 41.68 36.99 37.89 38.60 40.77 39.31 41.17 45.38 46.06 44.13 38.22 35.92 45.02 49.27 49.64 50.29 51.76 51.74 49.34 48.56 51.39 49.80 49.64 50.62 52.04 55.09 53.98 51.93 53.46 54.58 53.14 51.80 51.74 51.92 51.78 53.29 57.80 57.11 54.94 54.52 54.57 54.78 54.18 53.54 53.91 52.74 44.69 52.27
34.18 38.34 44.69 48.28 46.64 45.09 42.98 44.70 45.12 43.01 37.84 38.13 42.86 41.39 40.79 36.71 37.22 44.59 50.20 51.15 51.12 52.34 54.21 54.09 53.40 50.48 49.65 50.40 51.65 54.63 55.45 56.31 55.18 54.16 56.14 57.08 56.90 56.86 55.44 52.60 52.53 54.83 57.88 58.13 57.12 55.47 54.87 54.62 53.76 53.24 53.35 54.66 54.50 54.56
42.08 43.12 38.32 42.83 44.03 46.12 40.00 41.36 39.67 38.67 41.87 45.79 44.09 39.37 38.55 39.21 41.88 48.50 49.19 53.46 52.03 51.68 54.36 52.74 52.69 52.53 52.48 53.00 56.19 55.67 55.81 56.50 56.96 57.41 57.58 57.46 58.27 58.80 58.69 59.65 59.17 41.03 56.34 57.75 56.76 56.68 55.99 55.70 55.43 54.34 53.30 53.46 54.96 56.18
41.58 45.32 44.67 39.77 40.81 42.28 42.09 41.11 42.76 46.65 48.74 46.43 42.46 41.41 42.95 47.24 48.68 49.68 51.18 52.06 53.31 53.53 51.01 51.18 52.06 53.50 54.20 55.39 56.03 56.24 56.60 56.06 53.84 52.25 51.91 51.10 53.02 54.68 57.82 57.04 55.58 56.12 57.07 55.93 40.39 46.59 55.10 55.46 55.61 55.32 54.33 56.03 56.63 56.90
39.98 43.03 41.36 40.10 38.32 39.99 45.84 47.42 44.83 47.14 48.64 47.27 47.05 46.87 47.27 49.06 50.41 52.09 51.55 51.46 50.98 50.84 52.46 53.58 54.50 54.90 54.31 54.52 54.25 55.04 56.93 56.99 55.70 53.80 51.94 51.54 53.63 55.21 55.44 55.33 55.41 55.91 56.77 57.06 56.71 55.66 42.64 51.14 49.53 54.78 54.06 54.49 54.82 54.67
43.21 43.32 40.46 40.72 40.60 46.10 47.64 47.77 48.06 49.07 48.31 47.29 47.54 45.52 46.14 47.94 50.48 52.10 52.32 52.52 54.10 54.80 54.73 54.12 54.60 55.76 55.98 55.78 54.96 54.11 53.22 56.71 57.20 56.62 56.85 56.08 54.96 55.29 55.84 56.53 56.96 57.13 57.00 56.56 56.07 55.44 54.79 54.37 54.49 53.82 53.95 53.99 53.53 51.82
42.63 40.94 40.40 40.44 42.86 47.13 48.62 47.11 46.61 46.11 46.57 46.15 45.65 47.25 47.61 47.58 47.00 51.14 54.37 54.71 54.15 53.88 51.94 53.44 55.59 56.50 57.32 57.20 58.37 58.70 44.15 57.44 58.15 57.95 56.89 56.13 56.62 57.50 57.64 56.70 56.92 56.90 56.39 55.72 55.59 55.52 55.22 54.37 54.30 54.19 53.77 52.69 52.28 51.91
45.21 45.12 45.13 44.39 43.95 43.54 45.66 45.82 44.79 44.76 46.33 46.52 47.39 48.70 49.39 49.19 47.37 52.08 56.13 56.58 55.55 55.20 55.44 56.87 57.38 56.90 56.96 57.07 57.20 56.12 50.45 55.38 46.43 37.90 39.84 39.59 39.64 47.26 55.11 58.49 58.35 58.30 57.01 56.33 55.73 54.99 54.21 53.35 53.82 52.70 52.48 51.75 51.30 50.62

GFSWCAN_sfc_wetblb_045.txt.gz
Wetbulb
52.65 52.69 52.59 52.28 52.04 51.82 51.54 51.29 50.98 49.65 48.77 48.90 49.59 50.06 49.95 49.65 49.24 50.57 54.35 54.73 52.43 51.02 51.71 51.32 51.41 51.17 52.12 52.69 51.10 54.34 54.83 56.91 56.12 52.11 50.56 50.19 49.86 51.70 51.77 53.98 54.77 52.75 52.20 50.77 52.54 50.61 47.64 61.06 60.74 57.05 62.20 64.58 63.71 64.03
52.88 52.93 52.68 52.45 51.97 51.80 51.83 51.40 51.17 49.98 48.90 48.64 49.00 49.65 49.61 49.24 49.03 48.59 52.77 55.55 54.23 50.87 51.45 53.42 52.89 52.99 52.68 52.65 51.47 54.72 55.63 55.58 55.76 54.51 54.40 55.55 51.72 54.08 53.27 49.14 56.55 52.37 56.92 53.62 54.24 54.77 61.70 65.01 65.69 67.24 67.32 65.61 65.58 65.73
52.90 52.97 52.68 52.27 51.93 51.87 52.00 51.39 51.30 50.43 49.16 48.68 48.64 49.33 49.29 49.03 48.80 48.10 52.22 54.46 54.51 52.17 51.93 51.94 53.26 56.77 57.73 56.72 56.86 51.94 55.27 54.54 56.74 57.45 55.91 54.53 50.02 55.66 49.42 50.95 53.38 57.23 59.20 55.80 56.75 59.53 62.41 64.33 66.25 67.32 67.70 67.41 66.75 67.28
53.12 53.04 52.44 52.09 51.86 51.57 51.86 51.49 51.05 50.71 49.57 48.90 48.53 48.71 48.79 48.89 48.76 48.11 53.39 55.37 54.75 52.46 48.13 52.39 56.57 54.94 57.48 58.25 56.57 56.55 54.83 56.64 55.31 55.49 55.34 53.72 50.92 56.33 51.94 53.75 54.37 56.73 56.64 56.08 54.86 60.31 62.07 64.58 66.16 66.52 67.42 68.35 66.95 67.28
53.08 52.82 52.27 51.87 51.76 51.82 51.84 51.57 51.06 50.82 49.79 49.10 48.55 48.36 48.56 48.63 48.92 49.99 55.60 56.63 56.28 51.88 49.18 51.01 54.31 55.56 57.36 56.72 55.30 56.52 57.48 55.36 54.00 52.91 52.20 51.82 52.51 54.32 55.39 55.07 52.68 56.97 57.75 55.18 56.66 62.94 62.56 65.15 66.37 67.12 66.63 66.72 67.39 67.42
52.89 52.65 52.21 51.88 51.59 51.78 51.73 51.47 51.02 51.01 50.07 49.08 48.32 48.22 48.30 48.63 49.31 52.46 51.41 56.83 57.76 55.64 50.90 48.04 55.38 54.68 55.64 56.05 55.66 56.29 57.06 55.32 54.17 52.17 52.27 54.04 55.30 52.45 50.21 49.72 58.10 59.38 59.97 60.65 60.96 63.66 64.96 65.90 66.43 67.47 66.37 67.48 67.77 68.01
52.77 52.59 52.20 51.81 51.53 51.60 51.35 51.51 51.27 50.94 50.17 49.00 47.70 48.05 48.37 48.60 49.55 49.74 48.99 51.82 49.02 55.39 51.45 47.87 49.11 54.45 55.56 55.48 55.13 54.67 55.91 55.25 53.01 53.71 49.88 50.88 50.83 52.95 50.41 48.15 55.32 59.07 61.09 62.94 64.42 64.29 62.44 64.50 64.43 67.36 66.13 66.66 65.54 67.64
52.47 52.41 52.00 51.61 51.40 51.13 51.13 51.43 51.27 50.74 49.67 48.29 47.84 48.24 48.62 49.01 48.39 49.39 54.40 50.42 50.71 52.83 52.30 47.34 49.84 51.15 55.73 51.79 50.81 55.76 51.86 53.11 52.32 51.38 50.52 50.44 50.92 50.37 46.92 53.81 57.51 56.24 60.35 61.40 61.44 62.30 62.49 64.54 64.96 65.02 66.04 64.22 60.55 60.18
52.34 51.97 51.41 51.04 50.97 51.02 51.35 51.31 51.16 50.31 48.80 48.06 47.96 48.33 50.58 50.33 51.20 53.37 50.84 50.57 55.82 53.19 49.10 48.56 46.39 46.24 55.64 52.13 55.29 54.73 53.66 48.69 52.90 48.71 47.60 49.78 47.56 44.33 50.99 53.09 54.58 57.22 58.19 59.65 59.79 60.35 59.42 59.84 61.94 63.42 63.55 60.20 57.63 59.11
52.13 51.10 50.54 50.72 50.63 51.02 51.07 51.09 50.70 49.58 48.35 47.92 48.07 49.67 47.97 52.70 50.78 51.88 52.40 51.14 50.75 51.52 50.66 47.04 51.20 49.69 52.50 51.31 50.53 50.87 52.78 48.72 47.00 48.83 51.60 46.66 45.93 52.97 53.66 55.15 56.35 56.55 57.22 58.75 58.09 57.49 58.31 58.25 60.19 60.92 61.96 61.38 57.43 59.05
50.12 50.11 50.01 50.05 50.71 50.91 50.93 50.76 49.75 48.58 46.14 47.57 47.87 50.64 53.60 48.77 53.19 51.37 47.51 46.38 48.35 45.59 48.55 48.17 49.23 48.19 54.33 49.48 49.74 51.81 49.81 49.31 44.69 48.16 47.53 46.08 45.14 52.15 55.94 55.23 56.79 56.90 57.76 59.10 60.61 60.79 60.55 60.97 59.95 60.09 59.82 59.90 60.41 60.73
48.72 49.31 49.56 49.72 50.20 50.54 50.50 49.74 48.94 47.63 48.94 48.01 50.58 51.74 53.91 50.63 48.96 44.56 44.05 46.73 45.85 44.81 48.77 47.15 48.26 49.94 53.65 55.73 53.00 52.11 48.32 48.67 43.77 50.63 47.84 44.05 53.07 56.05 56.30 55.82 56.14 57.38 57.66 58.05 59.04 58.80 59.31 59.86 59.92 60.03 60.22 60.28 60.85 61.11
49.20 48.91 48.78 49.23 49.97 50.37 49.97 49.29 48.35 46.97 47.45 52.42 50.36 47.64 49.20 47.47 39.51 38.87 38.06 42.50 44.50 48.64 50.89 50.67 48.62 49.70 52.63 53.84 51.29 48.72 44.56 44.62 51.30 45.86 45.23 50.49 54.93 55.66 55.85 56.36 56.56 57.26 57.06 57.16 57.21 57.57 57.79 57.69 58.69 57.93 58.81 59.73 60.20 60.18
48.74 48.76 48.82 49.38 50.10 49.82 49.50 48.58 46.95 47.37 48.81 47.44 44.61 36.13 41.78 40.04 42.37 43.59 44.70 47.51 51.43 54.01 51.41 52.98 52.03 48.78 52.27 50.86 49.89 44.79 48.67 49.05 43.71 42.47 44.59 52.27 53.41 54.06 54.85 55.34 55.38 55.64 56.66 56.63 56.72 57.20 57.16 57.31 57.84 58.83 59.53 60.30 59.96 59.51
48.51 48.99 49.43 49.44 49.70 49.46 48.85 47.53 47.61 49.71 49.90 45.35 45.87 37.81 41.03 46.91 48.76 50.44 51.16 51.95 52.32 55.21 54.00 53.19 52.34 52.20 49.40 47.70 49.44 47.14 43.64 42.59 43.84 45.64 51.19 55.39 56.23 55.54 55.63 55.80 56.33 56.26 56.63 56.92 57.56 57.54 57.58 57.98 58.18 58.64 59.96 60.23 60.03 59.78
48.21 48.75 47.99 49.80 49.75 49.36 48.42 47.62 48.14 51.60 50.27 47.06 45.99 44.07 48.19 45.55 46.22 48.08 48.94 49.66 53.38 53.77 55.21 53.37 48.75 46.61 46.02 46.31 44.03 43.49 42.38 42.13 47.15 52.07 55.26 56.75 55.95 55.75 55.73 56.65 56.09 56.57 57.20 57.00 57.41 57.70 57.86 58.21 58.38 58.45 59.13 59.49 58.38 57.29
48.32 46.98 49.55 49.58 49.19 48.59 48.54 48.55 49.49 46.38 46.85 44.44 44.70 48.62 47.96 48.62 48.11 49.83 51.78 52.79 56.09 53.69 49.52 51.90 43.81 43.81 48.86 45.90 43.00 49.60 47.41 49.27 52.71 53.90 56.81 56.96 56.08 55.87 56.31 56.36 56.67 56.39 55.96 55.53 55.72 56.32 57.18 58.48 58.97 58.64 57.72 58.21 58.57 58.53
46.90 49.16 49.45 48.45 47.80 46.59 48.44 48.93 47.87 45.83 42.24 45.94 45.10 47.00 48.89 49.62 49.93 52.53 53.49 54.90 55.26 54.06 52.66 48.87 52.03 46.06 44.42 42.42 46.11 50.98 52.65 54.39 54.72 54.41 54.46 56.03 56.50 56.70 56.37 55.96 54.81 56.12 55.81 56.12 57.74 57.37 57.96 57.65 56.52 55.97 57.42 57.43 57.94 57.14
48.78 49.62 48.20 48.09 47.59 45.15 44.88 46.24 48.31 43.04 44.84 47.39 49.62 50.67 50.24 50.79 53.81 54.40 54.35 55.32 55.66 56.76 53.56 50.79 47.45 45.73 46.24 51.03 50.42 52.63 53.58 55.20 55.24 54.71 55.37 56.65 57.14 56.22 55.48 55.03 56.67 56.69 55.20 55.44 56.66 57.00 58.15 57.60 56.78 56.95 56.93 56.55 56.02 55.24
48.74 48.02 48.35 48.12 46.01 44.41 40.51 45.08 50.34 45.53 44.02 47.30 49.47 48.64 50.51 52.43 53.35 53.51 53.54 53.76 53.06 52.33 49.39 47.66 47.61 49.88 51.87 52.78 54.33 54.44 55.19 56.36 54.76 53.10 53.16 53.98 55.62 56.01 55.49 56.29 55.61 56.64 56.47 54.98 56.43 51.42 56.40 55.33 55.75 57.14 55.62 54.39 54.17 54.54
47.67 47.46 46.56 47.09 48.82 47.91 45.90 45.73 45.94 47.78 48.12 48.77 50.82 51.42 50.50 52.80 51.75 50.96 50.13 54.99 51.27 48.67 47.01 49.75 51.79 53.27 56.10 56.14 56.17 55.99 56.30 55.82 53.76 52.97 52.19 51.51 54.31 54.97 55.13 54.11 54.37 56.32 54.07 52.84 54.86 52.28 53.77 55.90 56.35 56.44 55.30 56.23 56.85 54.82
47.09 46.64 49.13 48.38 47.37 47.81 47.46 50.86 48.87 51.13 50.66 50.33 49.31 50.40 49.60 48.99 49.59 48.78 53.65 49.86 50.12 50.05 53.25 52.54 53.63 54.13 54.68 54.93 55.75 55.89 55.70 55.56 55.38 53.12 48.05 50.76 53.44 52.78 52.78 52.42 53.78 52.89 53.46 54.76 55.74 54.94 54.91 56.47 55.59 53.16 52.92 55.51 52.28 55.89
45.95 49.17 50.12 48.27 43.92 43.41 43.19 51.77 46.57 48.12 44.92 46.96 49.27 46.61 48.01 48.81 49.45 52.98 48.68 51.70 51.50 54.29 55.25 55.53 54.77 55.45 53.99 54.94 55.03 55.07 55.32 54.33 53.10 53.65 53.90 53.66 53.26 53.40 53.64 52.92 52.99 52.04 51.95 55.15 56.77 55.18 52.31 48.03 52.59 53.57 55.78 54.87 54.77 54.05
44.84 46.44 42.75 42.43 44.57 40.99 46.95 45.16 48.81 47.99 47.72 45.64 45.28 43.31 46.22 47.58 51.63 48.63 46.50 50.51 51.76 53.67 52.96 53.43 53.31 52.92 54.50 53.85 52.65 53.67 54.23 55.29 54.37 54.93 54.45 52.39 51.95 51.55 54.43 55.22 55.58 56.30 55.43 54.22 53.75 53.59 54.21 54.53 50.76 54.86 54.82 54.71 54.60 54.04
40.33 39.56 41.92 34.84 45.33 42.00 40.75 42.13 42.98 44.99 41.51 43.77 42.75 43.68 46.48 49.48 46.61 43.49 44.23 47.68 51.64 52.71 53.71 53.87 54.04 54.62 53.59 52.97 53.58 52.00 53.37 53.33 52.56 50.74 52.39 53.91 51.77 52.21 54.74 55.23 54.96 54.86 55.38 54.54 53.98 54.23 54.24 54.47 54.24 53.73 54.43 54.04 53.67 53.17
33.84 41.59 38.54 42.07 43.14 41.47 43.23 39.04 40.11 40.88 43.43 41.80 43.71 47.89 48.79 46.61 41.07 37.72 47.34 47.99 49.92 51.07 51.81 53.76 53.52 53.76 52.60 53.90 50.53 51.30 52.97 53.86 53.35 52.38 53.59 54.70 52.49 52.11 51.35 50.90 52.51 53.86 56.83 55.73 54.79 53.81 53.78 54.39 52.62 52.97 53.20 52.90 45.93 53.06
35.55 39.34 45.32 49.24 48.59 47.42 46.44 47.25 47.45 46.06 40.73 40.88 45.32 44.14 44.95 38.99 39.48 46.04 50.31 53.28 52.89 54.46 55.22 55.48 54.85 53.84 53.83 52.45 52.52 53.33 55.07 56.49 55.49 54.50 54.86 54.68 54.87 55.30 54.67 52.82 52.94 54.76 56.61 55.93 55.95 55.06 53.73 53.62 53.66 53.65 53.71 55.53 54.62 54.95
43.77 44.00 39.68 44.63 45.29 47.79 42.08 43.51 41.58 40.84 43.28 47.80 46.84 40.78 40.17 41.59 42.92 49.59 51.71 54.13 54.73 55.40 54.87 55.70 55.60 53.60 53.28 53.47 55.35 56.36 55.95 57.34 57.17 57.12 56.57 56.34 56.53 56.90 57.11 56.72 56.99 44.44 55.58 56.85 56.08 55.86 55.62 55.17 55.01 53.41 54.24 54.53 55.27 56.84
43.09 46.38 45.40 41.98 43.08 44.48 43.85 43.55 41.81 44.51 47.05 45.88 43.41 43.52 45.09 49.01 51.82 51.86 53.37 54.05 54.33 54.45 52.76 51.94 52.92 54.46 55.59 55.57 56.40 55.49 55.62 55.66 53.78 51.67 51.03 50.40 53.36 54.09 57.11 56.92 55.59 56.03 56.47 56.08 43.13 47.52 55.09 55.28 55.01 54.25 55.31 55.65 56.05 56.01
43.49 49.10 41.53 41.36 40.45 40.23 44.44 46.88 48.29 50.64 50.95 48.06 47.85 47.18 47.56 49.74 51.64 53.17 52.23 53.31 53.62 51.45 53.83 54.29 54.86 54.43 54.40 53.82 54.33 55.40 57.10 56.78 56.38 54.01 51.81 52.81 53.48 56.00 56.59 55.89 55.93 55.97 56.88 56.25 55.91 55.46 44.94 52.23 51.36 54.71 53.70 55.06 54.66 55.05
46.48 45.65 42.99 42.92 41.34 44.83 48.17 50.73 50.71 49.94 48.83 47.60 47.85 45.55 45.60 48.64 51.28 53.43 53.57 53.51 54.18 54.39 54.49 54.59 53.71 54.10 53.48 54.41 53.70 51.96 52.24 56.41 56.36 55.99 56.39 56.20 55.53 55.83 56.39 56.64 56.89 57.06 57.14 57.90 56.32 55.49 55.83 54.49 54.48 54.77 54.08 54.18 53.94 52.78
42.98 41.15 40.86 40.14 42.57 47.10 49.15 47.55 47.08 46.51 47.06 46.76 46.26 47.85 48.28 48.45 47.94 52.06 55.30 55.73 54.32 54.48 52.67 51.70 52.96 53.40 57.50 57.67 57.41 57.97 48.29 57.31 58.32 57.85 56.87 56.51 56.81 57.01 57.38 57.00 56.80 56.83 56.44 55.47 56.17 55.46 55.20 55.31 54.46 54.48 54.71 53.84 53.64 53.36
44.31 44.75 44.81 44.97 44.30 44.09 46.71 47.26 47.16 46.42 47.46 47.67 47.86 48.70 49.12 49.13 48.28 53.24 57.41 58.13 56.70 55.46 55.29 56.46 57.67 57.76 58.30 58.57 58.43 58.08 52.92 57.65 49.01 39.30 40.80 39.18 37.63 45.22 55.47 56.77 58.40 58.23 56.36 55.63 55.73 55.45 54.81 54.11 54.30 53.94 53.78 53.46 52.88 52.38

GFSWCAN_sfc_wetblb_048.txt.gz
Wetbulb
52.40 52.54 52.25 51.94 52.02 52.25 51.98 51.37 51.33 51.31 49.94 49.44 49.38 50.25 50.64 50.32 50.00 49.25 54.75 56.20 53.00 51.61 52.80 52.47 52.55 52.06 52.89 52.94 49.90 53.60 54.39 55.32 54.43 51.66 50.02 49.49 49.41 51.20 51.40 54.20 53.69 52.89 52.42 51.14 53.26 50.59 48.29 63.12 58.71 52.42 55.48 57.21 63.22 63.81
52.46 52.50 52.07 52.33 52.30 52.20 51.93 51.84 51.36 51.19 50.02 49.48 49.18 49.67 50.27 49.99 49.78 49.36 52.90 56.04 55.30 50.82 52.01 54.87 53.36 53.45 53.03 53.59 51.96 54.09 54.02 56.58 55.96 53.80 53.70 54.71 51.31 53.44 53.59 48.60 57.23 51.67 55.59 49.03 55.42 54.82 59.97 64.30 64.01 67.05 67.22 67.97 66.41 66.40
52.42 52.31 52.30 52.31 52.31 52.10 51.97 51.76 51.42 51.25 50.36 49.57 49.05 49.29 49.76 49.74 49.51 48.85 51.65 55.56 54.72 51.94 52.13 51.78 51.90 55.86 56.37 56.59 57.07 52.22 55.58 55.91 56.71 56.97 54.98 54.70 52.78 54.13 48.98 49.89 53.48 57.64 55.75 50.11 54.27 59.89 60.92 62.03 66.04 66.12 67.65 66.82 66.14 66.70
52.33 52.20 52.37 52.43 52.27 51.92 51.98 51.93 51.51 51.28 50.55 49.80 49.29 49.22 49.27 49.23 49.44 48.97 52.44 55.73 54.97 53.16 48.58 52.04 57.82 54.47 56.82 57.44 56.27 56.63 55.82 57.81 57.85 56.15 53.56 53.06 51.88 55.95 52.14 51.89 51.24 54.94 56.62 55.93 58.33 60.02 61.64 63.90 65.51 67.06 67.23 68.31 65.91 66.67
52.29 52.34 52.39 52.43 52.02 51.86 51.87 51.96 51.64 51.22 50.68 49.98 49.46 49.07 48.94 48.99 49.40 49.15 54.48 56.64 56.59 51.87 48.65 51.44 54.68 55.53 56.31 56.65 55.51 55.98 56.34 55.91 55.26 53.16 52.22 50.65 55.28 53.94 54.12 53.58 50.00 55.31 54.94 53.59 56.01 62.66 63.05 64.30 67.33 67.09 66.30 65.77 66.40 66.48
52.32 52.31 52.36 52.17 51.88 51.80 51.85 51.80 51.42 51.11 50.96 50.09 49.52 48.90 48.50 48.76 49.50 50.98 51.80 56.54 55.72 55.97 50.75 48.09 55.51 54.73 55.42 55.95 55.03 55.56 56.32 55.26 53.52 52.84 52.66 54.54 57.18 53.76 49.98 48.92 53.84 57.01 58.50 55.95 56.70 64.66 65.42 66.11 66.81 66.98 66.09 66.41 67.10 67.24
52.36 52.63 52.50 52.06 51.88 51.66 51.61 51.47 51.51 51.25 50.80 50.13 49.34 48.54 48.46 49.18 48.31 49.72 49.00 51.93 48.66 54.02 51.48 47.62 48.18 54.52 55.75 55.19 54.46 54.30 56.18 53.70 53.57 52.53 52.60 53.14 54.09 53.49 50.91 48.15 55.75 56.93 54.01 57.57 58.81 63.36 62.13 63.74 64.11 65.78 64.61 65.26 63.92 64.08
52.29 52.50 52.27 52.14 51.68 51.56 51.45 51.23 51.40 51.44 50.60 49.70 48.81 48.78 49.12 48.96 48.27 48.90 53.74 50.42 50.54 53.38 51.97 46.92 49.19 52.14 55.91 51.01 50.02 54.48 52.40 52.73 52.70 51.27 52.24 51.86 52.79 52.96 47.64 52.45 54.12 54.23 56.56 58.43 58.35 60.52 62.97 65.61 62.39 62.19 62.29 61.50 60.08 59.81
52.39 52.39 52.14 51.89 51.58 51.24 51.15 51.28 51.49 51.07 50.02 48.95 48.38 48.66 49.18 49.30 51.13 54.14 51.51 51.74 55.94 53.25 48.52 47.29 46.20 46.73 55.39 51.51 53.20 54.38 54.16 48.31 52.73 49.17 49.47 50.52 49.48 46.16 49.18 51.90 52.21 55.43 57.05 56.56 58.45 59.98 60.06 61.30 61.63 58.76 57.14 58.70 58.91 58.13
52.30 52.32 52.01 51.58 51.07 50.98 51.02 51.33 51.17 50.46 49.01 47.88 47.52 48.14 48.29 53.01 52.88 52.49 52.00 50.70 50.17 51.11 50.67 47.58 50.76 48.56 53.64 51.17 49.45 50.24 52.10 48.66 45.27 48.71 51.78 47.37 46.74 52.61 52.82 53.91 56.49 56.47 56.49 58.07 58.35 58.19 58.67 59.08 58.53 55.39 58.21 58.98 58.46 58.31
52.20 51.98 51.47 51.00 50.60 50.51 50.92 51.13 50.39 49.09 46.18 46.77 47.94 49.61 54.36 50.60 52.54 51.59 48.26 46.93 48.11 45.60 48.59 48.14 48.84 47.78 54.67 50.02 49.78 51.70 49.07 48.50 45.54 47.41 46.78 45.96 45.86 50.64 56.01 56.62 56.82 56.02 56.47 56.84 59.70 61.06 61.01 61.24 59.75 59.04 57.77 59.34 58.91 60.05
52.08 51.39 50.59 50.20 49.76 49.99 50.23 50.42 49.46 47.66 48.51 48.39 49.83 54.06 52.32 50.08 48.98 45.08 44.66 46.83 46.24 44.18 48.63 47.25 48.26 49.72 53.93 54.95 51.43 51.03 46.47 48.61 42.97 47.89 48.27 45.15 53.43 55.55 55.37 55.41 56.06 57.31 57.45 58.00 59.19 59.18 59.58 59.96 59.51 59.68 58.79 59.83 60.30 60.65
49.62 49.82 49.47 49.41 50.00 50.32 50.14 49.70 48.74 48.98 48.44 52.09 50.43 47.75 48.29 47.41 38.39 39.92 39.05 43.11 43.80 48.78 50.51 49.66 49.20 49.86 51.36 52.97 49.71 49.77 45.56 44.05 51.84 46.82 45.20 48.71 55.90 56.00 56.17 55.94 55.88 56.65 56.54 56.67 56.63 57.28 57.85 57.79 58.88 58.85 58.48 59.31 60.03 60.11
48.92 48.06 48.26 48.91 49.51 49.78 49.96 49.54 48.91 47.51 46.85 47.00 44.77 35.89 42.01 40.33 42.40 43.70 45.10 46.41 50.06 50.49 50.76 50.98 50.06 47.87 50.12 48.75 49.41 44.28 47.71 48.83 43.82 37.88 39.97 52.15 55.12 55.74 56.27 56.52 56.13 55.41 56.49 56.36 56.33 56.88 57.13 57.69 58.07 58.99 59.35 59.85 59.74 59.39
48.16 47.42 47.22 47.09 48.17 49.69 49.41 48.97 47.82 47.97 48.13 45.47 45.83 36.94 41.63 47.06 47.47 48.28 51.17 51.24 53.51 54.14 52.66 51.47 51.32 49.99 49.60 47.51 49.21 46.24 44.61 42.11 43.94 44.55 49.65 53.95 56.45 56.33 55.94 56.03 56.08 56.37 56.44 56.60 57.07 56.86 57.62 58.10 58.10 58.54 59.72 59.68 59.73 59.33
48.15 47.17 46.45 48.82 49.60 49.38 48.56 47.02 46.42 49.40 49.42 47.57 46.28 44.26 46.38 45.96 46.65 49.07 49.70 49.52 52.45 52.07 52.86 52.55 48.22 46.48 45.30 46.66 44.57 43.89 42.41 41.44 46.05 50.11 52.78 55.41 55.66 55.90 55.94 55.98 56.07 57.17 56.76 56.76 57.03 57.32 57.45 57.56 57.84 58.02 58.99 59.35 58.81 58.23
48.33 46.59 49.19 49.27 49.24 48.60 48.16 46.79 47.84 46.52 46.25 44.84 44.85 49.18 48.54 48.42 47.69 49.24 50.17 51.61 54.47 52.20 49.58 48.69 44.77 44.88 49.24 44.01 44.47 48.34 46.35 49.70 51.30 52.17 52.78 53.65 55.84 56.13 56.49 56.80 56.72 56.56 56.28 56.48 56.05 56.71 57.02 58.55 58.05 57.48 56.78 58.32 58.35 57.92
47.16 49.52 49.58 48.97 48.01 46.63 47.67 47.26 46.74 45.08 42.21 45.67 45.09 47.16 50.21 51.26 49.26 50.36 52.68 53.31 52.96 51.81 51.55 48.61 51.25 46.99 44.99 43.15 45.68 45.56 47.52 55.10 56.01 54.50 56.27 57.62 57.02 57.10 56.79 55.93 55.96 56.13 56.27 55.98 56.82 56.75 57.88 57.38 56.55 56.42 57.43 58.01 58.00 56.90
48.51 49.48 48.78 48.36 48.39 47.12 45.54 46.68 48.39 42.32 44.14 46.56 49.29 50.15 49.87 50.64 52.99 54.07 54.40 54.68 54.75 55.50 53.07 51.26 47.52 46.78 47.40 50.23 49.99 53.08 53.96 54.74 53.76 54.80 55.78 57.90 57.60 56.60 56.12 56.13 55.94 56.78 56.73 56.27 56.06 56.86 58.44 57.45 56.45 56.49 56.11 56.63 55.51 55.11
49.02 48.20 47.85 48.36 47.79 46.45 42.47 45.25 51.03 47.05 44.77 46.74 49.36 48.25 49.19 49.88 52.17 52.41 52.76 53.00 52.38 51.71 49.12 48.31 48.36 51.01 48.51 46.23 53.16 54.18 54.60 55.35 53.53 52.54 54.00 55.10 56.51 56.25 56.45 55.69 55.25 57.35 57.43 57.02 57.12 50.92 57.58 56.12 57.38 56.33 56.00 55.18 55.24 53.86
48.05 48.10 47.92 47.76 49.96 48.97 47.50 45.70 46.05 49.08 49.05 47.35 49.19 49.51 48.77 52.22 50.66 51.15 50.35 52.94 50.14 48.12 48.50 51.11 52.90 49.68 55.54 56.15 56.06 55.70 56.64 55.67 54.08 53.38 53.00 52.46 54.01 54.66 54.95 55.90 56.31 56.86 55.79 55.21 55.60 54.37 54.13 55.47 57.01 57.10 56.22 55.56 55.89 56.16
48.04 47.95 47.78 46.79 45.74 47.72 47.75 50.42 49.53 50.92 48.63 48.70 49.60 50.31 50.18 49.53 49.56 49.37 52.99 49.38 49.43 51.43 52.87 53.04 54.33 54.87 55.13 55.81 55.86 56.73 56.54 56.29 56.10 53.85 48.12 48.92 53.18 53.35 54.59 54.32 54.84 53.64 54.73 55.78 56.41 55.95 55.85 55.77 55.59 54.58 54.68 55.14 52.69 56.06
45.78 48.57 48.15 47.63 44.09 43.16 42.47 51.09 45.69 47.83 44.91 46.35 48.98 46.70 47.98 48.64 50.44 53.09 47.68 50.03 50.65 54.37 55.30 55.40 56.10 56.26 54.70 55.55 55.53 55.98 56.17 55.26 53.60 53.85 54.64 54.34 54.50 54.33 54.74 54.54 53.96 53.55 53.88 54.32 58.44 55.60 53.55 48.12 50.89 52.03 55.92 55.80 55.61 55.27
44.74 47.12 43.51 42.92 44.60 41.09 47.53 45.99 48.92 48.64 48.27 46.32 45.50 43.78 44.75 47.59 50.48 48.06 45.86 47.79 51.42 54.00 53.93 54.48 53.88 52.72 54.17 55.36 53.76 54.60 54.95 55.52 55.27 55.30 55.44 53.70 52.26 52.27 53.48 53.86 55.28 56.65 56.06 55.44 53.47 53.22 54.15 55.32 50.55 55.17 55.20 54.46 54.22 53.83
40.57 39.84 41.45 35.49 45.85 42.74 41.03 43.17 43.95 45.24 42.09 44.83 43.46 44.51 46.22 49.09 44.98 45.13 46.05 48.35 51.25 52.26 53.13 54.15 53.56 53.98 52.19 52.77 53.73 54.18 55.16 54.44 53.76 52.51 52.70 52.93 52.85 52.33 53.41 55.89 56.25 56.83 57.17 54.96 54.19 54.31 54.59 55.52 55.52 54.41 54.08 53.86 53.04 53.24
34.64 42.19 38.46 42.59 43.38 41.78 43.01 40.17 41.83 42.81 43.36 42.81 43.98 47.41 48.50 46.01 42.70 38.86 47.24 51.25 51.60 52.55 52.55 53.71 54.00 54.27 53.51 54.12 53.20 52.15 54.19 54.34 53.93 51.94 53.08 53.84 53.76 54.17 52.83 52.20 52.09 54.04 56.74 55.71 55.52 54.36 53.73 53.91 53.67 53.72 53.75 53.13 45.66 52.74
35.63 40.64 46.54 49.14 47.80 47.44 45.23 47.01 47.19 45.59 42.08 42.07 45.20 44.89 45.04 40.22 40.35 46.62 51.40 52.85 53.31 54.97 55.87 56.13 56.08 54.66 54.13 53.89 54.93 53.90 55.56 56.00 56.25 53.89 55.93 56.58 56.44 56.21 55.19 54.03 53.59 54.81 56.91 55.89 56.13 54.94 54.14 54.09 53.89 53.56 53.83 54.77 54.82 54.25
44.34 45.77 41.23 44.45 45.47 46.98 42.92 43.92 43.48 42.14 44.46 48.14 47.58 42.36 41.70 42.74 44.07 51.17 52.27 54.30 55.29 55.06 56.26 56.01 56.26 56.12 55.96 54.02 54.56 54.33 55.19 56.10 56.87 57.28 55.10 55.78 57.19 56.15 57.29 57.01 58.06 44.69 55.79 56.23 56.38 56.81 55.93 55.38 54.94 54.90 54.07 53.79 54.59 55.67
42.87 46.57 47.19 42.68 44.49 45.08 44.98 43.90 45.16 47.57 49.41 48.38 45.62 44.74 46.95 50.94 51.54 51.43 52.62 54.95 56.58 55.89 54.10 54.26 52.75 53.59 53.56 54.95 55.68 55.52 56.41 55.75 53.61 51.82 51.58 52.08 53.50 53.36 56.21 56.81 55.49 55.17 55.89 55.19 44.33 48.81 54.16 54.91 56.15 55.16 55.00 54.75 55.53 56.29
43.04 46.05 44.00 43.59 41.59 42.08 47.08 48.97 47.54 51.06 52.01 51.29 50.72 51.14 49.90 50.59 52.79 55.19 54.56 54.54 54.31 54.11 53.86 53.86 54.23 52.52 52.63 54.06 54.03 55.08 56.32 56.77 56.77 54.79 53.30 52.76 53.97 56.51 56.99 56.65 56.17 56.04 56.47 56.39 56.11 55.85 44.48 51.36 51.79 54.61 54.24 55.31 54.89 54.76
47.22 45.24 43.22 43.41 42.97 46.79 49.11 50.80 51.48 51.66 51.26 50.42 48.83 47.16 46.34 48.78 51.67 53.62 54.69 55.50 54.97 55.16 53.43 53.40 54.63 55.51 55.29 54.40 53.42 53.41 53.31 56.57 57.16 56.70 57.18 55.87 56.06 56.60 56.93 56.52 56.70 57.10 56.81 56.68 55.91 55.32 54.99 54.35 54.81 54.92 54.66 54.36 54.84 53.09
43.89 41.89 41.45 40.38 43.99 48.26 49.91 47.68 47.39 46.84 47.23 46.74 46.57 47.95 48.42 47.81 47.62 51.62 54.62 54.95 54.06 53.62 51.07 52.59 54.61 54.70 56.29 55.80 56.68 56.96 49.70 56.70 56.72 57.90 57.51 57.39 57.16 57.64 56.96 56.65 56.94 57.23 57.02 56.55 55.58 55.83 55.72 55.46 54.96 54.34 54.39 53.91 54.17 53.94
44.60 44.60 44.02 44.93 44.43 44.55 46.86 47.54 46.86 46.12 47.07 47.66 48.34 49.03 49.42 49.51 47.64 52.09 56.38 56.93 56.25 55.50 54.79 54.21 54.28 54.57 57.14 57.38 57.43 56.78 51.19 56.61 47.51 39.05 40.26 39.26 37.87 43.90 54.27 56.79 56.93 57.31 56.33 55.87 55.60 55.29 53.98 53.90 54.19 54.00 53.89 53.63 53.44 53.51

GFSWCAN_sfc_wetblb_051.txt.gz
Wetbulb
53.54 53.03 52.82 52.78 52.31 51.32 51.35 52.09 51.63 51.50 51.17 50.19 50.04 49.79 50.49 50.77 50.47 47.99 48.52 53.17 50.77 48.09 50.56 52.79 51.42 49.50 49.45 49.02 45.85 48.86 50.75 53.31 52.00 47.70 45.85 45.92 45.36 47.41 47.27 49.30 49.47 46.18 43.91 44.02 45.22 43.74 42.25 61.71 59.95 50.92 53.25 57.80 58.82 59.97
53.36 52.77 52.68 52.68 52.29 51.88 52.20 52.22 51.89 51.59 51.21 50.15 50.06 49.66 50.06 50.08 49.94 49.36 49.00 54.41 55.52 49.55 48.99 52.97 53.44 52.59 52.04 52.28 48.78 49.98 48.75 52.41 52.25 49.13 50.21 50.74 49.73 50.12 48.94 45.17 52.50 47.93 51.51 50.91 52.03 50.19 56.04 58.32 59.34 60.87 57.46 57.90 58.99 55.46
53.30 52.80 52.61 52.38 52.11 52.10 52.12 52.18 52.14 51.61 51.25 50.38 50.00 49.77 49.76 49.83 49.81 48.42 46.40 51.76 53.26 50.46 50.80 50.68 49.38 53.42 53.45 54.03 54.21 48.55 52.22 53.13 53.71 54.21 50.16 51.26 48.37 50.28 45.99 47.25 48.78 52.58 54.31 50.34 49.08 52.78 55.65 58.98 61.86 61.26 63.18 61.42 58.56 57.69
53.00 52.63 52.43 52.13 51.96 52.06 52.13 52.12 51.99 51.53 51.28 50.57 50.06 49.87 49.74 49.55 50.00 48.96 46.20 51.35 52.88 51.48 46.47 49.97 57.10 54.97 56.63 55.09 56.73 55.40 53.40 55.53 55.16 54.21 50.05 49.00 49.15 53.40 49.39 49.32 47.82 51.53 53.32 50.80 51.40 53.81 56.21 57.43 61.11 63.84 64.49 65.14 64.11 64.92
52.86 52.33 52.08 52.08 52.06 52.25 52.12 52.11 51.92 51.58 51.34 50.68 50.23 49.83 49.68 49.21 49.54 48.18 47.88 52.49 55.51 50.15 46.09 48.13 53.89 54.68 54.32 55.28 54.75 54.77 53.96 53.38 51.26 49.91 49.26 47.57 51.39 50.89 51.14 50.88 48.74 52.94 50.54 49.46 49.67 54.62 55.02 53.42 53.99 63.85 64.61 64.24 63.34 64.78
52.44 52.31 52.15 52.06 52.29 52.21 52.08 51.99 51.86 51.60 51.19 50.81 50.34 49.90 49.76 49.42 49.25 46.28 49.77 53.33 51.27 52.90 48.35 45.98 53.47 53.31 54.61 54.57 53.40 53.26 53.89 54.22 52.59 49.47 49.52 51.91 53.48 50.30 46.03 46.19 51.91 54.73 54.67 56.34 53.83 55.31 56.08 54.50 55.29 63.31 61.61 61.68 62.24 61.64
52.26 52.11 52.17 52.15 52.27 52.01 51.71 51.54 51.56 51.51 51.29 50.79 50.41 50.01 49.43 49.08 46.84 45.34 46.14 49.63 48.40 50.51 49.24 46.20 47.01 53.03 54.72 53.70 52.32 51.67 53.18 51.72 50.61 49.52 49.21 49.05 50.49 50.47 46.48 43.41 51.88 53.12 56.44 56.49 56.39 55.23 53.21 53.94 53.18 59.56 59.80 61.46 60.21 60.66
52.09 52.04 52.07 52.15 52.15 51.91 51.61 51.30 51.33 51.31 51.18 50.79 50.29 49.67 49.38 48.96 47.82 45.18 50.75 50.17 48.27 51.06 51.83 44.76 46.90 49.56 54.53 48.98 48.02 52.40 49.80 50.97 50.61 48.18 48.64 47.53 49.83 48.96 43.96 49.06 52.04 54.53 55.92 55.52 56.54 55.84 54.70 55.62 54.01 58.75 60.21 58.14 56.70 56.72
52.21 52.09 51.91 52.04 52.01 51.65 51.44 51.30 51.31 51.32 51.13 50.42 49.67 49.36 46.99 46.57 48.25 52.87 53.48 52.49 54.26 52.03 46.84 47.12 43.88 45.01 53.37 50.27 50.39 51.41 52.61 46.39 50.77 46.85 46.99 47.96 46.52 43.70 47.87 49.15 50.48 54.30 53.48 55.13 55.76 55.52 56.51 57.85 57.62 57.61 58.52 58.09 56.26 56.11
52.21 52.05 52.11 52.11 51.65 51.34 51.12 51.07 51.24 51.05 50.38 48.86 46.02 44.88 45.46 52.83 54.13 53.32 50.41 49.50 49.48 51.04 49.97 45.74 49.88 45.54 51.99 50.71 48.64 50.51 50.38 47.44 44.01 46.27 48.89 44.74 43.99 48.82 51.78 51.73 52.63 54.24 53.61 53.66 51.27 54.89 55.34 56.05 57.02 58.22 57.23 57.30 57.61 57.35
52.12 52.05 52.10 51.90 51.39 50.98 50.91 50.98 50.92 49.67 46.52 44.55 44.90 47.40 53.16 51.76 51.44 50.53 47.68 46.37 46.68 45.32 47.57 46.61 46.67 44.71 53.31 48.88 48.96 50.44 47.17 47.39 42.67 46.07 46.04 43.44 42.39 48.04 52.68 53.18 54.98 53.85 54.06 55.01 56.98 57.70 58.79 57.29 56.66 56.51 57.38 57.92 57.90 57.94
52.03 51.88 51.94 51.59 50.95 50.66 50.77 50.68 49.80 46.96 47.19 46.76 46.53 49.72 51.71 48.67 48.15 45.57 43.65 46.55 45.87 43.44 48.74 46.02 46.68 48.48 52.51 54.69 50.19 49.94 46.68 47.29 42.07 49.80 45.86 42.94 48.97 52.96 53.30 54.07 54.67 54.53 55.72 56.10 56.54 55.71 57.39 57.06 56.75 56.03 55.81 57.27 57.42 57.75
51.86 51.68 51.22 50.74 50.08 50.09 50.51 50.27 49.26 48.86 47.81 50.91 47.90 48.08 46.24 45.95 38.95 39.25 38.06 41.86 43.57 48.61 50.20 48.99 46.44 48.90 51.74 51.23 49.11 49.42 45.02 43.14 49.90 45.60 42.42 46.31 50.26 52.56 53.42 53.75 54.39 55.10 55.60 55.78 55.56 55.99 56.23 57.38 57.84 57.16 56.81 57.66 57.53 58.19
51.21 50.85 49.99 49.41 49.27 49.34 49.42 49.25 49.35 47.54 44.85 45.39 44.54 34.98 39.91 39.75 41.59 42.67 44.29 45.42 48.97 50.65 50.18 50.25 48.84 47.10 49.41 47.90 47.87 45.63 47.57 47.64 42.30 40.11 41.23 48.50 49.96 50.95 53.57 54.59 54.48 54.46 55.48 55.20 55.33 56.27 56.20 56.95 57.02 57.38 57.61 58.29 57.56 56.65
49.48 50.10 49.56 49.38 49.71 49.42 48.83 48.94 48.39 46.42 45.82 44.81 45.03 36.02 40.25 45.72 46.63 47.27 50.75 50.91 52.20 53.60 52.17 50.98 51.20 50.56 48.02 47.26 47.84 46.09 43.15 41.32 43.56 43.06 47.63 50.65 52.48 52.66 52.92 54.09 54.87 54.74 55.07 55.13 55.49 55.63 55.97 56.29 56.45 56.20 57.59 57.29 56.90 56.70
47.40 46.58 46.60 48.99 48.84 48.62 48.92 48.17 45.28 46.82 47.44 46.46 46.47 43.28 45.22 44.76 46.19 48.65 49.69 49.97 53.57 52.87 52.55 52.17 49.35 46.64 46.05 46.47 44.45 43.00 42.49 41.32 44.78 49.63 51.20 51.52 51.64 52.35 52.49 54.40 55.03 55.31 55.21 55.02 55.12 55.32 55.75 56.04 56.14 56.16 56.91 56.23 56.19 56.03
47.11 44.60 47.45 48.00 48.47 48.44 47.69 45.12 44.57 44.29 45.47 44.68 44.15 48.17 47.48 48.93 48.22 49.92 50.37 51.11 56.29 52.45 48.59 49.14 44.99 44.04 47.05 44.24 42.47 46.86 44.19 47.40 49.81 50.87 52.52 53.39 53.17 53.02 54.07 55.11 54.56 54.69 53.98 54.54 54.38 54.55 54.85 56.32 56.26 55.87 54.71 55.44 56.14 56.00
45.14 47.75 48.53 48.22 47.18 46.44 44.91 44.62 44.99 44.30 42.00 44.90 43.69 47.37 50.58 51.63 50.77 50.24 52.27 54.57 53.64 51.93 51.09 48.15 50.86 46.73 44.17 42.03 43.91 45.58 47.50 49.86 52.69 51.87 51.84 52.80 54.93 55.14 55.21 54.32 54.53 54.47 54.82 54.51 55.02 55.25 55.41 54.64 53.83 53.95 54.61 55.42 54.99 54.66
46.89 47.06 48.30 48.12 47.45 45.11 43.94 44.95 47.36 41.45 43.05 46.44 47.84 50.22 50.86 50.88 53.51 52.33 50.96 54.17 55.53 55.98 53.16 51.09 47.59 45.50 45.24 47.22 44.37 47.60 50.62 50.80 51.01 52.83 54.02 55.06 54.86 54.73 55.03 54.62 55.04 55.61 54.61 54.97 54.47 54.77 54.78 54.69 54.15 54.17 54.92 54.40 52.57 52.35
47.57 47.99 48.73 47.87 47.69 44.07 42.71 45.18 49.94 45.06 44.06 46.50 49.44 49.83 50.58 50.73 53.20 53.12 53.53 54.11 53.24 52.30 48.73 47.69 47.25 48.58 47.58 48.99 50.07 49.71 52.35 54.33 52.79 50.99 52.13 54.23 55.72 55.38 54.85 54.06 53.66 55.31 55.23 55.17 55.14 49.92 55.17 54.28 54.61 53.92 53.54 52.79 52.19 52.15
46.89 46.52 47.40 47.10 47.31 47.15 46.95 45.80 45.42 48.10 48.49 47.98 49.92 50.41 50.02 52.21 50.72 50.19 50.97 53.17 51.28 49.71 48.59 50.13 50.19 52.72 53.18 52.70 51.99 54.85 55.20 55.43 53.92 53.01 51.59 50.61 52.27 54.01 54.20 55.12 55.64 54.73 53.78 53.20 53.74 52.35 51.78 53.21 54.46 54.43 54.05 53.61 53.39 52.63
47.16 48.43 47.02 47.46 45.24 47.54 47.11 50.93 48.58 50.90 49.34 48.92 48.23 50.43 48.77 48.05 49.75 50.49 51.58 50.16 50.24 51.35 51.96 51.42 53.61 52.31 54.54 54.14 54.74 56.02 56.12 55.68 55.13 53.67 50.64 48.67 52.58 52.30 52.89 53.56 54.12 53.05 53.58 54.00 54.77 54.07 53.87 54.47 53.69 53.00 52.30 52.94 50.42 53.85
47.72 46.89 46.65 46.40 43.71 41.76 40.00 51.54 46.50 47.67 44.83 45.83 48.16 46.55 47.80 49.13 50.23 52.80 48.48 50.77 51.93 54.34 54.91 55.67 56.52 56.72 55.30 55.75 55.48 56.04 55.87 55.25 53.82 54.56 54.18 53.48 53.53 53.95 54.41 54.06 54.21 52.95 51.80 52.29 55.82 54.66 51.25 47.15 49.58 49.38 52.17 53.25 53.73 53.10
47.48 46.48 43.36 43.17 43.36 39.89 47.22 45.13 47.63 47.06 47.84 45.70 45.28 43.37 45.41 48.10 51.84 48.94 46.54 49.20 51.74 51.63 53.65 55.37 54.87 53.66 54.77 55.58 53.94 54.63 55.02 55.30 54.76 54.28 54.20 53.85 53.09 52.20 53.03 53.17 54.08 54.80 54.20 54.86 51.87 51.88 52.43 52.52 50.79 52.86 53.07 52.85 52.86 52.69
39.78 39.63 40.43 34.37 45.12 43.49 41.96 43.16 43.87 44.26 42.44 44.86 43.96 43.13 45.06 49.76 45.55 45.53 46.77 49.28 51.29 51.94 53.37 55.29 54.61 53.90 52.67 52.91 53.41 53.60 54.70 54.15 53.52 53.22 53.42 53.79 52.48 53.19 53.79 54.87 54.72 55.05 55.98 53.80 52.25 52.96 53.43 54.14 53.77 52.75 52.88 51.46 51.68 51.89
33.88 41.60 38.74 42.68 43.81 42.54 43.30 40.99 42.49 42.80 43.87 43.67 44.22 47.14 48.99 46.00 43.01 38.47 46.40 50.40 51.69 52.61 53.19 53.46 53.08 54.17 53.70 53.38 52.56 53.16 54.58 55.42 53.83 52.71 53.13 53.82 53.37 52.43 52.37 51.63 50.76 51.76 55.42 54.72 52.59 52.12 53.00 53.16 53.11 54.15 52.92 51.45 45.83 50.42
35.41 41.08 46.02 49.68 47.28 46.76 45.03 46.59 47.05 45.02 42.63 41.82 44.75 44.65 44.07 39.79 41.08 46.58 52.00 53.33 52.78 54.42 55.80 55.33 54.83 54.52 53.96 54.01 54.51 54.41 56.02 55.53 56.41 54.99 55.89 55.17 55.61 56.02 54.29 51.23 49.91 53.52 55.65 55.13 54.75 54.47 53.45 53.36 52.70 53.60 52.67 53.90 53.65 53.88
43.75 45.74 41.73 45.05 45.51 46.99 43.52 43.87 43.12 42.64 43.99 47.12 46.10 42.61 41.70 42.43 44.67 50.98 51.96 54.85 55.25 55.15 55.54 55.42 56.47 55.29 54.98 55.17 56.10 54.51 54.65 55.44 56.01 56.38 55.75 55.80 56.64 56.28 56.75 56.68 57.49 44.89 54.35 52.62 54.38 55.35 54.28 54.56 54.20 54.06 53.95 53.34 53.15 54.40
43.94 46.47 46.43 43.17 44.48 44.86 45.18 44.08 44.40 47.01 49.14 47.72 44.94 44.36 45.91 49.97 51.63 51.93 53.27 53.93 55.12 54.71 53.77 53.39 53.82 53.77 53.29 54.47 55.41 54.79 54.71 55.05 53.91 52.15 52.05 51.51 51.95 53.15 55.84 55.95 55.82 54.17 54.57 53.83 43.93 48.18 53.05 52.29 54.28 53.80 53.56 53.15 54.76 55.27
43.45 46.95 43.90 44.18 42.47 42.21 46.78 49.24 48.45 50.42 50.82 50.28 50.28 49.64 49.68 50.66 52.35 54.19 53.53 53.33 54.01 53.19 52.51 51.53 52.63 52.70 52.01 51.92 51.94 52.91 54.83 55.81 55.13 52.44 51.62 51.50 51.39 53.68 55.26 55.77 55.92 55.07 54.85 55.37 53.52 53.50 45.01 50.03 50.28 51.93 52.45 53.85 53.37 53.75
47.33 46.06 44.04 43.91 43.17 46.40 48.94 50.53 51.68 51.37 50.42 49.62 50.04 47.83 47.69 49.33 51.49 53.84 53.89 55.09 54.62 53.71 53.08 52.50 52.75 53.29 52.38 52.29 53.38 53.02 51.01 53.93 55.64 56.58 56.44 56.13 56.05 55.90 56.00 56.66 57.03 56.74 55.93 55.66 55.23 54.82 54.13 52.70 53.60 53.51 53.88 53.68 53.21 52.00
45.35 44.20 43.37 41.58 44.34 48.51 49.77 47.71 46.94 46.56 47.12 46.62 46.44 47.88 48.25 47.84 47.84 51.26 54.28 54.99 53.23 51.74 51.55 51.81 52.68 53.07 55.15 56.04 56.74 56.56 48.20 56.93 55.53 54.77 55.84 56.05 56.27 56.65 55.84 55.35 56.63 56.93 55.86 55.41 54.32 55.15 54.28 53.06 52.24 53.61 53.28 53.71 53.78 53.65
44.26 44.22 43.59 43.84 44.22 44.15 46.10 46.18 45.55 45.63 46.74 46.24 46.84 48.17 48.73 48.04 46.19 51.42 55.41 56.63 55.16 53.81 54.58 55.27 56.09 56.15 56.22 57.00 56.91 55.76 51.01 54.85 46.37 40.55 40.21 40.04 39.00 44.19 53.53 55.21 55.77 56.42 55.34 54.44 53.25 54.15 53.68 54.12 53.04 52.64 52.56 52.51 52.43 52.73

GFSWCAN_sfc_wetblb_054.txt.gz
Wetbulb
54.41 53.94 53.74 53.43 53.20 52.55 51.69 51.14 51.56 52.21 51.79 51.37 50.19 50.13 50.23 50.44 50.42 45.28 41.81 44.57 44.30 39.14 41.87 47.12 47.53 42.58 43.93 43.90 41.40 43.93 46.08 46.94 48.30 44.51 41.70 41.91 42.15 44.89 40.15 44.66 44.51 41.04 40.82 38.08 40.06 39.34 38.50 57.23 58.02 49.15 51.55 53.78 56.65 56.23
54.11 53.78 53.44 53.11 52.94 52.61 52.14 51.25 52.09 51.99 51.99 51.35 50.32 50.10 49.85 50.14 49.89 48.60 42.17 47.35 48.69 42.30 41.35 46.51 48.95 49.33 46.67 45.78 44.16 43.57 44.19 45.92 48.12 45.01 45.32 45.43 46.44 46.65 44.71 41.43 47.53 43.01 45.72 43.35 47.71 45.89 51.79 56.27 54.22 54.52 55.96 55.70 57.45 58.13
54.03 53.64 53.25 52.94 52.73 52.41 52.00 51.54 52.13 52.10 51.99 51.31 50.51 50.04 50.00 49.85 49.53 47.47 39.48 42.23 46.26 43.09 43.70 43.80 44.24 48.50 46.13 46.92 48.70 43.41 46.21 48.03 47.44 48.98 45.66 45.81 44.30 46.56 42.34 44.74 45.22 48.03 51.11 47.11 46.13 50.24 52.37 54.19 54.19 53.97 54.63 54.85 57.41 59.46
53.90 53.57 53.12 52.75 52.50 52.11 51.93 52.09 52.01 52.14 52.08 51.34 50.70 50.21 50.10 50.16 49.75 48.26 38.43 42.35 44.51 43.41 39.22 42.73 50.84 47.97 50.87 49.83 49.76 49.11 48.49 48.61 48.43 48.53 44.83 43.07 44.67 48.78 45.49 45.15 44.79 47.63 48.95 47.77 47.94 50.56 51.92 53.22 52.78 54.39 54.76 57.46 60.28 62.44
53.64 53.27 52.80 52.49 52.40 52.07 52.05 51.92 52.01 51.94 51.95 51.40 50.68 50.32 50.24 50.02 49.44 45.89 41.26 42.66 46.26 43.54 39.61 41.43 46.62 49.40 48.19 49.88 48.29 48.92 47.54 46.21 44.90 42.94 43.50 42.18 46.24 45.72 45.41 47.00 45.82 49.07 47.12 43.98 43.44 51.16 50.45 51.35 53.36 55.43 55.52 54.78 56.34 59.69
53.16 53.03 52.59 52.34 52.18 52.03 52.11 52.04 51.87 51.78 51.85 51.43 51.03 50.78 50.46 49.71 49.01 41.44 44.06 45.38 44.51 45.48 42.33 39.17 46.04 45.29 46.22 47.51 46.12 46.98 46.41 46.64 46.28 42.98 41.86 45.39 47.51 45.17 40.94 42.42 48.92 51.55 52.98 51.06 49.37 53.93 53.77 54.16 55.60 57.32 55.80 58.12 58.87 58.28
53.02 52.85 52.46 52.25 52.01 52.10 52.01 51.96 51.72 51.51 51.47 51.34 50.91 50.31 49.90 49.05 42.40 39.94 43.13 46.42 46.50 43.94 43.66 40.78 40.07 46.39 49.03 46.57 46.05 45.39 45.71 45.27 43.60 42.02 42.39 44.16 45.80 44.75 41.20 38.76 50.22 51.56 51.33 54.55 54.48 53.69 51.94 52.72 52.35 58.38 57.95 57.03 57.05 58.59
52.58 52.43 52.30 52.16 52.03 52.13 51.87 51.60 51.40 51.25 51.35 51.21 50.61 49.91 49.30 48.96 46.35 39.91 42.32 47.15 43.78 45.15 45.43 38.22 39.79 43.27 47.46 43.65 42.77 45.70 43.92 44.42 44.43 42.85 41.69 43.15 44.72 43.54 39.31 44.30 48.37 51.70 53.53 53.84 53.78 53.97 52.67 53.70 54.64 55.83 59.34 58.80 57.57 57.43
52.26 52.03 52.00 51.94 51.97 51.97 51.67 51.29 51.15 50.82 50.84 50.80 50.27 49.43 43.92 41.77 40.61 46.50 54.11 49.97 45.61 46.32 41.45 40.70 36.44 38.87 46.91 44.10 44.20 45.10 44.48 40.85 44.05 41.41 40.37 43.03 40.88 39.39 42.09 43.94 47.25 50.75 49.28 49.22 53.12 53.74 54.50 54.70 55.32 57.65 57.80 57.52 55.76 55.74
51.90 51.91 51.86 51.67 51.60 51.69 51.32 51.10 50.97 50.64 50.33 49.50 44.25 41.49 39.56 44.98 53.99 51.28 44.13 42.86 43.07 43.64 42.89 38.46 40.68 38.79 44.71 44.19 44.49 44.84 44.61 42.12 40.33 40.93 41.79 39.78 38.64 42.75 45.80 46.49 48.99 51.57 49.45 48.13 46.88 49.24 53.33 55.38 56.05 55.92 55.66 56.80 56.52 56.15
52.00 51.98 51.68 51.48 51.76 51.41 51.06 50.99 50.66 49.58 47.29 40.98 39.30 40.79 48.33 52.82 45.17 44.11 41.72 39.53 39.00 37.98 39.48 39.19 39.52 37.70 43.56 43.54 43.49 44.68 41.40 41.36 36.55 40.15 40.84 37.99 40.92 45.99 48.58 48.01 49.60 48.12 52.36 54.34 55.15 54.98 55.19 55.36 56.44 56.06 55.90 56.65 56.27 56.27
51.41 51.74 51.61 51.88 51.62 51.18 50.79 50.54 49.92 45.40 41.87 43.29 43.73 45.19 45.95 43.41 43.13 41.18 38.58 39.77 39.04 38.12 40.76 38.73 40.04 40.48 44.83 48.60 43.61 43.88 40.46 41.72 36.75 44.14 40.23 37.89 43.54 47.04 49.64 51.46 51.82 50.21 52.16 52.75 53.90 55.47 55.79 57.12 56.26 54.67 55.44 55.93 56.40 56.71
50.45 51.61 51.29 51.40 51.36 50.84 50.55 50.12 49.22 48.49 46.53 46.46 43.77 43.71 41.90 40.75 34.57 37.08 35.16 36.38 36.37 41.11 42.55 41.00 39.22 43.27 43.53 43.81 43.89 43.30 40.39 38.32 43.78 40.48 39.25 41.03 44.73 47.52 49.52 52.05 53.71 52.54 52.95 53.74 53.93 55.14 56.57 55.76 55.25 55.36 54.73 55.75 55.83 55.49
50.93 51.37 51.08 51.10 50.70 50.71 50.30 49.95 49.36 46.87 42.84 41.85 41.27 33.02 36.58 36.39 37.87 37.99 37.97 38.35 42.01 43.48 41.52 42.17 40.90 39.66 41.60 40.37 40.58 38.45 41.93 44.87 39.25 35.31 37.94 41.56 43.01 46.99 48.07 49.60 52.39 52.51 52.88 53.14 54.13 54.03 53.86 55.28 55.12 55.51 55.89 56.06 55.58 53.91
51.04 51.01 50.60 50.08 49.88 50.09 49.39 49.14 48.65 43.98 41.37 41.52 42.52 33.89 37.81 41.21 40.04 41.03 41.73 42.89 44.94 44.58 43.60 43.52 43.29 41.42 40.67 41.93 42.72 40.26 38.76 38.21 39.83 38.21 41.34 45.97 47.90 46.67 48.30 52.67 53.53 52.73 51.82 51.25 52.50 53.53 54.08 53.93 53.92 53.68 54.94 55.56 54.44 53.23
50.81 49.76 48.71 49.73 49.31 49.07 48.76 47.13 44.25 43.33 44.50 43.53 43.08 39.48 40.67 38.07 38.53 40.20 43.08 43.57 46.21 45.22 45.06 45.05 41.93 40.53 41.25 40.79 40.67 39.08 39.25 38.28 39.10 42.99 45.48 46.61 47.34 49.74 51.63 52.88 52.24 51.96 51.04 51.01 51.10 51.63 52.24 53.15 52.53 52.31 52.98 53.10 53.01 52.52
46.40 44.83 49.59 49.50 48.96 48.02 47.41 43.73 41.91 41.60 42.85 43.43 40.59 42.87 41.17 41.06 42.82 42.94 43.55 44.11 48.20 45.11 42.02 42.20 40.00 40.27 41.56 39.09 39.68 42.35 41.17 42.40 44.84 46.22 47.60 47.76 47.70 48.57 50.27 50.69 51.07 50.76 50.36 50.43 50.82 50.95 51.13 52.70 52.79 52.50 51.27 51.67 51.80 51.33
44.31 47.63 48.83 47.79 46.47 45.61 44.08 43.68 42.30 42.76 40.77 40.77 37.59 39.85 44.52 45.12 44.04 43.81 44.83 47.61 46.52 44.25 44.03 42.51 44.07 40.80 39.19 39.63 39.79 40.93 44.16 44.15 46.47 47.40 45.76 46.68 48.96 49.53 50.97 48.74 49.56 50.90 51.74 51.90 52.95 52.84 52.20 51.32 50.62 50.05 50.83 52.57 51.40 49.71
45.93 46.81 47.54 47.23 46.36 43.89 40.54 41.75 43.20 40.25 39.73 39.76 40.82 41.42 44.21 44.49 45.43 45.65 45.72 46.09 47.04 47.91 45.71 43.73 42.05 40.29 40.52 43.58 44.56 44.05 45.01 44.84 46.38 47.29 48.29 49.19 49.79 50.13 50.29 50.26 51.12 50.22 49.72 51.65 50.01 50.09 50.10 50.36 50.22 51.33 52.89 50.69 49.28 48.37
47.32 47.32 47.80 47.79 47.24 42.67 41.37 41.40 46.43 42.04 39.78 39.52 41.32 42.11 43.46 42.74 45.18 45.97 46.69 46.68 44.84 44.09 42.95 42.01 42.31 43.19 42.61 43.96 45.78 46.25 48.32 49.69 48.21 46.43 46.51 48.29 49.64 50.17 49.24 49.02 48.40 49.65 49.77 50.66 50.32 48.19 50.64 51.28 50.31 50.53 49.80 48.91 48.45 48.20
45.86 46.56 46.81 46.65 45.39 43.25 43.49 42.49 41.38 41.97 41.77 41.69 43.40 43.76 42.97 44.54 45.06 44.57 44.43 46.36 43.57 41.56 42.84 44.76 44.99 46.11 46.27 47.08 48.75 47.94 49.07 48.93 47.38 46.58 46.14 45.38 49.27 50.99 49.09 49.19 49.20 50.81 52.13 51.80 49.68 48.78 47.71 49.10 51.20 50.93 50.30 49.53 49.24 49.35
45.16 47.49 45.00 44.84 42.51 45.64 44.19 45.26 43.31 43.66 43.17 43.94 42.99 44.17 42.30 41.46 41.33 42.43 45.13 43.58 45.76 44.95 46.20 46.40 48.15 47.26 47.22 47.68 49.48 49.75 48.94 49.05 48.13 47.68 45.57 45.99 47.01 46.92 46.93 48.14 49.16 48.32 50.53 49.16 49.99 50.36 50.19 51.66 50.55 50.32 48.97 49.15 48.46 49.08
47.94 46.49 45.16 46.23 42.82 39.64 39.77 45.74 42.72 43.40 41.31 40.88 42.09 41.20 41.00 41.07 43.14 45.63 41.75 42.44 45.23 47.25 48.02 48.33 48.88 49.54 49.79 50.12 49.55 49.70 49.89 48.79 48.03 47.83 48.14 47.80 48.19 48.54 49.06 48.73 52.16 50.09 50.15 51.08 52.50 51.76 49.51 47.92 46.52 46.51 48.03 49.11 48.06 49.59
47.54 44.89 42.12 41.72 41.64 37.20 44.55 42.73 45.11 44.45 44.14 41.70 40.65 38.87 39.47 41.75 44.74 42.28 39.03 44.17 46.03 46.70 47.86 48.10 47.70 47.21 47.84 48.48 48.17 48.56 48.90 48.85 47.92 48.26 48.66 48.14 47.26 50.25 50.88 50.88 51.34 51.84 51.49 50.47 48.09 47.02 48.75 49.37 47.62 48.95 49.70 50.07 48.69 48.72
38.22 37.04 38.86 31.35 40.18 40.95 40.58 41.03 40.85 40.84 38.83 40.78 40.13 38.86 40.25 43.36 39.28 37.26 36.18 43.66 44.41 46.18 47.77 48.56 48.35 48.13 46.75 46.75 47.29 47.60 48.84 48.84 48.23 48.18 49.65 52.02 50.17 51.04 50.54 51.13 51.52 51.32 51.33 50.12 48.23 47.10 48.19 48.88 48.36 48.23 47.57 46.48 47.58 47.81
29.19 38.48 36.01 39.51 38.63 39.73 39.71 38.58 39.05 39.37 41.78 40.30 40.89 42.26 42.07 41.78 39.60 32.08 40.70 44.16 45.63 46.45 47.65 47.56 46.99 46.45 46.17 47.77 47.20 47.26 49.15 50.20 49.08 47.89 50.77 51.00 50.44 48.67 49.29 50.17 50.21 48.10 51.19 52.34 50.67 50.40 49.04 48.92 48.63 49.09 48.21 48.25 43.93 48.94
33.17 39.47 40.78 43.84 42.79 42.24 39.99 41.64 43.40 41.38 40.81 39.25 40.14 40.12 39.07 36.45 36.06 42.11 45.92 47.20 46.88 48.38 49.33 49.33 49.06 48.31 48.28 48.13 49.50 50.13 53.44 52.28 51.96 51.47 51.61 51.30 51.82 51.96 52.14 50.99 48.28 49.39 50.06 50.99 50.35 50.32 49.77 49.22 48.89 51.72 49.86 50.96 49.38 50.50
39.56 41.80 39.20 40.89 39.81 41.49 40.36 39.98 39.75 39.28 41.54 42.18 41.94 39.58 39.34 40.83 40.37 45.13 46.79 48.45 48.82 48.92 49.34 49.30 50.05 50.58 50.53 50.20 51.93 52.20 51.84 51.74 51.34 51.58 51.81 51.52 50.88 51.14 51.51 51.02 50.91 45.75 47.87 47.89 50.72 49.95 49.96 49.61 49.61 49.29 49.73 49.59 49.04 50.79
39.52 41.67 41.83 39.65 41.03 41.06 42.77 41.60 41.33 42.51 43.93 42.95 40.38 40.07 41.61 44.89 46.59 46.77 47.44 48.01 48.47 49.15 48.26 48.49 49.00 50.46 50.15 50.74 52.79 51.72 50.96 50.02 51.01 49.44 48.94 48.81 50.49 51.34 50.48 50.65 50.13 48.95 47.59 47.73 43.53 46.71 48.73 48.92 50.43 50.27 48.77 48.14 49.20 50.03
39.74 42.03 39.92 41.03 40.06 40.47 43.28 45.37 44.19 46.01 45.70 45.64 45.45 44.53 44.50 45.73 47.77 49.56 49.10 48.83 48.45 48.39 50.10 50.37 49.52 48.75 47.26 47.59 47.24 48.68 50.36 51.20 52.85 52.10 49.41 48.83 50.10 50.84 50.49 51.12 50.73 49.97 49.72 50.09 47.67 47.05 42.70 45.04 45.45 46.40 47.53 47.56 49.19 49.89
43.70 42.92 40.95 40.63 40.01 44.22 45.00 46.65 47.45 47.80 46.93 45.93 45.97 43.83 43.68 45.44 47.58 50.26 50.14 50.31 51.46 51.06 49.85 48.52 48.86 50.87 52.14 51.26 50.32 50.59 50.24 52.30 53.21 54.12 53.12 52.93 52.98 52.36 53.54 52.04 51.07 52.72 52.03 49.89 49.43 48.52 48.49 48.21 49.32 48.96 49.73 51.36 51.96 50.11
43.01 41.74 41.10 39.53 41.87 45.77 47.15 44.94 44.20 43.73 45.55 44.29 43.35 44.97 45.33 45.80 44.69 48.38 50.53 50.94 50.34 49.25 49.29 49.97 49.74 50.68 53.00 53.19 53.33 53.51 48.40 52.33 52.46 51.50 50.24 49.49 49.13 49.80 50.78 50.82 51.29 52.05 52.67 52.55 51.30 51.38 52.40 51.87 50.90 50.15 49.69 49.75 50.25 50.39
42.50 42.73 42.90 43.08 42.75 42.91 44.89 45.18 44.55 44.39 45.58 45.30 45.37 46.36 46.82 46.73 44.68 48.81 52.60 53.46 51.30 50.79 50.89 51.86 52.43 53.46 54.34 54.87 53.96 54.11 50.55 51.52 47.32 41.60 40.79 41.19 40.93 43.27 46.99 48.45 50.93 51.93 52.12 50.88 51.40 51.47 50.80 50.45 49.52 48.37 48.20 47.82 47.66 47.25

GFSWCAN_sfc_wetblb_057.txt.gz
Wetbulb
54.91 54.97 54.69 54.16 53.91 53.48 52.73 52.18 51.47 51.18 51.79 51.51 51.30 50.26 50.31 50.16 50.10 44.71 40.82 42.56 41.88 37.71 39.64 43.85 45.93 41.42 41.79 42.28 40.09 42.25 45.62 45.93 45.66 43.50 40.89 38.98 39.69 42.71 41.26 43.58 41.26 40.53 40.27 37.41 37.61 35.42 36.32 53.82 53.96 47.74 49.86 52.36 55.10 56.18
54.61 54.69 54.21 53.86 53.83 53.21 52.63 52.26 51.76 51.60 52.42 51.66 51.33 50.31 50.20 50.01 49.61 47.32 39.69 44.20 45.68 41.70 41.14 43.24 46.93 48.11 46.45 44.74 42.94 42.47 43.84 43.98 46.77 43.62 43.91 43.23 43.90 43.89 41.97 40.73 45.85 42.64 44.46 42.54 45.31 43.93 50.88 53.82 51.59 53.37 52.30 52.94 55.99 54.48
54.17 54.31 54.09 53.78 53.51 53.16 52.70 52.28 51.74 51.74 52.17 51.50 51.47 50.48 50.20 50.01 49.55 47.01 38.43 39.53 43.16 41.30 42.60 43.10 43.63 44.77 43.96 44.33 46.00 42.06 44.31 46.89 46.65 46.58 44.97 44.48 42.41 44.63 40.61 42.00 43.09 47.64 48.65 45.38 44.98 49.46 51.01 53.84 53.82 54.04 54.59 54.51 56.55 58.75
53.99 54.11 53.79 53.50 53.25 52.86 52.51 52.32 52.03 52.10 52.32 51.58 51.43 50.60 50.35 50.41 49.88 47.89 36.95 38.74 42.31 41.36 37.86 41.98 49.12 45.97 49.20 47.56 47.96 47.22 47.28 46.33 46.22 47.34 43.33 41.56 42.28 46.96 43.31 43.28 44.17 46.08 47.13 45.74 45.85 47.98 49.58 53.12 52.69 53.02 54.35 56.15 57.62 58.51
53.39 53.78 53.45 53.20 52.91 52.72 52.47 52.05 51.97 52.27 52.18 51.67 51.46 50.68 50.46 50.34 49.50 45.11 40.34 40.06 43.55 41.32 38.35 39.94 44.62 46.82 46.34 48.06 48.25 46.49 45.70 43.91 43.00 42.03 42.76 40.78 43.66 44.63 43.87 45.90 45.12 47.67 45.50 42.10 41.68 48.01 48.48 49.48 53.00 54.23 55.30 55.70 56.41 55.25
52.95 53.32 53.31 53.02 52.74 52.71 52.51 52.14 52.08 52.19 52.20 52.03 51.63 50.97 50.69 49.99 48.18 40.05 42.28 43.48 41.63 44.12 39.40 37.65 43.84 44.51 44.30 45.35 44.81 45.39 44.31 44.19 43.36 41.24 39.95 41.84 45.67 43.43 39.89 42.17 48.04 50.09 51.72 49.02 47.64 51.97 52.06 53.60 54.06 56.30 55.79 54.49 55.49 56.95
52.74 53.10 53.33 52.84 52.70 52.65 52.23 51.91 51.88 51.90 51.69 51.63 51.16 50.66 50.06 49.44 41.22 37.52 41.61 44.30 45.14 43.16 40.43 39.57 38.70 43.52 45.18 44.08 43.91 43.20 42.84 42.55 41.92 39.27 40.09 42.05 43.67 43.44 39.67 38.05 47.51 51.14 51.01 51.14 52.80 51.88 50.27 52.77 51.09 55.16 56.69 57.27 57.28 57.21
51.93 52.84 52.99 52.64 52.52 52.27 51.94 51.82 51.60 51.44 51.21 51.04 50.46 50.05 49.59 49.21 45.90 38.08 40.88 46.51 43.10 42.83 43.77 37.33 38.03 41.56 45.33 41.39 40.76 42.66 41.53 41.89 41.85 40.06 38.91 41.87 43.00 41.45 38.14 42.24 47.48 50.23 51.26 52.00 53.72 54.12 51.50 51.65 52.69 53.57 56.66 57.93 57.15 56.95
51.14 52.45 52.49 52.36 52.27 52.07 51.82 51.73 51.49 50.94 50.57 50.60 50.42 49.50 43.56 41.27 37.19 42.45 51.62 47.89 45.84 45.45 40.54 38.50 35.49 37.78 44.39 40.73 42.12 43.50 42.41 39.62 42.02 38.99 37.64 41.58 39.03 37.23 39.62 42.42 46.43 49.10 49.91 49.12 50.57 51.93 52.38 53.04 52.49 54.29 56.43 56.17 54.98 55.75
51.50 52.21 52.18 52.02 51.97 51.81 51.78 51.60 51.13 50.31 50.18 49.48 43.31 41.04 38.03 43.11 51.11 51.12 42.01 40.86 41.45 41.64 41.26 37.33 38.84 38.16 42.53 41.18 41.85 43.15 43.18 40.50 38.83 40.09 40.38 36.49 35.75 43.76 46.22 46.04 44.92 49.02 49.94 46.31 47.37 48.00 50.41 51.53 53.80 53.96 54.39 55.40 55.49 56.18
50.23 52.21 52.08 51.97 51.97 51.58 51.48 51.16 50.37 49.24 47.18 40.10 38.10 39.49 45.67 52.64 44.68 42.62 40.16 37.92 37.31 36.08 38.56 39.49 38.12 37.63 41.54 42.13 40.44 41.98 39.96 39.46 35.82 38.94 39.38 37.85 40.22 45.15 48.07 48.56 47.65 47.68 51.38 52.79 52.04 52.70 52.00 51.76 54.27 54.49 54.67 55.52 55.43 55.28
48.70 51.81 51.94 51.81 51.39 51.45 51.12 50.23 49.57 43.51 41.29 41.47 42.68 44.33 44.64 43.45 42.22 39.61 38.07 38.89 37.63 36.66 38.56 36.72 37.87 38.24 40.62 45.27 41.35 41.01 39.40 40.30 35.92 42.78 39.42 38.43 42.47 45.02 46.71 49.79 50.25 49.24 50.72 51.47 52.24 53.83 54.76 55.50 53.53 52.97 55.32 55.56 55.50 55.79
48.10 50.18 51.27 51.05 51.27 51.28 50.58 49.81 48.65 47.65 46.40 45.52 41.89 42.16 40.12 39.56 32.94 36.23 33.95 36.35 35.21 39.77 40.37 38.63 37.45 41.96 40.23 43.26 42.29 41.15 39.13 37.91 42.35 39.54 38.12 40.25 42.44 45.29 47.75 48.69 51.09 52.04 52.11 52.30 53.08 53.99 54.21 53.99 54.25 53.88 53.61 54.43 54.41 53.82
48.18 49.73 50.91 51.03 51.33 50.87 50.17 49.60 48.74 46.46 43.22 41.23 40.87 33.74 35.97 34.95 37.16 38.08 38.52 37.93 40.09 41.11 40.06 39.06 38.13 38.33 38.73 39.59 39.04 38.18 40.69 41.70 37.34 34.07 37.37 39.94 42.19 44.71 45.49 48.40 50.69 51.09 52.37 52.86 52.04 52.63 52.85 53.66 54.28 55.00 54.08 53.49 53.15 52.52
48.33 50.11 50.94 51.00 50.93 50.39 49.97 49.43 48.06 44.17 42.09 41.16 42.35 34.28 37.14 40.59 40.01 39.31 39.61 39.26 42.17 42.01 41.47 41.39 40.76 39.05 39.29 40.63 40.20 38.56 37.21 37.18 38.37 37.03 39.57 43.54 44.12 44.08 47.60 50.85 51.56 53.00 52.38 51.33 50.63 51.10 52.09 52.59 52.21 52.10 52.78 52.09 51.80 51.29
49.95 50.63 49.40 50.62 50.11 49.36 48.59 47.00 44.55 44.08 43.64 42.46 42.16 39.61 40.24 36.79 38.01 37.69 39.78 40.46 42.22 42.47 43.15 42.43 39.15 39.45 39.03 39.57 38.98 37.74 37.61 36.62 37.51 40.99 43.28 43.89 45.81 47.07 51.00 52.88 53.27 53.01 50.30 49.05 48.95 49.70 50.69 51.28 51.16 51.01 51.45 50.83 50.36 49.56
49.07 47.12 49.74 49.27 48.72 47.77 47.17 42.88 42.89 40.95 41.78 42.60 40.00 41.75 39.21 39.44 41.55 42.11 41.97 43.05 44.62 44.02 40.54 40.47 38.64 37.58 39.84 37.67 38.33 40.46 38.47 39.78 42.55 43.78 45.00 45.80 45.52 46.82 49.07 50.40 50.24 50.17 48.78 48.87 48.94 50.01 50.36 50.56 51.06 50.52 49.08 48.55 48.88 48.67
46.42 48.73 49.16 47.99 46.88 46.11 43.52 43.69 42.57 41.71 40.10 41.24 37.75 40.66 43.08 44.55 42.93 43.23 43.59 45.20 44.66 42.84 42.33 41.22 42.18 39.23 37.63 38.18 37.53 39.96 41.02 41.81 43.26 44.68 44.56 45.48 47.28 49.22 49.41 47.61 48.81 49.52 49.53 49.58 50.26 50.23 50.17 49.62 49.30 48.87 48.95 48.84 48.29 47.39
47.02 47.45 48.05 47.58 46.57 44.01 42.38 41.86 42.34 39.10 40.54 40.50 41.75 41.98 43.43 43.80 43.71 43.92 43.90 45.16 45.46 45.01 44.36 42.34 40.48 38.49 38.19 39.65 40.66 41.26 42.18 42.38 43.43 45.03 46.03 45.78 47.94 48.87 48.96 49.30 49.87 48.70 47.89 48.46 47.98 48.56 48.67 48.24 48.57 49.38 49.10 49.23 47.23 46.57
48.17 48.37 48.56 48.32 47.55 43.16 40.66 40.95 44.81 41.22 39.78 39.80 40.86 41.85 42.07 42.48 44.02 44.29 45.17 44.65 42.91 42.41 41.67 40.44 40.61 41.06 41.03 41.80 42.79 43.22 44.88 45.84 45.54 44.77 45.19 46.30 47.82 48.50 48.57 48.48 47.86 48.18 48.47 48.44 48.95 45.51 49.03 50.18 48.87 49.26 49.34 48.06 47.34 47.09
46.36 46.64 47.24 46.59 44.90 42.31 41.60 41.74 40.55 41.65 41.48 41.09 42.42 42.51 42.19 43.51 43.34 43.48 42.94 43.44 41.60 40.29 41.48 43.00 43.19 43.52 43.37 44.49 45.61 46.06 46.62 46.23 45.32 45.21 45.02 44.44 45.75 47.77 47.45 47.95 47.57 47.59 51.37 51.16 48.63 48.15 48.30 50.45 51.91 50.11 48.51 47.96 47.93 48.33
45.29 46.87 45.04 45.12 41.45 43.62 42.09 44.53 42.07 42.46 42.68 42.52 41.91 42.34 40.65 39.70 39.78 41.14 42.97 42.54 43.11 43.95 43.37 43.74 44.42 44.43 44.59 46.02 47.32 46.98 46.80 46.46 45.77 45.39 43.80 45.06 45.95 45.57 45.45 46.49 46.40 46.96 49.18 47.73 49.98 50.25 51.09 51.91 52.04 51.49 49.73 49.71 48.87 48.82
46.71 45.62 43.74 45.43 43.13 40.03 39.51 44.46 42.10 43.00 39.99 39.67 40.92 40.10 39.57 39.83 40.91 43.40 42.40 41.76 43.11 44.49 45.56 45.50 45.58 45.74 46.55 47.92 47.91 47.45 47.47 46.96 46.48 45.78 45.90 45.39 45.74 45.95 46.31 46.89 47.28 50.26 49.75 50.31 51.35 52.48 50.17 47.57 48.71 47.81 48.68 48.35 48.08 49.82
47.15 44.33 41.96 41.34 40.05 37.80 43.67 41.70 43.83 42.46 41.13 39.67 39.10 36.78 38.05 40.39 42.61 39.83 38.03 40.40 43.48 44.44 45.71 45.83 46.73 46.41 46.21 46.25 46.12 46.73 47.28 47.00 46.08 46.01 46.02 45.52 44.83 46.85 49.87 48.15 49.74 52.18 51.77 50.24 48.40 47.58 48.39 48.28 45.65 48.91 49.99 50.18 47.97 46.76
37.01 35.43 38.18 31.12 40.13 39.70 39.15 39.31 38.93 39.00 37.47 38.99 37.74 36.93 38.31 40.77 37.18 35.57 34.99 41.06 42.94 44.59 45.31 45.55 45.74 45.15 45.03 44.77 45.20 46.19 47.00 46.53 45.57 45.73 46.85 47.75 47.30 50.17 49.80 48.65 49.14 49.35 49.60 48.63 48.33 49.07 48.15 49.46 49.20 48.45 46.90 45.21 47.17 47.07
29.32 37.07 34.32 37.53 36.85 38.13 37.70 36.73 37.25 37.82 39.14 38.43 39.45 39.98 40.44 39.04 36.80 30.98 39.27 42.59 43.58 44.63 45.55 45.57 45.21 44.46 44.58 44.77 44.83 45.14 46.73 48.21 47.21 49.58 50.80 51.46 49.89 47.76 46.55 46.89 47.00 47.66 49.11 50.40 49.75 49.18 47.96 46.93 47.29 47.56 47.35 47.61 42.99 47.19
34.84 37.57 39.00 40.47 40.28 40.46 37.87 39.61 41.01 39.80 39.46 38.05 38.86 38.37 37.48 34.57 34.41 40.90 43.52 44.74 45.39 46.64 47.19 47.19 47.10 46.17 45.65 45.63 46.94 47.90 49.84 49.65 49.20 49.59 50.35 50.52 51.63 51.97 49.84 48.44 47.27 48.32 47.54 49.35 49.93 50.39 49.07 47.89 48.02 48.96 48.14 48.53 48.13 48.67
39.16 40.97 36.83 39.09 38.89 39.94 38.97 38.51 38.72 38.58 39.59 40.55 39.54 38.66 38.08 38.96 39.15 43.41 45.18 46.73 46.85 46.73 46.82 47.03 47.50 47.77 48.29 48.63 49.42 49.86 50.04 50.61 49.48 50.26 50.71 50.10 49.82 50.37 50.37 50.66 50.54 45.48 47.65 47.12 47.90 49.18 48.64 48.64 48.43 48.39 48.98 48.44 47.97 48.34
37.70 39.42 39.31 38.27 40.55 42.17 41.44 40.36 40.29 41.37 42.00 40.86 39.11 38.61 40.31 43.02 44.82 44.94 46.04 46.60 46.35 46.89 45.92 46.12 47.63 48.49 48.85 49.21 50.14 50.28 49.68 48.61 47.68 48.22 48.59 48.38 49.63 50.62 48.96 49.12 49.47 48.91 46.85 46.71 42.93 45.02 48.40 48.55 48.49 48.27 49.03 47.37 47.10 48.03
38.81 40.10 38.74 39.18 39.48 38.98 41.04 42.60 42.38 44.06 43.53 43.21 43.16 42.26 42.62 43.87 45.73 46.82 46.44 46.12 45.64 45.66 47.23 48.31 48.07 47.61 47.09 47.15 46.70 47.34 48.94 49.33 50.28 49.82 48.53 49.03 49.27 51.64 50.14 49.34 49.38 49.21 49.74 48.19 46.80 46.01 41.58 44.16 44.84 47.15 45.43 45.57 48.52 48.80
41.04 40.46 38.56 38.51 38.94 41.83 42.88 44.43 44.61 45.15 44.83 43.96 44.00 42.33 42.27 44.64 46.35 47.75 48.62 48.67 49.22 49.52 48.27 47.17 47.58 48.64 48.56 48.23 48.41 48.69 48.24 49.73 50.88 52.78 52.37 51.81 51.07 51.74 50.77 51.36 50.41 49.81 49.61 49.53 47.68 47.34 46.48 46.19 46.39 46.91 47.29 47.78 48.73 47.59
40.81 39.55 39.02 37.80 39.73 43.79 44.76 43.19 42.89 44.54 45.49 43.88 42.49 43.97 44.27 44.51 44.21 47.56 49.85 49.63 48.74 47.89 47.45 48.38 48.45 49.20 51.63 51.79 53.09 52.71 46.90 51.74 52.58 52.79 52.59 50.67 49.44 48.84 48.97 49.62 49.40 50.05 50.83 49.47 48.98 49.49 51.04 49.98 49.08 49.79 49.07 49.23 49.08 49.09
39.39 39.70 39.99 40.68 40.03 40.38 43.66 44.72 44.13 43.93 44.40 44.78 45.18 45.49 45.18 46.11 43.78 46.14 49.76 50.96 50.23 49.80 49.54 49.81 50.71 51.76 53.02 52.74 52.10 52.24 48.40 52.37 50.61 43.99 42.25 40.37 39.75 42.12 45.86 47.60 49.41 51.61 51.00 50.33 50.24 50.51 50.31 50.13 49.56 49.21 48.80 48.66 48.30 47.91

GFSWCAN_sfc_wetblb_060.txt.gz
Wetbulb
54.00 54.75 55.17 55.17 55.03 54.40 53.86 53.34 52.89 52.49 52.12 52.02 51.75 51.56 50.38 50.14 50.04 43.59 38.96 41.67 40.71 37.01 39.51 43.05 45.70 40.19 40.24 40.20 38.51 41.16 44.20 45.12 44.04 41.94 38.76 37.58 38.14 41.84 40.85 42.34 40.70 40.85 40.08 36.71 35.92 34.01 34.16 52.35 51.67 47.53 49.20 51.68 53.36 54.68
54.09 54.36 54.75 54.90 54.77 54.16 53.74 53.20 52.59 52.31 51.72 51.79 51.83 51.47 50.50 49.89 49.70 44.66 35.78 41.81 43.44 40.61 41.18 42.15 45.86 47.63 45.03 44.10 41.56 41.16 43.32 43.26 46.27 43.76 42.67 42.28 42.41 42.89 41.14 39.36 44.98 42.13 44.09 42.54 43.93 43.12 49.42 52.54 50.29 52.63 52.43 52.83 54.53 56.58
53.58 53.99 54.43 54.42 54.13 53.91 53.58 53.07 52.59 52.19 51.76 52.00 51.71 51.66 50.57 49.98 49.45 46.10 37.59 38.07 41.47 40.35 41.84 41.33 41.57 42.65 44.03 45.09 45.23 41.87 42.63 45.17 45.74 44.80 43.99 43.07 41.86 43.24 39.98 41.54 42.83 46.67 48.32 44.66 44.97 48.68 50.54 52.90 53.37 53.34 53.98 53.39 54.51 56.09
52.57 53.77 54.07 54.00 53.81 53.70 53.44 52.99 52.63 52.30 51.81 51.96 51.66 51.62 50.80 50.37 50.03 47.31 37.01 36.94 40.92 40.59 37.72 40.40 48.20 45.02 47.17 43.86 45.76 44.96 45.94 44.53 45.24 45.69 42.60 41.71 42.01 46.02 43.55 44.07 43.69 47.10 47.66 46.50 45.70 46.58 48.68 52.72 52.62 53.13 53.78 55.94 55.89 57.19
51.94 53.02 53.74 53.64 53.69 53.58 53.24 52.83 52.52 52.33 52.13 52.17 51.58 51.62 51.00 50.55 49.77 44.71 39.45 39.60 41.57 41.03 37.08 39.16 43.66 45.55 45.04 46.31 46.96 45.50 44.67 42.40 41.60 41.23 41.90 40.74 43.53 45.41 43.08 45.52 44.24 47.65 46.08 42.09 40.82 46.83 49.02 49.45 52.72 54.00 55.10 54.55 54.68 54.72
51.48 52.58 53.29 53.52 53.36 53.35 53.20 52.77 52.42 52.29 52.38 52.22 51.97 51.70 51.12 50.01 46.38 38.66 40.08 40.81 40.63 42.41 38.77 35.01 42.45 44.48 44.15 45.60 45.02 43.53 43.05 42.92 41.82 40.24 38.64 40.29 44.21 43.40 39.97 41.62 47.50 49.34 50.28 47.92 47.08 51.59 52.29 53.38 54.62 55.38 55.47 54.55 56.27 57.05
51.17 52.29 53.06 53.38 53.15 53.25 52.90 52.43 52.14 52.05 51.83 51.82 51.43 50.87 50.20 49.59 42.73 35.92 40.47 42.33 43.12 41.91 37.86 36.72 37.62 42.19 43.53 41.95 42.22 41.49 41.18 40.92 40.85 38.11 38.58 40.86 42.48 42.25 39.54 37.73 46.20 49.68 50.64 51.12 51.65 52.33 50.21 52.85 51.22 54.85 55.06 56.05 57.96 58.10
49.39 51.26 52.61 53.34 53.13 52.90 52.55 52.20 51.93 51.70 51.67 51.14 50.67 50.17 49.82 49.36 46.09 40.15 41.17 47.06 42.76 38.29 42.32 37.07 36.89 40.06 42.71 39.78 39.67 39.77 39.75 39.90 40.04 37.95 37.85 40.44 41.96 40.19 38.10 41.32 43.37 49.38 50.73 51.56 53.47 53.67 51.73 52.36 53.05 52.87 54.09 55.81 55.95 55.91
49.60 50.86 52.31 53.00 52.93 52.72 52.26 52.00 51.92 51.52 50.92 50.60 50.33 49.70 43.23 41.14 36.38 39.86 50.38 48.45 42.80 43.63 39.21 36.91 35.05 36.50 42.30 38.79 40.62 41.45 39.92 37.70 39.64 37.47 36.82 39.80 37.73 36.97 38.78 41.70 42.95 48.46 49.58 49.15 50.39 51.09 52.06 51.78 52.33 53.38 54.25 55.67 54.60 54.72
49.18 51.25 52.45 52.78 52.53 52.30 52.00 51.92 51.49 50.57 50.15 49.78 43.07 39.59 35.66 39.92 48.31 49.48 42.07 38.84 38.53 39.58 39.97 37.17 37.25 37.91 41.18 39.80 40.31 40.88 40.41 38.32 36.89 38.96 39.70 35.59 35.81 42.19 44.99 46.54 46.61 46.34 47.91 49.59 45.98 48.90 50.92 51.14 52.50 53.63 53.89 54.25 54.33 55.25
48.88 50.57 52.44 52.44 52.27 52.00 51.80 51.39 50.43 49.46 46.98 38.37 36.36 38.15 44.26 51.01 44.20 41.45 37.59 36.04 34.48 34.87 38.09 39.15 38.14 37.72 40.47 40.53 39.02 40.19 38.03 37.49 34.68 37.83 38.58 38.00 39.01 43.79 46.15 48.28 48.56 47.45 49.65 50.47 52.31 52.73 53.11 53.09 53.27 53.16 54.09 54.79 54.86 54.84
48.58 49.25 52.14 52.13 52.02 51.76 51.39 50.31 49.35 44.40 42.41 40.01 40.88 44.30 43.90 42.70 41.30 38.41 37.07 37.72 35.77 34.71 38.35 37.28 38.54 38.21 39.01 42.78 40.43 39.90 38.02 38.24 33.77 41.07 38.52 38.02 42.26 43.54 46.79 48.16 50.15 49.76 50.70 51.80 53.64 54.53 54.54 53.79 53.10 54.16 55.49 55.37 55.33 55.41
48.16 48.57 51.27 51.89 51.74 51.39 50.62 49.69 47.96 47.43 46.29 45.06 41.91 41.76 39.96 38.84 31.87 35.28 32.58 34.56 34.94 39.32 39.74 38.10 37.48 40.43 39.20 42.89 40.88 40.11 37.56 36.25 40.94 38.14 37.18 39.10 41.79 44.42 46.64 47.19 50.58 51.72 52.60 52.50 52.95 53.87 53.73 53.80 54.48 53.98 53.89 54.70 54.68 53.90
47.63 48.27 50.03 51.46 51.21 51.04 50.13 49.04 48.67 46.63 43.50 40.91 40.38 34.38 35.94 34.01 35.23 36.44 37.86 39.08 41.47 40.38 38.90 37.58 37.49 37.85 37.45 38.96 38.74 37.55 38.38 40.10 35.86 33.15 36.04 39.86 41.70 44.12 45.63 48.79 50.66 51.89 52.44 52.13 52.59 53.15 53.22 53.80 53.78 53.96 53.18 52.38 51.83 51.04
47.59 48.22 49.00 50.95 51.08 50.55 49.43 48.67 47.43 43.19 42.55 40.29 41.36 34.39 36.22 39.89 39.81 40.34 40.41 38.17 39.38 40.30 40.71 39.78 39.17 39.43 38.48 39.46 38.15 37.14 36.37 36.12 37.24 36.66 39.10 42.54 43.62 44.24 47.50 49.95 50.27 51.05 50.97 51.00 51.35 52.36 52.16 52.54 52.14 51.52 51.88 51.68 50.94 49.91
47.87 47.54 48.31 51.00 50.99 50.04 48.61 46.42 43.81 45.00 44.01 41.66 41.09 39.25 39.38 37.33 37.16 37.93 38.44 38.22 40.38 41.36 41.85 41.43 38.81 38.90 37.49 38.39 37.41 35.64 35.70 35.51 37.39 39.94 42.34 43.94 45.49 45.70 47.79 52.37 52.64 52.81 50.93 50.65 50.32 50.62 51.42 51.61 51.32 50.75 50.76 49.99 49.61 49.16
47.33 45.58 50.95 50.25 49.27 47.76 46.92 43.13 43.74 41.09 41.32 41.52 40.03 42.09 40.14 39.35 39.06 41.24 40.44 40.82 42.41 42.85 40.26 39.73 37.52 36.11 38.49 36.90 37.42 39.52 37.49 39.00 41.25 43.06 44.02 44.33 45.11 46.34 48.23 49.69 51.17 50.69 49.63 49.30 49.23 50.09 50.52 51.14 50.88 49.74 48.28 48.74 49.15 48.86
44.01 49.33 49.52 48.58 46.90 46.16 43.60 45.31 42.47 41.47 39.19 40.94 38.28 40.64 42.06 43.72 42.62 42.41 43.52 44.59 43.96 41.65 41.01 40.65 41.07 37.91 36.74 37.15 36.75 39.16 40.82 41.75 42.77 43.93 44.68 45.78 46.70 48.28 49.18 48.12 48.59 49.56 49.32 49.37 49.59 50.30 50.36 50.32 50.29 49.61 48.58 50.03 49.12 47.91
47.45 47.37 48.02 47.82 46.47 44.42 40.73 41.34 42.00 38.61 40.45 41.23 42.71 43.50 44.20 45.17 44.57 43.79 43.73 43.81 43.54 44.39 43.56 41.32 39.49 37.37 37.24 38.93 39.99 40.51 40.97 41.47 42.85 44.24 45.33 45.76 46.33 48.77 49.03 48.36 49.80 49.28 48.91 48.78 48.71 48.78 49.55 49.46 50.36 50.24 49.56 50.29 48.19 47.80
48.26 48.37 48.66 48.35 48.02 43.62 41.12 40.48 43.44 41.79 39.33 42.21 42.72 43.35 43.70 43.77 43.38 43.43 43.85 43.07 42.23 42.13 40.86 39.71 39.62 40.39 40.42 41.34 42.24 42.87 44.29 45.00 44.95 44.94 45.27 46.14 47.29 48.32 48.09 48.64 48.24 47.75 48.10 48.73 49.03 45.83 50.09 49.44 49.99 50.48 51.34 49.16 48.58 48.57
47.15 47.11 47.99 46.95 45.28 42.79 41.73 41.27 42.36 42.54 42.94 42.07 43.87 43.01 41.60 42.18 41.95 42.10 42.40 42.27 42.49 40.40 40.30 41.62 42.07 41.94 42.36 43.34 44.50 45.52 45.80 45.44 45.00 45.33 44.92 44.99 46.23 47.60 47.49 47.75 48.02 47.81 47.97 48.31 48.64 48.60 48.71 50.70 50.74 50.07 49.81 49.63 49.76 49.49
45.45 47.53 45.47 45.39 42.02 42.62 42.27 45.60 41.93 42.78 41.64 41.91 41.70 42.07 40.17 39.30 39.31 41.19 41.96 42.48 41.51 41.87 41.94 42.77 43.25 43.45 44.73 45.44 46.29 46.13 46.98 46.48 45.77 45.12 43.72 44.36 46.09 46.53 46.73 46.98 47.16 47.13 47.72 48.60 49.32 49.95 51.78 52.84 52.08 51.21 50.53 50.62 49.03 50.18
46.73 45.58 43.03 42.91 41.70 41.38 42.24 44.54 41.85 42.72 39.35 39.33 40.73 39.71 39.31 40.03 41.36 42.74 40.27 40.86 42.13 43.28 44.08 44.21 44.60 45.17 45.56 47.45 47.44 47.02 47.28 47.00 46.52 46.26 46.34 45.22 45.47 46.23 46.69 47.16 47.87 48.19 49.09 50.93 50.87 52.28 52.12 47.86 49.19 49.98 50.49 50.53 50.30 50.54
47.18 43.08 41.26 41.11 41.09 39.02 43.48 41.83 43.26 40.70 40.13 39.25 38.77 37.10 38.39 40.20 41.51 39.58 37.99 39.86 42.35 43.51 44.65 44.76 45.93 45.79 45.87 46.08 45.87 46.07 47.25 47.34 46.59 46.12 46.22 45.97 45.74 46.39 49.64 50.42 50.23 50.78 52.03 51.38 50.82 50.03 51.16 50.60 46.40 48.07 48.98 49.33 49.69 48.79
37.06 36.33 38.91 34.41 39.99 38.99 38.40 38.45 38.16 38.19 37.55 38.73 36.80 36.74 38.17 39.82 36.62 35.44 35.07 40.42 42.52 43.86 44.76 45.12 45.53 44.84 44.52 44.19 44.66 45.98 46.80 47.11 46.15 45.56 46.73 47.23 46.77 48.78 50.26 50.40 50.83 51.81 52.35 51.26 50.36 49.61 49.04 49.84 50.08 50.30 49.67 48.96 49.13 48.53
30.75 35.92 34.23 36.51 36.84 37.72 37.47 36.29 36.82 37.41 38.54 38.12 38.51 39.03 39.62 38.28 35.74 32.14 38.55 42.07 43.01 44.18 45.32 45.22 45.01 44.27 44.20 44.63 44.88 45.26 46.57 47.79 47.63 49.51 50.80 51.38 50.94 48.69 47.60 48.81 48.29 48.48 49.89 51.06 51.10 51.12 50.38 49.49 49.22 49.30 48.87 48.71 42.54 49.07
35.25 36.33 38.40 39.44 39.28 38.84 37.45 38.56 39.55 38.15 37.46 36.87 37.51 37.02 36.71 34.38 34.45 40.28 43.01 44.30 44.92 45.91 46.52 46.48 46.37 45.92 45.62 45.92 46.26 47.34 48.70 48.86 49.17 50.56 52.22 51.07 51.49 51.71 51.39 49.45 48.14 49.41 49.44 50.95 51.28 51.65 51.50 50.71 49.42 49.80 50.20 50.81 50.83 50.82
38.37 38.28 36.16 37.78 39.78 40.74 38.03 38.30 38.42 37.78 38.99 40.10 39.22 38.32 37.76 37.54 37.37 42.72 44.22 46.00 46.25 46.20 46.43 46.82 47.18 47.09 47.41 48.18 48.63 48.81 49.96 50.61 50.66 50.05 49.91 50.25 50.73 51.28 51.32 51.53 51.84 44.85 50.18 50.88 51.29 49.13 49.75 50.24 50.03 50.09 50.18 50.20 51.06 51.12
37.14 39.00 38.88 38.26 40.40 40.51 40.27 39.53 39.30 40.67 41.21 39.58 38.51 37.96 39.87 42.44 44.17 44.86 45.36 45.64 45.85 46.48 46.18 46.30 47.20 48.01 48.98 49.47 49.94 50.21 49.77 48.80 48.74 47.98 47.65 47.48 49.13 50.61 51.96 50.85 50.55 50.44 50.02 49.08 43.49 44.56 49.15 49.98 50.29 49.99 50.61 50.76 51.10 50.42
38.11 39.14 37.67 39.08 38.27 37.36 40.02 41.42 41.52 43.24 42.39 42.10 41.93 40.99 41.30 42.78 44.91 45.80 45.89 45.55 45.37 45.42 46.29 47.30 47.91 48.44 47.25 48.43 48.67 48.78 49.68 49.86 49.83 49.07 47.94 49.05 50.33 52.11 52.13 52.21 51.58 51.46 50.81 50.44 50.11 49.78 41.60 44.85 44.46 48.14 47.69 48.50 48.28 49.28
39.53 39.13 37.56 37.58 38.51 40.81 41.84 42.91 42.72 43.21 43.41 42.69 42.69 41.29 41.29 43.60 45.75 46.50 46.59 47.13 47.16 47.90 48.19 48.23 47.79 48.13 48.69 48.33 48.23 48.54 48.23 50.55 50.44 51.36 51.79 51.47 51.24 50.86 50.55 51.34 51.66 51.49 50.95 50.61 50.39 49.54 48.67 47.07 48.09 48.16 48.59 49.08 49.64 48.05
39.06 37.98 37.80 36.43 38.28 42.17 43.09 42.26 42.33 43.63 43.15 42.42 42.19 43.42 44.29 44.24 43.89 46.55 49.34 49.41 48.03 47.88 47.25 48.05 48.23 48.58 51.33 52.18 52.52 52.98 46.15 51.81 52.42 53.04 53.41 53.50 52.45 50.72 49.28 49.25 50.10 50.87 50.94 50.65 50.89 50.81 50.31 50.61 50.77 51.71 50.82 49.86 50.64 50.66
38.13 38.85 39.25 39.32 39.68 40.91 44.99 44.88 44.61 44.45 44.45 45.02 45.06 45.48 44.87 44.82 43.04 46.42 49.42 50.95 50.35 49.68 49.39 50.04 50.53 51.90 53.16 53.37 52.87 52.74 48.97 52.95 51.09 44.32 42.96 41.89 40.26 42.16 45.65 47.07 48.00 48.83 49.43 50.60 51.30 51.16 50.90 51.20 50.83 50.93 50.71 50.78 50.62 50.28

GFSWCAN_sfc_wetblb_063.txt.gz
Wetbulb
53.04 53.98 54.04 55.01 55.67 55.25 54.61 54.28 53.81 53.48 52.79 52.08 52.10 51.83 51.20 50.06 50.18 47.54 44.36 45.57 45.71 43.65 45.43 46.53 47.55 45.21 46.20 46.56 44.79 48.37 49.86 51.74 52.25 48.98 46.72 46.23 45.71 48.56 48.01 48.72 48.78 48.27 47.60 46.32 44.78 43.46 41.48 55.34 54.19 52.12 54.55 56.77 56.60 58.18
52.36 53.39 54.14 54.65 55.07 54.95 54.47 54.04 53.56 53.16 52.80 52.48 52.35 51.96 51.31 49.95 49.57 45.75 41.53 46.07 46.85 44.14 46.78 47.65 49.90 50.99 50.06 49.00 46.07 48.46 49.62 49.49 51.58 50.81 49.71 50.32 49.61 50.23 48.61 46.38 51.16 48.68 51.41 51.01 51.14 49.66 54.64 56.88 54.74 55.83 56.02 55.01 56.12 56.77
51.04 52.43 53.79 54.12 54.61 54.66 54.23 54.00 53.48 53.10 52.60 52.25 52.12 51.98 51.58 50.33 49.66 47.59 43.74 44.21 46.16 45.00 46.85 46.96 47.18 48.89 50.57 50.42 50.94 47.24 49.83 51.67 52.09 51.95 52.02 51.81 48.90 51.50 47.90 47.99 49.85 52.57 53.35 52.23 50.31 53.24 54.69 55.92 56.91 56.87 56.76 56.08 57.73 58.66
50.23 51.91 53.10 53.81 54.11 54.16 53.91 53.91 53.42 53.09 52.71 52.15 52.19 51.98 51.56 50.85 50.17 48.25 43.32 43.90 43.27 46.02 42.28 46.24 51.94 51.19 52.72 49.65 50.68 51.25 52.50 51.69 52.66 52.55 51.07 49.82 49.59 52.11 50.38 50.13 50.27 52.24 52.61 51.92 49.64 52.40 53.95 55.68 56.89 57.09 56.62 57.82 57.77 58.71
50.06 50.73 52.08 53.18 53.87 53.94 53.93 53.66 53.20 52.84 52.75 52.22 52.01 52.10 51.82 51.16 50.22 48.62 46.05 45.57 44.76 45.68 42.60 44.71 49.14 51.05 51.46 50.39 52.12 52.33 52.67 52.65 52.06 50.45 50.51 49.34 50.82 51.40 51.98 52.05 50.56 53.75 51.19 48.96 47.13 52.43 54.75 54.37 56.30 57.55 56.54 56.46 57.93 58.63
49.62 50.58 51.65 52.77 53.47 53.88 53.93 53.45 52.94 52.85 52.55 52.46 52.26 52.03 51.48 50.44 47.25 41.95 43.30 45.31 44.34 46.54 44.57 41.98 48.63 49.89 51.12 51.76 51.54 51.31 52.16 51.54 52.12 51.16 49.91 50.36 50.62 50.99 49.23 48.61 53.31 54.69 55.08 53.96 53.46 56.10 56.61 58.00 58.39 58.05 57.32 57.84 58.28 59.47
48.81 49.45 51.45 52.40 53.37 53.56 53.59 53.07 52.78 52.53 52.27 52.12 51.70 51.20 50.62 49.62 47.16 40.49 42.79 46.24 45.42 47.58 44.52 41.34 45.54 49.52 49.39 49.90 49.74 50.02 49.78 49.69 50.11 48.82 49.32 51.44 51.44 51.34 49.78 47.20 53.92 55.29 55.98 56.49 56.72 56.84 55.03 55.92 55.56 57.04 57.36 57.72 57.51 60.26
49.00 49.05 51.02 52.08 53.09 53.42 53.01 52.71 52.38 52.15 51.81 51.53 50.90 50.35 49.85 49.54 47.73 43.55 45.60 47.70 46.62 43.06 46.66 43.19 44.24 46.97 49.72 48.70 48.25 48.64 49.34 49.75 48.70 48.14 48.18 50.34 50.25 50.44 46.92 48.45 51.01 54.50 55.57 55.86 56.86 58.46 58.06 58.39 57.89 57.62 58.32 58.50 58.62 58.53
48.75 49.29 50.74 52.15 52.87 53.02 52.85 52.41 52.25 51.70 51.38 50.92 50.41 49.81 47.06 44.07 39.92 41.93 49.87 50.16 46.15 45.81 44.18 43.92 42.38 43.92 49.93 48.12 49.54 50.14 49.39 46.94 48.49 48.15 47.66 48.45 48.13 45.77 47.62 50.24 51.65 52.41 53.57 55.08 55.78 54.60 55.69 55.98 56.58 57.10 58.45 58.28 57.50 58.45
48.11 49.02 50.56 52.22 52.76 52.80 52.45 52.30 51.72 50.76 50.32 49.95 45.09 41.52 38.29 42.07 47.64 49.54 46.32 44.23 43.37 45.53 45.57 43.10 46.50 45.68 48.77 48.34 48.58 49.62 49.55 47.70 45.38 47.51 48.74 46.72 46.38 49.76 51.65 52.82 53.08 52.50 52.98 53.26 53.24 54.44 56.26 56.48 57.15 57.22 57.30 57.86 57.92 58.43
46.97 48.79 50.49 52.53 52.70 52.55 52.17 51.70 50.50 49.47 47.17 43.47 39.19 39.30 47.12 50.99 47.15 43.76 40.51 39.54 40.24 39.64 42.80 44.99 45.56 45.79 48.03 47.51 47.51 48.68 47.36 46.53 43.79 45.90 46.47 45.31 45.81 49.82 52.34 53.50 54.58 54.28 54.19 54.89 55.46 58.11 58.25 57.86 57.04 57.41 57.57 57.75 58.24 58.41
46.19 48.45 49.37 52.42 52.38 52.07 51.42 50.10 48.87 46.41 44.56 43.84 43.21 46.46 47.64 46.22 43.23 39.62 40.63 41.96 39.45 37.62 42.00 42.71 45.34 46.56 47.17 50.09 49.19 47.95 46.16 46.08 40.91 49.10 46.04 43.74 49.05 50.01 51.67 52.70 54.78 56.09 56.41 56.22 57.85 57.65 57.41 57.18 58.26 58.18 57.96 57.07 57.37 56.93
45.73 48.12 48.76 51.96 52.05 51.43 50.38 49.24 47.83 47.41 47.78 47.47 44.22 42.94 42.39 41.14 35.84 36.66 35.93 38.99 39.71 43.41 43.16 42.34 42.57 45.78 47.64 50.41 47.99 48.23 43.96 43.42 48.72 45.17 43.69 47.30 49.59 50.71 51.91 53.67 54.73 56.18 56.70 56.70 56.50 57.12 57.61 57.96 58.52 58.45 57.92 58.28 57.67 55.46
45.37 47.57 48.64 51.52 51.58 50.82 49.79 48.52 48.39 47.39 46.54 42.83 41.91 36.08 37.62 36.52 38.19 40.97 41.96 42.72 45.65 44.40 43.45 44.01 44.44 45.33 46.15 46.93 47.50 43.40 45.64 47.20 41.96 39.82 41.48 48.39 50.34 51.26 52.86 54.36 54.50 53.80 54.77 55.50 55.83 56.55 56.92 57.05 57.02 57.09 56.77 56.72 56.23 55.51
45.37 47.39 48.34 51.12 50.95 50.03 48.91 48.70 48.28 47.21 44.78 42.18 42.35 35.35 37.63 42.02 43.67 44.29 45.31 44.31 44.68 45.67 44.37 44.81 45.36 46.81 45.93 45.28 45.98 44.80 42.71 40.56 42.89 43.20 47.54 50.85 50.77 52.20 53.99 54.61 54.43 53.55 52.81 52.41 53.47 54.84 55.30 56.29 56.14 55.33 55.79 55.65 54.82 53.96
45.84 47.64 47.31 51.20 50.34 49.06 48.22 47.34 47.60 47.46 44.71 42.72 42.53 41.05 43.64 41.00 42.24 42.82 43.62 43.67 45.90 45.69 47.08 47.41 44.71 44.66 43.60 45.14 42.69 40.92 40.30 39.43 44.99 48.71 50.73 52.32 52.01 53.00 54.31 54.68 53.05 53.04 53.14 53.54 54.18 54.72 55.77 56.11 55.74 55.38 54.76 54.25 53.74 53.34
46.75 44.41 48.57 50.49 49.29 47.98 47.68 45.74 46.26 42.03 42.19 42.34 42.06 45.22 43.97 43.69 42.89 44.63 44.50 45.41 47.29 47.43 45.70 45.83 42.96 41.48 44.85 43.60 42.56 46.28 44.82 47.67 49.01 50.28 51.60 53.72 54.07 54.28 54.64 54.76 53.61 52.39 52.77 54.37 55.29 56.09 56.20 56.25 56.12 54.37 52.98 53.25 53.38 53.33
44.04 47.37 50.15 48.50 47.27 46.93 46.38 47.33 44.08 41.44 38.89 42.10 40.97 43.61 44.09 45.11 45.44 46.77 47.73 47.76 48.66 47.69 47.66 46.70 47.05 44.33 43.10 41.31 43.89 47.72 49.38 50.46 51.79 52.36 52.70 53.26 53.66 54.54 55.12 54.87 54.18 54.67 54.58 54.06 54.57 55.58 56.39 55.94 52.85 52.51 53.58 52.91 53.26 52.93
46.86 49.31 48.73 48.14 47.29 46.54 42.31 42.86 43.52 38.44 40.94 43.76 45.17 45.79 45.69 47.57 48.85 47.53 48.11 49.24 49.76 50.34 49.13 48.10 45.55 44.43 45.69 47.82 48.47 48.78 49.24 50.23 50.59 51.39 52.97 53.56 54.41 55.17 55.03 54.07 54.45 54.82 54.75 54.39 54.48 55.28 55.26 54.91 54.51 53.53 52.36 53.86 52.37 52.62
48.70 48.65 48.27 49.09 49.20 44.74 40.18 40.95 44.45 41.42 41.18 44.37 45.56 45.41 46.41 47.56 47.94 49.12 48.78 48.79 49.69 49.69 47.47 46.14 46.75 48.59 49.39 49.80 50.82 51.41 51.85 52.12 52.57 52.18 52.88 53.82 53.31 54.02 54.79 54.62 55.01 54.81 55.17 54.68 55.24 48.15 54.88 52.96 55.11 54.96 52.73 53.66 52.86 52.12
47.03 47.17 48.80 48.89 47.21 44.56 43.08 42.52 43.33 44.18 44.44 43.10 46.15 45.77 46.28 47.66 47.36 47.81 47.43 49.11 49.02 46.63 46.81 48.68 49.18 49.08 50.04 51.03 52.77 53.39 52.70 53.02 52.79 52.96 52.39 52.61 53.34 53.81 54.44 54.62 54.60 54.65 54.72 54.48 54.69 52.60 49.00 53.76 54.68 56.66 55.79 54.38 54.64 54.78
46.24 48.69 46.76 46.64 42.88 43.00 43.62 47.17 44.27 45.03 43.94 45.33 45.05 45.88 44.92 44.76 46.05 46.22 46.89 48.51 47.75 48.59 49.33 50.68 50.42 51.23 51.42 52.06 52.73 53.64 53.69 52.93 52.97 51.77 47.18 48.69 52.67 53.12 53.92 54.38 54.03 53.49 53.78 54.77 55.11 55.73 53.65 53.54 54.63 54.74 55.51 55.66 52.92 55.22
48.02 46.71 44.98 44.02 41.68 41.72 41.22 47.43 42.81 44.32 41.11 42.96 45.05 44.25 44.67 45.89 46.37 48.11 45.54 46.99 49.11 50.56 50.99 51.52 51.26 51.56 53.24 53.56 53.51 53.28 53.44 53.95 54.23 54.27 54.18 54.01 53.24 53.34 54.01 54.12 54.22 53.97 54.32 54.30 55.06 55.30 54.06 49.51 51.82 54.38 55.48 55.10 55.37 55.10
47.26 43.81 42.16 42.43 42.13 39.43 44.94 42.89 45.40 44.22 44.94 43.36 43.08 42.21 43.93 45.49 46.53 46.10 44.17 47.26 49.41 50.48 51.68 51.56 52.36 52.30 52.88 53.20 53.54 53.54 54.15 54.73 54.77 54.35 53.89 53.34 53.45 54.21 54.02 54.15 53.12 52.93 55.04 56.00 54.64 54.95 54.22 52.95 50.86 55.36 55.87 55.41 55.03 54.77
38.49 38.46 41.96 37.45 42.60 40.97 40.85 41.58 41.86 43.08 41.37 42.19 41.56 42.26 43.78 45.37 42.70 42.76 43.60 47.36 49.64 51.10 51.43 52.31 52.35 52.14 51.61 52.18 52.69 53.32 53.93 54.09 53.59 52.79 54.10 54.17 54.32 53.88 54.27 52.71 53.10 54.60 55.47 53.19 51.87 51.18 54.40 55.55 54.85 54.45 53.37 54.01 53.98 54.11
35.42 39.86 38.43 40.83 41.35 41.17 41.21 39.50 41.09 41.46 42.30 41.67 42.33 44.59 45.41 43.95 40.76 39.69 45.53 49.32 50.78 51.91 52.17 51.96 51.74 52.38 52.19 51.93 51.52 52.88 53.71 54.91 54.54 52.56 54.35 54.46 53.17 51.40 52.23 52.60 52.67 53.15 55.77 55.23 55.32 52.06 52.14 53.81 53.81 53.31 53.34 52.68 45.44 50.40
36.99 39.50 42.36 43.66 43.33 43.27 42.22 42.88 43.99 43.01 40.66 40.49 42.05 42.05 42.43 39.10 39.70 45.95 50.33 51.54 52.06 52.89 53.42 53.57 53.44 53.22 52.68 53.10 54.03 54.40 54.91 55.08 54.91 53.91 55.14 55.93 56.01 55.27 54.58 53.35 52.91 55.45 55.89 55.80 54.46 54.10 54.01 54.18 54.20 54.70 54.05 54.69 54.80 54.58
41.05 41.61 39.74 42.28 44.63 45.40 42.73 43.07 42.44 41.74 43.11 44.69 44.70 42.43 41.16 41.42 43.23 49.88 51.30 52.29 52.99 53.08 53.36 53.83 53.84 53.69 53.53 54.06 55.02 54.95 54.72 55.28 55.36 54.72 54.79 55.25 55.86 55.92 56.51 56.59 56.75 46.78 55.15 56.60 56.29 56.27 54.85 54.36 54.98 55.13 54.47 54.37 54.98 55.83
41.84 43.13 44.06 42.45 43.83 44.49 42.71 43.50 43.93 46.11 46.98 45.93 44.37 43.81 45.34 49.13 50.98 51.73 52.10 52.69 52.89 53.08 52.13 51.88 52.88 53.30 53.83 54.74 55.04 55.10 54.34 53.67 52.20 50.87 50.55 51.29 53.08 53.89 54.65 55.38 55.87 56.89 57.01 56.63 44.28 49.04 54.38 54.01 54.65 54.96 55.39 55.09 55.51 56.15
42.83 44.31 43.68 43.49 42.04 41.73 44.98 47.16 47.24 48.81 48.98 48.31 48.22 47.76 48.04 49.60 51.51 52.33 52.44 52.47 51.98 51.72 51.94 52.17 50.92 51.44 51.46 52.33 52.81 53.49 54.97 54.75 54.24 52.77 51.44 52.03 53.33 56.00 56.52 55.95 55.45 56.41 56.83 56.51 55.98 56.18 43.95 47.48 48.35 51.03 50.94 53.15 53.61 53.65
44.94 44.98 43.06 44.21 43.49 46.12 47.38 48.45 48.99 48.95 49.05 48.73 48.81 47.43 47.22 49.09 51.62 52.59 53.01 53.44 53.44 53.28 52.04 52.17 52.83 53.60 53.51 52.98 52.91 52.73 52.37 55.43 55.17 55.23 55.34 55.73 56.17 56.78 56.75 54.71 54.65 55.75 55.93 55.53 55.32 55.10 54.95 54.11 53.96 52.97 52.09 51.90 52.98 51.06
44.33 42.63 42.50 40.77 43.54 47.10 48.30 47.48 46.88 47.14 48.19 47.69 47.62 48.85 48.97 48.12 46.78 50.04 53.11 53.04 52.76 52.36 49.99 51.52 52.26 52.91 54.59 54.44 54.39 54.81 47.17 55.64 56.27 56.72 56.71 56.77 57.08 57.62 56.54 54.19 53.48 53.60 53.73 53.18 53.37 53.76 54.50 53.93 53.63 53.06 52.54 53.34 54.21 53.46
44.16 44.99 44.51 44.70 44.98 45.15 45.82 46.88 47.01 46.80 47.56 47.45 47.71 48.62 48.88 48.47 46.45 51.28 55.12 55.15 54.67 54.34 54.21 54.76 55.36 55.57 55.95 56.10 55.84 56.49 51.01 57.18 54.11 45.00 42.55 41.36 40.19 45.15 52.71 54.40 53.55 53.22 52.54 51.81 51.65 51.88 52.24 53.00 53.48 53.78 54.06 54.24 54.28 54.09

GFSWCAN_sfc_wetblb_066.txt.gz
Wetbulb
51.32 52.56 53.43 54.30 54.56 55.52 55.24 54.80 54.49 54.34 54.01 53.58 52.67 52.41 52.13 50.56 49.98 49.21 48.74 51.00 48.82 48.61 50.03 50.70 50.02 47.84 48.93 50.91 49.57 52.46 52.32 55.25 53.05 49.35 47.31 48.04 46.06 49.56 48.28 51.28 50.41 48.90 48.10 47.11 48.31 46.08 44.35 58.33 57.61 55.00 56.46 59.01 58.95 59.86
50.20 51.36 52.54 53.95 54.59 55.07 55.12 54.66 54.21 54.00 53.93 53.50 52.73 52.61 52.21 50.72 49.98 47.84 46.20 52.22 53.03 48.51 50.10 53.71 53.56 53.78 52.24 51.22 48.93 53.19 53.94 53.63 53.86 52.37 53.06 54.12 49.53 52.49 50.53 45.72 55.61 49.27 54.21 52.74 52.84 52.73 56.99 59.38 58.20 58.90 59.01 58.17 59.14 59.64
48.94 50.49 52.01 53.30 54.17 54.55 54.92 54.54 54.13 53.80 53.61 53.37 52.84 52.63 52.27 51.14 50.30 48.86 48.03 47.74 48.15 49.02 50.53 51.08 50.52 54.05 54.83 54.83 54.95 49.96 55.56 55.90 56.51 57.39 56.39 55.96 50.21 53.61 48.66 50.25 52.97 55.75 57.22 55.63 53.64 54.96 56.44 58.70 60.06 60.14 59.94 59.56 60.22 60.94
49.26 51.02 51.86 52.80 53.81 54.11 54.42 54.34 54.15 53.70 53.37 53.16 53.08 52.46 52.46 51.63 50.68 49.40 48.33 48.26 46.53 48.57 46.33 49.07 56.23 54.49 56.77 55.86 55.23 54.21 54.21 57.65 57.39 56.87 55.12 53.19 50.76 56.75 53.22 53.86 52.90 56.35 56.07 53.38 51.63 53.85 56.62 57.53 58.70 59.74 59.47 60.07 60.04 61.24
49.84 50.25 50.59 51.56 53.13 53.83 54.23 54.08 53.87 53.63 53.30 53.12 52.86 52.71 52.63 51.58 50.84 50.79 49.92 49.47 48.24 45.93 46.75 48.38 52.18 55.26 56.07 55.56 53.80 54.64 56.34 56.24 53.02 51.80 52.37 51.44 55.89 55.14 57.50 55.25 51.90 56.22 54.34 51.84 49.22 56.00 55.91 57.12 59.16 60.42 59.27 59.27 60.48 60.66
49.65 49.18 50.14 51.47 52.39 53.63 54.26 53.92 53.71 53.43 53.30 52.90 52.75 52.57 52.08 51.23 49.58 49.04 44.42 50.79 48.18 49.69 48.33 45.84 53.87 53.47 54.37 54.68 55.25 55.61 55.60 55.06 52.92 51.02 51.25 55.78 56.14 54.98 51.40 49.77 56.89 56.97 56.23 56.87 55.88 58.09 57.45 59.19 59.68 60.55 60.15 60.34 60.71 61.18
48.91 48.84 49.24 51.19 51.89 53.20 53.94 53.68 53.33 52.97 52.69 52.49 52.02 51.60 51.21 50.22 50.64 46.40 45.15 48.46 47.29 51.06 48.42 46.51 49.50 53.79 54.31 54.95 54.91 54.59 55.86 54.81 53.22 53.68 50.94 52.17 54.29 54.31 52.35 48.60 56.05 56.12 56.46 58.34 59.21 59.09 55.70 57.54 56.68 59.27 59.91 60.84 60.13 62.01
47.25 49.17 49.50 50.94 51.92 52.75 53.34 53.18 52.82 52.45 52.32 52.01 51.18 50.74 50.46 50.03 49.32 47.86 50.17 48.00 49.67 49.10 49.66 45.44 49.06 50.35 54.52 51.48 50.85 55.55 51.77 52.22 53.00 52.95 53.46 51.63 54.73 53.86 48.49 53.71 56.10 57.33 57.65 57.31 57.87 59.80 58.65 59.29 60.09 60.10 60.67 61.15 60.38 60.42
46.17 48.41 49.38 50.24 51.85 52.67 53.26 52.92 52.61 52.07 51.81 51.22 50.80 50.26 49.47 47.05 46.05 47.99 51.06 49.70 48.47 47.78 45.17 48.04 46.52 45.55 53.52 53.07 54.38 52.87 53.88 48.20 54.47 49.45 50.45 51.49 50.05 48.02 52.27 53.01 55.41 56.75 56.29 57.15 57.76 56.92 57.99 57.96 58.62 59.60 59.99 59.45 59.65 59.41
45.76 47.52 49.07 50.08 52.22 52.91 52.91 52.68 52.21 51.20 50.63 50.39 47.14 43.25 44.70 47.91 50.57 50.11 49.66 45.85 44.46 46.56 47.97 44.52 51.46 48.90 51.77 51.21 49.99 51.59 52.28 50.72 46.98 51.11 54.25 48.34 48.89 54.78 54.88 55.99 57.22 57.25 57.22 57.82 55.48 54.85 56.29 56.51 58.60 59.01 58.72 60.02 60.30 60.44
45.54 46.63 48.68 49.81 52.41 52.84 52.56 52.03 50.82 49.32 48.23 45.41 41.25 42.70 50.67 51.51 51.92 49.02 45.55 43.97 45.23 41.93 45.66 46.85 49.19 50.04 53.91 49.13 49.48 54.27 51.13 51.75 46.32 49.49 48.85 48.50 47.68 53.32 55.23 56.43 58.82 57.91 57.39 57.80 59.19 60.06 59.39 59.61 58.34 58.65 58.67 59.69 59.46 60.58
45.35 46.02 48.21 49.42 52.23 52.49 51.79 50.40 49.08 49.42 47.91 45.57 45.46 51.62 53.10 50.40 48.14 42.92 41.98 43.54 41.99 41.84 44.83 44.94 48.27 51.44 53.66 56.85 52.21 52.56 49.75 50.64 43.51 53.27 48.47 45.41 52.32 55.36 56.02 56.68 58.07 58.27 59.25 59.05 59.82 59.07 59.34 59.53 59.34 58.90 58.62 58.28 56.36 57.72
45.15 45.72 47.87 49.23 52.35 51.87 50.60 49.15 48.57 48.46 48.06 47.83 47.51 47.45 47.12 45.92 36.42 37.60 36.01 40.27 42.00 45.90 46.53 46.17 46.01 49.80 53.63 54.37 53.41 51.14 46.33 46.32 52.94 47.05 46.19 49.53 54.51 55.70 56.89 58.91 57.78 59.04 59.20 59.00 58.79 59.37 59.42 58.84 59.25 59.01 58.45 59.50 60.21 59.28
45.05 45.41 47.47 48.74 51.96 50.82 49.61 48.65 48.41 48.20 47.46 44.41 43.70 35.88 40.49 38.55 40.78 42.21 42.27 43.34 48.04 48.98 47.27 46.53 47.71 50.26 52.51 50.33 52.87 45.85 49.52 49.82 43.96 41.82 43.88 51.08 54.76 55.58 57.47 58.73 57.81 56.57 57.33 57.86 58.03 58.55 58.04 57.72 58.20 59.17 59.08 59.86 59.44 58.09
45.09 45.52 47.84 48.90 51.06 49.93 48.73 48.77 48.53 48.15 45.07 44.49 44.97 36.92 40.76 45.17 47.98 47.66 47.66 48.81 50.16 51.04 48.49 46.81 49.88 50.67 49.28 48.39 50.23 48.64 44.58 42.09 44.85 46.06 50.59 54.05 55.86 56.28 56.40 57.21 57.08 56.74 56.48 56.47 56.85 57.20 57.16 57.91 58.88 58.59 59.20 59.37 58.44 58.00
45.24 46.17 48.44 50.87 50.58 48.93 48.31 48.07 48.06 48.69 47.81 46.21 45.30 43.47 46.70 44.76 43.99 44.90 46.11 46.92 50.72 50.60 49.85 49.65 48.17 46.69 46.37 48.28 44.54 43.44 41.78 41.04 46.92 51.72 54.29 55.62 55.70 56.67 56.84 56.48 56.56 57.33 57.58 56.63 54.68 56.38 57.16 57.55 58.52 59.39 59.12 59.24 58.02 56.81
45.42 47.04 47.75 50.29 48.91 48.34 48.21 47.46 45.81 41.57 44.24 43.55 44.46 48.14 47.48 46.30 45.30 46.69 49.00 48.34 51.96 49.12 45.13 47.16 44.28 43.96 49.68 44.67 43.43 48.95 46.50 50.33 52.80 54.05 55.64 56.98 56.36 56.72 57.40 55.74 54.77 55.81 56.10 55.51 57.34 57.89 57.89 59.40 59.34 58.07 56.60 57.32 57.34 57.11
45.59 48.20 50.19 48.72 47.66 47.29 46.80 47.60 43.49 42.01 39.48 45.13 44.36 48.16 47.58 47.53 47.72 48.42 50.72 50.98 49.90 48.26 49.28 47.67 51.04 45.96 44.22 42.26 45.83 50.77 53.17 54.77 56.52 55.17 56.09 57.44 57.94 58.15 57.19 56.58 56.62 57.27 57.21 56.54 55.90 56.61 57.97 57.95 57.25 56.90 55.93 55.85 56.58 55.92
47.54 50.18 48.67 48.32 47.51 46.56 43.04 44.11 47.01 39.37 43.16 47.38 48.33 47.45 48.39 49.80 52.02 52.38 52.03 52.77 53.29 55.30 53.82 51.81 47.18 46.30 47.77 52.71 51.90 52.86 53.77 54.28 53.87 55.25 56.31 57.89 58.79 58.20 57.31 57.45 57.43 57.54 57.08 56.24 56.28 56.11 59.17 58.10 58.10 56.54 56.08 56.00 55.37 55.58
48.72 48.60 48.70 49.32 51.02 46.20 42.71 44.46 48.71 44.69 41.87 46.83 48.57 48.62 49.95 50.55 51.97 52.67 52.23 52.30 52.96 52.94 50.56 49.67 49.72 51.68 52.37 53.42 55.47 54.79 55.45 56.32 55.27 53.74 54.51 55.89 57.45 58.19 58.08 57.56 57.29 58.18 57.17 57.11 57.01 50.06 57.82 57.43 56.37 56.24 57.08 56.20 55.04 53.74
48.23 47.95 49.54 50.53 49.11 49.09 46.48 44.70 44.68 44.27 48.03 47.09 49.29 49.41 47.44 50.69 50.53 50.34 50.08 52.25 52.27 51.60 49.27 51.79 52.23 53.51 55.81 56.48 57.50 57.24 57.01 57.99 56.94 56.92 55.64 55.23 57.18 57.13 57.83 58.34 58.63 57.67 56.25 55.32 55.33 55.88 52.04 57.46 59.16 59.40 57.22 55.91 56.15 55.08
46.99 48.81 46.92 47.58 44.95 43.72 41.70 47.44 45.17 46.92 46.00 46.58 46.07 46.76 45.97 47.88 48.67 49.20 51.10 51.05 50.22 51.38 53.42 53.64 54.53 55.31 55.64 56.17 56.67 57.43 57.34 57.19 57.32 54.35 46.92 50.37 53.80 54.64 55.54 56.65 56.70 56.00 55.97 55.50 55.48 56.35 57.27 57.50 56.43 58.70 57.95 56.76 53.40 55.66
48.20 47.56 45.60 44.15 39.21 40.98 40.86 48.41 43.11 43.69 40.43 42.24 43.22 43.53 45.81 47.91 50.26 52.83 49.68 51.59 51.92 54.66 55.40 55.44 56.20 57.28 56.95 57.61 57.28 57.06 57.83 56.89 56.40 57.89 57.35 56.19 56.62 56.32 56.07 56.47 56.62 55.47 55.10 55.92 57.14 58.09 58.01 52.01 53.34 56.26 56.85 56.29 55.86 55.34
48.55 43.38 39.36 37.80 40.51 37.88 43.20 43.26 44.58 44.81 45.09 44.78 45.59 44.51 46.55 48.75 52.49 49.22 46.70 49.37 52.95 55.00 54.94 55.67 55.94 55.39 56.17 56.65 55.54 56.74 56.99 57.54 56.48 56.85 57.25 55.60 54.86 55.50 56.56 56.72 57.37 56.95 54.81 56.84 57.47 56.70 58.32 55.10 51.46 55.15 55.64 54.16 53.58 53.71
37.40 37.07 38.44 35.33 42.66 43.15 42.40 43.57 45.17 45.37 43.38 45.47 44.69 45.18 46.67 50.49 46.11 45.79 46.17 50.12 52.68 53.67 54.18 55.33 55.59 55.32 53.02 54.53 55.64 56.81 58.17 56.50 55.49 55.01 57.61 57.03 57.66 56.61 56.49 57.66 56.69 56.07 57.46 56.85 55.61 56.47 54.43 54.95 53.92 53.60 53.46 54.98 54.72 54.31
34.85 41.31 39.91 43.74 44.85 43.91 44.66 42.60 43.91 44.21 44.91 44.11 45.24 48.42 50.57 47.10 43.44 42.48 48.48 52.39 53.77 55.22 55.70 55.49 55.34 54.84 54.86 55.32 54.00 55.66 56.60 58.98 57.56 56.56 57.41 58.63 55.99 55.72 53.43 53.54 53.98 54.56 56.74 57.01 54.80 53.03 53.92 54.91 54.16 54.91 54.59 53.96 46.42 53.69
39.54 42.39 45.88 48.99 48.12 47.83 46.38 47.78 48.57 46.29 43.91 43.03 45.49 45.46 46.20 41.20 42.21 48.13 53.94 55.79 54.97 55.72 56.76 56.78 56.09 54.86 54.03 54.62 57.36 58.48 59.21 59.31 58.44 57.73 59.29 59.87 59.97 59.13 57.07 55.99 54.50 56.31 58.59 57.53 57.17 55.72 53.98 53.75 54.07 54.27 54.21 54.90 54.59 54.24
45.24 46.78 44.25 47.73 47.96 49.27 45.72 45.70 45.11 44.70 46.13 49.33 49.82 43.47 42.95 43.50 45.74 52.46 54.30 56.23 56.74 57.83 57.78 57.65 57.40 56.25 55.65 56.34 58.29 58.52 57.22 58.37 58.17 57.79 57.61 57.77 58.29 58.49 58.72 58.51 59.15 46.70 57.78 58.79 57.96 57.91 57.45 56.93 55.94 54.97 54.26 54.45 55.13 55.70
45.92 49.08 49.45 46.34 47.25 47.27 47.00 46.22 46.40 48.62 50.87 50.79 47.36 46.65 47.81 52.14 54.48 54.57 55.55 56.94 58.15 56.41 54.44 54.48 54.68 55.43 56.04 57.78 57.79 58.10 57.36 56.78 54.46 52.09 51.97 52.64 53.45 55.74 58.26 58.26 58.41 57.50 57.86 58.82 46.99 51.84 57.29 57.19 56.62 56.36 56.15 55.86 55.99 56.42
46.03 50.09 47.14 46.23 44.63 43.88 47.28 50.20 49.16 51.25 52.11 51.88 52.90 51.64 51.71 52.54 54.29 57.05 57.12 56.96 55.71 54.51 54.79 55.46 55.57 54.73 54.35 55.52 55.19 55.55 56.94 57.10 56.56 54.82 52.84 53.02 54.22 56.70 58.59 57.50 56.83 58.02 58.96 58.55 58.15 58.11 45.65 49.95 53.43 55.32 54.26 55.48 55.25 55.02
49.72 49.13 46.88 46.66 45.79 48.75 50.54 52.52 52.85 53.41 53.16 51.84 52.87 51.30 50.67 52.79 54.44 56.47 56.47 56.62 56.47 56.46 56.31 55.13 55.57 56.32 55.85 56.06 56.28 54.93 53.30 56.80 57.56 57.74 58.00 58.05 58.16 58.38 58.96 59.15 58.22 57.28 57.40 57.10 56.63 56.36 56.23 55.71 56.31 56.09 55.42 55.20 55.33 52.38
48.27 46.59 45.72 44.65 47.10 50.62 51.55 50.22 50.98 50.72 51.13 50.70 50.06 50.78 49.90 48.90 47.22 52.23 56.07 57.08 56.24 55.56 51.89 54.47 55.44 55.35 57.91 58.82 59.36 58.63 47.75 58.21 58.39 58.96 58.95 59.04 59.22 59.57 59.59 59.51 59.49 57.70 56.76 56.41 55.96 55.25 54.36 53.76 53.99 54.36 54.82 55.41 55.88 55.82
48.00 48.49 48.56 47.34 44.61 46.12 49.06 48.43 47.84 47.85 49.42 48.59 49.32 50.42 51.17 50.72 48.86 54.02 58.35 58.98 57.48 56.95 57.12 57.70 58.26 58.35 58.56 58.74 58.90 58.70 52.36 59.26 55.79 46.67 44.91 42.19 39.91 44.97 52.94 56.30 57.40 57.97 57.39 56.43 55.98 55.62 54.79 54.52 54.29 54.03 53.99 54.20 54.53 54.97

GFSWCAN_sfc_wetblb_069.txt.gz
Wetbulb
50.47 51.00 51.87 53.03 54.64 54.50 54.82 55.57 55.39 55.09 54.80 54.49 53.60 53.01 52.64 52.05 50.98 50.85 52.09 55.42 49.77 48.34 51.40 52.74 52.51 50.95 51.37 53.07 50.66 52.62 53.65 54.82 52.67 50.01 50.34 49.14 48.21 48.68 50.37 51.66 50.64 49.93 49.51 48.38 49.05 46.90 44.50 60.13 58.56 56.01 57.83 60.92 60.88 61.41
48.83 49.55 50.95 52.28 53.65 54.48 54.78 55.35 55.05 54.75 54.52 54.52 54.03 53.36 52.78 52.13 51.05 49.72 49.69 54.88 54.50 49.67 50.59 54.07 53.81 54.39 53.97 53.48 51.29 54.44 56.02 54.52 54.77 52.38 52.33 52.94 49.96 52.49 50.16 46.82 56.22 47.86 52.20 52.52 54.18 53.20 59.52 60.65 59.16 60.46 60.54 59.80 60.09 60.64
48.92 49.18 50.93 52.28 53.30 54.34 54.95 55.07 54.89 54.65 54.36 54.31 54.09 53.17 53.02 52.44 51.29 49.78 51.16 51.70 49.42 47.38 50.40 52.22 51.67 55.58 56.84 56.19 56.02 50.46 57.70 57.24 56.54 58.10 54.74 53.13 50.79 51.83 48.26 49.76 51.47 56.32 59.13 52.02 52.79 56.86 58.26 59.66 60.51 61.15 60.88 60.44 61.00 61.61
48.82 50.08 50.87 51.35 52.47 54.08 54.24 54.89 54.60 54.33 54.10 54.07 53.62 53.49 53.22 52.52 51.53 50.18 51.48 52.75 49.37 47.44 46.27 50.73 56.48 54.80 57.44 57.78 56.59 56.38 55.20 57.85 58.35 56.14 53.45 52.64 50.51 54.74 51.21 53.10 53.70 55.39 54.03 55.10 55.02 56.02 57.46 58.82 59.88 60.23 60.35 61.14 61.25 61.99
49.41 50.12 50.21 50.97 51.91 53.48 54.24 54.55 54.42 54.37 54.06 53.71 53.52 53.39 53.06 52.43 51.56 51.03 53.15 53.22 52.44 46.40 45.73 49.35 53.87 54.64 56.39 57.45 56.13 56.52 56.15 56.73 54.24 52.46 52.00 51.26 54.09 54.38 54.68 53.03 52.02 55.72 55.59 52.66 50.26 58.03 57.22 58.91 60.25 60.60 59.88 60.34 61.46 61.30
48.96 49.81 49.42 50.33 51.45 52.70 54.12 54.35 54.12 54.19 53.94 53.51 53.32 53.07 52.78 52.14 50.92 49.61 48.42 54.09 53.45 49.93 47.01 46.90 56.04 55.53 55.82 56.32 56.03 55.94 56.44 55.71 53.71 52.00 51.97 52.94 56.15 54.96 49.89 49.62 56.15 57.99 55.75 58.06 56.78 58.87 59.17 59.37 60.00 59.89 59.13 60.51 61.81 61.88
47.64 49.42 49.32 49.70 51.22 52.17 53.51 53.95 53.94 53.69 53.42 52.87 52.40 52.09 51.57 51.28 51.61 49.69 48.38 50.48 47.83 51.50 47.47 46.65 49.83 54.89 55.32 55.49 55.66 55.25 56.44 53.76 53.63 52.01 51.29 51.52 53.59 53.48 51.19 48.99 55.56 57.53 58.53 58.52 59.25 57.92 55.59 58.04 57.50 59.56 60.16 60.65 60.92 62.85
46.67 47.83 49.29 49.65 51.05 51.94 52.73 53.59 53.32 52.93 52.72 52.44 51.81 51.13 50.85 50.69 50.10 48.88 52.84 50.24 51.44 50.70 49.81 46.24 49.35 52.46 55.21 51.41 51.03 55.38 53.05 53.64 53.02 51.54 54.23 51.90 53.97 53.85 49.23 55.54 57.38 56.90 57.78 56.94 57.07 58.38 57.13 58.48 59.32 59.46 60.73 61.27 60.69 60.92
46.35 46.72 48.51 49.61 50.28 51.92 52.67 53.30 53.12 52.57 52.22 51.72 51.08 50.80 50.03 47.65 49.07 51.76 51.32 50.67 51.35 50.26 46.19 47.02 47.31 47.54 55.17 52.79 54.56 54.42 53.57 48.62 54.32 49.74 50.33 52.70 50.74 48.93 52.86 54.57 56.21 57.17 56.02 56.00 57.74 57.10 57.32 57.38 58.29 59.22 59.74 59.57 60.02 60.39
46.13 46.22 47.62 49.18 50.30 52.12 52.81 53.26 52.49 51.67 50.99 50.77 48.47 44.77 47.52 52.05 51.67 52.70 51.30 49.14 47.77 48.17 47.78 45.11 51.99 50.43 52.82 51.86 51.44 51.47 51.94 50.70 47.94 49.78 54.95 49.98 48.10 56.45 56.30 57.04 58.65 57.57 57.91 57.64 55.72 54.84 56.30 56.65 57.72 58.39 59.81 60.50 60.61 59.71
45.96 45.90 46.79 48.71 50.14 52.41 53.02 52.38 51.14 49.90 49.19 45.84 42.39 42.32 53.49 51.55 50.78 49.94 46.21 45.69 47.60 45.03 46.25 47.15 49.17 49.85 54.48 50.34 49.75 53.62 51.82 51.78 46.82 50.53 48.98 49.51 48.96 54.39 57.54 56.51 59.38 58.26 58.32 58.32 58.90 59.20 59.13 58.91 58.28 58.38 59.89 59.28 58.29 58.63
45.65 45.68 46.10 48.24 49.79 52.42 52.42 50.83 49.51 51.04 47.09 46.23 46.41 51.49 51.97 49.32 47.10 43.85 43.40 46.44 45.36 43.55 45.90 45.18 47.58 52.28 54.49 57.48 52.50 52.71 49.56 51.76 45.59 55.36 50.40 46.47 54.47 57.82 57.56 57.78 58.94 58.81 59.90 59.08 59.87 59.22 58.87 58.52 59.00 58.73 59.11 59.19 58.29 58.17
45.65 45.48 45.84 47.59 49.43 52.11 51.21 49.91 49.02 49.83 48.81 48.26 47.18 45.75 46.42 46.37 39.59 39.26 38.59 43.06 43.66 47.61 47.99 46.19 47.40 52.00 55.93 54.92 52.06 51.43 46.63 47.33 54.91 49.13 46.89 52.50 56.78 58.01 58.54 59.05 58.95 60.73 60.13 59.73 59.18 59.15 58.73 58.04 58.96 57.89 58.19 59.62 60.07 60.19
45.35 45.32 45.57 47.06 48.97 51.81 50.65 49.37 49.44 49.12 49.20 45.54 43.52 39.92 42.08 41.51 44.11 45.08 45.65 46.72 50.06 51.18 49.25 46.95 48.15 50.66 53.66 51.02 51.80 46.71 49.60 52.64 45.58 43.91 45.61 53.27 56.33 57.64 58.71 60.16 59.51 58.70 58.72 58.57 58.63 58.67 57.76 57.43 57.78 58.38 58.46 59.72 59.05 58.72
45.28 45.31 45.50 47.82 49.86 51.22 49.94 49.01 48.94 48.90 46.48 43.51 45.90 39.29 43.21 47.88 48.97 50.67 50.05 49.48 52.53 52.09 50.55 47.12 48.43 51.92 50.86 49.28 50.04 48.58 45.66 43.03 45.77 46.66 51.20 56.54 58.19 58.69 58.56 59.45 59.19 58.56 58.71 59.04 58.82 58.76 58.40 58.99 59.08 59.34 59.38 59.78 59.89 59.86
45.58 44.74 46.70 49.25 51.42 50.05 49.08 48.48 47.39 48.44 46.29 47.48 46.79 44.60 47.33 47.32 47.16 47.69 49.03 49.60 50.95 50.88 52.02 49.62 47.96 47.22 46.77 47.84 45.61 44.18 42.88 42.53 48.26 52.02 55.18 58.10 58.48 58.48 58.65 59.22 59.09 58.32 57.61 58.34 58.73 57.56 58.62 58.44 58.42 59.41 59.50 59.78 59.57 58.63
44.87 45.98 48.79 50.91 49.77 48.85 48.26 47.35 46.10 43.61 44.51 44.70 45.89 49.85 48.21 47.60 47.76 47.79 49.49 47.15 51.50 50.16 47.04 47.27 44.43 44.63 48.70 44.75 44.47 47.80 46.87 49.92 52.97 54.23 56.71 59.10 58.65 58.81 58.62 58.06 56.61 57.10 57.99 57.94 57.87 58.35 58.96 59.84 59.40 59.15 57.56 57.77 58.09 57.81
45.28 49.15 50.82 48.97 48.20 47.87 46.83 47.14 43.80 42.80 40.59 45.96 45.22 46.77 48.57 50.89 49.00 49.55 48.88 51.05 50.85 49.50 49.91 46.51 50.98 45.65 44.49 42.66 45.44 50.27 53.93 55.75 56.47 56.38 57.39 59.12 59.67 59.42 58.91 57.58 57.58 58.31 58.75 57.58 57.54 57.76 56.70 58.06 58.20 58.64 58.80 58.79 57.86 57.71
48.16 49.83 49.02 48.81 48.47 45.93 42.41 43.33 46.33 41.73 45.06 47.98 48.61 49.31 52.10 50.84 52.13 52.36 52.85 54.79 53.47 54.20 51.39 51.08 47.39 45.38 46.58 52.45 50.67 54.02 53.89 55.09 55.19 56.56 58.31 59.69 59.83 59.14 58.95 58.58 58.20 58.32 58.43 58.32 57.91 56.59 57.71 59.52 59.35 59.59 58.78 57.48 55.99 55.34
49.33 49.42 49.18 49.59 50.02 47.15 44.21 44.65 49.32 45.99 45.31 46.97 49.62 50.38 50.53 50.83 53.05 53.52 54.02 53.75 52.62 52.05 50.27 48.25 47.77 51.44 51.13 54.66 55.64 55.96 56.80 58.10 57.32 55.36 55.88 57.20 58.66 59.31 59.41 58.93 57.86 59.89 58.48 59.12 58.36 53.69 57.28 59.20 59.62 59.53 58.34 55.50 54.86 54.32
48.24 48.05 49.19 49.58 50.64 51.15 48.71 46.06 46.51 47.50 50.96 48.88 51.22 50.54 49.96 52.64 52.27 51.62 51.40 53.81 51.26 48.93 49.41 52.61 54.09 56.29 58.14 58.01 58.56 58.60 58.55 58.55 57.16 56.48 56.45 57.28 58.21 58.99 58.36 59.16 59.50 58.64 57.25 56.78 56.19 56.22 54.30 57.08 60.14 60.13 59.09 56.19 55.63 55.31
47.07 48.68 47.59 48.79 46.58 46.53 48.89 52.12 49.80 51.53 48.46 49.84 49.22 49.58 49.03 48.07 50.02 50.70 54.00 51.71 52.02 53.83 54.33 54.90 55.94 56.82 57.16 57.73 58.23 59.17 59.28 59.26 58.86 55.46 47.31 51.21 54.65 54.91 55.76 56.75 56.56 55.90 56.01 55.72 56.32 56.18 56.64 60.18 60.56 60.50 59.52 57.13 53.58 54.99
48.62 48.10 45.72 44.75 42.39 39.78 41.08 51.77 43.79 46.98 43.27 44.48 45.56 42.14 44.50 47.81 50.94 54.22 49.64 51.57 53.43 56.90 56.96 57.25 58.17 59.33 57.92 58.83 58.45 58.15 58.96 57.84 56.48 56.60 56.83 56.93 56.99 57.38 57.27 57.10 57.22 55.27 54.89 55.88 56.96 56.85 57.89 53.04 56.24 57.21 57.32 57.24 57.01 54.92
49.02 44.03 41.05 40.56 39.23 38.30 44.42 43.26 45.10 43.73 44.80 42.30 38.80 39.82 45.81 48.59 50.83 47.42 46.02 50.92 54.23 56.39 56.35 57.60 57.10 56.12 56.53 57.21 56.10 56.86 58.28 58.38 56.47 56.48 57.29 56.80 55.88 55.86 56.86 55.91 55.92 56.22 56.79 57.49 55.76 58.51 59.59 59.15 52.67 57.24 57.09 55.63 55.47 55.19
38.41 38.54 38.44 35.34 40.33 40.32 40.87 40.21 39.40 40.12 39.01 39.48 41.29 44.75 46.79 50.32 46.28 46.62 47.31 50.94 54.38 53.82 55.25 56.34 55.88 55.19 54.20 55.42 56.56 56.93 59.01 56.77 55.63 55.51 56.35 56.53 56.37 56.62 57.61 57.74 57.51 58.13 58.71 57.16 57.51 56.98 58.48 58.18 57.07 55.14 55.31 55.93 54.16 54.24
32.24 36.75 33.14 36.17 40.95 40.33 41.49 41.52 43.60 44.92 46.15 45.51 46.35 49.24 50.48 47.82 45.17 44.64 49.30 53.46 54.35 55.17 56.43 55.89 56.73 53.83 54.26 56.89 54.94 55.04 56.45 58.80 57.94 55.75 56.40 57.52 57.45 55.06 54.53 55.32 54.35 55.29 59.77 58.41 57.09 56.51 55.36 55.33 54.98 54.73 54.08 53.46 48.01 53.72
39.48 43.41 46.97 51.22 50.10 49.27 47.44 48.12 48.89 47.30 45.97 45.63 47.58 47.38 46.98 42.81 43.78 49.59 55.18 56.63 55.61 57.31 58.26 58.69 56.40 54.70 54.30 54.92 56.46 57.88 59.03 59.43 59.47 59.07 58.34 58.07 57.53 58.20 57.01 56.47 54.64 56.45 57.87 57.96 56.67 56.24 53.86 54.05 53.85 53.62 53.28 54.69 56.33 54.39
48.59 49.96 46.23 48.82 48.31 49.48 46.31 46.75 46.45 46.14 47.65 51.38 50.01 44.76 44.15 45.03 46.43 53.94 55.87 57.83 57.73 58.43 58.30 57.34 58.13 57.18 56.51 56.88 56.96 57.19 57.00 57.90 58.20 58.29 58.50 58.22 58.81 58.17 58.93 58.75 59.21 47.25 57.07 58.28 56.85 56.66 55.12 56.21 55.80 55.32 55.89 55.94 55.53 56.76
48.99 50.19 50.76 48.14 49.28 49.23 48.78 48.48 48.45 51.10 52.46 49.79 48.34 47.21 48.00 52.68 55.05 55.25 56.17 57.13 59.04 57.46 54.74 53.27 54.58 57.01 57.71 56.60 56.90 57.31 56.56 55.84 53.39 52.67 52.92 51.68 52.10 54.10 57.31 58.36 58.21 58.26 59.37 59.17 48.13 51.49 57.35 56.67 56.43 56.05 56.50 56.17 56.80 56.78
48.53 52.23 49.05 48.29 47.06 46.53 49.64 52.11 51.08 52.99 53.55 53.40 53.13 52.65 52.89 53.92 55.54 58.52 57.63 57.13 54.40 53.49 54.90 55.08 55.58 55.68 54.50 54.19 55.79 56.05 57.32 57.62 56.86 54.22 52.04 52.64 53.62 57.10 57.14 56.40 57.34 57.75 57.65 57.17 56.91 57.01 45.68 51.01 54.31 56.96 55.87 56.23 56.04 55.79
51.71 51.08 49.51 49.43 48.47 50.59 51.96 53.79 53.93 54.28 54.55 53.56 53.75 51.09 50.34 52.44 53.86 55.92 56.11 56.60 56.54 56.56 55.05 53.88 55.26 56.59 56.41 54.13 53.71 52.36 52.21 54.84 56.20 58.16 58.08 58.00 58.26 57.65 58.60 57.16 58.74 58.58 58.80 56.90 56.36 56.11 55.98 54.70 55.34 54.42 54.75 54.96 55.21 52.06
50.30 49.43 49.66 46.84 47.07 50.90 52.60 51.64 51.61 51.37 51.77 51.15 51.23 53.00 52.15 50.66 50.63 54.73 58.44 57.32 54.41 53.78 50.94 54.44 55.19 55.04 57.07 57.20 57.57 58.10 48.25 58.84 58.53 58.83 58.54 57.92 57.91 58.31 58.75 57.80 57.92 57.46 55.65 56.32 56.60 56.15 55.48 55.02 54.52 54.38 54.59 54.56 54.55 54.27
50.24 50.95 49.38 48.83 49.96 48.69 51.49 50.32 48.49 47.84 50.08 50.06 51.07 51.69 50.23 50.89 48.82 53.96 58.19 59.33 58.20 57.14 56.21 57.22 57.24 57.05 58.19 58.83 58.08 57.79 51.71 58.38 55.49 46.73 46.27 43.60 40.27 45.54 54.81 57.98 58.07 57.66 56.30 56.29 56.16 56.42 56.23 55.40 54.85 55.55 54.88 54.82 55.02 54.95

GFSWCAN_sfc_wetblb_072.txt.gz
Wetbulb
50.51 50.83 51.29 51.83 53.01 54.24 54.11 54.34 55.52 55.84 55.58 55.23 54.77 54.00 52.82 52.80 52.03 50.98 50.87 55.39 50.50 46.14 47.91 50.25 51.93 50.78 51.36 51.73 49.01 52.43 52.49 55.11 53.81 50.64 45.43 46.62 46.97 50.82 49.94 48.44 50.25 49.30 47.55 48.06 49.90 46.92 44.47 59.50 59.48 55.63 58.98 61.00 60.28 60.96
50.10 49.66 49.90 51.01 52.36 53.43 54.53 54.44 55.32 55.34 55.08 55.03 54.83 53.91 53.49 52.96 52.09 50.62 49.02 54.91 53.87 48.96 48.67 52.43 51.85 52.68 52.13 52.70 51.02 52.13 52.64 50.85 55.26 51.55 52.91 49.33 47.24 51.36 49.83 43.16 52.81 47.90 47.54 50.62 53.93 53.42 60.16 59.57 58.63 60.37 61.28 59.83 59.82 60.27
49.97 49.50 49.74 51.55 52.66 53.49 54.41 54.61 55.24 55.04 54.92 54.81 54.83 54.02 53.85 53.58 52.24 50.37 50.45 52.62 52.11 47.84 48.29 49.94 50.02 54.65 55.33 54.03 54.88 49.80 54.94 54.55 56.78 58.38 53.61 53.78 48.91 50.07 47.30 49.03 51.24 54.65 54.81 53.57 53.48 57.64 58.28 58.65 59.67 60.19 60.40 59.69 60.73 61.20
49.82 49.42 50.62 51.16 51.56 52.76 54.23 54.65 55.08 54.98 54.78 54.63 54.64 54.36 53.89 53.31 52.16 50.75 49.84 53.67 52.14 47.80 44.12 49.44 55.42 54.75 56.90 56.58 56.60 56.21 55.30 56.42 57.11 57.17 53.08 51.56 50.05 51.48 48.84 50.07 52.23 51.64 50.71 46.57 51.96 57.48 57.69 59.05 59.61 59.91 60.42 61.79 60.99 61.15
49.91 49.64 50.30 50.33 51.25 52.29 54.14 54.25 54.52 54.58 54.62 54.39 54.22 53.83 53.58 53.21 52.16 51.31 52.34 53.38 54.67 47.52 43.20 45.28 49.32 53.48 56.27 55.76 56.30 56.55 55.93 56.14 54.58 52.65 51.51 49.41 52.73 53.46 53.97 52.99 51.98 52.09 49.44 50.31 50.03 56.83 54.87 58.54 60.02 59.70 59.18 59.39 60.41 59.75
49.22 49.71 50.14 49.57 50.82 51.66 53.50 54.27 54.40 54.40 54.42 54.11 53.74 53.57 53.09 52.64 51.29 50.86 46.83 54.69 55.51 52.95 44.84 43.80 52.91 53.64 56.59 55.41 55.51 55.52 55.65 55.66 55.02 52.25 51.76 53.22 56.95 53.57 49.11 48.13 55.20 56.11 57.18 55.54 54.68 55.07 59.47 59.08 60.15 60.27 58.66 58.58 59.89 60.07
48.18 48.84 49.88 49.59 50.18 51.66 52.58 53.36 54.01 54.07 53.82 53.23 52.86 52.50 52.44 52.07 50.80 47.62 48.16 51.39 50.10 52.54 46.37 46.04 47.99 53.39 56.38 54.79 53.79 53.86 56.73 54.61 53.07 51.65 51.21 51.58 51.63 53.37 50.74 46.71 54.65 56.02 58.05 58.32 59.52 59.45 56.99 57.65 56.14 58.24 59.03 59.65 59.66 61.28
47.55 47.81 48.93 49.52 49.91 51.32 52.15 52.74 53.60 53.39 53.26 52.79 52.06 51.58 51.10 51.17 49.69 47.46 52.64 51.53 51.83 50.40 49.50 43.61 47.50 51.13 55.50 50.76 50.16 54.11 52.22 53.78 53.19 51.18 51.59 50.90 52.12 52.36 48.96 53.91 57.15 57.94 58.14 57.25 56.90 57.39 56.21 57.90 58.98 58.89 59.58 59.37 58.82 60.05
46.99 46.90 47.50 49.14 49.90 50.42 52.10 52.77 53.39 52.93 52.38 51.92 51.34 50.98 50.60 48.03 48.58 51.70 53.64 51.66 51.67 49.97 46.22 45.77 43.30 44.46 54.32 51.33 52.83 53.93 53.84 48.69 52.89 49.94 49.91 51.54 49.06 47.93 53.69 54.97 56.72 57.26 56.70 56.17 57.41 56.43 56.46 57.11 57.04 58.54 59.47 60.62 59.96 60.08
46.82 46.66 46.83 48.23 49.65 50.51 52.28 53.21 53.01 51.76 50.97 50.76 48.52 43.95 45.57 52.14 52.47 51.90 50.48 47.83 47.80 49.09 48.47 43.13 48.53 45.76 50.90 51.23 51.42 52.13 51.26 48.83 47.44 50.76 51.74 48.69 48.50 55.94 56.50 58.02 58.37 57.63 56.91 56.07 54.41 54.34 56.45 54.22 56.99 57.66 59.11 60.09 60.16 59.05
46.63 46.59 46.49 47.36 49.22 50.43 52.51 52.83 51.48 50.07 49.60 46.29 43.62 42.32 52.25 51.55 51.11 48.30 45.78 45.59 47.37 45.07 48.10 46.25 46.14 44.61 52.72 49.62 49.81 52.33 50.73 50.50 46.24 49.20 49.05 48.01 48.84 53.50 57.50 57.72 58.01 56.50 56.81 56.36 57.19 57.40 58.16 58.89 58.45 58.77 58.24 58.39 58.02 57.12
46.35 46.20 46.10 46.68 48.92 50.35 52.66 51.07 49.70 49.47 47.05 47.36 47.47 49.46 52.85 48.24 47.26 44.38 43.45 46.63 46.20 44.87 49.10 44.91 45.49 48.17 52.36 56.07 52.69 52.74 49.36 51.35 45.16 53.95 49.48 46.41 54.23 57.34 57.16 57.36 57.63 57.33 57.84 57.73 58.30 59.21 59.02 59.34 59.54 58.91 59.42 58.56 57.92 57.65
46.36 45.85 45.82 46.20 48.14 49.85 51.41 50.15 49.92 50.62 49.19 48.57 47.68 45.88 46.07 46.13 39.04 40.33 39.40 43.57 44.67 48.75 48.99 46.99 44.79 48.39 53.26 54.86 52.90 50.14 46.93 46.92 53.19 48.75 46.81 52.37 57.79 57.99 58.06 57.56 57.63 58.95 58.78 58.33 58.06 59.02 59.19 58.83 59.26 59.39 58.49 58.48 59.97 57.98
46.64 45.77 45.69 45.91 47.05 49.56 50.97 50.11 50.28 50.06 49.32 44.94 43.37 37.40 42.32 41.66 44.16 45.51 46.11 47.33 50.48 50.77 50.12 48.73 45.98 48.79 51.18 50.37 50.98 47.25 50.07 50.97 46.01 43.79 45.84 54.88 57.68 58.04 57.71 57.54 57.30 57.33 58.04 58.11 58.38 58.72 58.39 58.88 57.64 59.20 58.96 58.91 59.24 59.15
46.29 45.58 45.47 45.93 47.08 49.89 50.88 50.50 49.62 50.90 47.42 44.42 46.65 38.87 43.34 47.97 49.57 49.56 51.08 50.86 51.94 52.93 51.80 47.93 46.67 47.86 49.30 47.52 50.02 46.60 46.50 44.09 45.70 45.92 53.19 56.27 58.96 58.42 57.86 58.66 58.25 57.13 57.79 57.73 58.25 58.10 58.42 57.52 56.51 56.54 59.80 59.75 59.52 58.27
45.74 45.02 45.11 48.23 49.86 51.15 50.13 48.65 49.00 49.40 46.62 45.57 47.08 45.52 48.17 47.04 47.25 48.89 50.25 50.23 53.60 52.95 51.58 48.74 45.17 44.96 44.96 48.12 46.06 44.74 43.69 42.16 46.88 53.84 56.71 58.42 59.53 59.39 59.02 58.57 58.57 58.63 58.36 58.42 57.93 58.57 58.55 58.95 56.90 58.70 60.10 59.54 57.30 58.22
45.14 44.75 47.04 49.30 51.07 49.16 49.12 47.52 46.54 43.27 43.56 43.41 46.28 50.17 49.94 48.24 48.23 50.05 50.81 50.79 53.80 50.68 46.94 47.09 42.47 43.31 48.19 45.66 44.64 48.12 45.41 50.41 53.04 55.22 57.96 61.22 60.47 59.30 59.42 58.57 56.45 57.11 56.79 56.51 57.07 57.61 57.87 59.18 59.25 59.02 57.64 58.61 58.21 57.82
45.10 49.17 50.47 50.03 48.37 48.17 47.27 47.16 44.06 42.46 41.30 45.61 46.18 48.36 49.87 50.93 50.28 50.56 52.14 52.63 50.93 49.67 49.61 46.61 49.76 44.68 43.57 43.10 44.71 49.96 52.79 54.02 56.10 57.20 58.54 60.21 60.96 59.90 58.66 58.44 57.66 57.32 57.43 57.53 57.74 57.76 57.88 56.92 56.94 57.78 58.92 59.34 57.70 57.38
47.60 51.17 49.53 49.41 48.68 46.86 43.06 43.44 45.97 41.43 44.85 47.48 48.61 49.79 51.02 51.09 52.91 52.83 52.83 54.07 53.39 53.98 50.88 49.25 46.28 46.15 46.83 50.15 50.92 52.82 53.35 54.44 54.65 56.04 59.07 60.72 60.86 58.60 58.78 59.77 58.63 58.20 58.88 58.34 58.64 56.87 57.00 58.83 58.57 59.30 58.54 58.00 56.09 56.21
49.01 49.58 49.47 49.66 50.25 46.50 42.91 43.30 48.96 45.93 45.05 47.41 49.07 48.23 49.50 48.90 51.55 51.69 51.63 49.71 49.71 51.52 48.19 47.99 47.70 50.73 51.95 52.98 52.88 55.29 56.40 57.51 55.81 55.32 56.26 57.73 58.92 59.75 59.10 59.02 56.98 58.74 58.75 60.31 59.07 53.68 57.77 57.80 59.08 59.36 59.19 56.92 55.78 55.41
48.15 48.98 49.43 49.00 47.98 48.33 47.51 46.49 45.15 47.18 47.58 47.49 49.42 49.85 48.99 50.94 51.55 50.60 49.18 53.05 50.49 49.15 47.90 51.02 52.85 52.92 58.15 60.35 58.74 58.33 59.05 59.60 56.36 56.82 54.96 53.44 58.59 58.18 58.78 57.84 59.96 58.35 57.02 56.21 56.35 54.68 52.82 56.63 59.22 59.25 59.18 57.36 57.12 56.87
47.91 49.40 47.52 48.83 45.87 47.81 47.66 51.23 48.92 50.38 48.17 49.63 50.13 50.63 48.46 47.84 48.90 50.17 53.08 49.73 50.86 50.62 50.41 50.44 52.11 58.04 59.51 57.94 58.56 59.90 60.02 59.38 58.83 55.06 50.48 52.26 54.44 55.21 55.90 57.28 57.56 56.98 56.59 56.38 55.68 55.78 56.35 58.06 59.60 60.09 59.01 58.66 53.85 56.86
48.67 47.87 46.45 47.62 44.79 42.07 43.00 52.13 46.10 48.07 44.02 45.70 48.57 45.66 46.76 46.91 50.12 50.97 48.06 50.99 52.05 54.03 49.34 47.92 51.78 60.22 58.36 58.76 58.66 58.64 58.52 57.70 56.40 56.46 57.47 56.24 57.27 57.27 57.31 56.90 57.06 55.96 54.98 55.69 57.55 56.54 56.60 51.70 56.02 57.35 58.66 58.21 56.95 56.01
48.59 46.02 43.62 42.80 43.42 39.23 46.30 44.64 47.29 46.47 46.14 43.91 42.26 41.98 44.72 46.87 49.03 48.76 45.43 48.82 51.01 56.62 56.10 57.27 57.59 55.88 56.44 57.60 56.17 57.46 59.21 57.97 56.42 56.44 57.53 56.25 54.88 55.90 57.19 56.75 56.47 57.40 55.98 55.25 55.09 55.26 58.19 58.69 53.29 57.66 57.19 56.67 55.79 53.90
38.92 39.53 41.09 37.95 42.12 40.07 40.74 41.55 41.71 42.44 39.91 41.71 41.50 43.27 45.21 47.20 43.17 44.67 45.73 48.29 51.52 53.82 54.82 57.50 53.29 55.45 53.76 54.84 54.97 56.57 59.52 57.36 55.21 54.94 57.45 57.23 56.63 55.34 55.71 57.04 56.55 55.31 57.99 57.01 56.48 56.97 57.54 58.23 57.60 56.67 56.58 54.07 54.91 52.87
34.50 39.18 37.15 39.81 39.69 40.45 40.88 38.59 39.28 40.38 42.04 40.85 43.42 47.86 48.19 45.84 42.30 43.40 49.23 52.55 50.32 52.91 54.84 55.63 54.49 53.73 53.72 54.54 54.40 54.88 56.49 57.55 57.56 55.79 57.16 57.07 55.74 55.06 53.69 53.20 53.53 56.29 58.08 57.83 56.65 55.67 55.32 55.39 55.61 55.16 54.48 52.97 46.20 52.33
32.94 36.52 39.90 42.77 44.78 42.85 42.04 45.30 46.54 44.97 43.48 43.64 46.76 47.43 47.58 43.75 43.75 49.14 56.32 55.62 54.64 55.08 58.14 57.21 56.56 54.75 54.20 54.68 56.18 57.08 57.90 58.42 57.84 57.69 58.59 58.42 56.78 57.37 56.65 54.96 54.54 56.47 58.24 57.76 56.91 55.94 55.13 55.17 55.18 55.00 54.86 55.86 55.36 54.18
41.52 45.08 41.19 42.56 42.43 48.81 47.04 47.02 46.60 46.30 47.39 50.81 49.46 46.19 45.34 45.46 46.54 53.07 54.66 57.20 57.13 57.28 56.89 57.55 57.93 57.37 56.60 56.77 57.52 57.32 57.40 57.23 58.39 57.86 57.32 57.49 58.59 58.20 55.94 57.18 56.71 48.49 57.54 58.18 57.74 57.66 57.28 56.62 55.89 56.05 55.46 55.63 53.49 55.44
49.63 51.08 50.76 48.10 48.83 48.85 49.09 47.91 48.57 50.56 52.89 51.05 48.21 47.81 48.94 51.91 54.43 54.32 55.19 56.03 57.29 56.82 55.32 55.02 56.29 56.57 56.92 57.81 57.89 56.73 56.36 54.87 53.35 51.02 51.85 52.41 52.75 54.24 55.67 55.50 57.23 55.89 56.00 58.17 49.93 51.59 57.53 53.71 54.67 54.27 54.86 55.48 56.19 56.18
49.52 52.19 49.40 48.68 46.98 46.24 49.42 51.72 51.04 53.38 53.86 53.13 53.61 53.16 53.08 53.71 55.41 57.36 56.12 56.16 55.22 54.86 55.31 54.84 57.37 55.19 55.08 55.08 54.14 54.73 56.27 55.51 54.64 53.99 51.95 53.16 54.64 55.90 57.86 56.23 55.68 57.97 56.29 55.73 54.77 53.78 46.83 52.12 52.88 54.93 54.70 56.25 56.97 57.16
52.98 51.89 49.63 49.51 48.38 50.98 52.39 55.01 55.29 55.22 55.43 53.53 54.29 51.81 50.71 53.35 55.36 56.68 56.69 56.10 55.72 54.20 56.97 54.89 52.82 55.61 54.59 55.10 54.88 55.18 54.98 56.92 58.27 55.14 55.06 55.09 56.71 56.08 55.08 54.77 55.09 56.75 57.13 57.50 55.45 54.71 54.06 55.23 55.72 55.07 54.90 54.74 55.03 53.55
50.04 49.65 49.00 47.85 49.44 52.84 53.40 51.62 50.45 49.92 50.02 49.32 49.37 51.02 51.05 51.47 50.50 54.14 54.78 55.24 56.37 54.08 50.50 53.46 54.10 54.02 55.73 57.17 56.00 55.77 49.23 57.80 57.69 57.71 56.73 56.29 57.42 57.34 57.11 57.50 57.54 57.65 56.96 56.11 55.75 55.06 55.39 55.19 54.71 54.32 54.32 55.13 54.98 55.28
50.45 49.63 50.03 48.89 49.83 49.60 51.52 51.51 50.08 50.40 51.00 50.39 49.58 50.96 51.82 51.79 49.35 52.30 57.55 57.51 55.39 55.87 56.08 54.91 55.90 55.87 57.23 57.61 57.25 56.81 51.65 58.42 51.61 42.61 43.72 43.10 40.50 44.71 53.02 57.14 57.26 57.17 56.69 56.05 55.70 56.05 55.82 55.15 54.83 54.70 55.20 53.83 53.67 53.01

GFSWCAN_sfc_wetblb_075.txt.gz
Wetbulb
52.03 51.65 51.42 51.60 51.97 52.78 53.64 54.01 53.52 54.99 56.10 56.30 55.66 54.91 54.15 52.93 53.16 50.68 48.54 51.15 49.12 44.72 45.50 47.59 48.01 45.74 46.95 47.29 44.61 47.73 47.81 50.46 49.89 47.13 45.92 45.16 45.33 46.62 46.96 48.13 45.09 45.03 43.46 43.97 44.85 41.77 39.91 57.09 55.92 52.26 54.81 56.91 58.35 58.33
51.78 51.07 50.85 50.52 51.04 52.27 53.47 54.30 54.07 55.05 55.70 55.70 55.43 55.01 53.96 53.39 53.15 51.28 45.94 53.01 53.30 48.26 45.68 49.36 48.85 49.31 48.13 47.99 46.25 47.29 49.17 51.13 51.29 49.25 48.81 48.65 45.20 47.53 45.56 42.53 48.55 44.66 48.29 45.84 46.41 47.13 54.84 56.59 55.45 57.78 57.57 56.31 57.14 57.74
51.26 50.86 50.22 50.22 51.74 52.71 53.49 54.29 54.24 55.02 55.34 55.48 55.29 54.85 54.32 53.83 53.42 50.94 47.77 49.40 50.25 48.05 46.68 46.43 46.52 50.97 52.08 50.53 50.81 44.18 52.16 54.21 51.78 53.55 50.95 48.87 45.90 47.84 44.58 45.48 47.63 49.52 51.38 49.79 48.99 53.56 54.99 55.86 57.23 57.99 58.24 57.67 58.41 59.06
50.96 50.54 50.17 50.81 51.42 51.78 52.84 54.24 54.61 55.08 55.18 55.14 55.23 54.99 54.34 53.60 52.94 51.34 47.78 50.56 49.45 48.36 41.45 44.98 51.99 47.88 52.17 52.98 51.67 51.09 50.38 55.04 53.14 51.19 49.05 48.01 47.58 51.68 47.66 47.71 47.99 50.58 51.39 47.89 49.72 53.66 55.87 54.04 56.08 58.01 59.35 59.63 58.92 58.70
50.75 50.58 50.12 50.64 50.62 51.49 52.49 54.12 54.37 54.96 54.96 55.00 54.77 54.46 53.85 53.44 52.56 51.25 50.23 50.73 52.35 47.58 40.64 41.96 46.28 48.99 52.87 52.42 53.76 54.63 53.03 53.37 50.67 49.01 48.82 48.44 49.28 50.22 51.01 50.10 49.03 51.99 49.40 48.79 46.98 52.31 51.12 50.52 55.77 58.48 56.48 56.39 57.83 56.32
50.74 50.43 50.52 50.08 50.03 51.00 52.20 54.04 54.10 54.64 54.78 54.66 54.37 53.86 53.44 53.11 52.14 48.96 44.21 53.52 52.89 53.22 43.90 38.47 49.04 49.52 52.41 54.77 52.99 52.97 53.55 53.08 52.18 49.72 48.48 50.42 52.44 51.09 45.40 44.79 52.01 53.44 54.18 55.45 53.95 54.68 53.45 53.67 55.59 58.57 56.80 57.39 58.14 56.59
50.16 50.00 50.28 50.10 49.94 50.88 51.95 53.14 53.70 54.14 54.07 53.78 53.23 52.67 52.59 52.45 50.13 47.02 45.65 50.27 50.52 49.98 43.70 41.66 45.19 52.38 52.88 54.21 51.83 51.78 53.15 52.26 51.65 49.52 47.96 48.57 49.18 49.32 47.69 44.73 52.63 54.58 55.28 55.91 56.78 56.27 55.15 55.28 52.72 56.02 57.13 58.59 58.26 59.63
49.29 49.12 49.55 49.98 49.84 50.56 51.60 52.02 53.11 53.58 53.49 53.02 52.36 51.79 51.60 51.20 49.48 46.35 50.47 50.30 50.95 47.55 47.39 41.78 43.53 48.63 55.89 49.52 47.47 51.58 49.39 51.10 51.54 48.81 49.21 47.01 49.09 49.29 43.95 52.57 53.58 53.73 55.10 54.96 56.14 56.41 53.36 55.44 56.38 57.84 59.49 59.54 58.74 58.52
48.51 48.19 48.44 49.36 49.64 50.21 51.45 52.09 53.41 53.07 52.57 52.05 51.67 50.94 49.55 46.47 46.47 51.25 54.04 53.40 52.21 48.19 42.60 45.28 41.04 41.92 52.59 51.46 50.62 50.79 51.61 46.67 51.10 47.39 47.40 47.93 46.90 44.45 50.86 52.50 53.96 54.23 54.76 53.87 54.81 54.79 55.57 55.82 57.00 57.59 58.03 58.75 56.86 56.77
47.79 47.55 47.32 48.28 49.33 49.97 51.59 52.87 52.93 51.79 51.26 50.85 48.16 43.90 42.72 48.48 53.27 52.10 49.01 46.65 44.95 45.79 45.29 41.96 46.80 43.06 49.72 50.26 48.60 50.34 50.63 45.82 44.30 46.91 49.96 46.13 44.69 53.15 54.77 56.00 55.44 54.62 54.37 53.93 50.95 51.45 53.71 55.22 56.30 56.48 56.29 57.38 57.03 55.99
47.35 47.22 47.22 47.82 49.11 50.10 52.22 52.69 51.46 50.32 49.71 46.29 43.54 42.32 50.24 52.66 50.84 48.23 45.02 43.95 44.88 43.52 46.08 45.74 45.25 42.07 49.36 46.35 45.90 50.61 48.85 48.64 43.84 47.51 46.15 45.25 47.18 52.48 55.87 55.16 55.19 54.76 54.75 53.59 54.06 54.13 56.18 57.26 56.26 54.95 56.06 56.36 55.68 55.34
47.12 47.26 46.89 47.23 49.23 50.68 52.58 51.26 49.84 49.08 47.30 45.88 47.29 49.97 51.67 47.58 45.91 43.57 42.89 45.55 44.61 42.99 48.55 46.05 46.32 44.58 46.43 49.68 48.08 51.90 48.18 49.48 45.15 52.67 47.92 44.98 51.34 54.12 54.78 55.36 55.70 55.51 56.96 56.71 58.11 57.22 57.75 58.04 57.60 57.27 56.70 56.09 55.42 55.43
47.03 46.81 46.51 46.77 48.68 50.34 51.78 50.48 50.23 50.47 49.57 48.69 47.91 46.23 45.76 44.60 37.71 39.39 37.85 41.33 43.51 48.59 49.97 48.26 45.59 47.71 51.33 53.26 51.41 49.55 46.30 45.61 51.39 48.11 44.69 49.94 54.69 56.10 55.55 55.81 55.70 56.48 57.43 57.89 57.91 58.29 57.97 57.73 58.01 54.03 53.48 55.49 57.76 56.70
46.85 46.39 46.12 46.09 47.43 49.47 51.33 50.33 50.74 49.49 49.00 43.95 42.32 36.20 40.82 39.79 42.05 42.82 44.12 46.25 49.59 50.70 50.14 49.60 47.65 47.03 49.95 48.93 49.70 43.50 46.24 48.70 44.43 41.88 45.77 51.57 55.07 55.28 55.65 56.39 56.43 56.14 57.30 57.07 57.43 57.89 57.41 56.89 55.14 54.88 55.65 56.76 55.04 56.67
47.09 46.33 45.71 45.64 46.58 48.70 51.18 50.76 50.22 50.65 48.12 44.23 45.38 37.43 40.92 45.65 47.65 48.79 49.76 49.52 51.66 52.66 51.79 48.42 47.78 46.59 46.40 49.36 49.23 47.16 44.78 43.60 45.68 46.16 51.26 54.40 55.96 55.95 56.33 57.18 55.31 56.51 56.40 56.20 56.72 56.51 56.58 55.23 53.50 53.48 53.99 53.44 54.22 56.83
46.50 45.38 44.47 47.38 46.98 49.22 50.56 49.72 49.12 49.15 46.97 45.94 45.71 43.24 45.94 45.82 45.82 47.60 49.52 48.39 52.30 52.81 52.59 49.73 46.42 44.07 45.85 47.01 44.12 43.66 42.15 42.14 47.64 53.50 55.03 56.67 57.11 57.45 57.12 56.83 56.06 56.44 56.41 56.10 56.00 56.61 56.87 56.79 55.84 55.24 54.12 56.97 54.39 56.58
45.51 43.59 46.99 47.78 49.69 49.76 49.53 47.14 46.41 43.93 44.17 43.27 43.25 47.71 46.45 46.27 47.68 49.05 50.69 50.04 54.20 51.55 47.27 47.68 42.54 42.48 47.08 42.99 42.79 46.33 45.48 49.39 53.65 54.74 55.86 58.43 57.48 57.74 56.50 55.05 55.76 55.37 54.82 54.33 54.67 55.21 54.67 55.40 56.21 56.34 54.47 55.77 56.22 56.14
43.66 47.09 48.61 50.10 49.02 48.63 47.56 46.98 44.92 42.75 40.41 43.00 42.12 46.33 48.67 49.70 49.97 49.11 51.88 52.47 51.73 50.43 50.23 47.06 49.86 44.39 42.42 40.93 43.24 48.40 51.79 53.33 56.22 56.07 56.85 58.46 58.84 58.25 57.88 54.97 55.98 55.93 56.25 56.02 56.19 55.45 55.76 55.18 54.22 55.14 55.62 56.23 55.85 55.20
47.27 49.29 49.94 49.77 49.01 47.09 42.98 43.49 45.79 40.71 42.38 45.04 47.25 47.89 48.69 48.90 52.90 53.29 52.81 54.34 54.44 54.40 51.40 49.49 46.00 43.91 45.10 48.07 49.90 50.62 51.83 53.40 53.40 56.30 57.67 58.92 58.22 57.09 56.88 57.32 56.39 57.00 56.79 56.20 56.25 55.87 55.60 55.82 55.97 56.29 56.24 56.16 54.75 55.18
47.53 49.54 49.76 50.15 50.22 46.83 43.27 43.26 47.79 44.35 43.43 46.21 47.41 46.25 47.83 47.94 52.27 52.30 51.18 53.36 52.20 50.46 48.06 47.17 46.32 50.35 50.47 51.52 52.89 52.61 54.07 56.02 55.31 54.32 55.02 56.80 57.81 58.17 57.72 56.92 56.74 55.94 55.26 56.92 57.51 53.22 55.87 55.60 57.55 57.57 56.65 54.91 53.39 53.15
48.24 49.42 49.77 49.84 48.63 48.28 47.35 44.80 43.38 44.82 45.64 46.49 48.92 47.72 47.16 49.61 49.00 49.23 49.73 52.78 50.37 47.71 46.87 50.44 50.61 51.32 53.91 53.90 56.40 53.67 52.75 55.07 56.45 56.02 55.04 54.57 55.04 57.40 57.87 58.53 58.66 57.87 55.81 54.01 54.22 52.89 50.68 54.51 55.72 57.56 56.24 55.44 55.10 54.85
48.30 49.46 47.45 48.12 45.27 46.62 46.34 49.31 46.95 48.42 46.27 47.69 48.88 49.87 47.86 47.52 48.45 50.20 51.12 48.68 47.30 48.84 49.50 51.34 52.10 51.45 51.84 50.73 54.08 55.70 56.05 57.68 57.72 53.85 52.05 52.22 53.16 55.14 55.57 55.55 55.82 52.97 53.38 53.92 54.32 53.84 53.94 56.92 57.14 57.37 56.71 56.65 54.82 55.58
48.74 48.14 45.75 45.25 42.32 41.26 41.57 51.50 45.86 47.47 43.66 45.17 47.75 45.18 45.73 47.31 49.51 51.40 46.16 48.01 48.79 51.09 49.57 50.37 52.07 52.43 51.23 51.83 52.80 57.17 57.67 56.70 55.68 55.72 55.68 54.73 55.37 56.56 56.11 56.10 55.80 54.67 54.08 54.60 55.79 54.98 55.29 51.44 54.00 54.80 56.52 56.23 56.23 54.88
48.80 44.68 41.26 41.39 42.13 38.61 45.47 44.38 47.06 45.52 45.85 43.94 42.83 41.46 44.01 47.11 49.04 47.12 43.65 46.50 50.17 52.76 51.95 48.40 49.21 48.79 49.27 49.79 50.59 56.08 57.79 57.76 55.09 55.87 56.13 56.00 54.52 54.54 55.60 55.74 55.81 55.95 55.98 55.76 55.51 54.64 54.08 55.95 50.94 55.81 55.58 55.69 54.14 53.66
38.39 39.49 40.02 33.95 43.30 40.93 40.84 41.47 42.50 42.51 40.21 41.98 41.57 42.91 45.41 48.32 43.15 42.80 44.01 47.51 48.66 48.65 49.76 52.09 49.68 48.71 47.25 51.78 54.30 56.30 57.79 56.91 54.13 54.65 56.65 56.29 55.14 55.11 54.64 54.37 55.26 56.72 57.53 55.11 54.93 55.35 55.52 56.49 56.00 55.49 55.18 54.37 53.36 53.11
32.47 39.90 36.19 39.79 40.63 40.74 41.95 38.97 39.97 40.73 41.87 41.27 41.96 46.76 47.45 45.35 41.98 41.76 45.91 48.75 49.75 50.96 51.54 52.53 53.08 53.17 53.95 54.73 53.67 55.30 54.31 57.09 57.37 54.50 55.03 56.61 55.57 53.65 53.03 53.11 52.09 53.47 56.55 55.90 54.63 54.72 54.75 54.17 53.94 54.87 53.79 52.99 47.68 51.65
33.70 36.90 40.79 44.45 44.77 44.14 42.45 43.59 44.12 42.26 41.95 41.19 42.43 41.89 41.93 40.81 42.42 47.03 50.46 50.71 51.35 52.30 56.07 57.03 57.37 54.86 54.14 55.93 54.76 55.83 57.63 58.05 58.14 57.17 56.48 57.82 56.75 55.08 55.48 54.23 53.42 54.70 55.63 55.49 55.17 55.14 54.33 54.16 54.16 54.16 53.84 54.27 54.08 53.64
36.92 41.05 38.79 41.49 42.36 43.86 42.68 43.66 43.54 43.37 44.72 47.79 48.02 44.81 44.68 45.26 46.34 53.52 52.07 53.60 54.47 55.92 56.74 57.08 58.06 56.67 56.13 56.34 56.48 56.23 56.01 57.32 58.03 57.83 57.04 55.51 55.57 57.79 57.70 57.39 57.19 47.50 54.12 56.31 54.18 54.93 54.37 54.33 54.51 54.61 54.64 53.78 53.29 54.36
39.11 44.22 44.03 40.04 40.76 43.22 43.15 46.35 47.34 50.17 52.46 51.29 48.15 47.29 48.74 52.49 54.87 54.75 55.55 55.73 57.07 56.14 54.86 54.02 54.32 57.25 55.58 57.10 57.73 56.83 56.48 55.51 54.64 53.04 52.38 51.53 51.80 53.74 56.34 56.73 55.88 56.62 58.46 56.30 49.21 50.46 54.36 53.46 53.95 53.78 54.33 54.60 54.68 54.60
48.10 47.55 46.45 44.40 44.92 46.28 49.36 51.75 51.11 53.11 53.28 53.13 53.07 52.52 52.53 52.81 52.99 55.76 55.51 55.54 54.45 53.68 54.55 53.11 53.92 54.96 54.04 52.97 53.75 55.29 55.56 55.93 56.41 54.42 52.83 52.05 53.27 55.72 55.37 55.98 56.56 56.62 56.70 55.25 55.91 56.35 48.39 50.13 51.48 54.49 54.13 54.70 53.94 54.20
52.62 52.00 50.02 49.86 48.51 50.30 52.97 53.60 54.60 54.38 53.97 53.03 53.58 51.69 50.67 51.67 52.90 54.52 54.73 54.46 55.11 54.44 53.34 53.95 53.27 53.29 55.15 53.98 53.68 54.19 52.28 54.29 55.78 56.44 57.51 56.32 57.28 56.66 56.10 56.97 56.97 55.60 55.92 56.35 55.95 56.10 55.42 53.64 53.42 52.78 53.88 53.75 53.36 52.18
51.56 49.51 48.38 47.04 48.94 53.02 53.93 52.11 51.64 50.88 51.39 50.72 50.69 52.22 50.78 49.64 47.39 50.76 54.69 54.99 53.66 54.97 51.51 54.66 54.42 53.95 54.85 56.59 54.60 54.62 48.83 54.92 55.63 57.83 57.29 55.17 54.74 54.48 54.60 55.43 55.77 55.88 55.73 55.52 55.29 54.70 54.61 53.39 52.51 52.73 53.07 53.14 52.81 51.95
50.46 49.57 50.04 49.56 50.11 49.74 51.14 50.91 50.01 49.20 50.16 49.65 49.88 51.07 50.64 51.24 47.84 53.97 56.70 57.07 54.83 53.63 55.94 56.79 58.19 56.20 57.89 58.06 55.79 54.18 51.62 53.88 47.50 41.94 42.13 41.33 39.82 42.07 49.15 52.12 53.10 54.50 53.75 53.52 52.58 51.63 50.84 50.08 49.20 48.66 48.09 48.66 49.14 48.53

GFSWCAN_sfc_wetblb_081.txt.gz
Wetbulb
55.00 55.12 54.50 53.80 53.33 52.81 52.45 53.21 53.54 53.65 52.55 54.24 55.78 56.87 56.32 54.71 52.76 46.67 42.38 43.46 40.13 36.61 38.47 42.88 43.54 38.80 37.88 37.10 35.26 38.38 38.40 42.45 44.70 40.09 39.45 38.86 39.04 41.83 39.87 43.04 40.28 39.87 40.46 39.14 39.17 38.10 36.71 53.75 53.86 47.84 49.86 52.16 54.20 54.70
54.61 54.58 53.98 53.31 52.72 52.43 52.35 52.62 53.03 53.22 52.66 53.99 55.50 56.54 56.16 55.10 53.91 48.48 40.63 43.66 44.00 39.30 40.40 43.86 46.35 47.49 45.19 43.44 38.78 36.17 37.00 38.38 43.04 42.57 41.88 43.47 40.90 41.55 38.84 37.26 45.66 39.14 43.23 40.94 40.91 45.52 50.15 52.00 51.61 54.61 54.79 54.43 54.55 55.04
54.31 54.20 53.47 52.91 52.29 52.06 51.42 51.67 52.98 53.26 53.57 54.51 55.82 56.56 55.66 54.59 53.73 48.49 41.93 42.05 41.59 38.57 40.04 38.13 40.79 44.65 46.04 48.11 47.54 36.98 36.48 41.03 46.40 47.12 43.65 44.82 41.09 43.29 38.16 39.03 42.26 45.77 46.05 44.57 45.46 47.95 50.55 52.27 54.10 55.21 55.22 54.43 56.46 57.34
54.07 53.84 53.04 52.40 51.88 51.18 51.60 52.65 52.91 53.83 53.90 55.10 56.02 56.04 55.26 53.96 53.10 50.39 42.80 42.53 42.23 39.77 35.62 39.05 44.98 43.99 46.22 43.24 46.09 46.47 41.64 43.34 43.64 42.51 39.87 39.98 43.01 45.83 42.61 42.38 44.22 47.22 46.97 44.21 49.33 49.66 51.53 52.12 53.76 54.22 55.18 57.84 58.23 58.93
53.69 53.20 52.39 51.91 51.38 51.47 52.14 52.06 52.47 53.77 54.20 54.97 55.56 55.50 54.82 53.66 52.33 49.13 44.95 44.99 44.46 40.89 35.96 37.78 42.13 43.79 43.10 42.54 43.25 44.69 42.95 37.64 37.68 38.37 39.77 41.24 43.14 45.44 45.78 45.66 43.82 48.93 45.93 44.62 44.75 49.40 48.90 49.07 53.77 56.62 55.20 55.73 57.36 56.98
52.99 52.38 51.71 51.37 51.03 51.64 51.71 51.85 52.70 53.90 54.39 54.94 55.06 54.80 53.75 52.96 51.81 44.47 39.74 43.47 44.97 44.08 38.27 32.11 37.49 38.36 41.21 42.11 42.29 40.60 42.03 37.64 40.98 40.83 40.83 42.18 43.84 42.84 39.82 39.32 47.39 50.67 50.15 50.67 50.00 53.27 52.07 52.23 54.64 55.81 54.45 54.76 55.48 56.40
52.59 51.83 51.51 51.11 51.27 51.25 51.32 51.86 53.17 53.74 54.22 54.32 53.99 53.49 52.76 51.93 47.20 42.16 39.75 43.01 46.21 42.59 36.14 32.49 33.81 40.64 44.25 43.17 42.64 41.59 41.70 41.82 42.12 40.56 40.55 41.87 42.58 43.52 39.39 37.72 45.18 49.87 51.70 51.68 52.95 52.96 51.68 54.10 51.49 54.27 55.37 58.87 57.54 57.88
51.77 51.22 51.00 51.00 51.01 50.95 51.41 51.85 52.84 53.18 53.82 53.67 52.94 52.37 51.79 51.29 48.20 43.44 45.46 49.24 47.23 40.32 38.81 33.44 34.15 37.27 43.25 42.44 40.03 41.29 40.67 40.63 41.33 41.73 40.17 39.40 39.74 39.56 36.46 41.47 44.95 50.80 51.37 52.01 53.06 54.01 52.51 52.13 55.32 56.14 57.09 56.49 55.81 55.32
50.85 50.66 50.98 50.96 50.76 51.06 51.26 52.12 52.39 52.90 53.20 52.79 52.11 51.31 47.78 44.44 42.60 44.75 51.92 50.82 43.30 40.71 35.71 36.05 33.74 34.66 42.99 40.72 42.95 43.19 41.07 38.30 41.22 40.11 39.50 41.45 37.78 36.75 41.18 41.79 48.50 51.17 49.48 49.37 50.70 52.13 52.78 54.45 54.60 54.47 54.46 54.51 53.57 53.56
50.41 50.40 50.56 50.56 50.45 50.77 51.08 51.85 52.67 52.48 51.60 51.24 47.41 44.47 42.03 44.79 50.12 48.70 41.60 38.96 38.12 37.06 35.14 31.73 34.97 35.10 38.22 39.34 40.20 41.24 41.78 38.33 36.02 39.39 40.60 38.47 38.05 40.63 42.92 46.44 50.18 51.64 51.45 52.01 48.45 49.49 51.93 52.38 52.95 52.14 52.68 53.50 53.72 53.52
49.71 49.56 49.51 49.86 50.44 50.65 51.18 51.91 52.43 50.84 49.51 45.98 40.89 41.99 44.66 51.48 43.16 40.59 37.09 34.71 35.17 34.31 35.00 35.08 36.03 34.42 38.83 35.91 38.05 41.40 41.54 41.63 36.51 39.49 38.03 35.75 37.83 44.85 49.15 50.06 52.19 52.18 51.42 51.65 49.39 51.37 53.32 53.34 52.84 53.23 53.48 54.17 54.27 53.76
47.28 47.64 47.28 46.94 48.10 50.48 51.46 52.17 50.75 48.86 46.26 45.28 45.48 46.36 44.68 41.31 38.27 36.42 35.08 37.03 36.49 36.00 38.51 37.13 38.38 36.95 37.36 40.80 39.25 44.85 43.54 42.85 38.27 45.37 41.97 39.50 44.13 47.47 48.71 49.79 50.30 51.64 52.74 53.24 52.54 52.28 53.80 53.32 53.99 53.97 52.86 52.28 52.41 52.53
48.93 48.65 48.88 49.19 49.77 50.66 52.21 51.10 50.47 50.09 48.61 48.51 45.59 44.60 40.65 38.63 30.93 35.48 34.04 35.71 34.98 39.51 42.07 39.73 37.87 37.90 37.26 39.28 44.07 44.94 42.78 41.31 44.83 41.64 40.47 41.58 47.36 50.98 50.62 51.28 52.00 52.99 54.94 54.71 53.96 53.97 53.99 53.71 54.08 53.15 52.66 53.16 53.05 52.46
47.54 48.32 48.71 49.83 50.90 51.85 51.40 50.86 50.32 49.48 47.64 43.71 41.70 34.72 36.71 35.25 36.49 36.29 37.27 37.47 41.06 42.25 41.46 40.49 38.39 37.45 38.28 40.45 43.90 42.52 44.60 43.86 40.26 36.95 39.42 44.60 46.94 50.64 51.66 52.05 52.17 52.05 53.16 53.44 53.13 52.73 51.83 52.25 52.28 53.11 53.16 52.25 52.83 52.62
47.87 47.98 48.79 49.16 50.09 51.85 51.31 50.60 50.66 49.54 46.03 42.09 40.98 34.81 36.00 39.28 39.82 40.36 41.31 40.63 43.55 43.45 41.13 39.03 38.09 37.21 36.08 42.06 43.33 41.65 40.23 39.05 40.65 41.13 43.82 48.11 49.74 52.84 52.57 52.32 51.13 51.50 51.65 51.15 50.98 50.96 51.21 51.03 50.59 50.41 50.81 51.76 50.27 52.60
47.56 46.31 44.38 48.78 49.84 51.39 50.36 50.02 48.60 48.15 45.74 42.50 40.63 38.35 40.06 38.44 39.92 41.14 40.23 40.27 43.20 42.36 40.64 38.78 36.05 35.53 37.90 40.57 39.86 39.39 38.80 37.20 39.88 44.42 48.99 50.38 50.05 50.79 51.27 51.43 51.64 51.82 51.47 51.37 51.38 51.25 50.19 49.88 49.51 49.12 50.19 50.84 50.91 51.83
45.49 41.59 46.64 48.76 50.16 49.96 49.66 47.23 46.23 43.65 43.08 41.14 37.94 40.46 40.02 40.41 40.09 40.88 41.41 42.46 44.15 42.33 39.07 38.60 34.96 34.10 39.34 38.09 38.23 40.68 39.19 42.49 46.17 47.77 51.85 50.44 51.10 48.72 49.95 50.56 49.90 49.38 48.55 48.38 48.92 49.11 49.16 51.06 51.03 50.54 49.96 50.19 51.18 50.94
40.67 44.11 48.48 50.21 49.69 48.59 46.88 46.90 44.66 42.85 40.06 39.17 36.31 37.58 40.26 42.86 41.58 43.25 42.73 44.43 43.84 43.64 43.20 39.22 40.08 37.58 35.40 36.63 37.47 41.44 43.73 45.89 46.78 46.51 50.64 53.07 51.64 49.72 49.92 48.30 48.99 49.29 48.95 49.11 48.95 48.82 49.61 48.81 48.07 49.68 50.41 50.19 50.65 50.56
43.30 46.12 50.15 50.24 48.52 45.44 42.58 43.59 44.64 39.27 38.30 38.14 38.66 39.15 40.17 41.18 44.23 45.43 44.01 44.75 46.18 46.04 42.88 40.92 38.72 36.89 38.09 42.13 42.27 43.79 45.69 46.90 48.17 49.74 51.42 51.74 53.59 51.64 49.30 49.54 49.90 49.76 49.10 50.80 50.18 49.37 49.85 51.65 50.68 51.27 51.15 50.08 50.48 50.53
48.27 49.22 50.28 50.63 50.16 44.06 41.08 39.08 43.15 38.84 37.08 39.06 39.28 38.36 39.04 39.62 43.40 43.41 44.18 43.91 41.97 41.35 40.65 39.16 39.37 41.17 42.65 44.82 45.66 46.25 46.49 48.36 50.35 50.12 50.82 52.28 53.66 52.22 51.15 50.35 49.16 48.90 49.06 50.01 49.72 46.79 50.00 51.78 51.88 51.96 51.79 51.42 50.50 50.39
45.98 46.89 49.87 48.34 45.20 43.20 40.87 38.21 36.84 38.51 38.67 37.58 38.59 39.32 38.78 38.83 39.36 39.75 40.22 42.74 41.26 39.10 38.57 40.68 42.57 43.42 45.38 46.49 47.50 47.98 48.25 48.56 48.43 49.80 50.43 50.91 52.27 51.10 51.14 51.24 52.06 52.97 51.46 49.41 49.12 49.25 48.24 49.03 48.46 50.26 51.00 50.89 51.11 50.85
43.65 49.48 45.85 46.41 40.94 41.12 39.04 40.60 38.54 39.22 37.89 37.38 37.99 40.76 39.12 38.35 38.95 40.90 42.66 41.16 40.60 41.41 42.38 43.36 43.85 44.39 45.70 45.79 46.85 48.08 49.02 49.87 48.94 50.25 49.10 50.27 51.15 49.38 49.01 50.91 52.35 51.73 52.03 51.11 50.58 50.73 50.01 49.19 51.10 51.60 51.26 51.65 50.15 51.25
47.82 45.51 41.74 42.39 38.91 35.94 34.07 41.89 38.50 39.06 36.93 37.24 39.79 38.30 38.45 39.01 40.91 43.41 39.08 40.26 42.21 44.62 44.67 43.93 44.66 47.65 46.17 47.70 49.61 49.28 50.48 50.07 49.58 50.08 50.76 50.45 49.50 49.01 49.65 50.72 48.73 48.27 47.68 47.72 48.07 48.59 47.91 46.58 48.80 49.73 50.96 51.20 51.65 52.85
47.67 42.16 39.56 36.52 38.86 34.14 39.16 37.91 40.18 38.98 38.79 37.23 36.60 35.35 37.12 39.64 42.48 40.63 38.23 40.39 43.89 45.86 45.12 44.44 46.19 44.23 44.00 45.11 46.35 46.51 47.51 48.03 49.34 50.88 49.67 48.68 49.08 49.08 50.07 49.36 48.83 49.64 50.31 48.68 50.27 51.40 51.23 49.78 49.00 52.37 52.91 51.14 50.28 50.06
33.87 33.22 37.60 34.52 40.49 38.84 38.34 37.55 37.77 37.55 35.96 37.08 37.00 36.87 39.03 41.73 38.67 39.24 40.71 43.30 46.72 46.85 47.23 49.24 47.50 45.64 44.75 44.48 45.01 46.65 48.72 48.24 48.23 49.73 51.71 49.95 49.98 47.75 47.28 48.60 50.33 50.68 49.37 50.26 48.09 48.91 50.98 48.91 52.22 53.13 51.97 50.38 49.53 50.09
28.30 35.06 32.37 35.49 37.66 38.23 38.92 36.33 35.27 35.61 36.65 37.57 38.78 42.03 44.03 42.78 40.07 39.95 43.77 45.76 47.48 48.12 48.34 48.26 48.22 47.39 47.08 47.35 46.96 48.14 50.88 50.32 50.43 49.49 48.63 47.84 47.82 47.03 47.83 47.68 47.70 49.28 51.40 50.13 49.49 49.82 49.12 50.44 49.22 49.71 49.23 49.28 46.19 48.78
30.50 34.71 35.91 39.04 40.67 41.19 40.38 39.50 39.69 38.87 39.08 39.42 41.81 41.50 41.48 36.38 37.51 43.87 47.23 47.91 47.78 50.21 50.52 51.54 50.88 49.87 49.24 48.06 47.73 48.44 49.63 51.51 48.92 49.51 49.19 49.33 49.59 50.30 51.82 49.54 47.57 50.52 51.09 51.69 51.33 50.16 49.34 49.22 48.76 49.43 49.75 50.30 49.88 50.12
35.52 35.50 34.25 36.31 38.17 40.42 39.40 40.46 39.99 39.49 40.42 45.26 43.96 40.27 39.72 42.08 43.13 48.34 49.56 51.37 51.17 51.93 50.77 50.36 50.67 50.88 49.81 51.78 51.70 50.47 48.13 49.25 49.57 50.33 50.60 50.63 51.69 51.42 51.86 52.56 51.94 46.10 49.96 51.52 51.83 51.30 50.02 49.97 49.74 50.24 50.52 48.89 49.07 50.28
37.75 40.15 41.60 39.14 40.87 41.07 41.54 42.36 42.16 44.71 46.42 45.92 44.10 44.64 46.20 49.81 51.53 51.23 51.47 49.86 50.98 50.99 48.14 49.67 51.26 50.16 49.93 51.15 51.64 48.93 48.81 48.97 48.12 47.28 46.33 45.42 45.63 47.38 49.64 50.96 51.47 51.82 51.79 51.63 46.92 47.62 51.04 50.83 50.38 50.53 50.01 49.57 50.26 51.01
37.99 41.75 41.48 40.04 38.67 38.03 42.99 45.73 46.81 47.91 49.06 48.96 47.61 47.65 49.59 49.93 51.64 52.83 51.77 52.34 50.90 49.74 50.33 50.42 50.85 48.51 47.85 49.60 50.30 51.03 51.76 51.44 50.18 47.35 45.91 46.25 47.59 49.71 49.84 48.83 48.87 49.54 50.23 50.71 50.74 50.56 46.35 49.51 49.18 51.56 50.96 51.31 51.01 51.01
44.99 43.72 43.78 42.84 41.44 44.37 46.42 47.94 48.38 49.32 47.58 46.20 47.43 47.52 46.76 47.87 48.37 49.12 52.25 52.72 52.73 52.50 51.41 51.07 51.63 50.29 49.58 48.90 47.40 47.81 48.55 51.12 50.14 48.83 46.71 45.19 44.60 44.32 44.67 45.33 45.76 46.14 45.58 45.84 45.50 45.32 44.71 44.65 45.09 45.75 48.17 44.07 44.13 43.16
43.46 41.63 42.86 41.41 42.76 47.21 49.18 47.47 46.73 46.19 46.60 45.31 45.06 46.38 46.72 44.78 44.98 49.39 53.02 52.84 50.89 49.64 48.79 50.62 50.90 49.07 50.43 50.25 51.89 50.45 44.04 45.51 44.48 44.04 44.58 44.28 44.04 44.61 44.86 45.20 45.50 45.53 44.68 44.24 43.49 42.70 42.61 41.83 40.97 40.97 39.95 39.71 39.93 39.96
43.41 44.05 44.53 43.46 43.97 44.37 46.35 47.32 46.69 45.30 45.32 45.20 46.16 47.52 47.56 47.51 45.04 49.64 53.93 51.77 49.92 51.10 48.56 46.85 48.06 46.49 46.62 46.97 46.80 47.78 44.82 45.31 41.88 37.78 37.54 37.46 37.30 39.66 43.04 43.90 44.71 44.26 43.16 42.13 41.25 40.85 40.26 39.50 38.99 39.00 38.57 38.18 38.13 38.10

GFSWCAN_sfc_wetblb_084.txt.gz
Wetbulb
50.41 52.00 54.23 55.36 55.08 54.39 53.50 52.82 52.81 53.49 53.44 53.81 53.97 55.78 56.98 55.13 51.95 46.28 42.34 42.64 40.67 35.55 37.09 41.11 42.05 38.60 37.07 36.13 33.39 35.70 36.28 38.59 40.42 39.96 39.08 37.95 38.91 40.45 38.40 40.18 39.25 37.78 38.08 37.68 37.93 38.25 36.82 52.21 53.19 47.84 50.05 53.25 54.36 54.99
50.26 51.71 53.29 55.04 54.68 53.79 53.19 52.65 52.90 52.97 53.16 52.80 53.42 54.40 56.76 55.60 53.17 49.08 42.59 42.85 42.51 38.26 38.29 42.39 44.52 45.80 44.22 42.43 38.34 35.22 34.67 35.74 36.37 41.17 39.82 41.08 40.68 41.43 37.91 36.06 43.22 38.82 42.53 41.16 40.99 42.10 49.95 51.69 51.65 54.12 54.83 55.25 55.77 55.50
50.07 50.69 52.39 54.48 53.86 53.27 52.60 52.22 52.12 52.53 53.22 52.28 53.95 54.72 56.36 55.07 53.65 49.84 44.41 41.92 40.92 38.19 38.98 37.90 40.59 44.02 43.82 46.52 46.42 37.77 36.29 39.22 39.26 45.90 41.15 41.97 40.13 42.07 37.60 38.48 40.45 44.87 46.17 44.53 45.04 48.05 50.21 52.23 53.64 54.88 55.19 54.68 56.77 57.33
49.95 50.87 51.88 53.84 53.34 52.45 52.11 51.79 51.72 52.94 53.36 53.87 54.32 55.72 55.90 54.45 53.25 50.16 44.95 42.38 41.77 39.33 34.79 38.92 44.89 42.11 44.82 43.96 45.49 46.40 39.92 37.94 40.79 39.96 36.41 36.74 40.09 44.76 41.63 41.45 42.14 44.39 46.05 43.85 45.73 49.86 51.30 52.53 53.36 53.67 54.28 55.77 58.17 58.39
49.42 50.17 51.38 53.28 52.63 52.10 50.90 51.21 52.51 52.91 53.76 54.07 54.83 55.80 55.34 53.87 52.53 49.79 45.08 44.81 43.18 40.95 35.87 37.00 41.27 41.27 41.27 41.15 43.10 43.65 43.19 35.98 35.93 35.94 36.10 38.17 40.88 43.74 44.49 43.46 43.02 47.75 46.81 44.89 43.78 49.00 48.92 49.24 52.79 55.88 54.25 54.58 54.81 56.29
49.03 50.05 51.20 53.00 52.27 51.73 51.58 52.20 52.08 52.86 53.72 53.68 54.62 55.34 54.04 53.20 50.99 45.98 40.08 42.57 44.55 43.31 37.66 33.23 37.98 37.93 39.86 39.31 39.45 39.25 40.11 35.93 37.03 36.02 37.06 40.38 42.02 43.09 37.71 37.24 44.57 49.28 50.50 50.56 49.80 52.88 52.57 52.76 54.43 55.83 54.11 54.64 55.51 57.01
48.83 50.24 51.91 52.37 51.67 51.23 51.86 51.86 51.93 53.06 53.51 53.97 54.08 53.76 52.98 51.48 47.62 43.93 40.10 42.43 45.63 41.88 36.08 32.19 32.79 38.45 40.74 41.54 39.22 36.96 37.21 37.07 37.86 37.61 38.07 40.14 41.08 42.93 38.64 36.20 44.69 48.53 52.11 52.15 53.67 53.98 52.29 53.66 52.09 55.49 55.56 58.91 57.81 58.38
49.13 50.33 52.43 51.76 51.31 51.40 51.24 51.39 52.20 53.27 53.70 53.72 53.33 52.42 51.90 50.76 49.35 46.63 48.35 48.89 45.87 40.17 37.76 32.77 33.24 36.85 40.30 40.07 37.89 39.17 37.05 38.55 39.40 39.83 38.97 39.34 39.57 39.44 36.14 40.60 42.52 48.65 51.72 52.20 53.71 55.02 53.15 54.02 56.65 57.11 57.95 56.99 55.62 55.80
49.99 51.27 51.81 51.22 50.54 51.01 51.27 51.72 52.77 52.98 53.45 53.09 52.18 51.23 48.47 45.88 43.24 44.76 52.51 51.43 43.09 39.45 33.91 34.68 32.98 33.44 41.18 37.57 41.13 41.16 38.80 36.51 40.16 38.76 37.93 40.08 38.64 37.64 41.04 41.97 43.70 50.47 50.30 50.62 52.45 53.18 53.20 52.95 54.95 55.23 54.89 54.67 53.87 54.16
50.42 51.71 51.11 50.83 50.73 50.88 51.36 52.33 52.57 52.50 51.73 51.46 48.43 45.77 43.24 44.72 51.36 50.26 42.52 37.90 37.57 36.76 34.39 31.16 32.81 33.90 36.12 35.81 37.23 39.52 39.39 36.30 36.51 37.95 39.36 37.78 38.17 42.27 43.45 44.28 45.70 51.64 50.89 50.94 50.53 50.36 52.32 52.73 53.09 52.65 53.18 53.20 53.46 53.89
51.48 51.17 50.89 50.52 50.77 51.07 51.46 52.24 52.33 51.18 49.97 46.69 43.43 42.48 44.67 50.96 43.52 39.84 36.18 33.36 33.79 33.05 33.08 32.45 32.95 33.06 37.32 34.15 34.26 39.44 39.72 41.28 36.94 39.04 38.75 36.56 36.82 41.11 48.00 49.52 49.62 51.92 52.34 52.14 51.47 51.94 53.79 53.83 53.24 51.67 53.67 54.24 54.20 54.42
50.70 50.51 50.41 50.42 50.71 50.89 51.37 51.97 50.85 50.08 47.67 47.31 45.15 46.01 43.42 41.61 39.22 36.41 33.86 35.29 34.41 34.59 36.96 35.53 36.98 35.51 36.34 38.94 37.65 40.91 41.82 43.45 38.56 44.44 42.91 39.42 42.65 46.89 48.44 49.73 50.68 51.78 52.90 52.07 52.03 50.03 53.47 54.34 53.66 53.92 54.38 53.52 53.85 54.05
49.63 49.13 49.17 49.84 50.63 51.14 51.89 51.31 51.33 49.93 48.73 48.17 46.11 44.17 39.33 37.16 29.78 34.20 32.90 35.11 34.48 38.65 40.47 38.85 37.47 36.59 35.31 37.14 39.30 41.99 39.74 40.63 44.58 41.14 41.51 42.60 44.88 49.94 50.58 52.69 52.95 53.67 54.52 54.35 53.96 53.79 53.52 53.89 54.61 53.96 52.90 53.50 53.95 53.09
47.29 47.34 47.26 47.70 49.27 50.71 51.62 51.14 50.59 49.62 46.94 44.09 41.05 33.14 35.32 35.26 35.97 35.33 37.22 37.76 40.09 42.07 42.02 39.81 36.43 35.93 36.23 37.68 40.52 39.72 42.90 43.99 40.06 38.14 39.00 43.39 47.37 50.56 52.55 52.78 52.93 52.46 52.92 52.70 52.62 53.00 52.84 53.21 53.04 53.33 53.35 53.27 53.44 53.17
48.47 48.85 49.39 50.17 50.82 51.26 51.27 50.58 50.84 49.66 45.78 41.31 40.24 32.99 35.49 38.47 39.01 40.05 40.59 39.82 41.37 41.75 39.75 38.10 36.62 35.91 35.15 40.12 41.65 40.46 40.22 39.51 40.39 40.56 43.91 47.34 49.76 50.71 52.47 52.94 52.30 52.23 51.74 51.57 51.88 51.52 51.50 51.44 51.04 50.74 51.55 52.77 51.75 51.39
47.34 46.96 44.91 50.29 51.68 50.77 50.29 50.03 48.90 47.88 44.48 42.71 40.15 38.22 39.59 38.00 39.89 39.56 39.30 41.40 40.83 40.21 38.49 37.02 34.93 34.31 36.07 39.53 39.89 40.69 39.43 37.77 40.35 43.49 46.65 51.30 50.88 51.28 51.84 52.57 52.75 52.55 51.72 51.43 51.33 51.11 51.11 51.11 50.84 50.79 50.97 51.45 51.82 53.08
44.33 41.13 49.18 50.87 50.55 49.94 49.80 47.03 46.38 43.94 41.85 40.91 37.76 39.56 39.31 40.13 40.96 42.13 42.24 41.30 41.90 40.40 38.18 37.00 34.09 33.17 38.03 37.13 37.49 40.64 38.81 41.86 44.21 45.07 47.73 51.86 51.62 51.13 51.08 51.13 51.83 51.38 50.93 50.23 49.59 50.66 50.84 51.66 51.36 51.20 51.05 51.78 51.95 52.24
40.89 46.18 50.38 50.23 50.00 48.46 46.44 47.03 43.83 40.95 39.29 38.58 35.39 37.00 38.79 40.00 41.52 43.10 43.41 41.61 41.52 40.66 40.75 41.13 38.79 36.10 35.06 36.10 37.42 41.08 42.61 44.26 46.06 45.44 46.67 49.38 51.38 52.14 52.26 51.06 49.63 48.99 48.94 49.41 49.71 49.60 49.89 49.86 49.41 50.03 50.44 51.84 51.81 52.07
44.70 47.39 50.41 50.17 48.51 45.49 42.79 42.57 42.12 36.83 37.69 37.97 37.76 37.64 39.04 40.03 41.40 43.03 41.98 42.90 42.97 43.59 43.75 41.99 38.58 36.38 37.20 40.93 41.82 42.79 44.03 44.58 46.32 48.78 48.55 48.98 50.57 51.24 52.74 53.27 50.89 49.83 49.97 50.47 51.50 50.12 50.27 50.74 51.02 52.42 52.17 51.22 51.20 51.97
48.62 50.16 50.15 50.40 49.74 43.74 40.48 38.56 42.67 38.22 35.69 38.19 37.58 37.19 37.62 38.32 40.02 40.79 41.47 42.41 40.33 39.93 39.93 38.79 38.56 39.84 41.88 43.48 44.10 44.92 45.04 46.53 47.52 48.08 47.46 50.14 52.02 52.64 53.06 52.66 51.88 51.26 50.44 50.55 50.31 46.79 50.84 51.68 52.46 50.86 51.75 51.61 51.46 51.50
47.89 48.41 49.85 48.07 45.23 43.50 40.35 37.72 36.48 36.88 36.71 36.13 37.14 38.14 37.95 37.82 37.72 38.03 38.86 42.10 40.74 38.71 38.39 39.90 41.29 43.07 43.64 44.53 46.02 46.49 46.38 47.23 48.04 49.37 49.22 49.77 52.18 52.91 52.85 52.52 51.74 52.08 52.71 51.65 52.26 50.37 48.87 51.27 51.12 52.29 52.57 52.52 52.55 52.68
46.49 48.96 45.59 45.32 40.66 40.19 38.16 38.78 36.80 37.33 36.35 36.44 36.08 38.65 37.62 37.30 37.52 39.16 41.41 40.82 40.00 40.94 40.86 41.64 42.79 43.56 44.50 44.91 45.78 46.49 47.53 48.84 49.33 49.41 47.57 49.07 50.60 50.58 50.24 50.92 52.30 51.04 49.97 50.38 49.99 49.67 49.57 49.82 51.21 51.98 51.62 52.18 51.26 52.87
46.54 46.09 42.57 40.18 36.56 34.94 32.28 39.61 37.41 37.41 35.59 35.85 38.19 36.70 36.99 37.80 39.40 41.86 38.02 38.66 40.46 42.57 42.95 43.02 43.88 45.52 45.72 46.53 47.37 48.12 49.16 50.32 49.80 50.26 51.05 51.37 50.34 49.65 49.31 49.83 50.11 49.29 48.88 49.14 49.45 49.51 51.05 47.42 49.63 51.19 53.68 53.38 52.70 52.65
46.88 39.77 36.02 34.77 37.02 31.93 37.41 36.28 38.34 37.53 36.97 35.70 35.71 34.13 35.59 37.56 40.41 38.65 36.93 39.27 41.63 43.73 44.23 44.59 44.74 44.50 44.35 45.97 44.59 46.00 47.33 49.28 49.50 50.51 50.92 50.56 50.00 50.59 50.43 50.13 50.20 49.65 50.09 49.46 50.74 51.80 51.61 51.94 48.05 52.09 53.48 53.21 52.65 52.40
30.85 31.08 36.08 33.56 39.28 38.26 35.40 35.83 35.76 35.78 34.16 35.42 35.06 35.40 37.65 40.52 37.13 36.77 37.67 42.87 44.82 47.44 48.21 49.17 47.25 46.51 46.12 45.53 46.05 46.82 50.52 49.30 49.30 50.16 51.63 50.47 48.47 47.36 48.34 48.96 50.30 51.11 51.63 50.96 50.03 50.22 50.74 51.23 51.83 51.95 51.71 52.53 51.49 51.59
27.23 32.88 34.89 36.85 37.71 37.42 37.21 34.01 34.71 35.01 35.77 36.02 37.49 40.42 43.77 41.09 39.43 38.60 43.15 46.28 47.14 47.89 48.41 47.43 46.49 45.48 45.37 46.64 46.60 49.75 51.45 50.51 49.28 48.56 48.82 48.64 48.49 48.13 48.30 49.12 48.84 49.90 52.27 51.53 51.02 50.89 50.45 50.40 50.02 50.25 50.47 50.24 45.43 48.91
30.35 34.60 34.72 38.00 40.31 41.56 40.05 40.76 39.22 37.84 37.38 37.75 40.41 40.60 40.48 36.18 36.48 43.06 47.50 49.07 48.46 49.98 50.55 51.41 50.12 49.46 49.71 49.05 49.24 48.55 50.24 51.16 49.62 49.45 49.81 50.44 50.80 51.57 51.76 50.61 50.38 51.38 52.55 52.28 52.09 52.07 51.05 50.87 50.68 50.62 50.62 51.63 51.36 51.00
35.52 35.71 33.16 35.39 37.39 39.74 38.81 39.63 39.45 39.21 40.51 43.99 42.95 38.86 37.65 38.46 43.25 49.04 49.91 51.51 51.24 50.24 48.52 48.78 48.56 49.87 49.97 51.10 51.30 51.08 49.43 49.52 51.34 51.99 51.81 49.96 50.66 51.46 51.23 51.46 51.77 44.76 50.25 52.73 52.02 52.23 52.14 51.44 51.13 51.45 51.67 51.47 51.32 52.16
36.29 38.27 40.17 38.57 40.01 40.08 40.19 39.85 40.63 42.99 45.15 42.73 40.42 41.35 44.81 49.74 50.93 50.52 49.23 50.70 52.52 51.53 50.27 50.47 49.39 50.18 51.44 52.72 52.24 51.23 49.95 49.90 48.71 47.36 47.08 46.51 46.91 48.16 49.75 49.02 48.92 49.36 50.31 51.34 46.10 46.49 49.18 50.32 50.31 50.32 51.09 51.31 52.06 53.13
38.12 41.51 41.00 40.11 37.81 37.44 41.11 42.97 43.56 47.35 47.77 47.35 49.23 49.22 49.16 49.59 51.23 53.09 53.00 52.14 50.55 50.96 51.59 51.06 49.73 48.98 48.99 50.46 50.64 51.14 50.75 51.14 51.17 49.11 46.70 45.32 46.31 47.82 46.48 45.82 45.95 45.71 46.99 46.81 46.38 46.54 42.57 46.60 46.01 47.79 45.30 44.85 44.60 44.36
42.91 42.25 42.56 41.64 40.88 45.37 46.46 49.50 49.63 49.52 48.94 47.91 48.83 46.34 44.40 46.21 49.28 50.98 50.42 51.81 51.49 50.82 50.77 49.36 48.84 49.98 50.11 49.65 49.08 49.37 47.16 46.61 46.43 46.33 45.50 44.64 44.80 44.93 45.17 45.11 44.84 45.08 44.77 44.65 44.35 43.63 43.52 42.84 42.20 41.54 41.58 41.39 41.10 40.92
43.08 41.93 42.81 42.93 44.97 48.36 49.47 47.76 47.01 46.48 47.06 46.25 45.04 47.03 47.02 46.16 45.20 48.36 50.98 48.61 47.52 47.21 46.56 47.87 46.29 45.59 47.60 48.73 47.76 45.92 41.22 44.07 44.17 44.27 45.02 44.37 44.19 44.53 44.37 44.16 44.39 44.70 43.93 43.32 42.57 41.88 41.61 41.11 40.39 40.09 39.76 39.55 39.59 39.30
41.77 42.81 44.56 45.93 44.89 44.96 47.42 47.02 46.01 45.17 45.90 45.47 45.98 46.98 47.00 46.09 44.23 49.00 51.42 48.89 47.35 46.48 45.06 44.84 45.05 45.55 45.85 45.75 45.62 45.44 43.68 45.26 39.74 36.77 36.69 36.41 35.86 38.21 41.56 42.54 43.54 43.46 42.54 41.72 41.27 40.97 40.28 39.83 39.66 39.33 39.11 38.91 38.77 38.61

GFSWCAN_sfc_wetblb_087.txt.gz
Wetbulb
49.53 49.38 50.11 51.38 53.23 54.64 54.83 54.25 53.53 53.05 53.64 53.63 53.47 53.64 55.25 55.61 51.68 50.08 47.87 47.72 46.48 43.44 44.52 45.13 46.03 44.49 44.11 44.09 42.09 44.34 43.93 45.02 45.87 47.22 46.68 46.47 45.74 47.22 45.59 46.42 46.59 45.09 44.51 45.08 45.33 43.61 41.65 54.46 53.90 49.62 53.96 57.62 57.34 57.85
49.79 49.58 49.86 51.05 52.78 53.67 54.71 53.96 53.18 53.21 53.46 53.33 53.69 53.49 55.00 55.95 52.90 50.38 46.46 47.01 47.93 44.69 45.58 47.07 48.71 49.64 48.94 48.65 46.24 45.19 42.83 42.74 45.36 48.93 48.27 48.34 47.29 48.48 45.15 42.37 49.49 45.90 48.58 46.69 47.91 48.61 53.83 54.96 54.82 57.36 58.61 57.60 59.09 60.15
49.91 49.30 49.46 50.55 51.87 53.02 54.41 53.70 52.92 52.91 52.90 52.98 52.83 53.35 54.63 55.65 53.48 51.08 47.06 45.52 46.19 44.50 45.55 45.03 46.87 50.31 50.47 49.74 51.53 44.09 46.05 47.77 45.91 51.19 49.69 49.93 46.31 49.93 45.38 46.08 46.75 50.23 51.67 50.42 50.31 52.67 54.31 54.62 56.67 56.87 57.34 59.58 61.05 61.45
49.74 49.48 49.44 50.05 51.57 52.33 53.79 53.16 52.49 52.47 52.72 53.19 53.16 53.90 55.08 54.97 53.23 50.52 48.76 46.86 46.79 45.34 42.11 46.85 49.77 48.27 51.05 50.40 49.94 49.81 48.54 46.26 48.61 48.45 46.39 45.87 45.03 50.20 47.54 47.65 46.89 50.58 51.58 49.96 51.30 53.98 55.45 55.91 56.49 56.88 58.45 60.87 60.83 61.49
49.31 49.55 49.11 49.42 50.67 51.78 53.47 52.59 52.16 52.39 52.89 53.51 53.95 54.27 55.51 54.18 52.37 50.57 48.98 47.66 48.54 46.61 43.04 45.14 48.34 48.24 47.91 48.57 49.00 49.27 48.40 46.76 46.17 44.32 44.64 44.44 49.28 49.09 51.44 49.50 48.56 52.97 50.79 49.16 49.71 53.99 54.86 53.88 56.97 57.91 57.62 57.62 59.06 60.25
49.11 49.61 49.10 49.35 51.02 52.03 52.84 51.84 51.84 52.82 53.18 53.77 53.78 54.82 54.55 53.00 51.61 49.14 45.38 48.26 50.25 49.20 44.00 40.54 47.24 45.50 46.47 46.09 46.96 47.04 47.32 45.65 45.80 44.45 44.81 47.12 49.03 50.39 45.88 45.01 51.35 53.36 54.98 55.60 54.08 56.74 56.33 56.81 57.34 57.82 57.22 58.24 59.25 59.70
49.46 49.59 49.25 49.52 50.78 52.78 52.25 51.34 52.17 52.36 52.94 52.96 53.25 53.83 53.03 51.53 49.85 46.98 46.23 47.10 48.42 48.75 43.18 39.46 41.30 46.14 46.47 46.95 44.95 44.65 46.35 45.82 45.65 45.33 44.99 47.24 48.16 48.94 46.41 43.14 49.69 52.41 52.43 56.50 56.65 56.50 55.79 56.23 56.52 58.88 58.36 60.91 60.42 61.15
49.58 49.34 49.21 49.99 50.78 52.33 51.41 51.76 51.78 52.17 52.95 53.22 53.13 52.68 51.97 50.78 50.62 49.30 50.82 48.38 48.40 46.23 43.92 38.63 40.07 43.76 47.91 47.81 45.11 45.74 43.41 44.69 44.97 46.02 47.83 47.43 46.52 47.77 44.37 49.12 51.49 50.96 52.34 55.95 56.21 57.41 57.31 58.29 60.12 59.91 60.30 58.92 58.05 58.35
49.35 49.23 49.46 50.14 52.09 51.40 51.35 51.34 51.90 52.78 52.98 53.18 52.26 51.38 50.17 48.11 45.98 47.44 51.51 50.59 48.26 46.32 41.34 40.44 39.36 41.02 48.59 46.16 49.06 46.95 46.10 42.96 47.75 45.80 47.23 47.56 45.98 43.45 48.19 50.96 51.63 51.27 54.25 54.87 56.66 56.96 57.39 56.70 58.22 58.72 57.00 57.03 56.69 57.60
48.87 49.22 49.93 51.52 51.00 50.72 51.19 51.71 52.85 52.68 51.94 51.55 50.16 47.86 45.12 47.45 52.35 50.10 45.02 43.82 44.36 44.56 42.07 38.99 41.65 40.72 44.46 44.92 45.71 47.23 47.83 46.26 43.34 46.55 47.57 45.07 44.72 49.88 51.38 52.41 52.59 53.46 56.05 56.21 54.81 54.25 55.73 55.94 57.85 57.69 56.43 56.69 57.03 57.84
49.29 49.84 50.41 51.03 49.60 49.36 51.05 52.39 52.22 51.09 50.26 48.23 46.85 46.83 48.37 52.30 45.83 42.96 40.53 39.31 40.25 38.09 40.76 40.97 40.15 40.37 45.23 42.70 43.30 47.50 47.78 48.60 43.50 45.63 45.58 44.70 44.07 48.82 53.51 53.88 55.30 52.89 56.41 57.09 56.80 56.54 58.05 58.17 58.59 57.07 57.11 57.33 57.97 58.29
49.91 50.20 51.41 50.52 50.23 50.45 51.71 52.08 51.40 51.74 51.10 49.73 47.69 47.95 47.39 44.02 41.34 39.60 38.88 40.09 38.32 38.67 42.24 41.54 43.81 42.11 45.51 46.02 44.97 47.81 47.54 48.51 42.77 49.67 46.80 45.30 48.23 52.14 53.92 54.68 55.45 56.53 57.38 57.83 57.66 56.71 57.58 58.88 58.91 57.73 58.08 57.73 57.80 58.33
50.72 51.10 50.49 50.61 51.16 51.64 51.86 51.57 51.17 50.57 50.41 50.32 48.78 44.61 42.39 40.37 34.95 35.19 34.22 37.98 38.96 43.53 45.54 44.83 44.78 45.50 43.92 44.28 44.22 48.22 44.38 45.35 49.42 45.30 45.08 46.68 50.04 52.50 53.63 55.38 56.16 57.36 57.04 57.18 56.60 57.23 58.12 58.22 58.62 58.21 57.51 57.74 58.25 58.03
50.42 49.83 49.93 50.43 51.01 51.77 51.43 51.22 50.50 50.69 48.90 45.38 42.88 34.60 38.96 37.03 38.55 39.68 41.08 42.90 46.27 45.99 46.23 46.50 45.54 44.95 44.99 43.94 46.33 44.53 47.74 48.08 42.59 41.05 42.32 48.11 48.45 52.59 54.48 55.71 56.19 56.12 56.59 56.60 56.67 57.27 57.37 57.51 56.79 57.09 57.27 57.12 56.62 56.20
48.73 48.80 49.49 50.16 51.40 51.54 51.29 50.92 51.12 50.61 47.74 44.14 44.02 36.67 38.96 43.08 43.60 44.59 45.44 44.83 46.87 47.67 46.63 45.79 45.14 44.89 44.63 45.12 48.36 46.30 43.37 41.14 42.65 41.67 47.02 48.96 51.61 53.10 53.09 53.65 54.03 54.68 56.10 56.09 56.43 56.09 55.95 55.94 55.98 55.88 56.40 57.61 57.57 56.30
47.49 46.98 46.59 49.29 50.98 51.35 50.57 50.58 49.54 49.36 47.77 45.18 43.80 41.80 43.66 42.89 44.06 44.69 44.98 45.26 48.06 47.53 45.83 45.88 43.61 41.95 42.94 46.20 43.54 42.44 41.36 39.86 44.93 48.74 50.21 50.73 53.39 51.93 53.78 53.80 54.02 55.13 56.38 56.56 56.70 56.73 56.69 56.89 56.96 57.00 57.43 58.27 57.82 57.90
43.98 42.77 49.06 50.78 50.68 50.23 50.23 48.18 47.53 44.42 44.35 43.10 42.19 44.69 44.36 44.02 43.86 45.47 45.61 45.92 48.47 46.92 45.85 45.41 40.14 40.39 45.88 43.53 42.16 45.83 43.34 47.71 50.51 51.00 51.42 53.25 53.83 52.55 53.09 53.32 54.08 54.04 54.50 55.66 55.76 56.32 56.43 56.69 56.89 57.23 57.21 58.23 58.15 58.20
42.37 48.44 50.84 50.16 49.83 49.09 47.70 47.68 45.50 43.68 40.43 42.82 41.19 42.28 43.46 43.66 44.51 45.56 47.52 47.80 48.17 48.35 47.88 45.26 46.66 43.19 41.85 40.34 43.76 47.85 50.40 51.41 52.03 52.25 52.40 52.55 53.57 53.80 53.47 53.22 55.36 55.99 54.68 54.72 55.52 56.22 56.29 56.33 55.96 56.30 56.88 55.85 56.54 58.02
47.20 50.48 50.60 50.01 49.08 46.98 43.91 44.17 45.72 39.84 41.11 42.58 43.69 43.89 43.51 43.77 45.82 46.54 46.72 48.54 49.81 50.39 49.10 47.72 44.03 43.93 45.39 48.81 49.25 49.87 50.80 51.65 51.49 52.49 53.70 53.74 53.14 52.98 53.54 54.65 55.40 55.26 55.04 55.05 55.52 55.72 56.64 56.51 56.15 56.46 57.50 57.56 56.74 57.32
50.30 50.13 50.26 50.68 50.12 45.60 41.70 42.70 46.57 42.03 40.72 43.16 43.88 43.41 43.47 43.39 44.10 46.29 47.53 49.22 49.38 48.53 46.86 45.42 45.45 48.40 49.53 51.60 52.11 51.89 52.60 53.06 52.79 52.19 53.04 54.19 54.86 54.33 54.98 55.41 56.39 56.86 55.86 55.67 56.09 49.35 56.22 56.56 54.27 53.57 56.53 57.60 56.91 57.01
48.73 49.41 50.14 50.81 47.99 46.47 43.73 41.96 41.76 42.06 42.51 42.30 43.27 44.18 44.22 45.31 45.07 45.52 46.56 48.87 48.89 47.16 45.58 48.54 49.89 51.62 50.97 51.68 53.35 53.80 54.00 53.86 53.34 53.61 52.74 50.26 53.92 54.30 54.13 55.35 55.36 56.08 56.63 56.50 55.80 56.23 53.10 55.34 56.29 57.90 57.69 57.39 57.55 58.01
48.66 49.31 48.06 48.23 44.10 43.61 43.60 44.44 42.55 43.38 42.38 42.74 43.24 44.85 44.70 44.75 45.57 46.86 47.99 48.14 48.13 49.54 49.19 49.80 50.18 51.27 51.94 51.70 52.73 52.54 53.93 53.83 54.19 52.21 48.45 49.39 50.62 53.53 54.67 54.65 56.10 56.31 55.77 56.44 56.53 56.04 56.39 56.82 57.49 57.68 57.01 57.16 55.16 57.71
48.28 48.00 45.37 44.07 40.13 38.26 38.66 45.50 42.28 42.81 40.68 42.24 44.71 42.66 43.70 45.07 46.91 48.72 46.27 46.60 47.46 49.72 49.98 50.39 50.53 51.60 52.12 52.50 52.64 53.12 53.85 53.00 52.17 52.25 52.50 54.23 54.33 54.30 54.61 55.13 54.82 55.19 55.25 55.51 55.75 54.03 54.64 50.12 53.16 53.81 55.22 56.20 56.99 57.18
47.79 43.23 40.06 39.21 39.66 36.99 42.46 41.73 44.21 43.15 41.90 41.95 41.86 40.09 42.35 45.66 47.58 46.12 43.26 45.89 49.29 50.67 51.01 51.22 50.93 51.07 50.99 51.41 51.25 52.29 52.28 52.73 52.39 52.48 54.12 53.98 54.45 55.08 53.22 54.26 54.90 54.87 55.37 54.08 55.86 54.63 54.24 55.86 49.77 54.46 55.58 55.84 56.25 56.12
36.73 37.04 38.41 34.33 40.86 38.93 37.66 39.57 40.32 41.25 38.69 40.36 40.17 41.03 44.71 47.26 43.45 42.53 42.38 46.08 49.70 50.29 50.42 50.94 50.36 51.08 50.31 51.53 52.05 51.34 54.17 53.47 51.94 52.06 55.19 55.04 54.34 54.82 54.96 55.19 55.28 55.73 56.43 55.19 54.96 54.40 55.43 55.76 55.48 55.26 55.23 55.20 54.80 54.85
31.23 37.48 36.05 37.97 39.43 39.24 40.06 37.57 39.01 39.35 40.34 39.51 41.05 45.70 46.55 44.31 39.93 38.61 42.87 46.58 48.22 49.80 51.26 51.93 51.47 50.70 50.77 51.75 51.75 54.49 55.33 54.17 53.61 53.40 53.06 53.99 52.85 52.75 53.22 53.00 52.35 53.98 56.81 56.12 55.29 54.04 54.44 55.52 55.23 54.33 54.41 53.25 47.88 53.02
32.99 34.84 40.34 42.95 42.57 42.83 42.71 43.73 43.43 42.27 39.83 40.07 43.11 42.10 41.08 35.89 35.77 42.18 48.90 51.51 50.46 51.90 52.28 52.78 52.92 51.42 51.52 52.03 52.81 53.37 54.36 55.15 54.70 55.13 55.89 56.00 55.17 54.61 53.91 52.62 52.38 54.00 55.35 55.89 55.98 55.66 54.90 54.99 54.14 53.07 52.30 53.27 55.18 54.67
37.45 38.78 36.60 40.10 41.60 43.54 40.16 41.60 40.91 40.15 41.93 44.28 43.75 39.14 38.10 36.69 42.10 49.30 51.78 53.20 52.51 53.55 52.97 52.89 54.33 54.63 54.31 54.78 55.22 55.51 55.35 56.29 56.82 56.19 55.44 55.87 56.16 53.66 52.71 53.12 53.48 43.14 52.12 54.90 54.19 55.31 55.43 54.06 53.27 52.93 53.09 54.23 54.55 55.64
37.80 40.94 41.55 39.44 40.54 40.98 40.74 41.09 41.63 43.84 44.65 43.23 40.52 40.78 43.67 49.13 51.07 51.74 52.28 53.55 55.35 54.13 54.15 53.41 53.12 55.08 54.67 55.28 54.64 54.37 55.63 55.06 53.23 50.72 49.65 49.30 49.20 49.64 51.33 51.32 50.86 51.13 51.49 51.84 41.42 45.24 51.37 51.54 50.66 51.76 50.11 50.18 49.55 47.98
39.35 42.76 40.60 38.65 36.54 36.83 40.21 43.58 43.32 46.62 47.44 46.51 46.72 46.17 45.70 47.66 49.63 52.15 51.28 51.03 52.29 51.76 53.08 53.84 53.26 53.61 54.03 51.44 50.45 49.20 49.82 50.62 52.14 50.63 48.59 47.47 48.11 49.65 49.58 49.20 49.06 49.35 49.75 49.47 48.99 49.11 42.18 46.81 45.12 47.75 46.46 46.39 45.94 45.60
43.07 41.85 41.39 40.18 39.05 43.44 44.49 46.03 46.07 48.35 49.07 48.92 49.00 45.98 45.77 47.81 49.16 48.65 47.84 48.96 51.77 50.72 49.93 51.29 50.35 50.55 49.81 49.22 49.63 48.32 47.37 49.63 49.96 49.67 49.63 49.28 49.26 48.90 48.85 48.78 48.80 48.61 47.99 47.15 46.75 46.34 45.99 45.23 45.06 44.52 44.03 43.60 43.27 42.67
43.51 42.16 43.05 43.29 45.23 49.12 50.94 48.55 48.02 47.10 47.58 47.39 47.25 48.43 47.52 46.96 46.06 49.47 49.52 49.95 48.88 48.47 45.90 49.53 48.66 47.80 49.95 50.22 50.17 49.71 42.08 49.30 48.80 48.97 48.80 48.77 48.38 48.34 48.38 48.14 48.09 47.57 46.78 45.99 45.58 45.15 44.71 43.91 43.51 42.94 42.55 42.11 41.90 41.84
44.99 46.18 48.03 46.91 45.47 45.33 47.95 47.22 46.06 45.22 46.62 45.93 46.77 48.18 49.00 46.81 43.31 48.65 51.57 49.43 48.70 48.32 47.81 48.53 49.11 49.41 49.36 49.24 49.17 49.17 46.27 46.83 40.20 35.70 36.18 35.82 35.20 40.00 46.76 47.33 46.89 46.40 45.51 44.96 44.45 44.03 43.17 42.48 41.99 41.31 40.90 40.41 39.92 39.98

GFSWCAN_sfc_wetblb_090.txt.gz
Wetbulb
50.07 50.42 49.89 49.78 49.99 51.14 52.79 54.09 54.91 54.31 53.86 53.98 54.24 53.47 54.62 56.01 52.16 53.01 55.35 55.67 51.61 50.37 51.77 51.94 51.69 49.61 50.21 49.22 46.63 50.56 49.10 49.26 48.82 46.77 47.67 49.18 47.81 50.54 48.53 50.04 48.76 48.04 47.32 48.50 48.08 45.05 42.55 57.74 56.11 51.72 56.20 60.19 60.05 59.52
49.50 50.17 50.24 49.78 49.68 50.56 52.45 53.22 54.71 53.94 53.48 53.76 53.98 53.98 54.31 55.93 53.35 52.12 52.73 54.10 52.01 49.79 51.86 53.94 53.60 54.44 52.93 53.05 50.37 51.11 49.71 47.52 50.00 50.21 51.26 51.52 49.62 52.42 48.68 45.26 53.54 48.59 50.27 48.41 49.86 48.63 56.15 58.34 56.86 59.50 60.51 59.09 58.66 60.15
49.42 49.63 50.08 49.88 49.79 50.29 51.53 52.40 54.51 53.82 53.51 53.63 53.77 53.55 53.65 55.68 53.70 52.75 50.23 50.80 51.57 49.98 51.53 52.62 52.17 55.52 56.00 55.08 55.83 48.17 51.43 51.46 51.18 53.49 52.68 52.37 48.36 52.67 48.26 47.76 49.48 52.94 55.11 52.55 52.08 54.01 55.41 57.88 58.87 59.08 59.05 59.72 60.55 61.23
49.10 49.35 49.48 49.87 49.64 50.02 51.65 51.99 54.25 53.55 53.15 53.39 53.61 53.34 54.08 54.83 53.46 51.99 49.72 53.19 50.52 49.28 47.02 51.30 54.83 52.40 55.70 55.62 54.30 54.45 53.85 53.05 52.16 52.03 50.01 49.63 48.64 53.88 50.80 50.72 50.82 52.76 54.87 51.40 51.76 55.21 56.80 57.03 58.57 59.93 60.29 60.48 59.86 60.96
49.02 48.94 49.27 49.64 49.52 49.63 50.48 51.66 53.47 52.96 52.88 53.25 53.74 53.71 54.41 54.72 52.52 52.08 51.69 51.70 50.69 47.74 47.51 49.91 54.48 53.94 53.30 52.31 52.91 53.47 52.63 51.87 50.40 48.41 47.53 47.59 51.56 51.05 52.54 52.73 50.43 54.83 52.32 48.84 47.90 56.65 56.81 55.94 58.64 60.63 59.16 59.08 60.43 60.15
49.20 48.98 49.03 49.52 49.34 49.46 50.56 51.56 53.14 52.63 52.43 53.17 53.86 53.90 53.94 53.53 52.04 51.24 49.56 54.36 55.19 53.78 49.00 46.23 52.79 51.13 51.03 51.58 52.10 52.07 52.44 51.57 50.83 49.11 48.85 50.63 52.55 50.96 48.18 47.99 52.81 54.46 55.36 55.09 53.10 59.25 56.92 59.17 57.68 55.96 57.08 60.75 61.10 60.80
49.15 49.12 49.40 49.51 49.53 49.53 50.76 52.15 52.26 51.93 52.56 53.23 53.20 53.08 53.15 51.67 53.13 48.25 47.83 51.42 52.68 54.72 48.60 45.93 48.65 50.38 51.11 51.49 51.43 51.17 52.54 51.17 50.23 49.50 48.92 49.89 50.70 51.25 48.06 45.53 52.32 54.58 55.09 55.06 58.73 59.54 56.73 58.85 58.31 61.19 61.64 62.33 60.70 61.92
49.24 49.29 49.36 49.53 49.68 49.92 50.35 52.06 50.92 52.06 52.41 52.81 52.68 52.61 51.78 51.19 51.49 50.49 52.58 50.05 52.37 51.10 49.83 44.04 46.36 47.75 52.20 50.87 48.22 50.82 49.09 49.58 49.61 49.50 51.52 49.85 51.92 50.92 46.05 50.83 52.46 52.88 54.78 55.37 59.62 60.16 59.70 61.10 61.38 61.49 61.84 59.70 58.79 59.35
49.53 49.66 49.53 49.30 49.56 50.11 51.55 51.38 51.83 51.88 52.48 52.79 52.28 51.58 51.37 49.51 50.49 52.55 51.55 50.27 53.76 50.02 46.35 45.97 43.94 44.81 52.52 51.82 53.79 49.66 50.91 46.98 52.17 48.10 49.80 51.84 49.27 46.62 49.97 51.51 52.74 54.52 54.58 57.58 59.69 59.76 59.82 59.92 60.10 60.89 59.17 57.91 57.84 58.29
49.70 49.72 49.35 49.41 50.03 50.56 51.07 51.12 51.91 52.05 52.30 51.86 52.03 48.30 46.76 53.01 52.75 52.07 50.12 46.35 47.73 49.68 48.17 44.05 49.49 46.02 50.32 49.93 49.58 51.30 50.86 48.70 46.85 50.10 53.46 48.79 48.90 54.17 56.23 57.25 57.16 56.41 56.36 58.66 57.64 57.71 58.88 58.30 59.65 60.01 57.59 58.42 58.53 58.52
49.61 49.27 49.01 49.82 50.35 51.42 50.89 51.45 52.22 51.48 51.34 48.98 48.01 48.50 52.18 52.99 50.87 44.84 42.37 44.51 46.31 42.62 46.03 46.57 46.95 46.37 50.38 46.68 49.24 52.17 51.72 52.61 45.81 48.80 48.52 48.72 48.87 53.84 57.73 58.53 59.83 59.40 57.04 58.16 60.51 59.33 59.40 60.04 59.92 60.15 59.14 58.98 59.29 59.61
49.32 49.03 49.70 50.29 50.98 50.35 50.85 52.03 51.56 52.94 51.32 50.20 52.26 53.44 50.75 47.34 44.57 43.08 43.19 44.86 42.48 42.56 46.63 46.24 48.97 47.97 50.71 52.05 48.33 51.19 49.69 52.45 44.44 54.40 49.95 47.80 51.70 54.75 57.33 58.33 59.58 59.54 58.56 59.52 60.24 59.23 59.96 60.85 61.29 60.69 60.10 59.67 60.47 61.19
49.49 49.78 50.17 50.35 49.60 49.77 51.41 51.72 51.61 51.22 51.28 52.36 49.76 46.34 46.85 45.67 38.03 38.80 37.48 41.11 42.78 47.04 49.09 48.81 49.05 50.36 50.11 49.58 48.48 49.64 46.11 46.45 54.29 48.43 46.91 49.47 50.79 53.45 56.14 58.82 59.38 60.38 60.10 59.63 59.43 60.55 61.11 61.01 61.20 60.86 60.29 60.98 61.39 61.36
49.51 49.91 50.44 49.37 48.99 49.60 51.34 51.55 51.02 51.61 53.24 46.43 44.26 37.25 42.12 40.65 42.91 44.13 43.93 46.87 49.54 50.72 50.48 51.11 50.76 49.00 51.05 47.21 49.34 44.91 50.67 51.26 45.10 43.98 43.48 49.11 51.34 54.98 56.26 56.52 58.48 57.97 59.29 59.93 60.04 60.61 60.34 60.20 59.83 60.22 59.93 60.17 59.89 59.01
50.55 50.02 49.59 50.14 50.59 50.67 51.06 51.02 51.69 52.06 48.30 45.62 46.56 40.16 42.38 48.87 49.73 49.89 50.64 49.52 51.15 52.92 51.40 50.69 50.36 49.97 48.63 47.08 50.91 48.37 44.91 43.43 45.13 45.27 49.57 53.75 54.33 55.72 56.10 54.78 56.46 57.37 56.38 58.73 59.12 58.64 58.33 58.29 58.04 58.14 59.11 59.83 59.20 60.43
50.08 48.99 49.18 51.37 51.71 51.23 50.91 51.45 51.13 49.83 48.64 47.84 47.24 45.32 48.54 46.55 46.76 48.38 49.39 49.20 53.23 53.05 53.18 51.58 48.19 45.68 45.50 49.49 45.30 43.34 43.15 42.57 46.96 50.72 53.07 55.09 54.98 54.65 54.98 55.96 55.33 56.39 55.59 57.57 57.99 58.08 57.79 57.85 58.04 58.96 59.94 60.62 60.41 59.97
47.03 45.09 50.29 51.02 50.82 50.61 50.94 50.20 48.85 46.52 47.46 45.74 46.97 51.14 49.98 49.69 48.12 49.08 50.44 50.56 54.24 51.63 48.73 49.83 43.01 42.67 50.07 45.95 44.44 48.43 45.91 49.34 52.75 54.73 55.24 56.14 54.65 55.73 56.22 56.90 55.30 54.67 56.11 58.29 58.77 58.63 58.94 59.97 60.08 59.08 58.25 60.12 60.22 60.91
45.53 48.42 50.80 50.40 51.73 50.26 49.17 48.80 46.11 45.78 43.43 48.36 46.26 47.55 48.51 49.23 49.57 50.33 52.49 54.50 53.48 53.75 51.84 48.58 51.35 45.93 45.03 41.98 45.85 50.59 52.17 54.01 55.09 54.90 55.08 55.44 56.23 56.24 55.24 55.51 55.22 55.94 57.07 58.07 59.55 59.02 59.64 59.67 58.85 58.96 59.78 60.68 59.91 60.12
47.53 50.33 50.64 50.59 50.71 47.77 44.41 44.98 48.94 44.27 46.36 48.18 49.14 50.23 48.71 49.09 50.74 51.54 52.92 54.94 55.97 55.68 53.49 51.92 47.26 46.38 46.66 50.67 49.89 51.01 52.51 53.02 52.66 54.33 54.82 56.11 55.86 55.19 55.44 56.03 57.10 58.15 58.76 59.31 59.49 58.08 57.91 58.50 58.57 59.00 58.13 57.51 57.00 58.01
49.53 50.01 50.51 50.71 50.06 47.27 44.52 46.39 50.93 46.37 44.89 46.89 48.65 47.73 48.54 49.13 50.92 52.63 53.63 54.88 54.63 53.11 50.04 48.51 49.10 49.39 49.99 51.37 52.67 52.46 53.75 55.67 55.22 54.02 54.53 55.12 55.73 55.56 56.10 57.03 57.54 59.01 60.57 59.98 60.04 50.80 59.46 58.85 60.05 60.37 59.57 57.75 57.50 57.00
49.43 49.87 50.28 50.08 50.37 50.41 47.74 46.68 45.39 46.84 46.93 46.93 49.30 49.84 49.54 51.22 50.22 51.31 51.45 53.33 51.19 51.17 49.40 51.08 51.53 52.50 55.28 55.21 56.49 57.33 56.92 57.01 56.64 56.38 54.68 51.01 53.78 54.14 55.22 55.95 57.58 57.56 59.59 60.38 57.51 58.00 52.49 56.79 57.31 57.48 57.29 57.01 57.28 57.63
48.43 49.55 50.91 51.36 48.49 47.64 47.04 48.63 46.76 48.47 48.07 47.78 48.15 50.65 48.60 46.76 47.48 49.96 53.30 49.37 49.88 51.26 52.66 52.11 52.94 53.33 54.07 55.23 56.28 56.94 56.73 57.01 57.28 56.30 50.42 49.92 51.32 53.96 54.88 54.84 57.99 57.79 57.85 57.67 57.12 56.33 56.19 56.97 57.49 57.37 57.01 57.44 55.11 58.06
49.47 50.44 48.88 47.10 43.55 41.88 42.21 51.20 45.07 47.11 44.00 45.03 47.53 45.09 46.37 47.89 51.18 53.99 47.95 50.57 51.20 54.65 54.70 54.50 54.79 55.92 55.17 56.20 56.52 56.54 56.66 56.19 54.62 56.53 54.03 56.13 56.11 55.53 56.84 56.32 57.41 56.78 55.69 56.01 57.67 57.48 57.23 51.79 56.19 57.33 57.87 57.85 57.78 57.57
49.17 46.57 42.54 42.72 44.16 39.97 46.90 44.76 48.89 47.44 46.97 44.81 44.32 41.85 44.75 48.96 52.32 49.00 45.80 50.17 52.25 54.71 54.61 54.49 54.70 53.67 53.97 54.94 54.16 56.17 56.50 55.44 54.90 55.75 55.45 57.08 56.80 56.90 57.43 57.63 58.26 58.53 58.26 58.41 58.19 57.94 58.38 58.15 52.17 57.42 57.42 57.14 57.08 56.93
39.51 39.10 41.84 35.22 44.68 41.33 39.94 41.68 42.61 44.50 40.69 43.28 42.14 43.31 47.36 51.23 46.11 44.87 44.55 48.14 49.88 51.54 52.75 52.89 52.21 53.41 52.49 53.99 55.74 57.12 57.45 57.04 55.46 53.59 57.57 57.50 56.78 56.62 56.70 57.75 57.95 58.24 58.85 57.43 56.85 57.02 57.30 57.53 57.63 56.65 56.97 56.85 56.24 56.14
34.36 39.94 36.94 41.19 42.71 40.92 42.45 38.86 40.22 41.28 42.77 41.73 43.73 48.80 50.13 45.78 41.58 39.49 42.95 46.65 48.79 51.28 52.10 52.63 53.97 52.80 54.17 55.53 56.23 56.86 57.35 57.72 58.50 56.84 56.26 56.90 56.50 55.17 54.80 54.49 54.44 55.46 57.52 57.34 56.97 56.37 56.44 56.83 56.84 56.61 56.45 55.34 49.18 55.27
35.15 37.12 43.90 48.42 45.78 45.42 45.11 46.13 47.35 46.07 41.60 41.86 45.67 44.55 42.06 36.15 36.30 42.88 48.62 50.85 52.35 54.81 54.69 55.05 54.96 53.91 53.83 54.28 55.12 56.64 56.98 58.75 58.80 57.92 58.08 56.82 56.15 55.91 54.97 53.23 52.43 53.54 56.02 56.42 56.31 56.34 55.99 56.14 56.16 55.94 55.95 56.45 56.60 56.09
41.06 42.48 39.29 43.25 44.89 47.23 42.36 43.51 42.55 42.08 44.21 46.30 44.64 37.93 36.80 39.19 42.76 49.63 51.82 55.26 55.60 56.03 56.69 55.36 55.59 55.43 55.31 56.46 57.06 58.41 56.66 59.89 58.88 59.25 59.06 58.26 56.47 55.13 55.39 54.75 54.10 44.02 53.41 52.98 52.77 54.14 54.30 54.65 54.39 54.64 54.18 53.49 51.58 52.13
40.68 45.04 45.27 41.73 43.29 43.96 44.96 44.00 43.61 45.41 46.29 43.99 40.02 40.42 44.19 48.09 48.91 51.54 54.23 56.52 59.14 57.58 55.14 56.63 56.76 55.23 55.25 54.94 54.77 53.07 54.04 54.56 53.75 52.49 51.60 51.41 51.30 51.69 53.41 53.27 53.02 52.91 52.79 52.52 39.75 45.61 48.93 49.54 49.90 50.48 51.03 51.06 51.17 51.05
42.50 46.08 42.49 41.53 40.56 40.82 44.40 46.98 44.62 46.96 47.32 46.78 46.85 47.10 45.92 47.86 49.27 51.35 52.32 53.40 55.09 55.78 56.05 56.25 57.28 55.13 50.03 48.32 49.31 49.80 52.94 54.14 53.52 52.13 50.04 49.47 49.97 51.97 52.14 51.54 51.29 51.15 51.06 50.82 50.26 50.17 43.01 48.02 46.64 49.95 48.46 48.69 47.97 47.65
43.73 42.44 40.58 40.20 40.08 44.53 45.08 45.85 46.75 47.67 48.75 47.32 48.58 46.11 45.42 47.97 49.58 51.25 52.83 53.70 54.37 55.59 54.03 52.91 52.26 53.15 52.38 51.77 51.47 51.32 50.82 52.85 53.08 52.44 51.94 52.28 51.87 51.47 51.21 51.19 50.99 50.86 50.34 49.72 49.22 48.73 48.25 47.88 47.72 47.22 46.78 46.02 45.51 44.38
42.76 41.28 43.63 42.63 44.92 47.30 47.67 48.62 48.74 47.41 47.76 46.80 46.71 48.10 50.15 49.75 47.18 49.61 52.08 53.32 52.24 51.25 47.56 51.41 51.49 50.96 52.82 53.33 53.31 52.86 43.01 51.86 51.37 51.31 51.36 51.33 51.08 51.17 51.00 50.78 50.59 50.19 49.52 48.75 48.47 47.42 46.50 46.02 45.31 44.83 44.21 43.19 42.79 42.00
49.06 48.25 47.84 46.90 45.72 45.99 48.59 48.58 47.02 45.37 47.36 46.94 47.93 49.86 49.07 46.99 44.75 49.55 53.80 53.69 52.25 51.68 51.62 52.15 52.83 52.94 52.81 52.18 51.78 51.93 48.01 48.55 41.36 35.58 36.71 35.89 35.10 40.10 48.25 49.40 49.37 48.61 47.89 47.29 47.03 46.24 44.72 43.87 43.18 42.32 41.82 41.22 40.59 40.50

GFSWCAN_sfc_wetblb_093.txt.gz
Wetbulb
49.95 50.10 50.10 50.14 50.35 50.33 49.69 51.01 52.95 54.08 55.64 54.87 54.47 54.78 54.18 55.47 54.41 53.99 57.99 60.95 55.39 52.22 54.11 55.19 55.09 52.48 52.61 52.21 48.82 53.48 51.60 52.18 50.42 48.15 47.47 48.14 48.39 50.44 48.36 50.83 50.46 48.09 48.15 48.53 49.81 46.38 43.71 57.94 57.90 52.21 57.54 59.25 58.73 58.01
50.13 50.02 49.98 49.99 50.42 50.67 49.66 50.53 52.40 53.09 55.00 54.32 54.71 54.69 54.21 55.20 55.32 53.26 54.53 59.00 58.98 53.26 53.82 57.33 57.29 57.36 56.46 55.70 53.52 53.47 52.56 52.51 52.63 50.16 52.43 52.23 49.33 49.92 50.33 45.83 52.67 49.38 52.24 49.92 51.07 50.76 58.31 59.70 59.47 61.07 60.98 58.26 59.01 59.40
50.05 49.93 49.82 49.94 50.04 50.43 49.90 50.06 51.69 52.47 54.66 53.99 53.71 54.20 54.33 54.69 55.22 53.71 55.63 58.06 55.74 52.18 52.59 53.91 53.65 58.08 59.09 58.03 58.32 50.74 53.02 55.30 53.99 55.34 53.21 52.73 48.43 52.02 47.10 49.31 50.79 53.88 55.61 53.05 52.20 55.18 56.51 58.20 59.13 61.16 60.25 59.95 61.23 61.28
50.04 49.76 49.78 49.60 49.70 50.14 50.01 49.84 51.47 52.08 54.46 53.96 54.06 54.38 54.04 54.34 54.49 53.49 54.93 57.07 55.10 53.00 48.40 52.86 58.07 55.20 58.55 58.09 57.25 56.87 55.57 57.16 55.07 55.04 51.25 50.94 49.37 55.70 49.72 51.19 51.07 53.64 55.06 52.59 51.14 54.87 57.08 58.61 59.07 60.04 59.29 60.91 60.09 60.71
50.01 50.00 49.74 49.48 49.66 49.86 50.06 50.07 50.98 51.45 54.20 53.47 53.86 54.34 53.73 54.32 53.29 54.14 56.50 54.49 57.42 52.28 49.35 52.15 56.44 57.60 57.52 56.97 56.02 55.79 55.27 54.55 52.69 50.16 49.07 48.13 51.46 51.67 52.51 52.17 50.21 55.67 52.45 49.79 49.08 56.99 57.44 57.38 58.26 59.96 57.35 59.45 60.33 58.73
50.10 49.96 49.67 49.54 49.53 49.67 49.93 49.98 51.16 51.82 53.53 53.21 53.59 53.76 53.72 54.09 52.58 52.63 50.62 56.91 58.33 54.94 49.44 48.41 55.74 54.94 54.31 54.16 53.81 54.57 54.57 53.96 53.06 51.07 50.24 51.54 53.89 51.36 48.19 48.14 53.96 56.98 57.69 56.14 53.90 59.25 59.56 58.43 55.88 57.72 58.02 58.89 59.76 59.37
50.13 50.18 49.87 49.54 49.54 49.77 50.11 50.38 51.14 52.64 52.45 52.43 52.87 53.28 53.34 51.87 53.28 51.79 50.53 51.83 54.27 56.46 49.19 48.84 50.48 54.25 54.07 54.44 54.34 54.01 54.87 53.18 52.46 51.19 50.07 50.66 51.05 52.45 50.00 46.41 52.11 54.10 56.11 56.87 57.65 60.69 58.09 60.66 57.60 59.63 58.23 60.52 59.93 61.34
49.98 49.93 49.59 49.35 49.47 49.74 50.12 50.66 51.18 52.33 51.86 52.57 52.95 52.59 52.16 51.87 52.60 52.96 57.36 51.78 54.78 53.16 52.16 47.55 48.93 50.23 54.76 51.45 49.88 53.87 51.26 51.91 51.85 50.61 51.90 50.56 52.00 52.10 47.71 52.04 53.03 53.94 54.80 56.33 58.07 61.62 59.86 59.77 61.23 60.18 60.99 59.22 58.70 59.18
49.89 49.90 49.65 49.42 49.52 49.84 50.10 50.58 52.00 51.30 52.23 52.52 52.42 51.86 52.39 51.62 51.38 53.50 52.98 51.69 56.68 52.75 45.35 49.19 46.59 47.84 54.63 53.25 53.50 50.99 52.05 48.07 52.82 49.71 50.32 51.51 50.35 47.76 51.52 53.45 53.92 55.60 55.72 58.09 59.71 60.51 59.51 59.03 58.86 59.51 58.97 58.75 57.81 59.00
49.77 49.91 49.99 49.91 49.70 49.74 50.18 51.45 51.39 51.73 51.97 51.98 53.25 49.47 47.75 52.85 53.13 52.76 52.28 50.38 48.82 51.03 51.22 47.75 52.04 48.84 52.41 51.03 50.55 50.61 51.29 48.79 46.98 50.75 53.00 50.40 49.10 55.84 58.19 58.86 59.77 58.46 58.22 58.88 58.20 56.51 57.85 58.02 58.65 59.72 59.27 59.70 59.35 59.83
49.92 50.11 50.20 50.07 49.60 49.99 50.87 51.57 51.77 51.52 51.75 51.88 48.38 47.96 51.37 53.17 52.52 48.22 46.20 45.32 46.60 46.00 49.81 49.86 50.47 48.42 53.23 48.84 49.24 53.01 49.69 51.19 46.36 48.97 48.86 48.05 49.45 55.14 59.25 59.27 60.65 61.06 60.30 58.95 60.69 61.33 60.16 59.96 59.04 60.69 59.61 59.77 59.94 60.27
50.03 50.08 50.05 49.40 49.61 50.32 51.12 51.02 51.72 52.25 52.06 52.43 52.19 52.92 52.25 50.56 48.80 44.64 43.38 47.10 46.37 45.18 48.96 47.45 49.44 50.71 53.06 54.51 50.78 52.82 49.84 50.97 44.59 49.65 49.74 47.72 49.78 54.72 58.10 59.45 60.22 59.45 58.45 58.78 59.48 60.58 60.00 59.92 59.87 59.60 60.04 61.10 61.85 62.03
49.74 49.67 49.14 49.37 50.10 51.22 50.83 51.53 51.84 51.96 52.75 52.97 50.61 47.06 46.87 46.68 38.91 40.42 39.52 43.84 45.27 49.05 50.66 50.75 49.47 51.63 52.40 52.04 50.40 50.33 46.98 46.19 53.36 48.93 47.27 50.01 53.33 56.19 57.90 58.91 60.50 61.33 60.72 60.16 59.78 60.32 60.73 60.04 61.03 60.50 60.48 61.27 61.93 61.17
49.53 49.39 49.35 50.23 51.18 50.72 51.04 51.67 51.57 52.07 51.81 46.47 44.48 40.15 43.47 41.74 44.80 46.24 47.03 47.39 51.30 51.31 51.98 52.25 50.30 49.84 51.45 48.69 49.95 45.09 49.07 48.91 43.27 44.25 42.89 52.76 54.67 55.85 58.42 58.89 59.38 59.72 60.36 60.29 59.96 60.23 60.33 60.58 60.97 61.15 61.02 61.48 60.07 59.06
49.46 49.58 50.21 50.42 50.17 50.66 51.79 51.26 51.55 53.05 49.52 45.73 46.10 41.23 44.27 47.18 49.57 51.29 52.10 52.54 53.07 54.98 53.40 51.65 52.02 51.48 48.89 47.79 48.85 48.28 45.51 43.95 45.84 45.13 50.97 55.07 55.45 56.68 57.56 57.99 58.31 57.94 58.79 58.81 58.93 58.85 58.90 58.94 59.67 58.81 59.07 59.80 59.90 60.77
50.17 49.97 49.03 49.57 50.26 50.91 50.88 51.52 52.59 52.44 48.36 47.63 47.52 44.98 48.38 48.26 48.08 50.11 50.61 50.90 54.55 53.76 55.26 53.79 48.82 46.95 46.39 48.15 45.93 44.56 43.95 43.18 46.19 52.05 54.38 56.55 55.41 56.66 56.66 57.21 57.67 58.04 57.80 57.45 58.21 58.70 58.65 58.47 59.04 59.95 59.82 60.90 60.37 59.94
48.47 48.62 49.82 49.72 50.02 50.33 51.14 50.75 50.17 45.75 46.17 46.07 45.76 50.64 51.41 49.77 47.88 48.96 51.34 51.73 54.50 52.77 48.55 50.51 44.45 43.80 49.70 46.24 45.30 46.91 48.09 48.77 53.59 54.21 55.84 57.34 56.65 56.89 57.80 57.63 58.14 58.02 57.11 57.28 58.33 59.11 59.54 59.97 59.77 59.42 59.17 58.25 60.14 60.30
49.08 51.53 51.00 50.80 51.35 50.51 49.95 49.67 46.70 45.98 44.25 47.55 45.15 48.24 50.07 51.92 50.13 50.97 53.75 55.26 54.11 51.17 49.83 49.27 51.61 46.18 45.99 43.45 45.39 49.60 51.98 53.28 54.45 55.05 55.44 56.99 57.59 57.74 57.69 57.51 58.03 56.46 56.06 55.98 56.14 59.18 59.49 59.39 58.88 56.83 59.74 60.19 59.93 59.56
50.47 52.04 51.14 51.07 51.64 48.90 44.91 46.03 48.19 43.95 46.04 51.12 50.21 52.00 53.05 52.49 53.54 54.79 55.04 56.21 57.37 56.79 53.22 52.71 48.57 47.10 48.10 50.91 50.88 51.27 51.91 52.59 52.17 54.03 56.49 58.24 57.74 56.83 56.33 57.26 57.71 58.28 57.63 57.83 58.73 57.55 59.47 60.08 58.85 58.85 58.51 58.86 57.66 57.75
50.46 50.68 50.87 50.69 51.03 48.95 46.31 47.62 52.43 47.87 45.55 49.91 51.94 50.25 51.36 50.41 52.96 54.37 53.89 54.03 54.11 52.25 50.64 49.03 48.59 50.78 50.47 52.59 53.16 53.26 54.79 55.36 54.71 54.21 55.98 56.22 56.78 57.30 57.51 58.38 58.79 58.16 59.72 59.16 58.89 53.96 57.62 57.96 57.24 57.60 58.42 57.52 56.85 56.78
49.27 50.00 50.77 51.72 52.38 51.02 48.26 48.43 48.78 48.92 50.02 48.88 51.29 50.99 48.75 52.26 51.33 50.05 49.91 55.83 51.41 50.82 50.00 51.96 51.74 54.86 56.63 56.25 56.12 56.56 57.18 56.95 56.51 56.19 55.72 54.53 56.04 57.82 57.71 56.26 56.06 57.46 57.51 56.90 54.49 55.30 53.84 55.37 57.06 57.58 57.68 57.20 57.35 57.94
48.85 50.45 49.88 51.07 49.90 49.29 50.40 52.23 49.48 51.04 49.07 49.14 49.43 51.27 48.65 47.79 48.08 49.52 52.85 50.64 49.51 52.85 53.09 54.05 53.81 54.69 53.94 55.87 56.68 57.78 58.24 58.21 58.80 57.58 51.67 53.22 54.51 54.85 54.98 56.43 56.13 57.17 56.43 56.41 56.50 55.96 56.82 57.68 57.97 57.67 57.73 57.05 56.16 55.69
49.56 51.06 50.36 49.20 45.12 44.61 44.14 52.79 46.56 48.78 44.16 46.26 49.45 46.88 48.86 49.43 50.94 54.10 48.85 52.04 50.25 56.16 55.30 54.88 56.01 56.82 55.93 57.13 57.67 57.59 58.79 58.11 57.60 58.38 58.72 58.42 57.48 57.00 57.29 57.13 57.27 56.87 55.28 56.17 55.68 56.65 56.38 51.58 56.24 56.42 56.97 57.59 57.14 56.65
49.13 48.68 44.82 45.50 45.87 41.81 48.21 46.11 50.75 48.62 48.27 46.13 44.83 43.08 45.23 47.87 52.33 48.97 46.07 48.34 51.27 54.67 54.54 55.55 55.29 54.14 55.51 56.48 54.53 55.34 57.37 58.04 57.17 56.61 58.31 56.74 55.62 55.15 58.02 56.86 57.25 57.30 57.67 57.24 56.56 55.83 57.83 55.97 52.46 57.00 56.58 56.00 56.20 55.42
41.01 40.90 44.41 36.18 47.46 43.64 42.70 43.91 44.36 45.12 42.36 44.37 43.26 43.75 46.76 51.70 45.55 45.04 45.57 49.89 51.48 52.12 53.25 55.30 55.07 54.82 53.47 54.33 55.43 56.93 59.40 58.70 54.83 55.42 57.59 57.35 55.72 54.63 55.43 55.17 54.86 55.96 57.00 56.13 55.65 55.58 56.33 57.07 56.53 56.38 55.95 55.75 55.44 55.97
35.96 42.54 39.17 43.63 44.37 43.36 44.20 41.10 42.79 43.22 44.16 43.31 44.61 49.35 49.10 44.69 40.71 38.96 42.65 47.19 49.29 50.26 52.17 54.97 56.56 56.21 56.43 57.59 56.56 56.36 58.38 58.24 58.08 57.46 57.00 56.24 55.41 53.95 53.28 52.60 53.06 53.97 56.68 57.05 55.81 55.10 55.33 55.10 54.99 54.85 54.88 54.26 48.78 55.57
37.16 39.50 45.27 51.56 50.13 47.81 45.78 46.46 46.96 45.42 43.13 42.71 44.36 44.70 42.13 36.46 36.37 42.06 49.63 52.13 52.10 56.28 57.68 58.77 58.06 56.12 56.09 57.21 57.80 58.61 59.64 59.08 58.97 60.05 57.84 57.53 56.95 56.95 55.50 53.42 52.09 52.43 55.17 55.20 54.29 53.99 53.64 53.47 53.32 52.78 52.68 54.02 54.52 54.06
42.34 43.79 40.78 46.40 46.60 47.75 44.22 44.59 43.86 42.76 43.76 47.35 46.88 40.75 38.73 39.62 43.28 49.69 54.32 57.59 58.01 58.52 58.63 57.69 58.81 58.87 58.87 58.38 58.58 57.30 58.15 58.22 58.54 58.45 57.75 57.59 57.77 55.94 55.98 55.52 55.14 44.29 53.37 53.67 52.63 52.88 51.82 51.28 51.29 51.15 51.60 51.74 52.04 52.55
42.89 45.97 46.24 43.07 45.36 46.09 44.34 44.32 44.31 46.14 47.95 46.19 41.18 41.32 44.22 47.49 50.01 52.72 53.89 55.42 56.49 59.37 56.58 55.01 56.24 57.25 54.57 54.59 56.58 56.31 53.24 54.42 53.59 51.16 51.38 51.30 52.42 53.23 54.59 54.03 53.54 53.29 53.07 52.63 40.14 46.21 50.00 49.89 50.55 50.50 50.88 51.02 50.89 50.74
42.96 46.83 43.69 43.78 42.98 42.31 45.09 47.13 46.19 48.54 48.57 48.36 48.40 47.81 48.30 49.03 52.64 55.82 56.34 56.76 57.69 56.29 56.01 55.17 54.52 52.04 51.15 54.07 53.17 52.82 54.98 55.33 54.37 52.80 51.25 50.72 51.36 53.19 53.05 52.66 52.40 52.45 52.46 52.10 51.68 51.73 44.98 50.27 47.79 51.00 49.79 49.62 48.82 48.06
47.18 47.61 44.07 45.00 42.91 44.56 45.94 47.86 49.47 49.66 48.73 48.06 49.40 47.08 46.02 48.52 51.95 54.02 54.26 53.98 52.86 53.68 53.09 53.09 53.49 54.24 53.86 53.58 53.04 52.54 52.33 54.24 54.51 54.02 52.84 53.40 53.12 52.43 52.38 52.40 52.37 52.33 52.00 51.51 50.87 49.81 49.05 49.18 49.00 48.30 47.76 46.57 45.80 44.16
43.73 43.00 44.44 41.85 42.73 45.96 47.90 47.55 48.28 48.25 48.13 47.70 48.67 49.17 49.27 49.09 48.49 51.18 54.17 54.30 53.41 53.11 48.92 52.88 52.94 52.91 54.28 54.77 54.69 53.99 46.53 51.77 50.57 50.67 50.32 50.84 50.65 50.76 51.19 51.54 51.58 51.49 51.07 50.61 49.96 49.27 47.85 47.28 46.53 45.84 45.01 44.01 43.61 43.25
47.07 47.97 46.79 46.07 44.85 45.66 49.11 49.49 48.62 47.49 49.75 50.22 49.37 48.97 49.47 49.04 46.98 51.83 55.47 55.67 54.04 53.45 53.70 54.22 54.90 54.93 54.33 53.72 53.30 53.13 49.37 50.13 43.04 36.57 37.27 36.42 35.43 39.52 47.99 49.10 49.89 50.63 50.19 49.41 48.87 47.97 46.30 45.32 44.39 44.10 43.49 43.00 42.54 42.37

GFSWCAN_sfc_wetblb_096.txt.gz
Wetbulb
50.68 50.51 50.53 50.53 50.29 51.16 51.48 50.43 50.19 51.24 52.98 54.27 56.05 55.11 54.84 54.73 55.55 54.52 54.51 60.38 55.93 52.38 53.75 55.23 55.49 53.32 53.03 52.63 49.00 52.46 51.36 52.87 51.18 47.41 46.90 47.19 46.65 50.24 49.78 51.59 49.82 49.19 47.32 47.70 48.27 45.25 42.30 58.04 56.60 51.79 55.61 58.95 58.02 58.29
50.98 50.77 50.56 50.57 50.49 50.74 50.93 51.12 49.64 51.00 51.98 53.55 55.61 54.72 54.89 54.81 55.80 54.70 51.76 59.08 59.32 53.88 53.12 56.60 56.48 57.92 56.91 56.24 53.49 53.99 52.64 52.96 53.92 49.88 50.71 51.99 49.86 51.22 50.43 45.48 54.77 48.34 49.01 46.04 50.31 49.98 58.10 59.29 58.53 60.26 60.31 59.59 59.59 59.89
50.42 50.75 50.65 50.39 50.20 50.40 50.32 50.89 49.83 50.34 52.11 52.96 54.99 54.46 54.76 54.54 54.86 54.51 54.07 57.19 56.88 52.53 52.52 53.99 53.39 57.08 57.61 56.80 57.90 51.04 53.04 54.76 54.34 56.39 52.03 51.66 50.23 52.08 47.29 48.65 50.44 49.63 51.45 48.19 52.82 55.22 55.55 58.02 59.71 60.35 61.23 59.59 59.42 56.84
50.09 50.40 50.70 50.32 50.14 50.16 50.19 50.49 50.55 50.14 51.69 52.55 54.79 53.80 54.66 54.45 54.05 54.84 53.44 56.53 56.10 52.78 47.90 52.22 59.02 56.97 60.01 59.19 57.92 57.22 55.63 56.35 56.36 54.84 51.72 50.14 48.83 53.70 49.83 51.23 50.51 52.55 55.31 53.04 52.77 54.36 56.51 58.16 59.85 59.44 58.26 58.94 58.98 59.55
50.27 50.48 50.60 50.50 50.27 50.05 50.02 50.25 50.45 50.38 51.16 52.16 54.44 54.33 54.70 53.66 53.71 54.97 55.71 56.50 57.68 52.67 47.97 50.34 55.69 58.53 58.15 57.90 56.83 57.10 55.88 54.54 52.82 51.17 49.22 47.88 50.88 51.14 51.28 51.27 49.15 54.95 52.04 50.15 48.90 56.40 57.21 57.51 59.54 58.32 56.56 56.43 56.82 56.31
50.10 50.58 50.57 50.42 50.05 49.71 49.33 50.15 50.47 50.41 51.58 53.20 53.81 54.09 53.74 53.25 53.14 54.31 49.16 56.58 58.12 57.16 49.70 46.74 55.11 55.21 56.85 55.43 54.21 54.08 54.48 54.17 53.51 51.82 50.67 52.01 54.40 51.27 47.51 47.12 52.84 55.47 56.79 56.67 54.97 57.36 59.92 58.88 59.41 58.30 55.87 55.48 57.39 58.20
50.42 50.67 50.72 50.64 50.33 49.72 49.82 49.94 50.26 50.94 51.48 53.18 52.98 53.12 52.85 52.55 54.93 50.76 48.53 53.39 52.16 58.16 50.21 48.58 49.92 54.82 55.93 54.92 54.67 54.15 55.39 53.79 52.80 51.52 50.30 50.76 51.29 51.56 48.70 46.09 52.56 53.57 56.53 57.95 58.02 59.00 58.64 58.93 57.61 59.12 58.56 58.64 58.61 58.96
50.25 50.30 50.48 50.66 50.40 49.83 49.85 50.03 50.28 50.94 52.35 52.19 52.43 52.51 52.43 51.98 53.02 51.72 56.53 53.87 54.20 54.06 52.60 47.37 48.46 51.37 55.11 51.31 50.72 54.82 52.34 52.73 52.19 50.85 51.26 49.70 51.01 50.73 46.64 51.95 53.30 54.09 55.02 55.49 56.36 58.85 60.21 60.22 58.31 56.72 57.92 58.96 57.29 59.11
49.94 50.14 50.46 50.31 50.07 49.82 49.85 50.21 50.69 51.17 51.61 52.44 52.60 52.20 52.35 51.73 49.67 53.58 55.15 53.79 56.96 52.01 46.57 49.03 46.29 46.13 54.96 52.16 53.23 52.28 51.93 47.46 51.65 48.35 48.33 49.69 48.68 47.17 51.63 54.25 53.77 55.06 56.18 55.72 58.32 58.23 59.14 58.56 54.30 54.88 56.07 56.62 58.56 57.60
49.85 49.93 50.14 50.23 49.94 49.81 49.77 50.58 50.87 51.47 51.59 52.22 52.88 49.75 46.24 50.31 53.84 54.21 52.94 50.80 51.36 51.48 50.56 46.34 51.07 47.93 52.65 51.93 51.11 51.06 50.66 47.60 46.39 49.51 52.33 48.87 48.15 56.08 58.20 58.90 59.15 58.81 58.26 58.30 56.06 56.72 57.37 57.04 56.78 55.64 56.47 58.26 59.23 59.25
49.77 49.95 50.22 49.92 50.27 49.98 50.03 50.85 51.12 51.20 51.52 52.29 48.96 48.04 54.62 54.35 52.99 49.99 45.64 45.26 46.87 45.15 49.72 49.74 49.69 48.66 54.05 49.20 49.01 51.91 48.91 50.49 45.82 48.15 49.02 47.33 49.11 53.10 56.99 59.27 61.40 60.25 59.92 58.66 56.39 54.26 54.97 55.49 56.09 57.78 55.08 59.07 59.54 60.01
49.98 49.98 50.08 50.22 50.33 49.88 50.43 51.24 51.00 51.93 51.77 52.30 53.58 53.31 51.37 48.85 47.12 44.05 43.21 46.74 46.43 45.17 50.45 48.94 49.82 51.37 52.57 54.54 50.45 51.13 48.00 47.35 41.42 50.55 48.16 46.93 50.89 50.73 52.90 57.28 60.28 60.38 59.15 58.55 56.24 54.42 54.07 54.06 55.44 59.38 59.55 60.75 61.07 60.44
49.99 50.00 50.20 50.44 49.92 50.04 51.00 51.11 51.38 52.10 52.68 53.26 50.01 46.57 46.04 46.82 38.74 40.37 39.60 43.81 44.46 49.45 51.11 49.95 49.15 50.81 52.01 53.07 50.48 49.75 46.48 45.62 51.51 46.63 43.07 48.98 54.95 56.58 57.31 57.38 59.95 61.10 58.73 58.61 57.11 56.32 54.76 53.86 61.70 61.03 60.56 60.49 61.37 60.44
49.92 50.12 49.93 49.58 49.58 50.67 50.83 51.12 51.51 52.29 51.25 46.77 45.27 38.63 42.82 42.31 44.74 46.07 46.09 47.72 51.05 51.76 51.47 51.58 50.92 49.94 51.42 48.85 49.19 45.37 48.96 51.18 45.12 41.88 42.34 52.60 55.04 56.39 58.78 58.43 59.17 58.97 59.40 57.47 58.35 59.70 59.66 59.69 59.69 60.11 59.61 59.95 59.03 58.28
49.85 49.69 49.35 49.52 50.60 51.18 50.64 50.95 51.86 52.61 49.21 46.04 47.13 40.05 44.64 48.72 49.63 50.58 51.23 53.20 52.90 54.58 52.73 51.91 51.86 51.11 48.92 47.71 48.65 47.94 45.78 44.23 45.65 45.48 49.42 53.67 56.60 57.56 57.75 57.90 58.08 58.61 58.77 58.02 59.07 58.74 58.38 58.55 58.56 58.61 59.08 59.14 59.27 59.48
49.73 49.36 48.84 50.83 51.25 51.02 50.97 51.54 51.45 51.62 48.45 47.30 47.88 46.46 48.62 48.53 48.81 49.72 51.13 50.92 53.72 53.41 53.76 53.11 49.99 46.95 46.56 47.75 46.62 45.14 44.34 43.28 47.15 46.43 51.84 55.73 56.71 57.30 57.42 57.40 57.80 58.56 58.66 58.66 57.60 58.54 59.10 58.17 58.67 58.94 59.69 60.02 60.03 60.14
49.28 47.94 50.41 50.35 50.79 51.04 51.13 50.58 49.64 45.65 44.29 45.78 46.56 50.82 50.38 49.76 50.89 50.34 52.07 51.33 55.50 52.45 48.38 48.99 45.89 44.50 49.29 46.27 45.23 48.61 46.57 49.63 50.77 52.36 56.91 58.15 57.10 57.44 58.05 57.99 58.05 57.92 57.75 57.55 57.81 58.46 58.49 59.07 60.36 59.64 59.10 61.04 59.95 60.73
48.91 49.60 50.81 50.40 50.40 50.53 49.91 49.96 47.10 44.85 43.12 46.61 45.62 48.25 51.57 52.73 52.90 52.85 51.20 54.05 53.41 49.93 50.82 48.16 51.88 46.65 45.89 43.83 45.08 49.70 51.57 54.25 55.30 54.67 57.07 57.88 58.09 57.85 57.72 57.20 58.10 57.49 56.50 56.68 55.58 54.98 55.81 58.84 58.89 58.09 58.99 59.19 60.13 59.35
49.90 49.75 50.37 50.87 50.53 48.86 45.70 47.07 47.73 44.44 46.84 48.40 49.53 50.84 50.00 51.83 54.32 55.17 54.71 55.58 52.70 51.63 49.95 50.65 48.38 47.36 45.28 49.25 49.29 50.72 52.29 52.85 52.05 55.33 57.60 58.35 58.17 57.47 58.00 58.07 57.49 57.72 57.54 57.16 56.55 54.55 55.65 55.79 59.14 58.51 57.32 57.55 56.51 56.96
50.11 50.39 51.10 51.14 50.77 49.70 46.14 46.80 51.06 47.53 45.22 47.93 50.49 49.86 52.50 52.09 54.50 53.67 53.56 54.44 54.42 49.55 46.18 49.44 49.29 50.77 50.95 52.25 54.03 54.17 55.03 55.54 55.11 54.12 55.39 57.28 56.49 57.84 57.77 58.30 58.90 58.73 58.78 57.76 55.98 50.45 55.39 56.05 56.03 57.92 57.52 57.24 57.00 56.34
50.69 50.43 51.06 51.07 52.15 51.65 49.03 48.29 47.64 49.31 49.79 49.27 50.85 50.82 50.09 52.62 51.40 51.59 51.83 54.21 52.40 51.36 49.38 51.94 52.65 54.50 57.13 57.18 56.99 56.80 57.05 56.38 55.74 56.30 55.61 54.37 55.87 58.18 57.83 55.88 56.87 59.62 59.08 59.43 54.47 55.19 52.17 56.46 56.43 57.61 57.11 57.49 57.46 57.81
49.44 50.73 49.64 50.61 49.91 49.93 49.07 52.33 49.89 52.09 50.15 48.98 50.12 51.36 49.93 49.93 50.10 50.26 53.36 51.55 50.57 51.53 53.20 53.42 54.10 54.67 54.63 56.50 56.40 57.33 58.31 58.62 59.09 57.79 52.55 54.36 55.77 53.89 54.41 54.88 54.18 54.95 53.65 55.36 55.83 54.95 54.49 57.21 56.96 58.04 57.29 57.26 55.76 56.23
50.12 50.67 50.96 50.67 46.23 44.00 44.72 53.82 47.45 48.67 44.95 46.93 49.85 46.74 47.27 49.07 51.14 54.36 49.41 51.66 52.32 55.31 54.98 54.08 56.38 56.68 55.70 56.16 57.32 57.62 58.21 57.91 57.23 58.27 58.06 58.35 56.21 56.74 56.37 56.00 57.03 56.17 55.30 56.07 56.91 56.67 55.64 51.20 54.33 55.11 55.34 54.65 56.94 56.60
50.61 48.73 45.97 46.15 46.10 42.13 49.43 46.90 49.82 48.72 48.75 46.22 45.72 44.42 46.93 49.70 52.65 48.80 46.52 49.99 53.23 54.94 55.25 56.21 55.20 53.95 55.81 57.12 55.63 56.49 56.35 55.15 56.08 55.49 57.31 56.65 54.18 54.50 55.21 56.03 55.34 55.53 56.18 56.73 56.42 56.85 56.60 56.70 52.10 56.03 56.90 56.24 55.71 55.58
41.41 41.55 43.94 35.79 47.21 44.45 43.36 43.69 44.41 44.64 42.99 45.37 44.08 45.30 47.01 50.14 46.11 45.65 46.21 50.27 52.03 51.81 53.53 55.19 55.30 55.25 55.00 54.89 55.85 57.03 59.96 56.70 54.06 51.99 54.12 56.83 56.03 54.07 54.37 55.42 56.05 55.39 56.08 55.56 54.57 54.74 55.40 55.37 55.90 55.77 55.61 55.49 54.72 54.23
35.59 44.18 40.45 44.51 45.47 43.85 44.25 41.67 42.93 43.67 45.24 44.48 45.61 48.23 47.85 45.27 41.61 40.18 42.42 48.51 49.36 50.38 53.71 55.50 55.96 56.44 55.95 57.35 56.09 54.56 54.27 57.08 56.96 56.22 56.91 56.82 55.68 54.15 53.29 52.51 52.14 51.78 54.52 55.01 53.50 52.27 52.47 52.55 52.68 53.00 52.93 52.18 47.28 52.24
37.50 41.31 47.86 52.25 48.81 48.74 46.90 47.87 48.46 46.68 44.78 44.14 45.34 42.90 42.54 37.27 36.61 42.37 48.81 51.92 52.90 54.00 57.14 59.01 58.71 57.55 57.16 55.48 59.10 56.03 56.16 59.08 57.52 57.42 56.86 56.67 56.05 55.67 54.59 52.65 51.30 51.54 53.95 53.63 52.48 52.23 50.73 50.03 50.69 50.40 50.67 51.38 51.87 51.33
46.55 47.42 43.40 47.01 48.01 48.61 44.85 45.72 45.63 44.24 45.31 47.84 45.92 41.60 40.38 41.45 43.25 48.23 51.53 55.01 57.50 59.26 59.19 57.62 56.51 56.12 58.80 54.79 57.24 55.38 53.74 56.46 59.38 58.60 58.53 56.89 56.08 55.57 55.62 54.60 54.07 44.74 52.86 52.39 51.81 51.92 51.00 50.44 50.37 50.40 50.29 50.34 50.25 50.78
44.78 49.31 49.21 45.23 45.84 47.26 47.21 45.90 45.31 46.83 47.83 46.44 43.52 42.43 44.44 48.24 50.14 51.78 56.18 56.60 59.23 58.51 56.65 54.30 55.30 56.52 56.17 56.11 56.34 55.73 55.42 54.07 53.60 51.95 51.12 50.91 51.51 52.33 53.97 53.37 53.03 53.05 52.87 52.15 42.23 46.33 50.23 49.77 50.30 50.33 50.65 49.97 49.56 49.57
45.52 49.50 46.06 46.35 44.94 43.43 45.99 48.63 47.41 49.24 50.44 50.92 50.57 50.04 49.99 50.54 52.29 54.09 57.04 57.75 54.88 53.94 54.74 54.16 54.86 53.63 53.60 53.25 53.06 54.05 55.26 54.92 53.94 52.00 50.13 50.13 50.72 52.44 52.44 52.38 52.25 52.51 52.44 52.23 51.74 51.32 45.31 49.43 46.65 50.21 48.58 47.58 46.12 45.35
49.76 48.85 46.47 45.47 44.26 45.59 46.96 49.18 50.98 51.69 52.25 51.36 51.17 50.33 47.93 51.32 53.42 55.05 54.61 55.23 54.58 54.05 54.45 53.46 53.76 54.45 54.01 53.60 53.04 52.11 51.52 52.80 52.47 51.89 50.85 51.80 51.41 50.87 50.98 51.64 51.95 52.27 52.06 51.77 50.99 49.66 48.79 48.26 47.41 46.51 45.55 44.29 43.73 43.03
47.08 45.30 44.19 41.34 42.69 47.39 49.65 48.48 48.50 48.00 48.46 48.65 48.70 50.83 50.66 50.39 48.00 51.90 54.86 54.80 53.44 52.57 49.40 52.80 53.15 53.22 54.29 54.52 54.51 52.36 46.04 51.05 49.91 49.56 48.62 48.74 48.68 49.13 50.34 50.57 51.50 51.92 51.45 50.60 49.95 48.85 47.69 46.35 45.61 44.82 43.94 43.30 43.01 42.46
47.68 47.52 46.00 44.92 45.20 46.58 50.33 49.74 49.05 48.36 49.70 48.22 48.94 49.82 50.20 49.45 47.35 51.41 55.92 56.05 54.54 53.85 54.14 54.88 55.19 54.82 54.03 53.66 53.60 52.32 49.50 50.54 44.09 37.60 37.74 36.88 35.90 39.65 47.69 48.68 49.57 49.74 49.66 49.09 48.93 48.02 46.66 45.48 44.96 44.05 43.27 42.91 42.69 42.38

GFSWCAN_sfc_wetblb_099.txt.gz
Wetbulb
51.20 51.34 50.83 50.61 50.49 50.57 50.76 49.99 51.12 49.98 50.83 50.99 52.83 54.56 56.58 55.20 54.91 53.55 52.61 55.75 53.32 50.23 51.51 53.57 53.26 50.25 50.82 50.37 46.26 49.67 49.29 49.92 47.87 43.78 42.63 43.12 42.55 45.36 45.49 48.15 45.01 44.68 42.57 42.39 44.90 41.19 39.71 55.86 55.12 49.36 51.84 54.67 56.34 55.20
50.87 51.16 51.01 50.87 50.42 50.28 50.40 50.61 50.78 50.93 49.45 50.59 52.21 53.72 56.12 55.36 55.05 55.07 50.56 55.90 56.72 53.10 51.23 55.13 54.71 54.90 53.52 53.77 50.69 50.27 48.97 49.32 50.21 46.66 46.95 46.69 44.24 47.36 44.55 42.43 51.50 44.21 47.36 44.75 45.24 44.38 53.27 56.26 54.32 57.57 56.01 53.97 56.50 56.52
50.39 50.87 50.81 50.87 50.82 50.34 50.09 50.25 50.59 50.72 50.21 50.76 52.28 53.50 55.37 55.15 54.56 54.70 52.88 54.47 55.30 51.57 50.86 51.58 51.12 55.57 56.66 55.23 55.63 47.83 50.07 52.65 51.37 53.18 49.43 47.11 43.90 49.34 43.85 45.79 47.40 49.02 50.35 45.28 48.75 51.13 54.69 56.02 57.37 57.23 57.78 56.40 57.99 57.77
50.46 50.63 50.43 50.35 50.64 50.48 50.05 50.06 50.32 50.38 49.86 50.64 51.40 53.43 54.97 54.66 53.83 54.25 52.60 54.71 54.09 52.00 45.97 49.54 57.46 55.25 59.07 57.65 55.51 53.71 52.27 53.03 52.55 51.19 48.33 46.70 44.23 48.83 45.34 46.93 46.75 50.64 50.73 47.69 45.84 49.13 53.59 56.77 56.92 55.92 55.72 57.15 58.52 58.26
50.36 50.30 50.13 50.34 50.54 50.62 50.40 50.02 49.98 50.23 50.57 50.40 51.59 53.56 54.22 54.23 53.10 53.35 55.23 54.83 54.89 50.03 45.54 47.27 52.23 53.53 55.83 56.02 55.48 55.26 53.30 52.38 50.06 47.57 47.16 45.15 47.47 46.77 47.73 47.04 45.23 51.67 50.30 46.87 45.14 50.94 53.31 54.20 55.83 56.61 53.92 54.83 56.20 56.93
50.08 49.95 49.84 50.15 50.51 50.82 50.49 49.91 50.15 50.19 50.57 51.00 52.02 54.43 54.10 53.19 53.02 53.39 48.24 53.95 54.95 54.64 48.70 43.37 52.42 52.44 56.51 55.99 54.62 53.23 53.53 52.90 50.78 48.56 47.78 49.46 51.41 47.87 43.81 42.48 48.63 52.06 53.48 53.08 51.25 56.09 55.84 56.70 57.01 58.01 55.52 55.69 57.20 56.89
49.80 49.90 50.29 50.02 50.75 50.87 50.37 49.84 49.78 49.85 50.25 51.48 52.69 53.11 53.02 52.12 52.70 50.09 48.81 51.84 52.59 53.88 48.48 45.22 47.72 52.62 55.56 54.81 52.18 51.34 52.54 50.66 50.56 49.28 48.08 48.68 48.62 48.92 45.46 42.52 48.15 50.58 53.13 54.91 55.46 57.20 54.69 56.90 55.22 56.74 57.13 58.75 58.40 58.10
49.89 49.83 50.09 50.20 50.71 50.81 50.28 49.88 49.52 49.71 50.81 51.70 52.39 52.22 52.07 51.87 52.31 50.47 54.61 54.40 53.74 52.95 51.27 44.64 46.26 50.05 54.94 49.76 48.14 53.06 50.36 50.82 50.32 48.85 49.34 47.12 48.64 47.48 43.15 47.25 49.63 52.09 53.77 53.18 54.43 56.05 56.93 55.15 54.73 55.04 56.38 56.36 56.05 56.76
49.69 49.83 50.04 50.14 50.61 50.81 50.12 49.65 49.55 50.27 51.12 51.95 52.26 52.16 52.01 50.78 49.21 51.72 55.83 54.86 56.15 52.71 45.72 46.37 44.03 44.74 53.74 50.26 51.48 51.10 51.49 46.05 51.02 46.53 46.97 47.48 44.90 42.96 51.01 52.27 52.21 55.66 54.38 54.62 53.34 56.45 56.03 52.96 52.95 55.35 54.80 55.35 55.90 56.13
49.78 49.70 49.91 50.12 50.57 50.42 49.92 49.76 50.26 50.42 50.94 52.19 51.84 48.81 45.90 49.91 55.27 53.84 51.60 50.00 49.89 50.03 49.52 43.73 48.23 44.44 50.70 51.54 49.11 50.27 49.28 44.96 42.44 46.17 48.59 44.81 43.62 52.51 54.63 56.71 57.82 57.64 58.57 57.05 53.55 52.18 54.29 53.78 54.37 55.05 55.60 55.75 55.87 55.39
49.95 49.88 49.91 50.23 50.39 50.00 49.95 49.83 50.44 50.74 51.36 51.33 47.20 46.76 51.91 54.99 51.40 49.55 45.22 44.71 46.60 44.24 47.22 47.22 47.24 45.04 51.68 47.70 48.51 50.97 47.75 48.72 43.99 46.96 46.28 44.48 43.93 51.16 53.47 54.28 56.21 57.48 57.52 56.06 56.13 55.34 56.11 56.71 54.23 53.25 53.91 54.52 55.63 58.28
49.63 49.77 49.90 50.31 50.09 50.02 49.80 50.17 50.70 49.75 50.41 50.32 52.36 53.18 51.65 49.39 47.70 43.42 42.66 45.38 44.08 42.88 48.87 47.06 48.28 49.04 50.39 54.39 49.04 49.64 46.93 47.57 42.19 50.22 45.76 44.40 49.82 51.94 52.78 54.43 51.03 56.67 55.80 54.63 55.43 55.77 56.07 56.04 55.72 55.61 55.65 55.14 57.53 58.26
49.58 49.79 49.95 49.90 49.88 50.19 49.91 50.58 50.47 51.26 52.52 54.93 50.54 46.15 46.15 45.57 38.27 39.29 37.92 41.60 43.33 48.79 51.19 50.36 47.96 49.69 52.37 52.28 49.26 47.30 42.46 43.93 50.61 45.57 43.84 47.08 52.14 54.52 55.49 55.55 51.52 57.22 55.80 54.36 53.85 56.06 54.67 56.16 58.18 56.71 56.71 56.11 57.53 57.08
49.64 49.80 49.67 49.75 50.20 49.95 50.28 50.77 50.61 51.15 50.84 46.87 43.42 35.87 40.47 40.00 41.67 42.92 44.07 45.87 50.01 52.09 50.54 50.26 49.86 48.93 50.00 48.54 48.27 45.74 48.16 48.64 43.19 41.99 42.95 48.47 51.74 54.11 55.70 56.17 56.09 53.26 52.73 52.30 52.49 56.54 56.59 55.10 56.48 56.29 56.76 56.58 55.90 55.26
49.80 49.83 49.99 49.96 49.59 50.15 50.66 50.79 50.96 52.00 48.79 43.90 45.44 39.29 41.85 46.85 48.47 49.47 50.42 50.98 52.45 52.96 51.69 51.10 51.11 50.90 48.84 47.53 47.35 46.83 45.68 42.49 44.04 43.70 48.39 52.34 53.83 54.60 55.24 55.88 55.94 56.34 56.65 56.56 55.71 56.21 56.71 56.42 56.65 55.97 57.43 57.66 57.04 57.72
50.01 49.29 47.98 49.43 50.11 50.94 50.51 50.75 50.55 50.58 47.75 46.11 46.59 44.63 48.29 47.67 46.97 49.38 50.74 51.27 54.60 54.01 51.80 51.73 49.53 46.95 46.02 47.02 46.05 44.08 43.41 41.22 43.92 46.78 48.81 49.79 50.92 54.76 55.66 56.48 56.35 56.90 56.63 56.17 56.30 56.56 57.20 56.37 56.07 56.90 58.30 58.14 57.00 57.40
49.07 47.77 49.81 50.21 50.72 50.44 50.49 49.35 48.20 45.43 44.89 44.06 44.95 49.60 48.88 49.35 47.74 50.11 49.98 52.00 55.56 52.53 47.47 48.41 44.81 42.27 48.26 45.45 43.18 46.94 45.17 47.83 49.40 48.81 51.64 52.19 53.93 55.15 56.63 56.57 56.78 56.15 55.89 55.15 55.12 55.66 54.79 55.87 56.08 56.99 56.29 56.99 58.25 57.10
48.13 50.56 50.98 50.48 50.86 50.70 49.71 48.79 46.52 44.98 41.55 45.03 44.27 48.09 48.48 50.64 50.73 51.74 51.88 52.47 51.70 50.62 51.43 46.97 49.09 46.33 44.26 42.78 44.18 47.91 48.70 51.79 54.14 53.81 54.90 54.66 55.16 56.77 56.69 56.07 56.68 56.23 55.67 54.73 54.34 54.54 52.90 52.94 53.37 54.67 54.49 57.55 57.97 58.45
49.86 50.20 50.76 51.16 51.10 48.30 44.86 46.09 47.76 42.54 44.80 46.75 48.93 49.41 49.14 50.55 52.87 51.39 51.37 52.30 52.17 53.91 50.19 49.85 46.85 44.53 46.00 49.02 50.19 50.98 51.65 52.47 53.08 55.13 55.79 57.05 57.06 56.31 56.20 56.54 56.69 56.25 56.10 55.66 54.83 53.44 53.00 53.31 53.40 54.71 54.62 55.18 54.35 54.18
50.30 50.53 50.66 51.30 51.08 49.02 45.47 45.67 49.81 46.02 44.68 47.93 49.25 48.94 50.36 49.89 54.28 51.99 50.63 51.41 50.71 49.80 48.03 46.36 47.15 48.08 47.94 52.67 53.68 53.95 54.34 55.67 54.53 52.99 54.12 55.51 56.33 56.46 56.29 56.10 56.18 56.09 56.05 55.33 55.32 50.95 54.30 53.37 54.34 55.26 55.95 55.15 53.81 52.99
49.69 50.43 50.66 50.51 50.77 50.21 48.87 48.26 47.06 47.48 47.66 47.26 48.58 47.82 48.94 50.69 52.22 52.18 51.50 50.03 48.18 46.20 45.47 50.62 52.07 54.15 56.85 56.32 56.78 57.62 56.35 56.84 55.17 55.08 53.86 52.79 55.09 56.11 54.81 54.45 56.11 55.63 55.43 54.36 53.52 54.09 51.16 53.43 54.50 55.19 54.62 54.09 54.86 54.73
49.88 51.01 49.45 50.15 47.59 50.23 48.75 52.19 49.00 51.51 50.81 50.03 50.72 51.59 49.20 49.32 49.23 50.53 53.09 51.55 49.45 49.33 50.63 53.44 54.53 55.58 55.98 55.88 56.40 57.80 57.69 57.26 57.36 55.25 51.79 53.14 54.34 53.08 53.45 53.85 53.62 53.29 53.76 54.17 55.57 54.46 54.42 54.50 53.60 55.30 54.37 53.20 53.05 54.67
49.32 50.19 50.43 50.29 46.29 41.92 43.41 53.92 48.58 49.75 45.51 47.42 50.29 47.61 48.68 49.04 52.08 54.41 48.65 49.70 50.41 54.32 55.59 56.58 57.29 57.60 56.36 56.99 57.91 57.45 57.56 56.49 55.97 56.26 55.94 55.49 55.29 55.44 55.98 54.62 53.69 52.90 53.13 55.05 54.66 54.10 54.80 50.56 54.46 54.85 55.21 55.11 54.53 53.99
50.66 48.41 46.42 46.08 45.25 41.24 49.33 47.90 50.01 48.49 48.69 46.69 45.69 44.26 46.61 49.55 53.27 49.84 45.86 49.97 51.64 52.97 53.76 55.24 55.44 54.03 56.30 56.24 53.33 55.08 56.38 56.19 54.22 53.72 55.84 54.02 53.07 53.81 55.25 54.47 54.69 53.24 53.57 53.41 53.40 53.97 54.64 54.32 51.64 54.95 54.46 54.09 53.45 52.19
41.47 41.19 42.48 36.66 47.37 44.91 43.61 44.13 44.98 45.47 43.95 45.59 44.88 45.15 46.84 50.43 46.13 45.55 45.76 49.06 49.99 51.40 52.99 54.59 54.98 55.86 54.38 52.58 53.19 54.74 56.33 54.85 53.64 54.46 55.99 56.85 56.73 55.88 55.29 55.16 51.92 51.73 53.27 52.30 50.60 50.95 49.82 49.69 50.49 50.56 52.19 52.11 51.69 50.88
34.72 44.53 39.93 44.64 45.47 44.32 44.39 42.37 43.70 44.04 45.04 44.91 45.65 47.39 47.01 44.45 41.80 40.37 44.64 47.49 49.58 51.39 53.50 54.36 54.94 54.68 53.62 52.51 50.83 51.00 53.38 54.94 55.30 53.35 55.05 56.17 56.04 53.84 51.52 50.32 48.66 48.72 52.25 50.99 50.06 49.43 48.68 48.58 48.97 48.94 48.91 49.15 44.41 48.59
37.18 42.94 47.83 53.21 49.26 48.90 47.31 48.38 48.48 46.43 44.23 43.38 43.81 43.40 42.43 37.28 37.51 42.45 48.43 50.48 51.08 55.67 57.00 56.36 54.63 54.18 53.82 54.00 53.48 55.42 56.95 56.05 56.82 56.00 57.11 55.41 54.59 54.22 52.44 49.96 49.06 49.92 51.74 51.00 50.65 49.67 48.62 48.53 48.90 48.92 48.74 49.09 48.42 47.95
45.96 46.56 44.04 47.98 47.86 49.14 45.92 45.80 44.44 43.36 44.31 46.86 45.70 41.36 40.51 40.79 42.07 47.68 50.27 54.83 55.83 55.65 57.47 55.84 54.92 54.89 55.15 54.60 55.02 55.37 57.92 58.25 59.05 58.84 58.11 53.70 53.92 53.40 53.40 53.08 51.75 45.41 49.83 49.19 50.59 50.11 49.42 49.17 48.98 48.87 48.19 46.64 46.14 46.10
46.04 48.22 48.38 45.29 47.01 46.12 45.51 45.02 44.43 45.93 47.92 46.75 43.94 42.13 43.56 47.61 49.81 51.10 53.42 55.43 56.30 54.55 55.46 54.94 55.71 56.44 55.48 55.16 54.64 54.71 53.74 52.49 51.12 49.52 49.30 48.68 49.10 49.42 51.82 51.87 51.73 51.86 51.04 48.87 40.75 44.81 47.26 48.29 47.86 47.79 47.09 45.09 44.81 45.30
46.19 49.87 46.49 45.36 43.24 42.11 45.62 48.67 47.81 50.28 50.72 49.79 49.43 48.36 49.02 50.60 52.84 55.89 55.73 54.83 54.09 53.41 54.81 54.80 54.59 53.86 51.87 51.78 51.53 51.72 52.24 51.34 50.09 47.78 46.47 46.80 47.36 49.32 49.90 50.08 50.83 51.12 51.37 51.25 49.28 48.95 44.96 47.05 45.94 46.43 44.62 43.69 42.82 42.62
48.63 48.25 45.84 44.99 43.60 45.87 48.17 50.15 51.78 52.37 52.35 50.81 52.14 49.22 48.42 49.54 52.70 56.17 55.02 55.32 54.92 53.26 53.03 52.78 53.06 53.26 52.60 51.82 50.71 49.59 47.58 49.65 49.28 48.68 47.81 48.40 48.19 48.46 49.40 50.00 50.79 51.47 51.27 50.23 48.46 47.20 46.21 45.49 44.62 43.77 43.03 42.43 42.12 40.95
46.86 45.40 43.82 41.81 43.59 48.93 50.84 49.89 49.84 49.27 49.22 49.59 49.49 50.94 49.65 49.45 47.79 51.35 54.84 55.09 53.68 53.00 50.09 52.98 52.21 51.12 52.73 52.73 51.62 50.55 46.01 48.85 48.33 47.61 46.46 46.37 46.74 47.92 48.61 49.31 49.62 49.68 49.88 48.99 48.22 46.71 45.63 44.97 43.48 42.95 42.30 42.26 42.29 41.70
47.35 46.95 46.73 45.94 45.81 46.79 49.40 50.07 49.46 48.49 49.41 48.14 48.64 49.73 48.91 48.34 46.32 50.69 56.09 56.00 54.07 53.08 53.01 54.11 53.20 53.01 54.19 53.54 52.74 50.42 47.84 47.85 42.68 37.74 37.64 37.47 36.82 39.85 46.35 47.28 47.96 47.80 47.48 47.27 47.06 45.86 45.22 44.70 43.14 42.85 42.61 42.56 42.67 42.03

GFSWCAN_sfc_wetblb_102.txt.gz
Wetbulb
50.99 51.11 51.25 51.31 50.99 50.67 50.59 50.55 50.50 49.84 49.77 49.93 49.96 51.20 53.12 55.75 55.33 51.67 48.47 51.14 47.37 44.64 46.26 49.58 50.56 45.84 44.95 43.74 41.03 43.73 43.70 44.74 43.03 39.11 38.07 37.34 35.88 39.45 41.02 43.58 42.95 41.37 39.58 39.25 39.87 36.99 36.78 54.21 54.78 48.09 48.33 51.89 54.60 54.13
50.98 50.91 50.84 51.01 51.34 50.98 50.38 50.29 50.29 50.35 50.36 49.93 50.05 50.99 52.81 54.94 55.49 54.15 49.09 53.18 53.48 46.68 47.09 50.99 52.83 53.14 51.46 50.15 44.68 43.62 43.14 42.60 44.38 41.06 41.62 41.10 39.85 40.95 40.49 37.74 45.90 41.88 45.52 42.38 42.06 41.24 48.41 52.21 54.09 55.45 55.34 54.11 54.60 54.90
51.00 50.69 50.60 50.72 51.18 50.99 50.70 50.51 50.34 50.53 50.57 49.39 50.18 50.53 52.66 54.27 54.96 54.10 47.66 50.34 50.25 45.54 45.25 45.55 47.30 51.52 52.50 53.08 53.01 43.11 43.01 46.53 45.64 47.33 43.63 42.50 38.88 42.52 38.43 40.36 43.10 49.05 50.42 42.59 44.30 47.93 49.19 53.11 56.78 56.93 55.97 54.66 56.50 56.43
50.84 50.90 50.80 50.84 51.02 50.77 50.74 50.64 49.91 50.27 50.29 49.35 49.84 50.38 51.94 54.26 54.18 54.01 47.99 48.66 47.91 46.20 41.13 43.19 52.16 49.38 53.20 50.41 51.66 50.85 49.49 45.22 45.81 45.21 42.05 41.18 40.06 42.78 39.83 41.05 41.73 45.11 47.88 44.91 42.99 45.88 47.66 53.10 55.95 55.95 54.97 57.35 56.97 57.05
50.67 50.52 50.57 50.68 50.63 50.67 50.70 50.87 50.35 49.93 50.21 50.27 50.30 50.51 52.38 54.36 53.14 52.17 49.31 50.66 49.99 45.86 42.65 42.64 48.42 51.02 50.66 48.89 50.38 50.49 46.58 45.52 44.03 42.20 40.77 40.06 41.71 40.78 40.56 40.12 40.05 49.16 47.74 43.93 41.00 47.13 47.85 51.69 55.19 55.25 53.16 53.26 55.48 57.57
50.45 50.39 50.35 50.31 50.51 50.27 50.30 50.77 50.45 50.00 50.12 50.16 50.38 51.41 52.13 53.54 52.81 50.45 47.03 51.86 52.40 50.11 43.76 39.05 45.03 46.39 47.72 49.33 48.72 46.63 46.87 45.64 44.92 43.12 41.53 42.78 45.50 43.18 38.87 37.02 44.07 46.21 49.29 49.82 47.00 50.14 51.77 55.18 54.96 55.15 51.83 53.10 55.80 56.72
50.29 50.36 50.10 50.13 49.93 50.16 50.18 50.57 50.34 49.69 49.51 49.62 50.55 51.28 52.70 52.31 49.40 48.51 46.92 49.99 51.87 50.07 46.43 39.67 40.57 46.75 48.40 46.76 46.07 45.27 44.93 44.48 44.60 42.73 41.44 42.88 44.58 43.79 39.10 37.17 45.10 47.01 46.94 50.27 50.63 54.32 52.93 54.60 53.45 56.04 54.85 57.28 56.39 56.23
50.14 50.10 49.89 49.81 49.81 49.98 50.17 50.61 49.82 49.25 49.54 50.23 50.76 52.24 52.29 51.56 50.06 46.18 51.09 52.52 52.59 48.27 47.52 39.79 40.75 43.31 47.54 43.34 42.36 45.11 43.56 43.42 43.40 43.29 42.50 41.40 42.33 41.35 37.54 42.29 43.86 46.37 50.13 52.30 52.50 53.06 53.05 53.89 54.31 54.03 54.87 56.75 55.67 55.01
50.02 50.02 49.51 49.63 49.64 49.89 50.43 50.63 49.69 49.16 49.70 50.71 52.01 52.07 50.81 47.95 47.07 46.39 55.41 54.45 51.59 48.86 43.06 40.78 37.38 38.25 46.27 43.42 43.83 44.05 44.44 40.14 43.96 41.37 40.82 42.29 39.10 37.40 43.08 47.90 51.20 54.25 52.94 51.21 53.26 53.07 53.55 53.28 53.68 54.43 54.09 55.46 54.62 55.19
50.09 49.96 49.77 49.62 49.57 49.95 50.70 50.30 49.52 49.31 50.27 51.60 51.36 47.61 44.51 46.58 54.38 53.57 50.03 48.20 47.16 44.91 43.92 39.74 40.74 38.34 43.13 43.47 41.97 43.70 41.85 39.05 35.48 40.21 41.64 40.25 38.68 43.67 48.63 51.73 51.63 52.85 53.29 54.00 51.78 50.56 51.42 50.79 52.10 52.73 54.02 54.48 55.61 55.63
49.68 49.94 49.58 49.50 49.75 50.05 50.49 49.90 49.53 49.74 50.03 48.34 46.14 44.84 48.90 54.56 50.84 47.70 44.17 43.08 44.24 39.79 42.45 41.25 41.43 38.43 44.13 41.05 43.78 46.22 42.30 43.38 38.90 42.43 42.23 39.79 40.91 46.57 49.44 50.80 52.52 52.35 53.28 53.62 53.03 53.72 53.53 51.67 52.36 53.96 53.57 54.31 55.94 55.85
49.81 49.84 49.94 49.74 49.90 50.51 50.23 49.38 49.78 48.69 48.28 48.65 48.52 52.74 51.06 48.16 45.74 42.40 41.77 41.55 40.27 39.29 42.19 40.67 41.95 42.91 43.23 46.87 45.61 45.73 41.85 42.56 37.77 45.35 42.43 40.65 45.92 50.41 49.25 49.86 52.98 53.04 54.35 54.24 54.42 53.41 55.03 54.91 54.47 53.84 54.86 55.87 56.67 56.45
49.57 49.78 49.71 49.81 50.40 50.09 49.89 49.76 50.31 50.10 50.50 51.35 48.29 45.61 44.85 43.77 37.60 37.58 35.95 37.20 37.26 42.11 44.84 43.39 41.60 42.96 43.08 44.47 43.65 42.34 40.05 40.09 48.00 42.68 40.60 42.69 46.27 50.68 49.64 51.62 53.56 55.65 54.91 54.14 53.50 55.01 53.68 56.02 56.83 55.81 55.37 56.73 56.81 56.43
49.49 49.39 49.52 50.10 49.93 49.94 49.86 50.00 50.55 49.47 48.08 44.92 42.02 34.92 38.39 37.46 38.74 39.15 38.79 39.52 43.20 45.04 45.10 42.62 42.46 41.86 42.51 41.76 42.75 41.60 43.45 45.45 40.89 39.71 39.58 45.02 48.36 51.40 53.82 54.46 55.00 53.34 53.94 53.24 53.27 53.45 55.89 55.20 57.10 58.07 57.37 56.90 56.81 55.86
49.55 49.80 49.81 49.49 49.92 50.08 50.00 50.45 50.77 49.23 47.25 41.95 43.09 36.62 37.96 41.48 42.90 44.54 44.79 44.31 46.36 47.45 46.28 43.74 44.07 44.85 42.11 42.16 41.81 40.58 41.85 41.60 42.12 41.77 45.85 48.18 48.11 52.04 52.69 53.75 52.99 51.65 52.25 53.47 55.04 55.69 55.92 56.32 55.98 55.50 55.94 54.43 54.62 54.57
49.95 49.27 48.00 49.96 49.71 50.04 50.22 50.36 49.82 49.45 46.40 44.41 44.30 42.48 45.54 44.90 43.24 45.15 46.80 47.55 50.25 48.08 46.87 46.20 43.52 42.67 40.55 41.00 42.12 41.38 41.14 39.49 41.58 45.02 46.78 47.05 49.00 50.62 52.10 52.61 52.86 53.41 52.52 52.71 53.33 54.04 54.20 54.09 54.60 55.15 56.52 56.18 55.64 54.14
48.88 44.21 49.50 49.44 50.29 50.28 50.43 48.46 47.39 44.89 44.00 42.84 42.70 46.08 45.43 45.37 46.26 47.12 46.30 49.71 51.40 47.41 45.07 45.10 42.74 41.51 43.47 42.16 41.46 43.96 43.07 45.27 45.44 45.76 47.50 48.07 48.27 50.37 51.32 52.34 52.86 52.27 51.43 51.13 51.55 51.23 50.90 53.08 54.20 54.07 55.18 54.84 55.06 55.46
47.41 47.83 49.86 50.18 49.66 49.50 48.60 47.75 44.98 44.10 41.33 42.48 39.82 41.79 44.56 47.34 47.23 49.04 47.84 48.31 47.30 47.46 46.98 44.53 47.67 44.95 42.59 40.13 42.14 44.82 47.10 48.48 48.00 48.29 48.72 49.85 50.97 51.50 52.45 50.67 52.37 51.92 50.44 50.41 50.49 50.97 50.80 52.36 52.58 53.56 53.95 53.88 53.36 52.31
48.12 49.31 50.52 50.68 50.10 47.09 43.58 44.32 46.64 41.70 42.25 42.10 43.34 44.89 45.93 48.75 49.12 49.20 48.67 48.62 49.16 49.55 47.30 46.03 44.98 43.12 43.36 45.60 47.30 47.03 47.71 48.45 48.51 49.11 50.03 51.01 51.14 51.66 51.84 52.30 52.46 51.87 51.11 49.96 49.14 50.77 52.57 53.15 53.63 54.10 54.00 53.98 53.23 51.59
50.54 50.34 50.91 51.25 50.80 47.11 42.66 42.56 47.08 44.30 43.77 45.63 46.78 44.35 45.95 48.12 50.34 49.04 50.11 49.14 48.22 45.54 44.59 44.74 45.80 45.02 45.05 46.98 48.53 48.28 49.45 49.77 49.23 47.88 47.75 49.55 50.92 50.97 50.63 50.80 51.10 51.23 50.38 51.64 52.90 49.81 51.80 53.06 53.64 54.19 54.58 54.53 52.19 51.48
49.58 49.57 50.54 48.32 47.66 48.35 47.82 46.64 45.38 45.97 46.26 44.34 46.35 47.34 46.96 48.71 47.84 47.32 48.07 49.97 44.65 42.59 44.61 48.24 48.38 49.92 50.53 48.67 50.69 50.80 50.65 50.44 48.97 48.34 47.53 47.88 49.89 52.64 52.11 52.53 53.37 53.22 52.88 52.92 52.32 52.72 50.31 52.29 53.05 52.02 51.02 49.99 50.40 50.44
48.22 50.95 48.71 48.78 46.15 48.76 46.85 49.07 46.53 48.37 45.57 47.12 47.05 46.22 44.48 43.72 44.43 46.91 48.52 47.00 45.59 46.50 48.02 48.07 48.37 48.78 49.37 48.31 49.07 51.17 51.73 51.94 50.75 49.57 49.29 48.62 50.52 50.98 51.04 53.05 53.13 52.33 52.41 51.74 52.97 52.00 50.61 50.93 50.61 51.20 51.06 50.99 50.28 50.52
49.77 48.73 47.00 48.74 45.61 41.92 41.65 48.69 44.36 45.10 40.73 42.05 45.14 43.98 42.78 43.34 46.44 47.32 43.95 47.01 49.39 48.81 49.84 50.03 50.13 50.23 48.46 50.03 52.01 52.53 53.72 51.39 50.02 49.74 50.35 50.69 51.37 52.22 52.17 52.67 52.71 50.36 48.31 50.50 52.05 52.57 51.88 48.61 49.17 50.67 50.64 50.01 49.30 49.56
49.75 45.92 45.11 43.15 41.45 38.17 44.97 42.75 45.30 43.67 43.06 41.17 41.26 40.46 44.47 44.14 45.75 44.12 43.17 47.09 47.61 48.84 49.35 49.71 50.12 48.77 51.71 50.67 49.96 50.20 50.65 52.10 50.66 50.66 52.85 50.20 48.05 48.78 51.30 50.63 51.49 49.44 49.78 46.57 46.89 45.11 44.83 45.03 44.95 47.39 49.16 48.97 47.53 46.15
38.89 36.59 39.11 32.20 41.39 41.02 40.87 41.00 41.02 40.99 40.00 42.69 41.70 42.04 40.92 43.91 40.65 40.85 40.63 45.25 45.18 46.55 48.10 50.15 49.84 49.21 47.46 47.82 47.81 50.09 52.02 50.62 50.02 50.01 52.20 52.85 50.72 50.80 49.01 44.62 43.97 44.49 45.31 44.99 44.13 43.81 43.58 43.96 44.50 44.71 44.72 44.81 45.08 44.39
29.83 41.59 38.22 41.56 41.66 41.65 40.39 39.15 40.54 42.49 43.15 42.54 43.80 42.30 42.06 40.00 38.56 38.44 40.28 45.35 46.64 49.34 51.12 49.34 49.14 47.34 46.76 47.84 47.82 49.78 50.77 52.53 52.38 51.26 50.88 51.89 50.09 46.20 43.43 41.96 41.58 42.96 44.71 44.85 44.22 44.46 44.44 44.55 44.99 45.10 44.64 43.60 40.55 41.64
35.00 40.97 44.78 47.35 44.57 44.76 44.07 43.98 45.15 43.62 41.66 40.63 40.32 41.57 40.77 37.58 37.94 41.99 47.09 49.41 50.27 52.26 52.51 53.69 52.99 49.52 49.28 50.22 51.31 53.22 53.87 54.37 53.62 53.47 51.97 48.39 46.77 46.55 44.95 43.12 42.03 43.27 45.38 46.14 45.38 45.13 44.60 44.83 44.58 44.06 43.03 42.49 41.06 39.95
42.01 43.63 40.47 43.74 43.99 44.72 42.36 42.14 41.92 41.43 41.34 44.59 44.71 41.22 39.84 39.17 40.59 47.03 48.95 52.16 53.32 53.92 53.99 52.91 52.93 53.09 52.56 52.22 53.67 52.61 50.63 50.18 52.55 52.62 50.17 48.32 46.71 46.69 45.56 44.67 43.49 41.97 44.16 45.10 45.35 45.17 45.19 44.68 43.70 42.46 41.23 40.14 39.95 40.07
43.09 45.13 44.68 41.94 43.75 43.00 42.96 42.75 42.37 43.53 45.31 44.47 42.51 41.65 43.72 47.00 49.27 49.94 51.20 52.68 54.13 52.51 51.66 51.56 51.85 53.29 52.86 51.37 47.35 45.92 46.48 46.57 44.15 42.61 41.62 40.32 40.58 41.98 44.18 44.71 45.07 44.58 43.71 44.00 41.23 42.38 44.58 42.77 42.41 41.40 40.70 39.20 39.03 39.33
42.58 45.53 42.63 42.46 41.99 41.55 44.91 46.71 46.57 48.49 48.08 46.41 46.34 46.12 46.83 48.54 50.44 53.04 52.06 51.84 51.35 49.99 51.46 48.66 50.57 49.88 46.80 44.20 43.04 43.97 44.95 44.39 42.67 41.05 39.89 39.00 39.87 42.36 43.32 44.06 44.75 44.74 44.72 43.71 42.77 42.46 41.55 41.52 40.60 40.25 39.46 38.25 36.84 36.86
46.40 44.65 42.67 42.65 42.90 45.44 46.77 47.89 48.58 49.27 49.67 48.49 49.37 47.11 45.50 45.81 48.59 51.39 50.62 51.02 50.26 49.89 48.50 47.58 46.94 46.26 45.30 44.23 42.82 41.40 40.48 42.35 42.40 42.04 41.58 41.25 41.46 41.97 43.06 43.66 43.58 43.80 43.94 43.26 42.15 41.31 40.28 39.44 38.80 38.59 38.54 37.87 37.98 37.53
43.97 42.30 43.09 41.76 42.30 46.07 47.30 46.12 45.79 45.53 44.94 45.47 46.90 47.57 45.87 43.68 42.65 47.68 48.65 48.05 47.35 49.26 47.62 45.99 44.88 44.72 44.95 44.72 45.05 44.31 41.70 41.96 41.36 41.53 41.57 40.95 40.86 41.53 41.95 42.05 42.44 43.86 43.44 43.12 41.64 40.78 40.44 39.28 38.49 38.66 38.06 38.43 38.30 37.75
43.72 44.11 44.07 43.26 42.46 43.55 45.64 46.53 45.55 44.00 46.07 45.28 45.40 45.10 46.40 44.30 42.83 48.50 49.60 48.47 47.00 46.19 46.57 45.92 46.29 46.92 47.37 46.28 45.18 43.77 42.27 41.70 39.35 37.87 38.06 38.06 37.74 38.51 40.01 40.10 41.53 42.79 42.10 41.41 40.67 40.55 40.01 39.45 38.77 38.99 38.51 38.31 38.25 38.31

GFSWCAN_sfc_wetblb_105.txt.gz
Wetbulb
51.60 51.38 51.06 50.84 50.58 50.92 51.08 50.72 50.64 50.47 50.04 49.39 49.36 49.64 50.54 51.78 53.66 51.41 47.46 51.40 47.31 44.07 46.07 48.03 48.94 45.11 44.20 42.45 39.75 42.69 42.27 42.03 40.84 37.51 36.30 36.03 34.41 37.27 38.25 40.94 39.73 39.77 38.04 37.26 38.27 37.53 36.31 53.38 52.74 45.70 46.71 50.72 53.37 53.04
51.67 51.45 51.28 50.79 50.74 50.90 51.13 50.88 50.70 50.44 50.32 50.43 49.28 49.38 50.09 51.50 53.60 54.40 48.40 52.44 51.85 44.97 43.63 48.66 50.65 52.05 49.86 48.57 44.03 42.19 41.37 41.15 42.43 39.11 39.34 39.25 38.51 38.85 39.09 36.48 43.27 38.43 42.13 40.25 42.01 42.64 48.91 50.33 51.57 53.25 53.62 53.34 55.05 53.36
51.61 51.50 51.41 51.22 51.09 50.94 51.13 51.01 50.58 50.45 50.51 50.36 49.80 49.13 49.69 51.16 52.91 53.55 49.63 50.48 49.68 48.01 47.16 44.80 46.99 50.57 51.49 52.83 52.58 43.31 41.77 45.15 43.83 44.99 41.80 40.73 37.79 41.10 36.47 39.20 41.16 43.51 46.64 42.03 43.79 48.31 48.65 50.59 54.66 54.52 55.13 54.48 55.56 55.44
51.29 51.57 51.35 51.27 50.94 51.04 51.13 50.83 50.75 50.47 50.45 50.21 50.24 48.94 50.36 51.06 52.26 54.07 49.86 48.16 49.34 47.32 42.27 43.61 50.41 48.39 51.64 49.20 50.50 51.46 48.94 43.98 43.78 42.74 39.90 39.18 39.09 42.03 38.56 39.92 38.37 40.27 46.11 43.44 43.41 46.21 47.28 49.10 51.15 54.60 55.65 56.15 56.69 55.94
51.07 50.90 50.64 50.84 50.92 50.87 51.05 50.91 50.56 50.78 50.04 50.00 50.26 48.77 50.49 51.11 51.76 52.91 50.81 48.92 50.36 46.01 41.94 41.57 46.00 50.27 49.20 48.73 48.61 49.52 48.00 42.26 41.84 40.51 39.11 38.80 40.16 40.10 38.75 37.42 36.33 45.44 44.82 42.50 41.28 45.37 46.61 47.86 52.97 55.33 53.17 53.29 54.98 54.67
50.69 50.70 50.83 50.68 50.55 50.36 50.26 50.56 50.72 50.36 50.17 50.23 50.02 48.78 50.47 51.40 52.62 48.73 43.73 47.30 50.00 49.71 44.80 38.22 44.21 45.54 46.51 47.10 46.39 45.61 46.84 42.74 42.94 41.25 39.98 40.61 42.33 41.58 37.43 35.54 40.69 42.85 46.14 48.70 46.24 49.18 48.27 51.75 54.28 53.95 50.91 52.44 54.98 55.57
50.50 50.59 50.52 50.45 50.51 50.11 50.09 50.53 50.40 50.06 49.78 49.50 49.28 49.35 50.42 50.72 50.95 46.74 43.23 49.16 50.99 49.40 43.72 38.78 39.20 44.57 46.44 44.56 43.79 43.79 43.71 44.01 43.44 41.22 40.11 41.25 41.94 42.61 37.45 36.53 42.35 45.97 46.26 45.72 47.31 50.97 51.64 53.25 52.05 54.85 54.15 56.10 55.42 55.39
50.28 50.50 50.40 50.31 50.06 50.24 49.97 49.97 50.04 49.90 49.22 49.33 49.43 50.14 51.71 51.86 49.79 46.23 48.81 51.69 50.20 47.86 47.43 38.46 38.94 40.85 44.08 41.05 41.81 42.05 41.32 41.49 41.21 41.13 40.52 40.02 40.37 39.63 36.31 40.40 42.25 48.34 51.86 50.77 52.23 53.02 52.33 53.30 53.23 53.25 54.19 55.20 54.38 54.77
50.08 50.18 50.20 50.29 50.09 49.88 49.62 49.91 49.98 49.71 49.07 49.51 50.29 51.95 50.51 47.61 43.57 44.54 53.28 55.15 52.93 49.21 42.99 40.70 35.94 36.17 44.70 40.46 41.95 42.50 42.16 38.94 41.47 40.26 39.04 40.87 37.92 36.43 40.00 45.09 48.60 51.41 51.15 50.79 51.14 52.37 52.89 52.41 51.82 53.06 53.89 54.13 53.23 54.81
50.14 50.13 50.06 50.08 49.84 49.68 49.73 50.07 50.18 48.98 49.12 50.10 50.08 46.34 44.17 44.66 52.21 52.96 48.16 46.65 46.51 46.99 45.17 38.49 39.13 37.77 41.25 42.10 41.12 41.18 39.62 39.03 34.48 38.29 40.41 37.80 37.28 41.57 47.15 49.31 50.17 51.14 52.94 53.68 49.96 48.63 49.78 50.19 51.19 50.59 51.43 52.84 53.97 54.83
50.07 49.96 49.98 49.99 49.97 49.74 50.05 50.20 49.72 49.10 50.09 47.62 45.56 44.11 46.40 53.37 50.22 46.92 43.08 40.67 43.36 39.37 40.15 40.29 40.10 37.46 41.97 40.91 41.76 45.08 40.53 41.06 37.53 39.65 39.27 36.80 37.60 44.50 48.42 49.65 51.09 51.32 52.03 52.99 52.60 52.36 50.98 49.96 50.87 52.08 52.61 52.99 54.77 55.48
49.60 49.95 49.96 50.02 49.85 49.66 50.10 50.09 49.09 47.85 46.76 47.77 47.10 50.79 49.17 46.48 44.88 41.52 40.46 38.94 40.49 38.80 40.66 38.98 39.89 39.80 40.86 43.80 43.42 43.28 40.91 40.80 36.20 42.84 40.19 38.63 42.83 48.43 48.66 49.34 50.60 51.16 52.40 53.10 53.81 54.58 54.31 53.17 53.62 53.01 53.50 54.05 54.81 56.27
49.62 49.74 49.68 49.84 49.90 50.06 50.06 49.44 49.67 49.53 49.64 49.65 47.44 45.19 42.92 42.75 37.28 36.77 36.47 37.21 36.27 40.10 42.32 40.96 39.98 40.75 40.68 43.68 42.34 40.95 38.72 37.66 44.32 40.12 39.22 41.34 44.42 49.95 49.21 49.97 52.20 54.68 55.24 54.19 54.11 53.90 53.83 54.84 55.61 54.15 54.26 55.97 56.76 56.15
49.52 49.68 49.50 49.65 49.91 50.15 49.83 49.46 49.95 49.47 47.03 44.53 41.49 35.65 38.60 36.78 38.26 37.07 38.40 38.36 41.67 42.95 43.16 43.34 40.23 39.31 40.08 40.73 41.60 39.35 40.64 43.85 39.93 38.16 39.15 43.12 48.96 50.99 52.21 53.30 53.41 53.93 53.52 52.55 52.88 54.01 53.67 54.20 55.84 56.57 56.25 56.23 56.35 55.34
49.23 49.38 49.66 49.62 50.09 49.93 49.52 50.07 49.84 48.73 46.34 42.33 41.84 35.88 36.80 39.43 41.94 42.95 42.53 42.19 44.40 45.37 45.31 42.78 41.89 41.82 40.03 40.04 39.66 39.38 41.33 39.59 41.81 40.97 44.92 48.09 48.05 51.01 52.15 53.06 52.57 52.47 52.01 51.92 54.55 54.41 54.73 55.76 56.04 55.43 55.92 55.03 54.03 54.77
49.38 49.03 47.35 49.75 49.93 49.83 49.76 49.84 49.06 48.09 46.70 43.00 43.46 40.13 44.53 43.52 43.98 43.29 44.11 44.16 45.91 47.12 45.76 45.11 42.53 40.44 39.25 40.75 40.70 40.18 40.44 38.14 40.55 42.78 45.39 46.30 48.68 49.05 49.87 51.25 52.71 52.49 50.90 50.37 50.50 51.93 53.02 52.96 54.03 54.01 55.01 55.25 54.51 54.46
48.17 44.55 49.61 49.73 49.62 49.92 49.97 47.84 46.96 44.63 43.27 41.64 41.60 45.62 44.71 45.48 45.46 47.23 46.58 47.14 50.49 46.24 41.42 43.22 40.94 40.09 43.32 41.15 40.59 42.50 40.99 43.50 44.73 44.22 45.29 46.92 47.96 48.89 49.91 50.86 51.71 51.29 49.43 49.75 49.61 49.63 49.80 51.72 52.01 52.85 52.66 52.90 54.06 53.58
46.24 48.15 49.92 49.97 49.62 49.51 48.36 47.44 44.31 42.77 40.57 42.14 39.96 42.30 45.28 47.19 46.54 48.11 48.60 48.29 46.83 45.45 45.19 44.21 47.45 43.29 42.15 40.02 40.64 44.93 47.26 46.51 45.74 47.30 48.22 48.77 49.01 49.64 50.94 49.59 50.81 49.35 48.43 49.12 49.27 49.38 50.40 51.24 52.59 52.61 52.02 53.19 52.52 50.95
45.88 47.85 50.25 50.25 49.21 46.73 43.55 43.22 45.05 40.83 42.38 41.60 41.73 43.23 45.94 46.99 49.09 49.32 47.73 47.64 47.50 47.51 47.12 45.55 44.46 43.28 43.00 45.62 46.20 47.23 46.45 46.36 46.85 47.32 47.80 48.57 48.98 49.22 49.83 50.60 50.78 50.64 49.24 48.35 49.45 51.85 52.35 53.21 53.82 53.82 54.11 54.41 52.80 51.15
49.63 50.05 50.32 50.88 50.35 45.54 41.71 40.71 44.64 41.02 42.12 45.38 44.20 43.85 44.57 46.97 48.00 47.34 48.29 47.71 45.02 45.14 43.82 43.98 44.76 46.22 46.17 48.30 48.29 47.95 48.70 48.52 47.66 45.97 46.06 47.77 48.90 48.66 49.25 49.07 49.15 48.99 51.83 51.83 50.66 49.04 52.36 52.54 52.71 53.59 54.54 53.94 52.63 52.25
49.43 49.60 50.51 47.64 46.31 47.59 46.88 45.63 44.87 45.71 45.08 43.21 45.79 45.59 46.54 48.82 48.08 47.23 45.82 47.17 43.78 42.92 44.00 46.85 48.00 48.32 48.73 48.46 48.54 48.07 47.87 48.19 47.01 46.62 45.95 46.13 50.74 52.18 51.95 52.47 53.34 52.82 50.06 50.99 51.76 51.28 50.82 51.46 50.35 50.32 50.32 50.22 50.92 51.31
46.59 50.69 46.45 47.68 45.05 47.69 47.17 47.73 44.94 46.92 42.33 44.51 46.59 47.23 45.37 45.24 46.00 46.26 48.02 46.15 45.35 47.15 46.96 47.14 47.91 47.28 46.41 46.68 47.69 49.11 49.03 48.51 48.09 47.77 46.94 48.74 49.85 50.13 51.02 51.92 51.55 49.29 49.56 51.02 50.71 48.63 48.86 49.90 50.59 50.40 50.36 49.86 49.41 49.89
49.79 48.97 46.60 47.15 45.41 42.32 43.49 48.87 43.52 45.63 43.64 43.82 45.16 42.05 43.81 44.47 45.36 47.93 44.16 45.04 48.18 50.55 49.00 47.24 47.78 48.02 47.82 49.33 50.26 50.25 50.32 48.92 47.60 48.38 50.53 51.74 50.97 50.53 51.82 51.09 50.13 46.80 45.38 46.29 46.80 43.87 43.31 44.23 47.95 48.49 48.27 47.48 46.03 45.09
48.95 44.38 43.99 44.31 44.25 38.74 45.10 43.27 45.05 42.89 41.62 39.82 40.89 40.34 41.58 42.25 44.74 45.47 43.57 45.16 45.41 46.00 46.58 47.12 47.57 47.62 48.41 48.64 47.73 48.22 49.19 51.10 50.95 51.81 51.41 47.69 45.56 48.05 47.77 46.57 45.26 45.74 45.74 44.36 43.81 43.78 42.65 43.11 42.05 44.87 45.65 43.65 41.95 40.74
38.27 35.66 39.70 33.75 40.09 41.11 40.91 40.11 39.79 40.60 41.03 41.71 40.06 39.11 39.30 41.75 40.04 41.17 41.98 43.18 44.19 45.28 48.00 46.87 46.53 46.38 45.82 46.06 46.74 48.90 50.04 51.66 50.93 50.57 51.07 50.85 48.97 44.32 41.56 41.32 41.64 41.98 42.41 42.49 41.78 42.30 42.30 43.11 43.46 44.03 43.61 41.22 39.34 38.40
34.31 40.43 36.91 39.95 40.76 40.66 41.19 40.77 41.70 40.53 41.08 40.55 40.11 40.50 39.91 38.36 37.99 38.32 41.63 45.38 47.59 48.64 49.02 47.75 45.61 46.09 46.60 48.65 48.31 48.94 50.33 52.98 52.14 49.82 47.83 48.06 44.84 41.91 40.38 40.28 40.03 41.23 42.58 41.81 42.39 42.89 43.23 42.89 42.70 41.81 40.53 39.35 38.06 38.65
38.19 41.60 43.85 46.67 43.45 44.19 41.60 42.13 43.22 40.93 39.99 38.81 40.32 41.68 40.67 37.43 37.76 41.89 46.74 49.59 49.44 50.82 52.20 52.75 51.42 49.51 48.76 50.07 52.05 51.43 52.91 52.59 51.98 49.57 44.27 42.94 42.81 42.71 42.06 41.29 40.70 41.81 42.89 43.95 43.88 44.14 43.20 42.23 41.59 40.90 39.33 38.39 37.79 37.71
42.79 44.17 41.24 44.55 42.54 42.85 40.81 40.65 40.50 39.74 41.19 44.44 44.65 41.00 39.38 39.41 41.16 46.97 48.64 49.19 51.77 52.57 53.24 53.41 53.15 52.52 51.23 47.49 44.63 45.15 45.98 47.22 48.64 44.16 43.33 42.46 41.69 43.15 42.37 41.91 41.77 40.09 42.22 42.98 43.97 43.67 42.32 41.00 39.79 39.40 39.30 38.23 37.21 37.67
43.07 44.37 43.32 40.26 41.31 41.84 42.64 42.17 43.01 44.00 46.36 44.98 42.51 42.42 44.62 47.30 49.19 49.34 51.22 51.48 53.04 52.04 50.25 48.75 49.27 46.56 46.02 45.06 42.64 42.33 41.97 44.87 44.43 42.68 40.66 38.00 38.75 40.39 42.07 42.29 42.48 41.76 41.61 41.50 39.35 40.73 41.67 40.08 39.23 38.58 38.33 37.53 37.65 37.42
40.96 43.20 40.92 41.46 41.78 43.17 45.59 47.03 45.73 46.56 45.92 45.47 45.65 46.67 46.39 47.80 49.71 51.73 51.58 51.30 48.65 45.97 44.57 46.17 46.08 45.52 41.32 39.99 39.29 40.35 40.24 39.93 39.94 39.60 37.91 37.31 38.25 40.11 40.55 40.81 41.44 41.87 41.05 41.10 40.36 39.87 39.06 39.26 38.22 38.06 37.26 36.38 35.53 35.37
42.80 42.14 41.27 42.71 42.72 42.74 45.65 48.12 48.68 48.96 48.28 47.26 47.09 45.03 44.59 43.83 46.52 48.25 48.23 48.67 48.20 47.03 46.09 45.40 42.91 42.06 41.63 40.51 39.62 38.86 37.84 39.21 39.53 40.01 39.61 38.88 38.83 39.52 40.07 40.26 39.88 41.29 40.48 40.12 39.18 38.18 37.77 37.19 36.71 36.59 36.97 36.74 36.93 35.94
41.45 40.23 41.68 39.39 40.76 44.29 45.12 44.33 43.68 44.59 45.78 45.18 44.55 42.66 42.91 43.73 41.76 46.24 48.69 46.60 44.60 43.28 42.98 42.98 42.53 41.68 41.91 41.63 41.50 41.05 39.35 39.50 39.39 39.63 39.53 39.38 39.23 39.53 39.22 39.49 39.98 41.05 40.70 40.00 39.16 38.21 38.27 37.35 36.92 36.91 36.32 36.51 36.95 36.95
41.88 42.29 42.02 41.03 40.35 41.92 44.26 45.91 43.56 42.18 45.25 44.44 44.17 45.20 43.45 41.91 41.44 44.39 45.35 44.92 44.37 44.17 43.53 43.54 43.87 43.48 42.97 42.61 41.84 41.10 39.88 40.19 38.31 37.43 37.41 37.27 37.03 37.66 38.24 38.44 40.20 40.65 40.30 39.26 38.58 38.28 37.72 37.67 37.27 37.63 37.29 37.22 37.57 37.55

GFSWCAN_sfc_wetblb_108.txt.gz
Wetbulb
51.57 51.62 51.41 51.15 50.91 50.61 51.10 51.05 50.82 50.81 50.86 49.20 49.20 49.23 49.25 50.06 51.28 52.02 49.85 50.90 47.26 44.51 44.76 46.68 47.72 44.21 43.22 41.59 39.58 41.56 41.25 40.06 39.65 36.60 34.92 34.37 33.88 36.08 36.73 38.46 38.86 39.03 36.83 36.23 36.99 35.29 34.41 52.35 53.24 47.26 47.32 49.98 52.39 53.36
51.61 51.72 51.76 51.65 51.03 50.90 51.15 51.13 51.21 51.25 50.75 50.72 49.13 49.28 49.15 49.59 50.50 52.08 48.70 51.79 51.25 45.63 41.72 47.60 48.87 50.30 49.34 48.43 44.09 41.50 40.89 40.40 41.23 38.05 38.07 37.89 37.42 37.32 37.15 35.82 42.03 37.36 40.38 38.64 40.44 39.88 46.55 49.88 50.66 52.86 52.97 51.86 52.95 53.73
51.69 51.55 51.55 51.80 51.69 51.44 51.44 51.00 50.53 51.22 50.77 50.32 50.34 49.67 49.35 49.47 50.62 50.37 49.92 49.80 49.13 47.27 45.07 46.41 44.72 48.48 50.32 51.04 51.32 43.36 43.09 45.29 42.20 43.40 40.97 39.28 37.74 39.68 36.08 37.56 40.05 42.40 45.90 41.55 41.96 44.66 47.43 50.22 52.37 54.05 54.66 53.71 54.81 55.47
51.44 51.44 51.44 51.50 51.64 51.51 51.34 51.04 50.68 50.89 50.84 50.32 50.03 49.68 49.92 49.07 50.54 50.96 49.30 50.06 47.63 47.33 43.34 42.25 49.29 47.36 49.75 48.34 50.75 51.49 48.33 43.39 42.97 41.96 38.91 38.44 38.85 41.53 37.85 39.03 37.83 39.66 45.20 42.36 42.21 45.60 46.31 49.06 51.38 52.35 54.37 56.16 56.16 56.12
51.20 51.22 51.20 51.26 51.34 51.39 51.32 51.21 51.08 50.43 50.25 50.13 50.18 50.24 49.80 48.91 50.24 50.37 51.18 50.81 49.13 44.80 42.07 42.72 44.86 49.54 50.19 49.30 48.54 49.77 48.43 42.34 41.37 40.37 38.58 37.94 39.38 39.68 38.06 36.83 36.11 43.50 42.35 41.53 40.57 44.40 44.51 45.73 50.03 54.31 52.62 54.02 54.37 55.04
50.80 50.88 51.06 51.02 50.81 50.65 50.44 50.87 50.99 50.48 50.41 50.37 50.37 50.18 49.28 49.28 50.69 49.48 42.99 48.52 51.06 47.96 40.86 38.12 42.63 43.37 45.15 44.54 45.44 45.77 46.91 41.97 42.57 40.62 39.64 40.25 41.84 41.02 36.20 34.69 39.96 41.00 46.02 47.34 45.24 46.47 46.37 48.53 53.28 54.85 52.91 52.28 54.28 55.41
50.20 50.34 50.30 50.61 50.69 50.57 50.29 50.45 50.52 50.80 50.81 50.36 49.84 49.07 48.20 49.58 48.55 46.02 40.87 48.45 50.41 49.72 44.71 38.20 37.92 42.80 44.70 43.17 41.93 41.45 42.50 42.68 42.24 40.32 39.61 40.72 41.05 41.60 37.12 36.81 41.39 45.21 44.99 45.22 46.90 46.47 46.81 51.07 51.36 54.38 53.84 55.40 55.40 56.30
50.07 49.93 50.18 50.24 50.50 50.68 50.50 50.16 50.04 50.40 50.11 50.13 49.08 48.85 49.31 49.80 50.10 47.18 49.50 50.86 51.39 44.03 44.63 37.22 37.42 39.76 42.38 39.97 39.61 40.40 39.60 39.56 39.48 39.92 39.74 39.45 39.56 38.86 36.33 40.06 42.15 44.33 47.32 49.19 51.37 49.95 50.33 53.15 53.79 53.99 54.84 54.96 54.22 54.27
49.68 50.07 50.08 50.25 50.53 50.46 50.20 50.09 50.03 49.75 49.80 49.12 49.38 49.74 50.22 47.94 44.50 43.17 51.67 52.99 50.90 47.42 40.53 39.76 37.10 36.38 42.62 39.34 40.18 40.64 40.79 37.68 39.82 38.93 38.22 40.35 37.24 35.95 40.12 41.13 45.96 49.41 50.52 51.14 52.06 52.47 52.73 52.65 52.65 53.04 53.77 54.24 53.13 53.77
49.49 49.87 50.21 50.22 50.32 50.32 50.05 49.84 49.75 49.52 48.81 49.39 47.81 46.49 42.64 46.02 50.92 52.00 50.29 47.05 47.40 47.34 45.68 40.32 37.84 37.55 39.87 40.12 42.11 41.69 38.80 37.67 35.33 38.14 39.30 37.17 36.97 39.23 44.71 48.13 48.89 49.34 49.97 51.94 50.02 49.90 50.97 51.44 51.86 52.16 52.45 52.95 53.54 53.92
49.56 50.23 50.22 50.08 50.21 49.86 49.87 49.57 49.72 48.53 48.98 46.49 44.28 43.31 45.55 51.61 46.49 42.83 41.52 39.02 41.43 38.84 39.46 39.56 39.15 38.64 41.74 39.37 39.87 42.40 38.19 38.79 35.88 37.69 38.09 35.28 35.49 42.84 46.88 48.95 50.30 51.04 50.96 51.85 52.36 52.77 52.84 51.37 50.93 52.01 52.62 52.99 53.82 55.17
49.83 50.06 49.94 49.94 49.96 49.95 49.58 49.64 49.46 46.70 46.08 47.04 46.96 49.38 47.53 43.42 43.03 38.67 39.98 37.85 37.74 36.29 39.11 38.63 39.61 38.68 39.89 43.03 41.85 42.50 40.08 39.69 35.77 41.87 39.66 37.43 41.16 45.40 48.94 49.34 49.75 50.80 52.72 53.28 52.89 52.66 54.42 53.40 53.03 53.22 53.17 53.81 54.65 55.16
49.64 49.33 49.49 49.73 49.98 49.68 49.80 49.66 49.38 49.24 48.55 47.69 45.83 42.61 41.15 42.20 36.71 34.77 33.34 35.62 34.62 39.21 40.88 40.70 38.76 39.06 38.92 42.25 42.33 42.90 38.98 37.21 42.69 39.02 37.81 40.02 44.94 49.19 48.41 50.43 51.35 54.00 54.83 54.30 53.73 54.18 54.29 54.71 55.40 54.91 53.81 55.54 56.66 56.51
49.29 49.24 49.32 49.44 49.71 49.79 49.67 49.34 49.48 48.11 45.92 42.47 37.28 33.21 38.50 36.27 38.30 36.54 36.70 37.62 42.49 45.00 44.78 41.95 38.79 38.47 38.47 39.85 41.75 38.24 39.14 41.98 37.98 36.68 38.69 43.05 47.65 49.45 50.48 51.89 52.96 52.73 53.18 52.08 53.45 54.79 55.24 54.62 55.70 56.03 55.66 55.96 55.90 55.83
49.09 49.43 49.43 49.60 49.79 49.83 49.61 49.68 49.59 47.87 45.06 39.81 42.14 35.46 35.57 38.50 39.52 41.13 40.69 40.09 44.11 44.88 44.25 41.83 39.93 39.92 39.16 38.76 38.62 39.02 39.79 38.38 40.47 40.12 44.01 47.83 49.62 50.68 51.21 52.04 52.50 52.73 52.38 52.33 53.20 52.68 54.28 55.55 55.66 55.07 55.83 55.12 55.49 55.62
49.42 48.94 46.08 49.77 50.06 49.45 49.40 48.96 48.66 47.54 45.88 43.55 42.57 39.46 43.44 41.48 43.81 44.87 43.10 42.53 45.37 45.09 45.16 43.39 41.66 40.95 38.50 39.68 39.17 38.60 39.78 38.47 41.17 43.36 45.77 47.29 48.70 49.08 49.47 50.28 51.31 51.48 50.21 50.25 49.36 50.47 51.95 53.28 54.80 55.14 55.77 55.22 54.89 54.82
47.99 42.95 49.64 49.65 49.53 49.37 49.24 47.81 46.67 43.76 42.92 41.24 40.75 45.47 43.95 43.45 44.58 45.94 47.52 45.79 49.03 46.22 41.37 42.15 39.83 39.50 41.69 39.60 39.20 41.79 39.87 43.19 44.42 45.11 46.05 46.48 48.13 48.71 49.86 50.48 52.12 49.60 49.40 49.55 49.18 49.92 51.25 53.90 52.91 53.29 52.30 53.23 53.34 53.21
45.40 48.32 49.66 49.47 48.63 48.56 48.43 46.98 43.55 41.20 39.04 39.81 40.05 41.78 44.33 46.03 45.31 47.61 47.78 48.25 47.62 44.75 43.22 43.36 46.01 42.50 40.34 39.80 39.98 44.56 47.16 46.98 46.11 46.77 47.04 47.87 48.30 49.50 51.07 50.77 49.96 49.24 49.20 49.58 50.15 51.09 51.90 52.04 52.75 52.69 52.71 52.48 51.90 51.45
46.64 48.00 49.61 49.94 49.47 45.47 42.72 41.14 42.81 39.50 40.92 41.89 42.54 43.87 44.94 46.62 49.18 49.26 48.97 48.99 47.63 46.69 46.39 46.06 44.12 43.24 42.63 45.78 46.50 47.24 46.44 46.73 46.35 46.48 46.95 47.88 48.42 49.14 50.66 52.22 52.30 49.96 49.99 51.50 51.51 51.80 52.92 53.88 53.53 53.93 53.46 53.54 52.64 53.02
49.33 49.72 50.08 50.80 50.17 43.24 40.49 39.69 43.57 39.68 38.85 44.52 45.37 43.50 45.00 46.20 48.03 48.30 45.88 45.13 43.63 44.44 44.07 44.04 44.58 46.46 47.13 48.57 49.35 48.28 48.21 47.51 47.00 45.90 46.23 47.54 49.26 49.91 50.18 51.73 51.67 51.94 52.46 52.18 52.77 49.35 52.19 51.44 51.74 53.10 53.59 52.98 53.07 52.04
48.04 48.93 50.44 48.08 46.31 46.95 46.19 44.22 43.02 44.79 44.83 43.38 45.63 45.19 44.69 48.10 47.51 47.06 45.23 46.44 44.83 43.89 44.98 47.67 47.86 49.54 49.85 47.58 48.26 47.83 47.58 47.56 46.50 47.07 46.97 49.10 51.13 51.51 50.61 51.26 52.65 52.39 51.64 50.86 49.77 49.53 49.17 49.53 49.87 50.78 52.53 52.16 51.34 48.63
46.19 50.64 46.95 47.76 44.75 46.38 46.66 47.70 43.76 45.85 43.95 44.03 45.43 46.51 45.37 45.43 46.01 46.44 48.37 46.48 46.60 47.47 47.02 46.98 46.88 46.20 46.82 47.13 47.77 47.86 47.63 47.99 47.81 48.28 48.85 48.97 48.42 48.56 49.40 50.36 48.63 46.75 47.14 47.98 47.84 48.57 49.41 49.88 50.33 50.72 50.61 49.16 45.86 44.69
49.34 48.39 46.54 47.00 44.68 41.31 40.82 47.38 41.06 43.76 42.39 43.22 44.90 44.30 44.43 44.70 46.17 48.41 45.03 47.20 46.51 47.72 46.57 46.06 46.22 47.00 47.92 49.08 49.68 49.82 49.14 49.45 50.56 51.14 51.76 51.17 49.80 50.92 49.44 48.39 47.69 45.64 44.95 44.84 45.30 45.55 45.21 42.93 47.38 48.82 47.74 46.07 43.68 41.87
49.24 45.01 44.26 43.76 41.60 40.12 45.76 43.63 44.36 43.96 44.09 41.71 41.51 39.25 39.76 41.63 44.94 44.34 42.93 42.77 44.70 44.85 46.62 45.68 46.77 48.23 47.95 47.77 47.33 49.43 50.28 51.56 50.62 49.62 47.55 45.52 45.09 44.72 44.85 43.45 43.34 43.05 43.15 42.86 43.36 43.44 43.84 44.72 43.29 44.10 44.00 43.08 42.01 40.84
36.91 35.90 39.76 36.11 41.29 40.34 40.55 40.02 39.11 39.56 40.09 40.30 38.55 37.97 39.84 41.63 39.52 39.48 39.17 41.61 44.29 48.91 48.95 45.39 45.83 46.46 48.17 47.67 47.72 48.89 51.81 52.06 50.74 49.97 48.91 47.07 44.26 41.76 41.77 41.95 42.21 42.30 42.90 43.76 43.48 43.97 43.65 44.45 43.60 42.31 41.32 40.65 39.97 39.19
33.96 38.50 36.13 38.81 39.22 39.21 39.10 38.26 39.45 39.23 40.00 38.58 39.04 39.71 39.55 38.12 37.06 36.72 41.55 45.61 47.54 48.99 50.17 48.54 45.56 46.98 49.02 49.75 49.49 50.00 50.50 51.17 49.82 47.90 46.18 48.02 43.09 42.60 41.86 41.79 41.95 42.93 44.00 43.73 44.68 44.29 43.88 43.48 42.71 41.73 40.87 39.66 37.27 39.30
38.59 40.61 41.47 43.93 42.28 42.08 39.93 40.72 41.39 39.87 38.89 37.98 40.65 39.85 39.40 36.70 38.43 42.39 47.06 49.55 49.72 50.33 51.13 52.09 50.40 48.71 49.37 49.02 48.96 47.81 49.68 50.32 47.43 44.68 42.29 42.39 42.50 43.00 43.32 43.03 43.47 43.71 44.73 45.77 45.88 45.39 44.24 42.82 41.87 40.95 39.98 39.92 39.76 39.48
41.83 42.73 40.59 41.88 40.73 41.89 39.74 39.92 40.41 41.04 42.00 44.60 43.99 40.47 38.98 40.10 41.98 47.06 48.68 50.94 51.92 52.96 52.25 50.96 47.51 45.10 44.30 43.94 43.42 46.07 45.44 44.61 45.25 43.62 44.97 42.84 42.40 42.92 42.88 43.34 43.38 39.24 44.19 45.56 45.50 44.06 43.18 42.74 42.29 41.65 40.51 39.65 39.66 40.05
39.77 41.33 41.64 39.76 41.17 43.60 44.58 43.79 44.02 45.59 46.98 44.92 42.92 42.95 44.47 47.43 49.36 49.69 51.26 51.76 52.43 51.45 48.63 44.46 44.09 43.19 42.40 42.48 41.55 40.93 40.77 42.19 44.28 41.61 40.21 39.37 40.13 41.85 42.04 42.90 43.36 43.25 43.38 43.06 38.64 40.68 42.12 41.12 40.86 40.66 40.70 40.49 40.31 40.15
39.98 41.61 40.30 41.90 42.62 42.68 44.88 45.88 45.91 47.45 47.00 46.23 46.38 46.79 46.41 47.37 49.07 50.88 51.01 49.13 46.93 46.68 47.28 45.14 43.89 42.75 40.24 40.21 39.40 39.80 39.90 39.89 40.75 41.15 39.48 39.46 40.14 41.07 40.89 41.54 43.45 43.15 42.30 42.25 41.49 41.14 38.41 40.64 39.49 41.02 39.98 39.55 38.99 38.96
41.57 43.74 42.25 41.31 40.46 42.86 46.14 47.11 47.58 47.73 47.21 46.97 47.03 44.46 43.07 44.33 45.93 47.30 46.85 46.60 47.03 47.02 44.77 42.31 41.48 41.51 41.60 41.12 40.24 39.49 38.58 39.79 40.83 41.02 40.70 40.53 40.37 40.73 41.06 41.12 42.45 41.95 41.88 41.61 41.12 40.43 40.20 39.65 39.55 39.50 39.61 39.36 39.74 39.01
41.20 39.95 39.40 38.51 40.79 45.17 46.01 45.97 45.50 45.62 46.55 44.04 43.56 43.92 44.26 44.23 41.04 43.71 45.25 45.12 43.76 43.44 42.85 43.20 43.00 42.85 43.23 42.69 42.00 41.34 38.56 40.45 40.79 41.22 41.54 41.18 41.00 41.00 40.89 40.99 41.78 42.45 41.87 41.34 41.02 40.74 40.86 39.98 39.66 39.71 39.10 39.68 39.97 40.05
40.76 41.40 41.21 40.32 40.62 42.23 44.64 44.50 43.75 43.77 44.92 43.55 44.18 44.78 42.52 42.12 41.56 43.91 45.75 44.65 44.64 44.00 43.86 44.29 43.79 43.36 43.49 43.19 42.66 41.73 40.01 41.64 40.15 36.96 36.80 36.85 36.60 37.98 40.52 41.42 42.20 42.54 42.00 41.36 41.13 40.76 40.19 40.41 40.24 40.10 40.03 40.12 40.15 40.12

GFSWCAN_sfc_wetblb_111.txt.gz
Wetbulb
51.67 51.43 51.38 51.32 51.44 51.27 51.40 50.93 50.80 50.92 50.60 50.17 50.11 49.00 48.97 49.17 49.96 50.85 50.70 52.72 49.27 45.06 46.65 49.23 50.52 49.21 49.17 48.60 46.29 49.02 48.47 47.05 48.32 45.30 44.40 44.32 43.14 44.85 43.54 45.46 46.84 45.86 44.91 45.37 45.67 43.55 40.60 54.46 55.11 49.60 53.70 56.98 56.31 56.64
51.74 51.62 51.57 51.64 51.57 51.62 51.60 51.36 51.27 50.99 50.45 50.43 50.25 50.29 48.91 48.84 48.94 50.33 48.20 53.80 52.00 46.71 46.48 50.04 51.15 51.91 51.47 51.85 49.70 49.78 47.95 46.82 49.77 47.45 47.28 47.29 44.99 45.48 45.19 41.68 49.44 44.75 48.07 46.17 48.11 47.75 52.77 55.75 55.80 58.30 58.20 57.14 57.91 57.49
51.76 51.72 51.82 51.69 51.68 51.82 51.98 51.67 51.07 50.83 50.59 50.71 50.52 49.90 50.32 49.93 49.33 49.10 48.77 51.06 50.66 47.15 46.43 46.97 46.45 52.22 53.98 53.04 54.83 48.09 50.01 51.14 50.36 51.03 49.59 48.22 44.76 47.28 43.97 44.94 46.87 49.39 50.93 48.15 47.16 51.34 52.22 54.40 56.19 56.80 57.60 57.87 59.06 59.41
51.30 51.22 51.35 51.46 51.46 51.60 51.76 51.84 51.49 50.92 50.64 50.77 50.35 50.12 50.42 49.94 49.32 48.89 48.02 52.30 50.24 47.08 41.54 44.20 52.66 50.62 54.35 53.92 53.61 53.38 52.93 50.77 50.95 50.91 48.68 47.20 44.95 49.23 46.41 46.25 46.26 48.41 50.68 49.01 48.78 51.20 52.08 54.31 54.74 55.92 56.87 58.36 59.05 59.35
50.91 51.07 51.11 51.26 51.46 51.47 51.60 51.62 51.59 51.03 50.66 50.50 50.28 50.52 50.30 49.73 48.83 50.14 50.90 50.53 51.87 46.40 40.88 42.92 48.15 49.82 51.66 52.82 52.24 53.11 52.28 51.05 49.50 47.81 46.63 45.26 48.60 46.81 48.09 46.54 44.65 48.97 48.55 46.04 44.90 51.69 51.16 52.76 54.85 55.55 55.09 57.03 58.40 58.24
50.08 50.11 50.71 50.93 51.12 50.91 50.78 50.98 51.09 50.84 50.47 50.34 50.55 50.59 49.79 49.13 49.80 48.33 45.13 51.42 52.60 51.84 44.25 38.77 48.73 48.67 51.03 51.04 50.85 50.77 51.16 50.32 49.73 48.04 47.62 49.12 49.37 48.49 43.99 42.20 48.16 50.06 51.25 51.76 50.17 52.95 53.68 54.09 54.76 54.80 54.68 58.95 58.40 58.93
49.76 49.86 50.06 50.34 50.55 50.65 50.56 50.69 50.66 50.59 50.78 50.84 50.38 49.47 49.17 48.50 49.67 43.61 44.90 49.12 51.00 51.82 43.96 41.03 42.94 49.23 49.88 49.96 48.86 48.64 50.66 49.35 49.45 48.34 46.67 48.40 49.03 47.97 46.10 42.26 48.43 50.53 51.76 52.47 53.30 53.65 50.62 52.77 52.43 57.81 57.76 58.53 57.59 59.45
49.12 49.82 49.87 49.94 50.30 50.51 50.65 50.56 50.51 50.23 50.42 50.51 50.08 48.97 48.70 48.80 48.84 46.04 49.60 50.65 51.20 48.00 46.19 40.15 42.10 45.50 49.83 46.85 45.51 49.12 46.95 48.03 47.42 48.66 47.98 47.69 47.19 47.95 43.73 48.66 50.43 51.20 51.51 52.06 55.28 55.40 52.93 54.44 56.46 57.91 58.93 58.91 57.92 58.06
48.57 49.18 49.44 49.99 50.14 50.45 50.61 50.43 50.15 49.92 49.60 49.76 49.25 49.46 49.36 47.71 45.58 47.01 50.80 52.84 51.83 47.46 42.19 43.16 39.46 40.04 49.60 47.65 47.87 46.63 48.90 43.77 46.98 46.56 46.88 47.87 45.91 43.33 47.71 49.66 50.60 51.87 54.02 54.25 55.55 56.65 56.69 55.93 56.65 57.67 57.75 57.76 57.34 57.71
48.08 49.03 49.24 49.85 50.06 50.33 50.30 50.14 49.61 49.35 49.02 49.06 48.52 44.20 42.47 47.57 50.99 52.85 49.29 46.14 44.48 45.35 45.58 42.74 45.89 42.07 46.34 47.54 46.28 46.92 47.12 46.41 43.41 46.88 46.94 45.41 45.26 49.94 49.41 50.85 53.72 54.15 54.10 55.24 54.64 54.41 55.15 55.53 55.93 56.70 56.85 57.63 58.11 58.31
48.20 49.03 49.53 50.27 50.19 50.21 50.06 49.62 49.35 48.52 48.80 47.40 44.05 43.80 49.40 51.98 49.78 46.92 42.69 39.23 39.28 39.54 44.58 44.81 45.27 43.89 48.56 45.06 46.97 49.00 46.25 45.86 42.04 44.14 44.76 43.79 43.73 48.96 52.57 52.92 55.00 54.99 54.66 55.11 55.57 55.70 55.82 56.53 55.86 55.97 56.58 57.05 57.52 58.17
48.57 49.38 49.83 50.28 50.10 49.94 49.56 49.54 49.48 48.50 47.66 47.21 46.27 48.84 49.63 46.96 44.31 40.36 39.85 42.09 41.01 38.80 43.92 43.61 44.97 45.38 47.54 49.18 47.90 49.12 46.38 46.55 41.24 47.38 45.25 43.61 49.11 51.59 53.34 52.78 53.75 55.76 55.76 55.60 55.65 55.63 56.18 57.01 56.46 56.21 56.56 57.06 57.58 58.56
49.04 49.52 49.54 49.67 49.88 49.69 49.61 49.39 49.19 48.73 48.52 46.98 45.26 41.21 43.30 42.42 34.54 34.47 33.27 37.47 38.28 44.26 45.77 44.05 44.17 46.16 45.94 47.53 47.33 46.58 43.80 43.64 48.54 44.87 43.63 47.02 51.34 52.31 52.90 53.72 53.66 55.27 55.47 55.07 55.24 56.53 56.70 56.52 57.24 57.11 56.92 58.36 58.38 58.28
49.19 49.16 49.21 49.37 49.68 49.64 49.50 49.69 49.48 48.94 46.74 41.55 37.97 32.51 37.62 36.33 36.23 39.22 40.61 42.46 46.10 46.12 46.19 46.05 46.28 44.95 46.35 45.27 47.05 42.00 44.95 47.01 42.15 40.87 42.16 49.72 51.68 52.44 53.43 53.05 53.28 53.94 55.25 54.96 54.94 55.55 55.81 55.83 57.25 57.67 57.93 58.65 58.40 57.68
49.01 49.04 49.48 49.28 49.89 49.98 49.58 49.72 49.64 49.23 44.80 40.07 37.05 34.13 38.27 42.15 42.85 43.35 45.75 45.35 46.96 48.78 48.14 47.32 46.25 45.79 45.67 44.45 44.17 44.59 42.96 40.83 43.24 43.39 48.03 52.33 52.73 53.15 52.65 53.15 54.22 54.22 54.47 54.14 53.23 54.62 55.48 56.74 57.22 56.37 56.88 57.11 58.43 57.21
49.49 48.54 48.10 49.84 49.88 49.74 49.42 49.53 49.33 48.21 45.00 41.99 41.72 40.29 43.84 43.16 43.59 45.26 46.44 46.60 49.43 48.95 49.74 48.79 45.88 44.25 43.89 45.01 42.49 41.80 41.58 40.14 44.00 47.45 49.02 51.36 52.53 52.22 52.56 53.15 54.92 53.65 54.43 54.38 54.48 55.08 55.79 56.20 56.52 56.23 56.64 56.64 56.64 56.53
47.81 45.63 49.56 49.47 49.44 49.32 48.89 49.02 46.97 43.43 42.25 41.72 41.13 45.38 44.21 43.42 43.27 45.47 47.08 48.25 51.04 49.32 46.14 46.70 43.13 42.23 46.94 44.23 42.75 46.30 44.44 46.80 47.99 49.19 52.60 53.11 53.19 53.49 54.49 55.07 52.01 53.87 54.47 55.12 55.69 56.20 56.43 57.15 56.10 54.23 51.69 54.56 54.31 54.31
47.02 48.91 49.70 49.46 49.46 48.58 48.68 47.82 44.20 43.01 39.74 42.70 40.54 43.24 44.27 46.19 44.85 45.48 49.42 50.39 49.61 48.56 47.99 46.38 49.75 44.89 43.27 41.60 43.90 48.36 49.86 50.34 51.54 52.02 52.13 52.69 54.33 54.81 54.84 53.88 54.08 54.77 55.24 55.73 55.44 55.65 56.23 55.70 54.02 53.76 54.92 55.42 54.67 54.14
48.25 49.11 49.61 49.55 49.73 47.30 44.41 44.43 45.54 40.42 42.40 44.13 44.70 44.79 45.55 46.45 49.34 50.81 51.17 51.28 51.20 51.63 50.87 49.29 45.16 44.92 45.57 48.75 49.31 50.56 51.34 52.40 51.50 52.03 52.15 53.15 54.18 54.00 53.72 54.04 55.42 54.15 54.61 54.60 54.61 55.33 55.48 55.75 54.96 54.39 54.35 55.34 53.55 53.49
49.49 49.67 49.78 50.78 50.28 46.60 42.32 42.88 46.33 42.64 40.62 44.28 46.54 45.44 46.16 46.79 49.33 49.97 49.45 48.15 49.83 50.11 47.85 46.26 45.92 48.00 49.17 50.76 52.18 52.68 53.03 53.26 52.19 51.33 51.93 53.18 54.90 54.80 54.61 53.77 52.75 54.65 54.90 56.16 55.51 51.13 56.64 56.54 56.70 55.59 54.84 54.37 53.67 53.26
48.80 49.55 49.75 49.61 47.70 46.71 45.29 45.41 44.32 45.22 46.01 43.83 46.74 47.21 47.26 50.04 49.12 49.66 49.39 51.37 49.37 47.66 44.94 47.42 48.53 50.46 52.83 53.31 53.17 53.59 52.92 53.62 52.75 53.05 51.15 51.61 51.59 53.05 52.87 53.01 56.35 55.36 54.80 54.57 54.85 53.63 52.79 54.66 55.78 56.80 55.78 53.50 52.18 50.02
48.75 50.43 48.73 48.64 44.98 46.02 46.25 48.31 45.69 46.49 44.87 44.76 45.75 47.14 46.21 46.04 47.26 47.99 51.43 48.84 47.26 47.62 49.40 49.86 51.06 51.12 53.03 52.74 52.46 53.17 53.79 54.72 54.56 52.38 49.00 50.61 51.05 49.97 49.42 50.10 51.33 48.95 48.92 50.83 54.27 54.34 54.06 55.34 55.78 55.32 51.66 49.17 48.03 47.58
49.91 49.03 46.87 46.69 43.47 40.23 40.03 48.57 42.77 44.03 41.32 42.38 45.46 44.40 44.41 44.84 46.33 50.46 46.40 47.46 47.97 50.08 50.06 50.66 51.84 53.14 53.12 54.08 54.18 54.24 55.09 53.56 52.68 54.14 54.49 52.13 49.58 50.17 48.91 48.09 50.50 49.56 49.02 49.49 50.64 51.01 51.92 47.04 51.50 51.72 49.11 48.10 47.04 45.95
49.77 45.65 43.37 41.80 41.09 38.09 44.50 42.92 43.60 44.27 44.60 43.02 42.91 41.12 41.90 43.31 48.30 47.24 43.06 45.47 48.75 51.74 49.87 51.45 53.01 52.87 53.45 53.77 52.28 52.68 52.42 54.22 52.36 53.05 53.22 51.18 49.76 48.97 49.53 49.17 49.50 49.61 49.53 50.68 50.63 51.07 51.70 51.42 47.84 50.42 48.62 47.39 46.13 45.72
40.94 40.27 42.00 37.58 43.80 42.55 40.97 41.97 42.06 42.47 41.55 42.56 41.14 42.00 42.79 45.08 42.96 42.69 42.32 45.39 48.48 49.14 50.20 52.12 53.32 52.42 51.55 52.00 52.75 53.69 53.45 53.52 52.33 51.07 51.90 51.38 50.08 49.62 49.38 49.59 49.51 49.37 50.48 50.17 49.65 50.18 49.23 49.47 49.11 47.98 46.88 45.90 44.64 43.94
35.27 41.78 39.97 43.36 43.07 42.83 43.33 41.70 42.19 42.27 42.67 41.45 42.45 44.55 44.64 43.06 41.19 39.48 42.59 47.79 49.61 50.41 50.76 52.68 52.59 52.30 51.64 52.07 52.85 54.39 55.38 56.77 55.75 53.71 52.58 52.62 50.94 50.65 49.21 48.48 48.17 48.70 50.75 50.91 50.55 49.59 48.57 48.34 47.24 45.88 44.41 42.38 38.28 42.75
39.39 42.51 46.25 48.67 46.96 46.21 44.24 44.85 45.92 44.74 42.26 41.39 43.14 42.72 42.96 39.99 39.94 43.66 48.99 51.84 51.44 52.43 53.28 52.99 53.02 50.82 49.71 49.94 50.13 50.78 52.49 51.68 52.09 51.14 50.04 49.56 49.63 50.02 50.36 49.38 48.43 49.49 51.32 51.23 51.05 50.09 48.43 47.52 46.54 45.54 44.52 44.40 43.97 43.35
44.85 44.61 42.23 44.91 46.06 46.99 43.20 43.53 42.63 42.43 43.98 46.38 46.26 41.66 40.19 41.42 42.16 47.75 51.76 54.11 54.67 54.73 50.25 48.40 47.31 48.03 45.87 46.49 47.69 49.10 49.05 48.99 49.18 49.58 49.90 49.71 49.54 49.32 49.78 50.06 49.32 39.36 50.15 51.17 50.30 49.90 48.80 47.56 46.81 45.72 44.76 44.40 44.84 45.11
44.29 45.12 46.48 44.46 45.22 45.05 45.01 44.23 44.25 46.18 48.09 47.49 44.15 43.92 45.41 48.33 50.96 50.62 53.15 54.94 55.43 52.80 48.48 47.32 46.87 48.74 48.32 47.94 47.60 47.51 48.09 49.59 48.85 46.63 46.07 46.67 47.74 47.41 48.20 49.35 49.78 50.43 50.70 48.35 37.68 42.93 45.80 45.61 45.31 45.04 44.47 45.33 45.33 45.49
44.12 45.13 43.89 44.64 43.23 42.91 46.03 47.12 47.23 49.12 49.51 50.18 50.72 49.80 49.22 49.06 49.12 51.52 53.11 52.67 52.00 50.35 49.22 48.98 48.85 48.73 47.50 47.44 46.22 45.74 46.59 47.41 47.52 47.62 46.19 45.17 45.11 46.70 47.38 48.17 49.88 49.26 49.23 48.04 46.66 45.15 38.56 44.66 42.92 46.30 45.01 45.12 45.00 44.43
45.43 47.61 46.05 45.95 45.15 46.71 48.30 50.02 51.26 51.29 50.75 49.09 49.46 47.32 45.64 47.53 50.34 50.82 50.34 51.68 51.64 50.51 49.77 48.57 48.49 49.07 48.62 47.86 47.01 46.04 44.51 46.46 46.89 46.85 47.01 47.04 47.08 46.88 47.35 47.85 48.19 48.83 48.43 47.65 47.34 46.69 46.14 45.32 44.77 43.97 43.75 43.72 43.92 43.24
46.83 44.99 45.14 44.63 46.41 48.42 50.10 48.89 48.48 48.26 48.23 47.29 46.05 47.57 48.20 47.82 46.28 49.48 50.60 51.64 51.29 50.88 46.36 49.09 49.81 48.51 48.76 48.25 47.59 46.84 41.34 47.12 47.52 47.56 47.17 47.28 47.07 46.97 47.44 47.65 47.77 47.53 47.23 46.90 46.84 46.51 45.31 44.52 44.58 44.06 43.94 43.64 43.98 44.11
46.53 47.07 46.70 46.63 46.53 46.73 48.71 48.00 46.98 46.79 46.87 45.51 46.38 47.98 48.45 48.06 45.33 49.87 52.05 51.08 50.92 50.90 51.02 51.03 50.55 49.77 49.49 48.89 48.32 47.22 43.53 47.96 43.06 36.82 37.26 36.80 36.36 40.13 47.30 48.26 48.07 47.81 46.94 46.56 46.44 45.96 44.49 43.88 44.44 43.95 43.94 43.84 43.88 43.91

GFSWCAN_sfc_wetblb_114.txt.gz
Wetbulb
51.28 51.32 51.32 51.40 51.30 51.57 51.80 51.65 51.59 51.20 50.90 50.82 50.45 50.05 48.62 48.65 49.06 50.48 51.06 54.67 50.14 46.28 49.44 51.20 52.34 50.70 52.09 52.55 49.49 53.01 51.36 52.08 51.25 47.47 46.93 47.37 46.84 48.56 47.49 49.13 48.01 46.92 46.48 46.59 47.74 45.36 42.96 57.54 56.33 51.50 56.31 59.20 59.05 59.82
51.31 51.69 51.41 51.30 51.60 51.87 52.06 52.10 51.87 51.53 50.97 50.65 50.49 50.38 49.83 48.88 48.49 49.40 48.96 54.93 55.06 48.84 48.79 52.98 53.32 54.11 54.08 54.29 52.10 53.32 51.94 52.30 53.11 49.98 49.96 50.12 47.68 49.17 48.52 44.09 52.54 46.26 50.37 48.23 49.11 50.17 56.62 57.30 56.10 58.66 59.43 58.82 59.90 60.50
51.53 51.34 51.57 51.83 51.92 51.91 51.92 51.79 52.14 51.52 51.23 51.08 50.97 50.35 50.00 50.16 49.36 48.44 49.22 50.65 51.94 47.86 47.84 48.94 48.75 53.06 55.11 56.11 57.06 48.06 53.06 54.96 54.04 55.83 52.31 51.77 47.87 51.41 46.55 47.18 49.28 52.63 54.99 50.45 50.39 53.13 54.35 55.90 57.41 57.27 58.79 59.60 61.31 61.57
51.12 51.27 51.11 51.21 51.40 51.46 51.64 51.63 51.79 51.87 51.59 51.29 50.93 50.49 50.87 50.78 49.90 48.64 48.19 50.74 52.02 49.01 43.54 47.07 53.87 52.27 56.05 55.81 55.94 56.09 54.25 56.39 55.66 54.63 51.40 50.40 48.45 52.67 48.68 49.93 49.72 51.64 54.56 51.71 51.66 53.96 55.58 56.14 56.29 57.13 57.76 59.03 59.67 62.03
50.42 50.54 50.91 51.02 51.09 51.15 51.43 51.73 51.66 51.68 51.48 51.04 50.88 50.65 50.91 50.56 49.24 48.84 49.63 50.23 50.99 48.42 42.30 44.90 50.15 51.89 53.18 53.97 54.78 54.37 53.23 53.23 52.85 50.57 49.76 48.77 51.95 51.64 51.44 50.83 48.60 52.06 51.11 48.71 47.93 53.80 53.43 54.13 56.19 57.54 56.94 56.60 58.43 61.04
49.52 50.08 50.19 50.38 50.90 50.85 51.02 51.09 51.32 51.33 51.24 51.02 50.98 51.01 50.65 49.88 49.16 47.36 45.58 51.63 52.22 52.51 45.60 40.92 50.41 49.60 52.13 52.88 51.89 53.80 55.05 53.92 52.44 50.49 50.64 52.07 54.82 51.55 47.51 46.41 51.99 53.06 53.83 53.61 51.70 54.38 54.65 55.53 56.87 57.67 57.72 59.93 60.15 61.63
48.86 49.24 50.13 50.21 50.64 50.72 50.98 50.97 50.92 50.71 51.01 51.02 50.84 50.12 49.80 48.89 48.05 44.42 45.83 48.41 50.03 52.20 46.38 42.16 44.74 51.80 53.92 52.10 52.51 52.24 54.00 52.87 53.00 51.34 49.33 51.46 52.49 51.07 48.95 45.82 51.79 53.25 53.79 54.45 55.41 55.55 54.06 55.29 54.99 57.27 58.65 59.74 59.83 61.93
48.21 48.92 49.43 50.13 50.08 50.36 50.77 50.91 50.81 50.75 50.42 50.72 50.25 49.74 49.12 48.70 47.99 45.49 49.16 49.87 50.23 47.99 47.29 40.22 43.26 46.81 53.86 50.19 47.60 52.26 50.25 51.60 51.68 50.69 52.56 51.14 52.77 51.77 47.09 51.55 53.20 53.53 53.91 54.70 55.44 59.06 58.00 58.81 59.42 58.19 60.13 61.51 60.60 60.84
47.97 48.34 49.20 49.52 50.21 50.15 50.55 50.71 50.45 50.53 50.18 49.97 50.12 49.42 48.96 47.07 45.36 49.22 53.57 52.87 53.85 47.86 42.34 43.77 41.22 43.53 53.22 50.73 50.91 50.44 51.87 46.58 51.19 48.00 50.23 51.80 49.73 46.64 50.24 52.19 52.54 54.15 54.79 56.01 57.69 57.65 58.40 58.98 59.57 60.22 60.88 60.98 60.50 60.63
48.18 48.10 48.64 49.33 49.65 50.43 50.49 50.67 50.43 49.74 49.44 49.41 49.14 45.10 42.34 49.29 53.19 53.14 50.94 46.96 46.09 46.02 45.32 41.48 48.19 43.72 47.10 49.13 48.51 48.92 48.90 47.30 45.17 49.15 51.99 48.97 48.20 52.81 53.78 54.66 55.03 56.01 56.63 56.99 55.36 54.49 56.67 57.05 58.31 59.08 60.13 61.31 61.42 60.89
47.88 47.82 48.50 49.36 49.71 50.18 50.26 50.22 49.75 49.03 48.80 47.67 45.12 43.97 51.52 52.25 50.66 47.15 43.61 42.57 42.91 39.57 42.77 45.67 46.72 44.81 48.86 44.04 47.85 51.51 47.66 47.47 44.24 47.10 47.47 46.76 46.60 51.55 54.61 55.39 57.49 57.08 57.59 57.55 57.93 58.16 58.29 58.34 58.50 58.98 59.74 60.55 60.94 61.26
48.05 48.42 49.10 49.53 50.22 50.32 50.01 49.72 49.40 49.07 48.16 48.98 46.60 49.41 50.80 47.29 45.96 41.70 41.15 41.02 38.23 40.25 46.11 45.54 45.64 46.34 46.66 52.14 46.76 51.24 46.50 50.17 42.51 51.09 47.16 44.46 51.94 55.18 56.05 56.07 56.98 57.27 58.23 57.77 58.27 57.59 58.06 58.34 59.11 59.47 59.75 60.13 60.47 60.63
48.70 49.06 49.54 49.70 50.19 50.09 49.97 49.69 49.25 48.99 48.86 49.95 45.75 43.23 43.80 44.26 36.67 36.02 34.79 39.40 40.92 44.62 48.65 48.08 45.35 47.33 49.13 48.94 47.95 49.13 44.76 45.03 52.00 46.65 45.17 50.04 53.90 55.41 56.14 55.98 56.67 58.42 58.17 57.86 57.70 58.42 58.80 58.79 59.65 59.60 59.37 60.57 60.80 60.74
49.26 49.33 49.46 49.64 49.94 49.89 49.79 49.63 49.52 48.92 48.96 40.77 38.46 33.12 37.76 37.63 40.60 41.56 42.14 44.34 48.20 50.04 48.60 48.00 47.62 44.46 49.62 46.94 48.50 43.73 46.23 48.58 43.27 42.07 43.98 51.92 54.12 54.96 55.40 55.69 56.20 55.68 56.13 56.60 56.79 57.62 57.03 56.99 57.43 59.37 60.56 61.06 60.83 59.91
49.26 49.29 49.36 49.63 50.04 50.01 49.94 49.58 49.48 49.54 46.26 40.43 39.42 34.23 39.69 43.95 45.46 45.83 47.83 47.64 49.20 50.90 48.33 47.26 49.24 48.76 46.62 45.16 47.50 44.46 43.30 42.01 45.00 45.35 50.52 53.76 55.27 54.75 53.85 54.39 54.10 54.27 55.78 56.94 56.97 57.85 56.01 56.80 56.75 56.14 57.89 60.21 59.91 58.31
49.63 49.32 49.71 49.91 50.22 49.97 49.49 49.81 49.38 49.02 46.07 42.77 39.21 37.63 44.97 44.58 44.46 44.98 47.11 48.15 51.77 52.20 50.64 50.49 47.83 45.67 45.17 47.34 43.82 42.72 42.22 42.01 46.18 50.78 53.74 54.91 54.28 54.82 56.41 56.71 56.62 56.39 56.86 57.90 58.25 58.61 58.65 56.88 55.34 56.22 56.72 59.58 59.23 57.33
48.51 49.43 49.73 49.90 49.76 49.43 49.34 48.68 48.74 44.17 42.18 40.64 40.14 46.26 44.06 43.37 43.69 45.65 47.05 47.74 53.09 49.79 48.11 49.46 44.46 43.35 50.08 44.83 43.55 48.37 45.74 48.66 51.39 52.00 54.00 55.00 54.89 55.03 55.97 55.85 56.28 57.10 57.53 57.56 57.55 57.97 58.04 58.69 58.33 57.28 55.04 55.08 55.06 55.22
49.78 50.44 49.99 49.62 49.64 48.57 47.69 47.03 44.64 43.27 39.79 42.73 41.99 43.31 45.07 46.68 45.00 45.60 48.09 51.63 51.02 51.16 51.73 47.85 51.62 46.34 45.29 42.63 44.80 50.06 51.43 52.70 53.38 53.56 55.21 55.80 56.38 55.93 56.75 57.18 57.49 57.83 57.21 57.30 57.68 57.57 58.04 58.11 56.50 53.26 55.41 55.81 56.00 53.53
49.89 50.15 49.65 49.71 50.25 47.64 44.68 46.26 46.61 41.64 43.08 45.03 45.35 46.33 46.07 47.03 48.63 48.54 49.93 52.80 53.14 53.35 52.62 51.89 47.96 47.46 47.75 49.96 50.34 52.77 52.71 53.69 53.35 54.47 55.68 56.50 54.62 56.33 57.55 57.55 57.22 57.23 57.59 57.69 58.12 57.22 57.43 57.87 57.66 56.65 55.50 55.09 52.77 51.88
49.72 49.79 49.60 50.40 50.38 47.36 43.91 44.73 47.97 43.26 41.40 44.95 46.54 46.08 46.94 47.03 49.38 51.04 52.50 52.57 51.47 53.31 50.57 48.41 48.11 49.53 50.75 52.67 54.20 54.65 55.44 56.08 55.63 53.79 53.73 55.29 57.71 55.99 55.43 57.27 58.64 59.36 58.86 58.68 58.48 53.95 58.78 58.84 57.61 57.64 57.54 54.42 52.37 50.22
49.23 49.89 49.25 49.30 48.73 47.59 45.45 46.59 45.84 46.98 47.25 45.11 46.83 46.94 47.41 49.94 49.37 50.32 51.65 54.98 50.29 46.55 45.31 47.85 49.60 54.43 56.02 55.95 57.50 57.53 57.26 56.67 56.09 56.08 54.69 54.08 55.76 53.02 56.89 57.98 57.64 57.84 56.86 56.27 55.36 54.71 53.77 56.84 59.05 58.29 56.91 56.22 55.73 53.72
49.63 50.14 49.45 49.76 45.51 46.05 46.00 49.48 46.50 48.30 44.72 45.13 46.49 46.62 47.53 46.87 49.09 50.26 52.42 48.14 46.25 47.84 50.26 50.65 52.39 55.16 56.22 56.01 56.49 58.22 58.11 56.80 56.69 54.53 51.44 49.89 51.13 49.36 52.64 52.30 52.27 53.34 53.62 54.82 56.03 56.00 56.21 57.40 57.84 56.47 54.65 53.06 51.87 51.88
50.09 49.95 47.41 46.88 43.22 41.30 40.62 49.49 44.39 44.85 42.20 43.12 45.85 43.55 44.81 45.65 48.91 53.77 48.81 48.41 49.51 51.90 52.44 51.83 53.23 55.89 56.08 56.67 57.75 56.81 56.54 56.64 54.47 53.06 50.44 51.13 51.15 51.30 51.41 51.96 52.43 51.59 51.15 51.85 53.55 54.08 55.10 48.97 53.04 54.31 53.22 52.87 50.85 47.73
49.93 46.39 43.13 42.05 41.71 38.48 44.35 42.07 43.86 42.91 43.69 43.25 42.73 41.16 43.32 45.31 49.72 48.31 44.82 47.35 50.57 53.37 54.08 55.61 56.59 55.61 53.99 55.63 55.79 55.42 57.51 58.73 56.62 55.31 53.88 52.88 51.91 51.72 52.13 51.64 52.00 52.47 52.76 53.14 53.24 53.47 54.55 54.92 49.57 53.95 51.44 48.24 50.14 51.58
39.57 39.21 41.18 36.55 43.43 42.52 42.75 44.13 44.87 44.64 43.11 44.57 43.99 44.47 45.94 49.77 44.80 44.02 44.46 48.24 49.86 51.07 54.81 55.26 56.06 56.48 54.00 53.96 53.68 57.81 58.15 57.56 54.34 53.43 54.46 54.21 53.32 52.97 52.43 52.38 52.13 52.19 53.50 52.57 51.90 51.87 52.10 52.81 52.45 51.74 50.70 49.99 48.56 47.39
35.02 41.94 39.31 45.88 47.34 45.74 46.21 43.30 44.34 44.96 46.00 44.31 44.97 47.92 49.21 44.41 41.16 40.99 44.56 48.94 50.78 52.23 53.62 55.84 55.31 55.29 53.96 55.91 55.04 55.74 57.49 58.36 58.08 54.93 55.14 55.33 54.00 53.07 52.09 51.05 50.32 50.61 53.54 53.35 52.59 51.43 50.92 51.08 50.06 48.52 47.88 45.19 39.96 46.24
41.01 45.33 49.65 53.74 51.42 50.16 48.27 48.90 49.72 47.40 44.43 43.48 46.42 46.09 46.43 40.71 40.24 45.48 50.83 52.03 52.21 53.95 55.01 55.53 55.09 54.13 53.62 53.25 54.41 55.94 57.13 57.91 55.93 55.43 55.28 54.44 54.26 54.28 53.45 51.79 50.38 51.66 53.93 53.26 52.63 51.71 50.42 49.91 49.23 48.50 48.54 49.31 48.16 47.23
48.23 48.59 44.93 48.40 48.72 50.07 45.89 46.05 44.72 44.09 45.48 48.86 48.62 43.59 42.09 41.11 43.03 50.44 53.47 56.33 56.04 52.62 52.45 53.80 53.21 51.20 51.17 49.85 51.64 54.47 53.97 54.32 54.31 54.43 54.03 53.66 53.82 53.85 53.94 53.81 52.82 40.77 52.43 52.19 52.12 51.67 50.47 49.54 48.77 48.37 48.02 48.07 49.26 49.56
45.11 45.55 46.52 45.06 46.58 46.04 45.35 45.07 46.50 49.20 51.12 50.82 46.30 44.31 45.07 51.07 54.83 54.28 56.52 56.78 57.83 54.31 51.09 51.99 52.65 54.38 53.89 53.62 53.05 52.64 52.77 52.97 51.66 50.14 49.44 50.92 51.97 50.92 52.76 53.89 54.82 54.83 53.43 50.64 36.62 43.51 47.74 47.57 47.68 47.75 47.47 48.21 48.58 49.29
45.77 50.51 46.01 44.93 43.91 43.58 47.53 50.02 49.69 51.72 51.80 52.38 52.55 51.90 52.12 52.16 53.89 56.51 54.39 55.63 55.13 53.10 53.03 53.05 53.13 52.45 51.45 51.24 50.27 49.93 50.76 51.25 50.96 50.19 48.90 47.80 48.30 50.60 51.59 52.43 54.16 53.97 53.70 52.78 51.45 48.49 38.63 45.45 45.07 48.93 48.37 48.66 48.85 47.84
51.23 50.54 48.58 48.19 47.75 49.67 51.41 53.10 53.58 53.53 53.20 52.29 52.77 50.73 50.16 51.54 53.39 54.98 55.16 55.62 55.22 55.09 54.09 52.69 52.49 52.68 51.68 50.53 49.91 49.40 47.88 50.21 50.52 50.47 50.62 50.87 50.85 50.56 51.08 51.52 52.61 52.71 52.43 51.67 51.10 49.95 48.85 48.74 48.93 47.97 47.52 47.13 47.12 46.25
50.64 48.52 47.43 46.09 47.88 52.16 53.43 50.79 50.08 49.62 50.15 49.95 49.63 51.39 51.35 51.49 48.46 52.56 54.68 55.11 55.38 54.44 45.94 52.54 52.82 51.37 52.18 51.94 51.27 50.56 44.21 51.00 51.07 51.12 50.84 50.78 50.64 50.81 51.21 51.30 51.37 51.06 50.99 50.44 50.26 49.59 48.75 47.55 47.97 47.52 47.08 46.84 46.91 46.80
50.02 50.20 49.90 48.66 48.02 47.70 50.54 50.11 48.38 47.66 49.75 49.13 50.26 51.30 50.86 49.98 47.12 52.84 56.03 56.19 55.16 54.75 54.29 53.93 54.14 53.67 52.96 52.29 51.85 50.51 47.62 51.82 45.56 37.53 38.72 37.22 36.08 40.85 48.45 51.61 51.37 50.89 49.81 49.49 49.17 48.89 48.04 46.76 47.30 46.76 46.76 46.49 46.49 46.70

GFSWCAN_sfc_wetblb_117.txt.gz
Wetbulb
51.71 51.83 51.93 51.97 51.53 51.76 51.80 51.78 52.11 52.16 51.78 51.32 50.74 50.61 50.30 49.31 49.31 49.89 53.49 56.55 53.00 49.91 51.52 52.86 53.28 52.02 52.21 52.53 49.91 54.51 53.29 53.26 52.38 49.25 47.56 47.75 47.87 49.55 49.45 51.24 50.54 49.46 48.35 47.59 48.99 46.52 43.98 58.95 57.15 52.44 57.00 59.65 59.52 59.62
51.57 51.71 51.75 51.53 51.83 51.85 52.12 52.13 52.23 52.10 51.93 51.44 51.05 50.77 50.41 49.52 49.23 48.58 49.90 56.46 55.38 50.06 50.87 54.80 54.97 55.75 54.44 54.31 53.68 55.24 54.03 54.12 55.11 50.83 50.31 50.47 48.17 50.08 50.68 46.52 54.13 47.71 51.12 49.21 50.97 51.30 57.74 59.17 57.96 58.75 59.50 59.13 59.57 60.22
51.37 51.26 51.36 51.40 51.54 51.58 51.77 52.15 51.96 51.91 52.01 51.73 51.44 51.14 50.65 50.17 50.34 48.78 50.13 51.92 51.04 50.31 50.25 51.32 51.02 55.03 56.02 54.62 56.72 51.32 53.74 55.31 54.98 57.66 53.91 53.19 50.63 51.78 47.83 49.18 50.91 53.56 55.77 51.92 52.77 55.08 55.35 57.49 59.00 58.68 59.00 58.94 60.04 61.13
50.91 51.17 51.34 51.46 51.57 51.53 51.67 51.62 51.83 52.00 52.05 51.95 51.61 51.20 50.95 51.45 50.79 49.44 49.44 52.15 51.11 49.75 45.17 48.77 54.70 52.95 56.78 56.56 54.94 55.73 55.34 56.58 57.22 55.90 52.96 51.43 49.43 53.94 50.33 51.90 51.35 52.23 55.12 53.00 52.97 55.15 55.54 57.13 58.34 59.09 58.54 59.00 59.04 59.73
50.03 50.57 50.90 50.89 51.26 51.30 51.37 51.56 51.64 51.69 51.83 51.89 51.48 51.09 51.30 51.48 50.47 49.79 51.19 51.68 52.88 48.13 45.61 47.81 51.82 52.76 54.13 55.89 55.19 55.15 54.71 54.23 52.69 51.50 48.95 48.48 52.40 51.91 52.12 52.67 50.20 53.73 52.79 50.59 49.37 55.23 55.58 56.22 57.85 58.43 57.44 57.62 58.56 59.21
49.11 49.54 49.91 50.39 50.52 50.59 50.92 51.00 51.48 51.57 51.79 51.83 51.44 50.94 51.38 50.83 48.76 48.49 47.24 52.83 53.13 52.36 45.92 43.31 52.44 51.63 53.41 53.82 53.18 52.89 54.19 53.68 52.68 50.78 49.86 51.64 55.00 51.87 47.57 47.01 53.71 54.53 55.28 55.06 53.47 56.16 56.37 56.94 57.77 58.04 57.56 57.93 59.64 61.02
48.94 48.92 49.28 49.72 50.34 50.70 50.93 51.24 51.24 51.27 51.20 51.21 51.10 50.95 50.87 49.79 49.67 45.92 43.40 47.19 50.47 54.04 45.95 44.64 46.58 52.31 54.39 53.07 52.15 51.70 53.58 52.68 51.26 51.02 50.46 51.04 51.86 52.62 49.20 47.10 53.35 54.69 55.58 55.74 56.20 56.15 54.64 55.93 55.74 57.99 58.33 58.52 59.69 61.48
48.88 48.54 48.88 49.76 50.32 50.32 50.83 50.98 51.09 51.07 50.62 50.56 50.92 50.48 49.89 49.57 48.28 46.44 50.69 49.29 51.17 50.53 48.66 43.55 44.78 47.58 53.22 50.86 48.52 52.52 50.40 50.88 50.67 50.63 51.95 49.68 52.19 50.93 46.97 52.58 53.73 54.84 55.75 55.81 56.36 57.21 56.70 58.78 59.48 59.59 59.83 58.58 58.69 60.70
49.11 48.50 48.40 49.16 49.79 50.20 50.43 50.92 50.83 50.72 50.36 50.13 50.02 50.25 50.01 47.01 44.21 47.97 53.31 51.95 52.21 49.62 41.71 44.65 42.97 42.12 55.62 51.61 52.36 50.68 51.09 46.02 50.83 48.65 48.97 50.05 47.92 45.88 50.54 53.05 53.78 55.32 54.69 55.54 57.80 58.00 58.09 57.65 58.69 59.90 59.62 59.26 59.38 60.72
49.05 48.78 48.34 48.77 49.53 49.78 50.45 50.73 50.90 50.80 50.24 50.20 49.35 45.25 42.19 48.02 53.77 53.53 50.14 48.64 47.52 49.25 46.14 41.17 47.59 44.41 50.75 52.07 49.71 47.99 49.31 46.43 44.74 47.90 51.13 48.75 47.76 52.60 53.29 55.74 56.37 56.79 56.75 57.46 55.88 55.19 56.33 57.11 58.31 58.95 59.72 60.38 60.63 61.14
48.96 48.84 48.26 48.47 49.05 50.03 50.42 50.53 50.65 49.44 49.03 48.01 44.79 44.66 52.92 52.21 50.90 49.16 43.64 42.71 45.07 40.65 43.31 45.84 46.81 45.31 49.97 46.42 46.96 51.75 47.28 48.54 43.24 47.30 46.69 46.13 45.25 51.41 55.44 55.81 58.43 58.41 58.71 58.74 58.94 59.33 59.51 59.17 58.53 58.96 60.19 61.28 61.95 62.30
48.37 48.28 48.35 48.56 49.27 50.30 50.22 50.18 49.88 49.62 50.73 49.87 49.38 49.24 50.74 48.90 45.08 41.78 41.11 44.35 42.95 41.88 47.13 46.30 46.41 47.44 49.53 53.41 48.81 49.70 39.48 44.31 40.20 48.71 45.75 45.25 49.28 56.99 57.18 57.27 58.21 58.46 58.92 59.09 59.63 59.52 59.77 59.65 59.96 60.04 60.72 61.42 62.47 62.82
48.49 48.72 49.13 49.46 49.81 50.33 50.42 50.09 49.22 50.07 48.46 50.87 48.72 45.25 45.05 44.07 37.82 37.68 37.27 40.99 41.94 46.85 49.58 50.25 48.27 48.43 49.84 51.03 49.12 47.37 44.49 43.72 50.78 48.65 46.76 50.03 55.50 57.11 57.66 57.29 56.77 59.29 59.10 59.31 59.13 59.22 59.86 59.81 60.66 60.94 60.42 61.25 62.14 62.37
49.30 49.18 49.43 49.85 50.40 50.44 50.32 49.76 49.72 49.34 47.90 45.36 39.26 35.23 39.13 38.58 42.06 43.46 43.54 45.49 51.24 51.49 50.58 51.25 46.62 47.48 49.59 46.71 44.87 41.64 47.25 48.64 43.20 41.84 43.15 51.93 54.65 56.11 56.18 56.09 57.40 57.11 57.87 57.99 57.75 58.52 58.93 59.45 59.08 59.52 60.55 61.85 61.37 61.06
49.59 49.37 50.00 49.83 50.26 50.40 50.01 49.91 49.43 50.09 47.21 40.21 40.23 35.27 40.51 45.80 47.78 47.11 48.61 48.46 50.92 52.71 51.15 50.44 50.09 50.15 48.28 45.43 46.96 46.73 42.42 40.52 42.89 43.17 48.97 53.71 55.64 55.82 55.40 55.60 55.33 56.64 57.53 58.16 58.80 58.24 57.70 57.02 56.50 57.27 59.08 60.81 60.70 60.29
49.77 49.59 49.32 50.34 50.42 50.18 49.80 49.82 49.40 48.97 46.64 42.95 42.58 39.80 45.08 45.60 45.79 47.82 48.41 48.28 53.56 53.11 53.68 51.00 46.68 45.63 43.80 44.51 43.47 43.30 42.78 39.65 45.72 50.24 53.57 55.23 55.58 55.33 55.30 56.13 55.02 56.45 57.89 58.50 59.00 58.98 58.22 57.18 58.60 58.00 57.80 58.14 58.45 57.34
49.44 49.21 50.10 49.94 49.97 49.91 49.64 48.95 48.35 44.84 44.37 43.08 42.23 46.75 44.87 43.12 43.34 46.37 48.37 50.54 54.64 52.66 48.61 49.55 45.22 43.42 47.16 44.30 44.24 48.36 45.75 48.86 51.65 53.53 54.71 56.12 56.12 55.95 57.34 56.25 56.71 57.81 57.28 57.64 58.25 59.00 58.79 59.24 58.66 58.53 54.53 56.39 57.20 57.12
48.90 51.27 50.45 49.82 49.94 49.09 48.38 46.66 46.18 43.90 40.84 44.45 43.06 45.01 45.27 46.37 44.94 48.77 48.55 51.24 51.63 51.82 51.84 48.60 52.39 47.53 46.02 43.35 46.19 50.75 52.89 53.75 54.78 55.73 56.49 57.04 57.74 57.81 58.21 57.71 57.85 57.62 57.62 57.92 58.21 58.29 58.42 58.23 57.94 56.54 57.29 56.34 55.06 53.96
50.56 51.38 49.65 49.63 50.77 47.52 43.52 44.40 46.32 40.89 43.04 44.81 45.42 45.14 45.42 46.74 49.95 49.84 49.58 50.94 53.73 55.53 53.70 52.93 48.43 47.41 48.89 51.52 51.02 52.46 53.63 54.44 53.80 55.78 57.10 57.09 58.27 57.78 58.10 59.03 59.00 58.96 58.41 58.74 58.87 58.76 58.02 58.64 57.27 55.74 54.49 52.72 51.47 51.15
49.73 49.63 49.82 50.54 50.13 47.05 44.91 45.51 50.13 44.49 41.34 44.90 46.39 45.87 46.50 47.10 50.14 51.71 53.21 54.26 54.29 51.91 49.44 47.84 48.94 51.40 52.01 54.16 54.22 55.37 56.67 57.67 56.24 54.73 55.29 56.69 56.45 57.53 58.59 58.85 59.00 59.65 58.66 58.80 58.70 54.89 58.74 57.58 57.42 57.88 56.50 53.79 52.84 52.89
49.28 49.32 49.02 49.71 48.29 47.16 46.09 45.62 45.41 46.03 46.78 44.65 46.28 45.67 46.33 49.00 49.76 50.33 51.20 53.35 50.26 50.55 48.52 51.05 52.72 55.42 58.11 58.64 58.46 58.04 58.81 59.08 57.92 57.58 55.71 51.50 57.17 59.19 56.49 56.58 58.19 55.16 54.64 54.88 54.85 54.76 55.60 57.42 58.04 57.60 56.23 55.74 55.56 55.48
50.41 49.94 49.13 49.59 45.95 46.93 46.95 49.97 47.46 49.09 45.36 45.19 46.37 47.05 46.27 47.41 47.89 49.62 52.22 49.07 47.45 48.59 50.92 52.79 54.95 56.98 57.33 56.84 57.65 58.34 58.50 58.30 57.55 54.28 50.55 49.91 52.44 54.76 54.81 55.34 55.30 54.59 54.81 54.91 55.18 54.42 54.80 56.02 56.05 55.86 55.09 54.54 53.61 53.96
49.82 50.47 48.47 47.08 43.51 41.97 41.10 49.37 44.79 45.63 42.54 43.07 47.24 45.37 46.84 48.57 51.06 54.14 47.69 49.32 50.19 53.82 53.91 53.53 55.51 57.68 57.87 58.40 58.29 58.34 57.29 56.53 53.69 52.32 53.25 50.75 52.97 53.60 53.11 53.21 53.42 52.91 52.56 53.52 55.15 55.51 55.55 50.35 54.13 55.18 54.77 54.17 53.36 53.01
50.58 46.53 43.15 42.29 41.75 38.98 43.86 42.29 44.61 43.22 44.31 44.34 43.30 42.27 47.32 50.37 53.76 49.49 46.25 48.91 53.18 56.58 57.09 57.13 57.90 56.89 57.80 57.47 56.51 55.81 56.09 55.21 52.78 52.80 53.91 54.10 52.89 52.76 53.25 52.95 53.48 54.22 54.35 54.61 54.81 55.32 55.18 54.66 50.85 54.68 54.12 53.70 53.96 52.82
40.00 39.61 39.89 36.12 43.14 41.06 42.06 44.42 44.47 44.34 42.84 46.26 45.95 46.45 47.04 50.37 46.55 44.91 44.76 48.83 51.51 55.09 56.72 58.02 57.39 57.02 55.75 56.70 56.97 58.85 56.45 55.98 53.95 53.52 55.00 55.74 55.19 54.58 53.96 53.76 53.28 54.07 55.27 54.04 53.16 53.32 53.63 53.92 53.59 52.98 52.04 51.33 50.34 49.33
35.62 44.51 40.03 47.05 48.20 45.86 46.29 44.17 45.05 45.49 46.56 45.70 46.26 48.53 52.02 47.97 43.01 42.36 48.67 51.87 53.79 54.04 56.47 57.18 56.63 53.01 53.44 56.27 55.40 56.06 57.42 57.75 56.18 54.62 55.37 55.33 54.82 54.26 53.38 52.18 51.72 52.14 54.92 54.71 53.98 52.99 52.39 52.36 51.53 50.40 49.83 46.76 41.05 47.92
40.73 45.85 50.70 55.11 52.09 52.08 49.38 50.11 50.50 48.23 45.99 45.06 47.21 47.64 47.61 42.07 41.53 46.50 54.56 56.18 55.78 56.33 57.50 57.41 56.87 54.86 54.33 54.94 56.27 57.34 57.94 57.70 57.16 56.45 56.75 56.32 56.03 55.85 54.73 52.66 51.37 52.89 55.10 54.24 53.82 52.96 51.77 51.62 51.04 50.59 50.91 51.84 50.68 49.79
47.95 48.39 45.98 48.30 49.20 51.11 47.15 47.86 46.85 44.81 47.11 49.59 49.27 45.36 42.61 42.32 43.57 53.69 56.53 57.37 54.81 57.61 56.91 56.87 57.68 56.84 55.41 54.94 55.89 56.35 56.41 56.93 56.92 57.55 56.47 55.99 55.86 55.57 55.65 54.85 54.01 42.66 52.73 51.68 51.92 52.68 51.88 51.23 50.61 50.32 50.11 50.12 51.39 52.17
46.31 49.95 50.57 47.37 48.05 49.03 49.28 48.15 48.09 51.25 53.94 50.65 47.88 47.51 48.54 52.79 56.23 56.34 57.91 57.49 56.01 55.77 54.49 52.99 55.31 56.70 55.41 54.71 54.36 54.02 53.98 53.76 52.96 51.71 51.27 52.21 52.86 52.27 53.92 54.68 54.91 55.48 54.29 51.85 37.22 44.68 48.78 49.01 49.45 49.58 49.84 50.84 51.58 51.55
48.70 52.71 49.01 48.76 47.82 45.49 49.59 53.44 51.81 52.84 54.47 54.36 54.08 52.73 52.57 53.15 55.82 58.19 58.29 55.51 54.97 53.73 54.33 54.81 55.11 54.57 53.40 53.28 52.29 51.91 52.75 52.96 52.69 51.57 50.40 49.69 50.32 52.70 53.71 54.42 55.65 55.66 54.73 54.20 53.23 50.74 39.63 46.51 46.46 48.95 49.80 50.46 51.26 49.93
52.84 51.02 49.55 49.67 47.40 50.45 51.27 52.41 52.71 53.05 52.99 51.58 52.91 50.59 50.10 52.80 54.73 56.34 56.27 56.43 57.28 57.42 56.35 54.60 54.06 53.86 52.85 51.86 51.56 51.52 50.56 52.60 52.62 52.36 52.43 52.71 52.58 52.57 52.89 53.87 54.86 54.31 53.66 52.79 52.26 51.63 50.61 50.08 50.94 50.27 49.89 49.29 49.05 48.03
50.54 48.96 47.80 46.02 47.30 51.07 52.31 50.87 49.76 49.39 49.56 49.67 49.10 51.99 52.18 51.76 50.31 53.58 55.71 56.00 55.74 55.72 49.79 52.43 53.95 52.95 53.96 53.59 53.19 52.30 44.44 52.63 52.58 52.47 52.44 52.40 52.42 52.88 53.27 53.41 53.10 52.84 52.27 51.84 51.93 51.42 50.76 49.52 49.59 49.50 49.19 48.88 48.70 48.73
50.21 49.55 49.29 48.44 47.87 47.16 49.60 49.47 49.23 48.41 50.50 50.25 50.64 51.87 51.20 51.01 49.53 54.14 58.24 57.87 55.91 55.33 55.50 55.23 55.67 55.04 54.51 54.20 53.39 52.62 49.53 52.87 47.44 40.03 40.80 39.25 38.06 41.91 49.13 52.75 52.63 52.76 51.74 51.65 51.41 50.93 50.06 49.11 49.54 49.01 48.99 48.96 48.89 48.87

GFSWCAN_sfc_wetblb_120.txt.gz
Wetbulb
51.63 51.73 51.92 52.34 52.02 52.34 52.36 52.15 52.00 52.21 52.35 52.21 51.51 51.11 51.17 50.74 50.35 49.42 51.17 56.79 53.08 50.06 51.63 53.17 53.29 50.79 52.05 53.23 50.87 53.52 53.18 53.25 52.05 49.86 48.84 48.43 46.91 48.44 48.26 51.94 50.92 50.23 48.87 47.72 49.05 45.29 43.24 58.99 57.49 53.09 57.83 60.06 59.04 58.90
51.58 51.75 51.95 52.10 52.03 51.98 52.25 52.20 52.05 52.05 52.11 52.14 51.67 51.34 51.23 50.89 50.38 49.54 49.26 56.52 56.43 51.25 50.97 54.77 54.85 55.55 54.68 53.95 51.87 52.97 52.95 54.08 55.01 51.86 51.27 50.27 47.77 49.46 50.54 45.09 54.63 48.94 53.09 50.27 51.89 51.11 58.76 59.42 58.20 59.96 60.30 58.64 59.04 59.11
50.50 51.31 51.54 51.52 51.76 51.82 51.86 52.03 52.34 52.09 52.13 52.14 52.15 51.59 51.33 51.31 51.08 49.46 48.87 52.06 52.52 49.03 50.01 51.39 50.70 54.88 56.21 54.96 55.03 49.07 52.21 55.32 54.94 56.64 52.80 52.27 49.66 52.85 47.70 47.63 51.30 53.93 56.67 52.11 54.26 55.28 56.69 58.37 61.05 59.99 59.70 58.52 59.06 59.81
50.34 51.04 51.29 51.32 51.39 51.62 51.84 51.84 51.90 52.09 52.07 52.15 52.10 51.84 51.36 51.88 51.41 50.19 48.55 52.23 51.54 49.30 44.68 48.58 55.35 53.67 57.04 56.76 55.69 54.18 52.36 54.18 54.62 54.41 51.78 50.97 48.91 53.64 49.93 51.00 51.01 52.68 54.15 52.85 53.82 55.85 56.17 57.19 57.46 59.23 58.86 60.08 59.00 59.26
49.84 50.18 50.79 50.59 50.84 51.09 51.49 51.53 51.55 51.71 51.58 52.02 52.15 51.75 51.39 51.89 51.52 50.38 50.57 51.96 53.22 48.34 44.06 47.50 51.50 53.95 55.64 55.59 54.93 55.13 53.59 52.08 51.01 49.56 49.18 48.23 51.20 50.54 51.72 51.96 49.68 53.31 53.74 49.82 50.06 55.61 55.56 58.65 59.30 58.37 57.62 57.74 58.46 58.07
49.57 49.22 49.71 49.85 50.24 50.74 50.78 51.13 51.31 51.65 51.80 51.92 51.90 51.39 51.48 51.77 50.55 48.81 46.03 53.03 53.77 52.49 45.98 42.87 52.50 51.80 53.40 54.23 52.76 52.28 53.43 52.93 51.27 49.66 49.32 50.98 53.42 50.58 46.53 47.10 53.16 53.89 55.47 55.50 55.05 56.44 56.84 57.79 58.47 58.31 57.33 57.43 58.44 58.34
49.49 49.27 48.96 49.22 49.70 50.46 50.81 51.17 51.26 51.53 51.42 51.54 51.67 51.43 51.48 50.98 49.59 44.61 43.86 46.38 50.29 52.06 45.42 43.85 46.61 52.31 52.76 53.05 52.16 51.52 52.99 51.20 51.16 50.05 49.75 49.39 50.02 50.61 47.43 46.02 52.14 54.12 55.51 56.18 57.50 57.03 54.94 55.95 54.90 57.38 57.95 58.44 57.78 58.49
49.07 49.41 48.92 48.89 49.62 50.45 50.51 50.98 51.36 51.31 50.87 50.81 51.13 50.66 50.43 50.24 48.69 46.12 50.53 50.24 50.72 48.51 47.69 43.32 44.80 47.68 53.97 50.33 49.38 52.81 49.44 50.41 49.97 49.31 50.29 48.66 49.58 50.55 45.71 50.45 52.14 54.62 56.42 56.12 56.27 57.33 56.54 57.34 57.71 57.66 59.48 59.25 57.46 57.99
49.03 49.44 48.78 48.42 49.20 50.10 50.34 50.48 50.94 51.21 50.75 50.39 50.27 50.06 49.96 47.25 45.27 48.61 53.66 51.73 52.84 48.94 44.38 44.37 41.88 41.77 53.48 51.24 51.68 51.61 51.80 46.07 50.61 48.05 48.45 49.50 47.30 44.14 48.83 51.34 53.20 54.45 55.58 55.56 56.06 56.04 55.94 55.43 55.94 58.73 58.64 59.19 58.36 58.08
48.59 49.34 49.11 48.32 48.90 49.72 49.99 50.57 51.22 51.08 50.80 50.41 49.09 44.76 41.89 46.74 53.02 52.71 49.32 47.11 47.33 48.51 47.43 42.62 46.76 43.00 48.87 48.80 48.89 49.48 49.29 46.39 44.58 47.15 50.41 47.38 46.24 51.03 51.68 54.26 54.53 53.75 55.74 55.74 55.03 53.66 55.26 55.82 57.16 58.05 58.29 58.55 59.87 59.32
48.87 49.45 49.35 48.53 48.83 49.28 49.92 50.76 51.12 50.39 49.42 47.80 45.19 43.33 51.48 52.61 49.53 47.99 43.36 41.84 44.59 42.18 46.03 45.94 46.58 44.27 49.14 44.15 46.60 50.47 45.34 45.98 41.54 44.93 43.95 43.82 44.35 50.08 53.83 53.70 52.03 53.36 53.34 57.63 57.61 57.52 57.99 58.00 57.19 57.74 58.45 59.52 60.19 55.09
49.08 49.28 49.27 48.56 48.57 49.29 50.21 50.48 50.41 49.24 49.85 49.04 47.79 50.81 51.22 48.95 45.55 41.60 41.21 43.79 42.39 41.31 46.94 46.02 47.31 48.32 48.59 50.96 49.16 49.29 43.95 45.21 40.57 48.51 44.28 41.41 48.02 51.94 51.30 52.96 54.76 53.64 53.72 56.47 58.13 57.91 59.14 59.08 58.91 59.49 59.06 59.26 58.18 56.52
48.54 48.46 48.82 48.73 48.95 49.54 50.27 50.47 49.85 50.10 49.35 50.90 47.87 44.15 43.67 44.60 37.50 37.28 37.02 40.77 41.97 46.76 49.43 50.22 48.16 49.54 50.35 50.21 48.69 47.10 41.64 38.44 45.15 42.70 41.31 44.74 50.93 50.27 49.13 49.00 56.61 58.16 59.19 58.73 58.75 59.47 59.24 59.92 60.31 59.95 59.81 61.36 61.29 59.42
48.75 48.96 49.63 49.59 49.62 50.17 50.41 50.33 50.17 49.51 47.76 43.74 41.14 36.36 38.47 37.78 41.44 43.00 42.66 42.22 46.71 49.91 49.07 49.61 49.38 48.53 49.69 47.37 48.15 41.71 45.44 46.94 40.60 40.26 43.00 50.57 53.23 54.19 54.33 56.98 57.90 57.72 57.86 58.17 58.29 58.57 59.08 59.14 58.87 59.93 60.79 61.06 60.63 58.67
49.21 49.30 49.41 49.65 50.37 50.73 50.38 50.25 49.94 50.02 47.03 41.62 40.53 35.39 40.35 45.09 45.95 48.02 49.06 48.09 49.58 52.13 50.80 50.01 50.14 50.01 47.36 45.45 47.11 44.10 42.13 41.13 43.35 40.89 48.10 52.20 54.66 55.73 55.87 55.90 56.11 56.44 57.17 58.23 58.23 57.28 57.64 58.25 58.22 58.72 58.77 56.63 56.56 59.09
49.78 49.53 49.59 50.23 50.53 50.52 50.02 49.64 49.61 50.21 46.03 43.29 42.06 40.91 45.33 45.09 45.94 47.81 48.41 48.14 52.23 52.22 53.40 51.65 47.19 45.33 44.38 46.18 43.73 42.19 41.32 38.00 43.29 50.06 53.37 55.04 55.17 54.74 55.46 55.32 55.53 57.52 57.83 56.77 56.87 58.27 57.13 57.83 56.95 56.42 56.69 56.92 57.64 57.80
49.13 49.48 50.42 50.08 50.25 49.98 49.73 49.76 48.02 43.34 43.65 43.26 43.62 46.90 45.32 45.19 45.68 46.88 49.26 49.86 55.20 51.47 46.55 48.42 43.69 42.26 46.15 42.90 41.96 42.94 43.45 48.35 52.27 53.98 56.31 57.09 56.00 56.05 55.35 54.53 54.90 57.71 57.97 59.10 59.51 58.75 58.44 58.83 58.95 56.28 56.02 56.86 56.51 56.72
47.84 51.37 50.35 50.03 50.19 49.43 49.35 46.86 45.98 44.15 41.09 45.34 42.89 46.37 49.25 46.97 45.99 47.56 49.18 52.14 51.42 50.42 50.64 47.00 50.81 43.63 43.26 43.37 44.10 50.08 52.87 54.23 55.69 56.28 56.48 56.92 56.81 56.67 56.95 57.03 56.79 57.32 57.54 58.62 58.92 59.01 58.97 57.94 57.76 57.29 57.04 56.82 56.53 55.09
50.55 50.91 49.95 49.74 50.45 48.06 44.28 44.50 46.44 40.28 43.67 46.65 47.43 46.93 45.12 46.17 48.70 50.47 50.61 51.00 52.44 54.27 51.54 51.44 47.91 46.88 47.66 50.29 50.51 53.24 54.81 55.25 54.05 56.05 55.85 57.58 58.92 58.02 57.96 58.61 59.03 58.90 58.00 58.18 59.32 59.82 59.49 58.60 56.18 55.53 54.46 52.59 51.01 51.45
50.23 50.05 50.24 50.52 50.20 45.75 43.26 44.00 48.35 44.08 41.49 44.63 46.00 44.51 45.99 46.31 48.91 51.01 53.00 54.03 53.55 52.15 49.41 48.09 48.14 51.41 52.13 55.09 57.53 55.76 56.06 58.60 57.09 55.05 53.72 56.48 59.67 59.57 57.85 57.35 59.91 60.53 59.31 60.01 59.18 55.06 57.58 56.79 56.74 56.31 55.70 54.80 54.48 52.96
49.39 49.56 49.49 49.49 48.11 47.11 45.01 44.87 45.03 45.36 45.48 44.22 46.54 45.77 45.87 51.23 50.27 49.68 49.96 53.32 50.63 48.46 47.69 51.72 52.74 55.00 58.26 60.01 58.97 58.60 58.17 57.67 56.34 55.91 54.97 52.79 57.89 59.58 56.65 55.23 56.16 56.55 55.10 56.38 56.19 55.80 54.74 56.88 56.87 56.35 55.86 55.30 55.72 54.56
49.90 49.63 49.38 48.16 44.71 46.33 46.34 48.93 46.28 49.12 45.29 45.39 45.45 47.59 46.65 46.63 47.47 48.49 53.14 50.19 48.87 50.81 53.00 52.94 53.35 56.84 57.55 56.95 58.24 58.09 59.53 57.51 56.59 53.61 50.48 52.27 52.90 53.25 53.62 55.26 55.36 54.94 55.19 55.81 56.28 55.34 55.21 55.13 57.04 57.16 55.52 53.86 53.24 53.54
49.39 50.17 48.60 47.43 43.35 42.03 42.07 49.45 44.36 46.01 41.68 43.55 47.22 45.18 46.27 47.85 50.69 54.50 49.06 49.83 50.48 55.53 56.66 57.24 57.29 58.22 58.09 58.65 58.32 58.08 58.39 56.82 53.89 53.41 52.71 52.85 53.84 53.90 53.32 53.57 54.09 53.48 53.16 54.24 56.70 55.62 54.59 49.38 53.72 54.46 54.23 53.74 53.55 52.55
50.64 46.61 43.35 42.21 42.13 38.41 43.88 42.25 45.30 44.16 46.99 46.75 46.79 44.51 46.55 49.51 53.42 49.99 46.82 49.93 53.12 57.71 57.82 57.72 58.46 57.10 58.05 58.16 54.30 54.93 54.63 54.69 54.02 55.04 55.82 54.02 52.73 52.73 53.47 53.57 54.43 54.60 54.74 55.07 55.52 55.27 54.85 54.56 51.06 54.24 53.50 53.18 53.37 51.78
40.32 40.72 40.56 38.84 41.76 40.03 40.71 44.48 46.24 45.73 43.58 46.43 46.73 47.04 47.12 51.21 46.86 46.06 46.56 50.00 52.36 53.04 55.93 57.99 58.50 58.50 55.45 56.18 52.44 55.67 59.09 57.52 55.46 53.85 55.98 56.04 55.11 54.21 53.70 53.67 53.79 54.59 55.64 54.12 53.33 53.53 53.56 53.94 53.41 52.46 51.58 50.91 50.33 49.56
35.46 42.66 40.98 42.31 44.90 44.08 46.61 44.42 45.60 46.06 46.95 46.03 46.92 49.86 50.70 48.18 44.78 44.53 48.88 52.09 54.54 56.08 56.16 56.62 55.44 55.80 54.11 53.34 51.61 52.54 53.21 55.80 56.43 54.40 54.82 55.26 54.93 53.98 53.36 52.34 51.79 52.60 55.14 54.92 54.02 52.88 52.49 52.24 51.39 50.74 49.66 47.25 42.02 48.18
39.15 47.12 50.79 52.07 50.54 49.95 48.38 49.82 50.33 48.38 46.60 45.24 47.49 48.61 47.30 42.85 42.76 48.99 54.63 57.34 56.88 58.83 57.59 55.09 56.62 54.27 53.70 54.55 56.62 57.17 57.34 57.52 57.41 55.86 56.73 56.10 55.98 55.84 54.43 52.47 51.72 52.79 55.12 54.35 53.82 52.96 51.88 51.43 50.98 50.59 50.69 51.50 50.49 50.11
48.27 49.90 47.75 50.07 50.06 51.47 48.44 47.82 47.37 46.58 47.53 49.96 49.96 45.58 43.91 44.19 45.63 53.97 56.07 57.62 57.78 57.72 57.27 57.68 57.76 56.69 56.29 56.12 55.65 55.30 55.88 56.69 57.20 57.05 56.53 55.99 55.84 55.23 55.76 54.84 53.66 44.36 52.52 51.83 52.33 52.57 51.81 51.49 50.86 50.64 50.21 50.14 50.61 51.49
50.31 52.80 52.45 48.66 49.53 49.53 48.84 48.38 48.02 50.29 52.30 51.38 49.31 48.30 49.42 53.80 55.48 55.83 57.19 56.28 56.19 56.05 55.61 54.57 55.15 55.67 55.09 54.89 54.68 54.26 54.06 53.90 53.42 51.83 51.83 51.34 51.25 52.11 54.18 54.81 54.47 54.42 54.16 52.02 39.47 46.31 49.69 49.85 49.80 49.93 50.64 50.76 51.58 51.59
48.66 53.40 49.74 49.35 48.24 46.24 49.96 52.08 51.01 53.01 53.87 53.73 53.76 52.68 52.76 53.94 56.04 55.77 57.16 56.20 54.50 53.70 54.67 55.09 55.09 54.39 53.38 53.32 52.68 52.47 53.36 53.53 53.17 51.84 50.49 50.25 51.07 52.98 53.55 53.90 54.28 54.45 54.02 53.66 52.22 50.49 40.83 46.64 47.54 49.27 49.18 50.81 51.04 50.26
52.48 52.05 49.47 48.91 47.01 49.69 52.91 54.01 53.48 54.15 53.53 53.03 53.90 51.64 51.69 53.48 55.01 56.61 56.21 56.47 56.62 56.59 54.96 54.59 54.46 54.15 52.98 51.96 51.98 52.08 51.13 53.02 53.16 52.89 52.28 52.63 52.57 52.69 52.85 53.27 53.74 53.57 53.00 52.53 52.00 51.52 51.24 50.43 50.65 50.46 50.23 49.99 49.91 48.64
50.79 49.32 49.04 47.66 47.95 52.46 54.17 52.69 52.58 51.95 52.08 52.18 51.64 53.02 52.90 52.62 50.70 53.47 55.58 56.51 55.86 54.55 50.64 53.27 54.07 53.39 54.24 54.26 53.72 52.89 45.98 52.31 52.14 51.86 52.11 52.29 52.80 53.18 53.20 53.46 53.01 52.87 52.43 52.01 52.07 51.78 51.46 50.55 50.17 50.13 50.08 49.97 49.94 49.90
49.88 50.40 51.60 50.59 50.28 48.82 51.41 51.51 50.46 49.40 51.40 50.40 50.88 51.54 51.59 51.26 49.78 54.19 57.93 57.47 55.84 55.29 55.33 55.34 55.50 55.49 55.37 54.77 53.95 52.69 49.20 52.99 48.59 41.43 40.73 40.42 39.49 43.05 49.39 52.44 52.59 52.90 52.75 52.34 52.49 51.82 50.97 50.30 50.32 50.31 50.02 50.14 49.87 49.84